<?xml version="1.0" encoding="UTF-8" standalone="no" ?>
<gpx xmlns="http://www.topografix.com/GPX/1/1" xmlns:xsi="http://www.w3.org/2001/XMLSchema-instance" xsi:schemaLocation="http://www.topografix.com/GPX/1/1 http://www.topografix.com/GPX/1/1/gpx.xsd" version="1.1" creator="VisuGPX - https://www.visugpx.com">
  <metadata>
    <name>Rodez Séverac juin 2016</name>
    <desc><![CDATA[Marche au long cours au mois de juin
départ de Rodez retour en bus]]></desc>
  </metadata>
  <trk>
    <name><![CDATA[2016-06-23 16:25:40]]></name>
    <trkseg>
      <trkpt lat="44.3504" lon="2.578">
        <ele>594.45</ele>
        <time>2016-06-23T02:02:34Z</time>
      </trkpt>
      <trkpt lat="44.35042" lon="2.57798">
        <ele>594.45</ele>
        <time>2016-06-23T02:02:35Z</time>
      </trkpt>
      <trkpt lat="44.35095" lon="2.57779">
        <ele>594.2</ele>
        <time>2016-06-23T02:03:12Z</time>
      </trkpt>
      <trkpt lat="44.35115" lon="2.57781">
        <ele>594.01</ele>
        <time>2016-06-23T02:03:21Z</time>
      </trkpt>
      <trkpt lat="44.35123" lon="2.57786">
        <ele>593.89</ele>
        <time>2016-06-23T02:03:26Z</time>
      </trkpt>
      <trkpt lat="44.3513" lon="2.5779">
        <ele>593.71</ele>
        <time>2016-06-23T02:03:31Z</time>
      </trkpt>
      <trkpt lat="44.35137" lon="2.57792">
        <ele>593.65</ele>
        <time>2016-06-23T02:03:34Z</time>
      </trkpt>
      <trkpt lat="44.35139" lon="2.57793">
        <ele>593.65</ele>
        <time>2016-06-23T02:03:36Z</time>
      </trkpt>
      <trkpt lat="44.35155" lon="2.57792">
        <ele>593.4</ele>
        <time>2016-06-23T02:03:49Z</time>
      </trkpt>
      <trkpt lat="44.35164" lon="2.57789">
        <ele>592.84</ele>
        <time>2016-06-23T02:03:56Z</time>
      </trkpt>
      <trkpt lat="44.35182" lon="2.57782">
        <ele>592.68</ele>
        <time>2016-06-23T02:04:07Z</time>
      </trkpt>
      <trkpt lat="44.35186" lon="2.5778">
        <ele>592.72</ele>
        <time>2016-06-23T02:04:09Z</time>
      </trkpt>
      <trkpt lat="44.35192" lon="2.57779">
        <ele>593.07</ele>
        <time>2016-06-23T02:04:12Z</time>
      </trkpt>
      <trkpt lat="44.35217" lon="2.57778">
        <ele>593.36</ele>
        <time>2016-06-23T02:04:20Z</time>
      </trkpt>
      <trkpt lat="44.35219" lon="2.57777">
        <ele>593.27</ele>
        <time>2016-06-23T02:04:22Z</time>
      </trkpt>
      <trkpt lat="44.35228" lon="2.57779">
        <ele>592.85</ele>
        <time>2016-06-23T02:04:28Z</time>
      </trkpt>
      <trkpt lat="44.35231" lon="2.57779">
        <ele>592.76</ele>
        <time>2016-06-23T02:04:29Z</time>
      </trkpt>
      <trkpt lat="44.35234" lon="2.57779">
        <ele>592.69</ele>
        <time>2016-06-23T02:04:30Z</time>
      </trkpt>
      <trkpt lat="44.35245" lon="2.57782">
        <ele>591.91</ele>
        <time>2016-06-23T02:04:42Z</time>
      </trkpt>
      <trkpt lat="44.35252" lon="2.57784">
        <ele>591.75</ele>
        <time>2016-06-23T02:04:45Z</time>
      </trkpt>
      <trkpt lat="44.35254" lon="2.57785">
        <ele>591.67</ele>
        <time>2016-06-23T02:04:46Z</time>
      </trkpt>
      <trkpt lat="44.35256" lon="2.57785">
        <ele>591.6</ele>
        <time>2016-06-23T02:04:47Z</time>
      </trkpt>
      <trkpt lat="44.35258" lon="2.57786">
        <ele>591.52</ele>
        <time>2016-06-23T02:04:48Z</time>
      </trkpt>
      <trkpt lat="44.35259" lon="2.57786">
        <ele>591.45</ele>
        <time>2016-06-23T02:04:49Z</time>
      </trkpt>
      <trkpt lat="44.35286" lon="2.57789">
        <ele>590.8</ele>
        <time>2016-06-23T02:05:02Z</time>
      </trkpt>
      <trkpt lat="44.35303" lon="2.57777">
        <ele>589.55</ele>
        <time>2016-06-23T02:05:16Z</time>
      </trkpt>
      <trkpt lat="44.35316" lon="2.5776">
        <ele>588.64</ele>
        <time>2016-06-23T02:05:28Z</time>
      </trkpt>
      <trkpt lat="44.35333" lon="2.57744">
        <ele>586.51</ele>
        <time>2016-06-23T02:05:40Z</time>
      </trkpt>
      <trkpt lat="44.35343" lon="2.57721">
        <ele>584.71</ele>
        <time>2016-06-23T02:05:52Z</time>
      </trkpt>
      <trkpt lat="44.35344" lon="2.5772">
        <ele>584.53</ele>
        <time>2016-06-23T02:05:53Z</time>
      </trkpt>
      <trkpt lat="44.35344" lon="2.57717">
        <ele>584.35</ele>
        <time>2016-06-23T02:05:54Z</time>
      </trkpt>
      <trkpt lat="44.35344" lon="2.57714">
        <ele>584.35</ele>
        <time>2016-06-23T02:05:55Z</time>
      </trkpt>
      <trkpt lat="44.35345" lon="2.57713">
        <ele>584.13</ele>
        <time>2016-06-23T02:05:56Z</time>
      </trkpt>
      <trkpt lat="44.35354" lon="2.57703">
        <ele>581.84</ele>
        <time>2016-06-23T02:06:04Z</time>
      </trkpt>
      <trkpt lat="44.35358" lon="2.577">
        <ele>581.34</ele>
        <time>2016-06-23T02:06:07Z</time>
      </trkpt>
      <trkpt lat="44.35359" lon="2.57699">
        <ele>581.21</ele>
        <time>2016-06-23T02:06:08Z</time>
      </trkpt>
      <trkpt lat="44.3536" lon="2.57698">
        <ele>581.09</ele>
        <time>2016-06-23T02:06:09Z</time>
      </trkpt>
      <trkpt lat="44.35362" lon="2.57697">
        <ele>580.94</ele>
        <time>2016-06-23T02:06:10Z</time>
      </trkpt>
      <trkpt lat="44.35363" lon="2.57696">
        <ele>580.78</ele>
        <time>2016-06-23T02:06:11Z</time>
      </trkpt>
      <trkpt lat="44.35368" lon="2.57692">
        <ele>580.26</ele>
        <time>2016-06-23T02:06:14Z</time>
      </trkpt>
      <trkpt lat="44.35371" lon="2.5769">
        <ele>579.87</ele>
        <time>2016-06-23T02:06:16Z</time>
      </trkpt>
      <trkpt lat="44.35373" lon="2.57689">
        <ele>579.66</ele>
        <time>2016-06-23T02:06:17Z</time>
      </trkpt>
      <trkpt lat="44.35374" lon="2.57688">
        <ele>579.48</ele>
        <time>2016-06-23T02:06:18Z</time>
      </trkpt>
      <trkpt lat="44.35375" lon="2.57688">
        <ele>579.31</ele>
        <time>2016-06-23T02:06:19Z</time>
      </trkpt>
      <trkpt lat="44.35393" lon="2.57679">
        <ele>577.26</ele>
        <time>2016-06-23T02:06:32Z</time>
      </trkpt>
      <trkpt lat="44.3541" lon="2.57671">
        <ele>575.31</ele>
        <time>2016-06-23T02:06:44Z</time>
      </trkpt>
      <trkpt lat="44.35428" lon="2.57661">
        <ele>573.03</ele>
        <time>2016-06-23T02:06:58Z</time>
      </trkpt>
      <trkpt lat="44.35447" lon="2.57654">
        <ele>571.46</ele>
        <time>2016-06-23T02:07:11Z</time>
      </trkpt>
      <trkpt lat="44.35457" lon="2.57647">
        <ele>570.6</ele>
        <time>2016-06-23T02:07:19Z</time>
      </trkpt>
      <trkpt lat="44.35458" lon="2.57646">
        <ele>570.47</ele>
        <time>2016-06-23T02:07:20Z</time>
      </trkpt>
      <trkpt lat="44.35458" lon="2.57645">
        <ele>570.35</ele>
        <time>2016-06-23T02:07:21Z</time>
      </trkpt>
      <trkpt lat="44.35464" lon="2.57642">
        <ele>569.71</ele>
        <time>2016-06-23T02:07:27Z</time>
      </trkpt>
      <trkpt lat="44.35466" lon="2.57642">
        <ele>569.58</ele>
        <time>2016-06-23T02:07:28Z</time>
      </trkpt>
      <trkpt lat="44.35467" lon="2.57641">
        <ele>569.45</ele>
        <time>2016-06-23T02:07:29Z</time>
      </trkpt>
      <trkpt lat="44.35469" lon="2.5764">
        <ele>569.34</ele>
        <time>2016-06-23T02:07:30Z</time>
      </trkpt>
      <trkpt lat="44.3547" lon="2.5764">
        <ele>569.22</ele>
        <time>2016-06-23T02:07:31Z</time>
      </trkpt>
      <trkpt lat="44.35472" lon="2.57639">
        <ele>569.12</ele>
        <time>2016-06-23T02:07:32Z</time>
      </trkpt>
      <trkpt lat="44.35491" lon="2.57631">
        <ele>567.94</ele>
        <time>2016-06-23T02:07:45Z</time>
      </trkpt>
      <trkpt lat="44.35511" lon="2.57621">
        <ele>566.91</ele>
        <time>2016-06-23T02:07:59Z</time>
      </trkpt>
      <trkpt lat="44.35517" lon="2.57616">
        <ele>566.93</ele>
        <time>2016-06-23T02:08:08Z</time>
      </trkpt>
      <trkpt lat="44.35519" lon="2.57616">
        <ele>566.94</ele>
        <time>2016-06-23T02:08:09Z</time>
      </trkpt>
      <trkpt lat="44.35521" lon="2.57615">
        <ele>566.92</ele>
        <time>2016-06-23T02:08:10Z</time>
      </trkpt>
      <trkpt lat="44.35522" lon="2.57615">
        <ele>566.88</ele>
        <time>2016-06-23T02:08:11Z</time>
      </trkpt>
      <trkpt lat="44.35524" lon="2.57614">
        <ele>566.84</ele>
        <time>2016-06-23T02:08:12Z</time>
      </trkpt>
      <trkpt lat="44.35526" lon="2.57613">
        <ele>566.8</ele>
        <time>2016-06-23T02:08:13Z</time>
      </trkpt>
      <trkpt lat="44.35551" lon="2.57609">
        <ele>566.07</ele>
        <time>2016-06-23T02:08:28Z</time>
      </trkpt>
      <trkpt lat="44.35557" lon="2.57608">
        <ele>565.82</ele>
        <time>2016-06-23T02:08:32Z</time>
      </trkpt>
      <trkpt lat="44.35575" lon="2.57625">
        <ele>565.08</ele>
        <time>2016-06-23T02:08:43Z</time>
      </trkpt>
      <trkpt lat="44.35576" lon="2.57629">
        <ele>565.06</ele>
        <time>2016-06-23T02:08:44Z</time>
      </trkpt>
      <trkpt lat="44.35605" lon="2.57681">
        <ele>565.11</ele>
        <time>2016-06-23T02:08:59Z</time>
      </trkpt>
      <trkpt lat="44.35606" lon="2.57685">
        <ele>565.05</ele>
        <time>2016-06-23T02:09:01Z</time>
      </trkpt>
      <trkpt lat="44.35605" lon="2.57688">
        <ele>565.02</ele>
        <time>2016-06-23T02:09:02Z</time>
      </trkpt>
      <trkpt lat="44.35605" lon="2.5769">
        <ele>564.98</ele>
        <time>2016-06-23T02:09:03Z</time>
      </trkpt>
      <trkpt lat="44.35606" lon="2.57692">
        <ele>564.95</ele>
        <time>2016-06-23T02:09:04Z</time>
      </trkpt>
      <trkpt lat="44.35603" lon="2.57695">
        <ele>564.82</ele>
        <time>2016-06-23T02:09:08Z</time>
      </trkpt>
      <trkpt lat="44.35601" lon="2.57696">
        <ele>564.79</ele>
        <time>2016-06-23T02:09:09Z</time>
      </trkpt>
      <trkpt lat="44.356" lon="2.57698">
        <ele>564.77</ele>
        <time>2016-06-23T02:09:10Z</time>
      </trkpt>
      <trkpt lat="44.356" lon="2.577">
        <ele>564.77</ele>
        <time>2016-06-23T02:09:11Z</time>
      </trkpt>
      <trkpt lat="44.356" lon="2.57702">
        <ele>564.77</ele>
        <time>2016-06-23T02:09:12Z</time>
      </trkpt>
      <trkpt lat="44.35599" lon="2.57703">
        <ele>564.78</ele>
        <time>2016-06-23T02:09:13Z</time>
      </trkpt>
      <trkpt lat="44.356" lon="2.57705">
        <ele>564.79</ele>
        <time>2016-06-23T02:09:14Z</time>
      </trkpt>
      <trkpt lat="44.356" lon="2.57707">
        <ele>564.81</ele>
        <time>2016-06-23T02:09:15Z</time>
      </trkpt>
      <trkpt lat="44.35603" lon="2.57708">
        <ele>564.83</ele>
        <time>2016-06-23T02:09:16Z</time>
      </trkpt>
      <trkpt lat="44.35604" lon="2.5771">
        <ele>564.85</ele>
        <time>2016-06-23T02:09:17Z</time>
      </trkpt>
      <trkpt lat="44.35603" lon="2.57712">
        <ele>564.86</ele>
        <time>2016-06-23T02:09:18Z</time>
      </trkpt>
      <trkpt lat="44.35602" lon="2.57714">
        <ele>564.88</ele>
        <time>2016-06-23T02:09:19Z</time>
      </trkpt>
      <trkpt lat="44.35601" lon="2.57716">
        <ele>564.89</ele>
        <time>2016-06-23T02:09:20Z</time>
      </trkpt>
      <trkpt lat="44.35602" lon="2.57717">
        <ele>564.9</ele>
        <time>2016-06-23T02:09:21Z</time>
      </trkpt>
      <trkpt lat="44.35602" lon="2.5772">
        <ele>564.9</ele>
        <time>2016-06-23T02:09:22Z</time>
      </trkpt>
      <trkpt lat="44.35602" lon="2.57722">
        <ele>564.9</ele>
        <time>2016-06-23T02:09:23Z</time>
      </trkpt>
      <trkpt lat="44.35603" lon="2.57723">
        <ele>564.9</ele>
        <time>2016-06-23T02:09:24Z</time>
      </trkpt>
      <trkpt lat="44.35604" lon="2.57725">
        <ele>564.89</ele>
        <time>2016-06-23T02:09:25Z</time>
      </trkpt>
      <trkpt lat="44.35605" lon="2.57727">
        <ele>564.88</ele>
        <time>2016-06-23T02:09:26Z</time>
      </trkpt>
      <trkpt lat="44.35605" lon="2.57729">
        <ele>564.86</ele>
        <time>2016-06-23T02:09:27Z</time>
      </trkpt>
      <trkpt lat="44.35608" lon="2.5773">
        <ele>564.83</ele>
        <time>2016-06-23T02:09:28Z</time>
      </trkpt>
      <trkpt lat="44.35609" lon="2.57733">
        <ele>564.81</ele>
        <time>2016-06-23T02:09:29Z</time>
      </trkpt>
      <trkpt lat="44.35609" lon="2.57734">
        <ele>564.8</ele>
        <time>2016-06-23T02:09:30Z</time>
      </trkpt>
      <trkpt lat="44.35609" lon="2.57736">
        <ele>564.78</ele>
        <time>2016-06-23T02:09:31Z</time>
      </trkpt>
      <trkpt lat="44.35611" lon="2.57738">
        <ele>564.76</ele>
        <time>2016-06-23T02:09:32Z</time>
      </trkpt>
      <trkpt lat="44.35611" lon="2.5774">
        <ele>564.76</ele>
        <time>2016-06-23T02:09:33Z</time>
      </trkpt>
      <trkpt lat="44.35611" lon="2.57743">
        <ele>564.76</ele>
        <time>2016-06-23T02:09:34Z</time>
      </trkpt>
      <trkpt lat="44.35621" lon="2.57768">
        <ele>564.62</ele>
        <time>2016-06-23T02:09:47Z</time>
      </trkpt>
      <trkpt lat="44.35632" lon="2.57787">
        <ele>564.42</ele>
        <time>2016-06-23T02:09:58Z</time>
      </trkpt>
      <trkpt lat="44.35633" lon="2.57788">
        <ele>564.39</ele>
        <time>2016-06-23T02:09:59Z</time>
      </trkpt>
      <trkpt lat="44.35633" lon="2.5779">
        <ele>564.36</ele>
        <time>2016-06-23T02:10:00Z</time>
      </trkpt>
      <trkpt lat="44.35641" lon="2.57799">
        <ele>564.22</ele>
        <time>2016-06-23T02:10:06Z</time>
      </trkpt>
      <trkpt lat="44.35643" lon="2.57801">
        <ele>564.21</ele>
        <time>2016-06-23T02:10:07Z</time>
      </trkpt>
      <trkpt lat="44.35644" lon="2.57803">
        <ele>564.2</ele>
        <time>2016-06-23T02:10:08Z</time>
      </trkpt>
      <trkpt lat="44.35644" lon="2.57805">
        <ele>564.2</ele>
        <time>2016-06-23T02:10:09Z</time>
      </trkpt>
      <trkpt lat="44.35645" lon="2.57807">
        <ele>564.18</ele>
        <time>2016-06-23T02:10:10Z</time>
      </trkpt>
      <trkpt lat="44.35648" lon="2.57812">
        <ele>564.2</ele>
        <time>2016-06-23T02:10:13Z</time>
      </trkpt>
      <trkpt lat="44.35658" lon="2.57839">
        <ele>564.5</ele>
        <time>2016-06-23T02:10:27Z</time>
      </trkpt>
      <trkpt lat="44.35658" lon="2.57841">
        <ele>564.48</ele>
        <time>2016-06-23T02:10:28Z</time>
      </trkpt>
      <trkpt lat="44.35659" lon="2.57843">
        <ele>564.46</ele>
        <time>2016-06-23T02:10:29Z</time>
      </trkpt>
      <trkpt lat="44.35659" lon="2.57846">
        <ele>564.45</ele>
        <time>2016-06-23T02:10:30Z</time>
      </trkpt>
      <trkpt lat="44.35659" lon="2.57848">
        <ele>564.44</ele>
        <time>2016-06-23T02:10:31Z</time>
      </trkpt>
      <trkpt lat="44.35659" lon="2.57854">
        <ele>564.41</ele>
        <time>2016-06-23T02:10:34Z</time>
      </trkpt>
      <trkpt lat="44.3566" lon="2.57855">
        <ele>564.41</ele>
        <time>2016-06-23T02:10:35Z</time>
      </trkpt>
      <trkpt lat="44.35661" lon="2.57859">
        <ele>564.41</ele>
        <time>2016-06-23T02:10:37Z</time>
      </trkpt>
      <trkpt lat="44.35661" lon="2.57861">
        <ele>564.39</ele>
        <time>2016-06-23T02:10:38Z</time>
      </trkpt>
      <trkpt lat="44.35661" lon="2.57868">
        <ele>564.36</ele>
        <time>2016-06-23T02:10:41Z</time>
      </trkpt>
      <trkpt lat="44.35661" lon="2.5787">
        <ele>564.35</ele>
        <time>2016-06-23T02:10:42Z</time>
      </trkpt>
      <trkpt lat="44.3566" lon="2.57872">
        <ele>564.36</ele>
        <time>2016-06-23T02:10:43Z</time>
      </trkpt>
      <trkpt lat="44.35661" lon="2.57874">
        <ele>564.39</ele>
        <time>2016-06-23T02:10:44Z</time>
      </trkpt>
      <trkpt lat="44.35661" lon="2.57876">
        <ele>564.42</ele>
        <time>2016-06-23T02:10:45Z</time>
      </trkpt>
      <trkpt lat="44.35661" lon="2.57879">
        <ele>564.44</ele>
        <time>2016-06-23T02:10:46Z</time>
      </trkpt>
      <trkpt lat="44.35661" lon="2.57881">
        <ele>564.46</ele>
        <time>2016-06-23T02:10:47Z</time>
      </trkpt>
      <trkpt lat="44.35662" lon="2.57884">
        <ele>564.45</ele>
        <time>2016-06-23T02:10:49Z</time>
      </trkpt>
      <trkpt lat="44.35665" lon="2.57902">
        <ele>564.38</ele>
        <time>2016-06-23T02:10:58Z</time>
      </trkpt>
      <trkpt lat="44.35665" lon="2.57906">
        <ele>564.35</ele>
        <time>2016-06-23T02:11:00Z</time>
      </trkpt>
      <trkpt lat="44.35665" lon="2.57908">
        <ele>564.32</ele>
        <time>2016-06-23T02:11:01Z</time>
      </trkpt>
      <trkpt lat="44.35666" lon="2.57911">
        <ele>564.27</ele>
        <time>2016-06-23T02:11:03Z</time>
      </trkpt>
      <trkpt lat="44.35666" lon="2.57913">
        <ele>564.24</ele>
        <time>2016-06-23T02:11:04Z</time>
      </trkpt>
      <trkpt lat="44.35666" lon="2.57915">
        <ele>564.22</ele>
        <time>2016-06-23T02:11:05Z</time>
      </trkpt>
      <trkpt lat="44.35666" lon="2.57917">
        <ele>564.21</ele>
        <time>2016-06-23T02:11:06Z</time>
      </trkpt>
      <trkpt lat="44.35666" lon="2.5792">
        <ele>564.21</ele>
        <time>2016-06-23T02:11:07Z</time>
      </trkpt>
      <trkpt lat="44.35668" lon="2.57943">
        <ele>563.76</ele>
        <time>2016-06-23T02:11:18Z</time>
      </trkpt>
      <trkpt lat="44.3567" lon="2.57951">
        <ele>563.65</ele>
        <time>2016-06-23T02:11:22Z</time>
      </trkpt>
      <trkpt lat="44.35671" lon="2.57953">
        <ele>563.63</ele>
        <time>2016-06-23T02:11:23Z</time>
      </trkpt>
      <trkpt lat="44.35673" lon="2.57957">
        <ele>563.62</ele>
        <time>2016-06-23T02:11:25Z</time>
      </trkpt>
      <trkpt lat="44.35673" lon="2.57959">
        <ele>563.64</ele>
        <time>2016-06-23T02:11:26Z</time>
      </trkpt>
      <trkpt lat="44.35673" lon="2.57961">
        <ele>563.65</ele>
        <time>2016-06-23T02:11:27Z</time>
      </trkpt>
      <trkpt lat="44.35673" lon="2.57964">
        <ele>563.67</ele>
        <time>2016-06-23T02:11:28Z</time>
      </trkpt>
      <trkpt lat="44.35673" lon="2.57966">
        <ele>563.68</ele>
        <time>2016-06-23T02:11:29Z</time>
      </trkpt>
      <trkpt lat="44.35673" lon="2.57977">
        <ele>563.57</ele>
        <time>2016-06-23T02:11:34Z</time>
      </trkpt>
      <trkpt lat="44.35673" lon="2.57979">
        <ele>563.53</ele>
        <time>2016-06-23T02:11:35Z</time>
      </trkpt>
      <trkpt lat="44.35674" lon="2.57981">
        <ele>563.48</ele>
        <time>2016-06-23T02:11:36Z</time>
      </trkpt>
      <trkpt lat="44.35675" lon="2.57983">
        <ele>563.42</ele>
        <time>2016-06-23T02:11:37Z</time>
      </trkpt>
      <trkpt lat="44.35675" lon="2.57985">
        <ele>563.37</ele>
        <time>2016-06-23T02:11:38Z</time>
      </trkpt>
      <trkpt lat="44.35676" lon="2.57987">
        <ele>563.34</ele>
        <time>2016-06-23T02:11:39Z</time>
      </trkpt>
      <trkpt lat="44.35677" lon="2.57989">
        <ele>563.29</ele>
        <time>2016-06-23T02:11:40Z</time>
      </trkpt>
      <trkpt lat="44.35677" lon="2.57991">
        <ele>563.24</ele>
        <time>2016-06-23T02:11:41Z</time>
      </trkpt>
      <trkpt lat="44.35682" lon="2.58016">
        <ele>562.65</ele>
        <time>2016-06-23T02:11:54Z</time>
      </trkpt>
      <trkpt lat="44.35682" lon="2.5802">
        <ele>562.54</ele>
        <time>2016-06-23T02:11:56Z</time>
      </trkpt>
      <trkpt lat="44.35682" lon="2.58023">
        <ele>562.5</ele>
        <time>2016-06-23T02:11:57Z</time>
      </trkpt>
      <trkpt lat="44.35683" lon="2.58025">
        <ele>562.43</ele>
        <time>2016-06-23T02:11:58Z</time>
      </trkpt>
      <trkpt lat="44.35683" lon="2.58027">
        <ele>562.36</ele>
        <time>2016-06-23T02:11:59Z</time>
      </trkpt>
      <trkpt lat="44.35683" lon="2.58029">
        <ele>562.28</ele>
        <time>2016-06-23T02:12:00Z</time>
      </trkpt>
      <trkpt lat="44.35682" lon="2.58031">
        <ele>562.23</ele>
        <time>2016-06-23T02:12:01Z</time>
      </trkpt>
      <trkpt lat="44.3568" lon="2.58063">
        <ele>561.92</ele>
        <time>2016-06-23T02:12:17Z</time>
      </trkpt>
      <trkpt lat="44.35683" lon="2.5809">
        <ele>561.57</ele>
        <time>2016-06-23T02:12:30Z</time>
      </trkpt>
      <trkpt lat="44.35683" lon="2.58092">
        <ele>561.49</ele>
        <time>2016-06-23T02:12:31Z</time>
      </trkpt>
      <trkpt lat="44.35684" lon="2.58094">
        <ele>561.42</ele>
        <time>2016-06-23T02:12:32Z</time>
      </trkpt>
      <trkpt lat="44.35684" lon="2.58096">
        <ele>561.38</ele>
        <time>2016-06-23T02:12:33Z</time>
      </trkpt>
      <trkpt lat="44.35684" lon="2.58098">
        <ele>561.38</ele>
        <time>2016-06-23T02:12:34Z</time>
      </trkpt>
      <trkpt lat="44.35684" lon="2.581">
        <ele>561.4</ele>
        <time>2016-06-23T02:12:35Z</time>
      </trkpt>
      <trkpt lat="44.35684" lon="2.58129">
        <ele>561.92</ele>
        <time>2016-06-23T02:12:48Z</time>
      </trkpt>
      <trkpt lat="44.35683" lon="2.58138">
        <ele>561.95</ele>
        <time>2016-06-23T02:12:52Z</time>
      </trkpt>
      <trkpt lat="44.35683" lon="2.5814">
        <ele>561.96</ele>
        <time>2016-06-23T02:12:53Z</time>
      </trkpt>
      <trkpt lat="44.35682" lon="2.58142">
        <ele>561.86</ele>
        <time>2016-06-23T02:12:55Z</time>
      </trkpt>
      <trkpt lat="44.35681" lon="2.58145">
        <ele>561.79</ele>
        <time>2016-06-23T02:12:56Z</time>
      </trkpt>
      <trkpt lat="44.35681" lon="2.58147">
        <ele>561.72</ele>
        <time>2016-06-23T02:12:57Z</time>
      </trkpt>
      <trkpt lat="44.35681" lon="2.58149">
        <ele>561.67</ele>
        <time>2016-06-23T02:12:58Z</time>
      </trkpt>
      <trkpt lat="44.35681" lon="2.58151">
        <ele>561.6</ele>
        <time>2016-06-23T02:12:59Z</time>
      </trkpt>
      <trkpt lat="44.35681" lon="2.58153">
        <ele>561.5</ele>
        <time>2016-06-23T02:13:00Z</time>
      </trkpt>
      <trkpt lat="44.3568" lon="2.5816">
        <ele>561.24</ele>
        <time>2016-06-23T02:13:03Z</time>
      </trkpt>
      <trkpt lat="44.35679" lon="2.58162">
        <ele>561.17</ele>
        <time>2016-06-23T02:13:04Z</time>
      </trkpt>
      <trkpt lat="44.35679" lon="2.58165">
        <ele>561.11</ele>
        <time>2016-06-23T02:13:05Z</time>
      </trkpt>
      <trkpt lat="44.35679" lon="2.58167">
        <ele>561.01</ele>
        <time>2016-06-23T02:13:06Z</time>
      </trkpt>
      <trkpt lat="44.35679" lon="2.5817">
        <ele>560.97</ele>
        <time>2016-06-23T02:13:07Z</time>
      </trkpt>
      <trkpt lat="44.35679" lon="2.58172">
        <ele>560.93</ele>
        <time>2016-06-23T02:13:08Z</time>
      </trkpt>
      <trkpt lat="44.35679" lon="2.58175">
        <ele>560.91</ele>
        <time>2016-06-23T02:13:09Z</time>
      </trkpt>
      <trkpt lat="44.3568" lon="2.58177">
        <ele>560.89</ele>
        <time>2016-06-23T02:13:10Z</time>
      </trkpt>
      <trkpt lat="44.3568" lon="2.58179">
        <ele>560.86</ele>
        <time>2016-06-23T02:13:11Z</time>
      </trkpt>
      <trkpt lat="44.35679" lon="2.58181">
        <ele>560.83</ele>
        <time>2016-06-23T02:13:12Z</time>
      </trkpt>
      <trkpt lat="44.35679" lon="2.58184">
        <ele>560.81</ele>
        <time>2016-06-23T02:13:13Z</time>
      </trkpt>
      <trkpt lat="44.35679" lon="2.58186">
        <ele>560.78</ele>
        <time>2016-06-23T02:13:14Z</time>
      </trkpt>
      <trkpt lat="44.35679" lon="2.58188">
        <ele>560.76</ele>
        <time>2016-06-23T02:13:15Z</time>
      </trkpt>
      <trkpt lat="44.35679" lon="2.58191">
        <ele>560.73</ele>
        <time>2016-06-23T02:13:16Z</time>
      </trkpt>
      <trkpt lat="44.35679" lon="2.58194">
        <ele>560.69</ele>
        <time>2016-06-23T02:13:17Z</time>
      </trkpt>
      <trkpt lat="44.35688" lon="2.58222">
        <ele>560.87</ele>
        <time>2016-06-23T02:13:31Z</time>
      </trkpt>
      <trkpt lat="44.35689" lon="2.58247">
        <ele>560.27</ele>
        <time>2016-06-23T02:13:43Z</time>
      </trkpt>
      <trkpt lat="44.35688" lon="2.58254">
        <ele>560.11</ele>
        <time>2016-06-23T02:13:46Z</time>
      </trkpt>
      <trkpt lat="44.35688" lon="2.58256">
        <ele>560.07</ele>
        <time>2016-06-23T02:13:47Z</time>
      </trkpt>
      <trkpt lat="44.35688" lon="2.58258">
        <ele>560.04</ele>
        <time>2016-06-23T02:13:48Z</time>
      </trkpt>
      <trkpt lat="44.35688" lon="2.5826">
        <ele>560.03</ele>
        <time>2016-06-23T02:13:49Z</time>
      </trkpt>
      <trkpt lat="44.35688" lon="2.58262">
        <ele>560.03</ele>
        <time>2016-06-23T02:13:50Z</time>
      </trkpt>
      <trkpt lat="44.35687" lon="2.58264">
        <ele>560.04</ele>
        <time>2016-06-23T02:13:51Z</time>
      </trkpt>
      <trkpt lat="44.35687" lon="2.58266">
        <ele>560.05</ele>
        <time>2016-06-23T02:13:52Z</time>
      </trkpt>
      <trkpt lat="44.35687" lon="2.58268">
        <ele>560.07</ele>
        <time>2016-06-23T02:13:53Z</time>
      </trkpt>
      <trkpt lat="44.35687" lon="2.5827">
        <ele>560.1</ele>
        <time>2016-06-23T02:13:54Z</time>
      </trkpt>
      <trkpt lat="44.35687" lon="2.58272">
        <ele>560.12</ele>
        <time>2016-06-23T02:13:55Z</time>
      </trkpt>
      <trkpt lat="44.35686" lon="2.58274">
        <ele>560.2</ele>
        <time>2016-06-23T02:13:56Z</time>
      </trkpt>
      <trkpt lat="44.35686" lon="2.58276">
        <ele>560.2</ele>
        <time>2016-06-23T02:13:57Z</time>
      </trkpt>
      <trkpt lat="44.35686" lon="2.58284">
        <ele>560.21</ele>
        <time>2016-06-23T02:14:01Z</time>
      </trkpt>
      <trkpt lat="44.35685" lon="2.58286">
        <ele>560.14</ele>
        <time>2016-06-23T02:14:02Z</time>
      </trkpt>
      <trkpt lat="44.35685" lon="2.58287">
        <ele>560.08</ele>
        <time>2016-06-23T02:14:03Z</time>
      </trkpt>
      <trkpt lat="44.35686" lon="2.58304">
        <ele>559.82</ele>
        <time>2016-06-23T02:14:12Z</time>
      </trkpt>
      <trkpt lat="44.35686" lon="2.58306">
        <ele>559.75</ele>
        <time>2016-06-23T02:14:13Z</time>
      </trkpt>
      <trkpt lat="44.35686" lon="2.58308">
        <ele>559.69</ele>
        <time>2016-06-23T02:14:14Z</time>
      </trkpt>
      <trkpt lat="44.35688" lon="2.58318">
        <ele>559.43</ele>
        <time>2016-06-23T02:14:19Z</time>
      </trkpt>
      <trkpt lat="44.35688" lon="2.5832">
        <ele>559.42</ele>
        <time>2016-06-23T02:14:20Z</time>
      </trkpt>
      <trkpt lat="44.35687" lon="2.58323">
        <ele>559.39</ele>
        <time>2016-06-23T02:14:21Z</time>
      </trkpt>
      <trkpt lat="44.35687" lon="2.58326">
        <ele>559.34</ele>
        <time>2016-06-23T02:14:22Z</time>
      </trkpt>
      <trkpt lat="44.35687" lon="2.58327">
        <ele>559.29</ele>
        <time>2016-06-23T02:14:23Z</time>
      </trkpt>
      <trkpt lat="44.35686" lon="2.58329">
        <ele>559.24</ele>
        <time>2016-06-23T02:14:24Z</time>
      </trkpt>
      <trkpt lat="44.35686" lon="2.58331">
        <ele>559.19</ele>
        <time>2016-06-23T02:14:25Z</time>
      </trkpt>
      <trkpt lat="44.35686" lon="2.58333">
        <ele>559.16</ele>
        <time>2016-06-23T02:14:26Z</time>
      </trkpt>
      <trkpt lat="44.35685" lon="2.58337">
        <ele>559.15</ele>
        <time>2016-06-23T02:14:28Z</time>
      </trkpt>
      <trkpt lat="44.35685" lon="2.58339">
        <ele>559.15</ele>
        <time>2016-06-23T02:14:29Z</time>
      </trkpt>
      <trkpt lat="44.35682" lon="2.58356">
        <ele>559.19</ele>
        <time>2016-06-23T02:14:37Z</time>
      </trkpt>
      <trkpt lat="44.35681" lon="2.58358">
        <ele>559.16</ele>
        <time>2016-06-23T02:14:38Z</time>
      </trkpt>
      <trkpt lat="44.35681" lon="2.5836">
        <ele>559.09</ele>
        <time>2016-06-23T02:14:39Z</time>
      </trkpt>
      <trkpt lat="44.3568" lon="2.58361">
        <ele>559.03</ele>
        <time>2016-06-23T02:14:40Z</time>
      </trkpt>
      <trkpt lat="44.35679" lon="2.58364">
        <ele>558.99</ele>
        <time>2016-06-23T02:14:41Z</time>
      </trkpt>
      <trkpt lat="44.35679" lon="2.58366">
        <ele>558.96</ele>
        <time>2016-06-23T02:14:42Z</time>
      </trkpt>
      <trkpt lat="44.35679" lon="2.58368">
        <ele>558.94</ele>
        <time>2016-06-23T02:14:43Z</time>
      </trkpt>
      <trkpt lat="44.35679" lon="2.58369">
        <ele>558.96</ele>
        <time>2016-06-23T02:14:44Z</time>
      </trkpt>
      <trkpt lat="44.35677" lon="2.58377">
        <ele>559.01</ele>
        <time>2016-06-23T02:14:48Z</time>
      </trkpt>
      <trkpt lat="44.35674" lon="2.58396">
        <ele>559.27</ele>
        <time>2016-06-23T02:14:57Z</time>
      </trkpt>
      <trkpt lat="44.35672" lon="2.58401">
        <ele>559.29</ele>
        <time>2016-06-23T02:14:59Z</time>
      </trkpt>
      <trkpt lat="44.35672" lon="2.58403">
        <ele>559.3</ele>
        <time>2016-06-23T02:15:00Z</time>
      </trkpt>
      <trkpt lat="44.35672" lon="2.58405">
        <ele>559.34</ele>
        <time>2016-06-23T02:15:01Z</time>
      </trkpt>
      <trkpt lat="44.35671" lon="2.58406">
        <ele>559.38</ele>
        <time>2016-06-23T02:15:02Z</time>
      </trkpt>
      <trkpt lat="44.35671" lon="2.58408">
        <ele>559.43</ele>
        <time>2016-06-23T02:15:03Z</time>
      </trkpt>
      <trkpt lat="44.3567" lon="2.58409">
        <ele>559.45</ele>
        <time>2016-06-23T02:15:04Z</time>
      </trkpt>
      <trkpt lat="44.35669" lon="2.58411">
        <ele>559.48</ele>
        <time>2016-06-23T02:15:05Z</time>
      </trkpt>
      <trkpt lat="44.35669" lon="2.58412">
        <ele>559.51</ele>
        <time>2016-06-23T02:15:06Z</time>
      </trkpt>
      <trkpt lat="44.35669" lon="2.58414">
        <ele>559.53</ele>
        <time>2016-06-23T02:15:07Z</time>
      </trkpt>
      <trkpt lat="44.35668" lon="2.58416">
        <ele>559.55</ele>
        <time>2016-06-23T02:15:08Z</time>
      </trkpt>
      <trkpt lat="44.35667" lon="2.58417">
        <ele>559.56</ele>
        <time>2016-06-23T02:15:09Z</time>
      </trkpt>
      <trkpt lat="44.35667" lon="2.58419">
        <ele>559.56</ele>
        <time>2016-06-23T02:15:10Z</time>
      </trkpt>
      <trkpt lat="44.35666" lon="2.58421">
        <ele>559.56</ele>
        <time>2016-06-23T02:15:11Z</time>
      </trkpt>
      <trkpt lat="44.35665" lon="2.58423">
        <ele>559.56</ele>
        <time>2016-06-23T02:15:12Z</time>
      </trkpt>
      <trkpt lat="44.35665" lon="2.58425">
        <ele>559.61</ele>
        <time>2016-06-23T02:15:13Z</time>
      </trkpt>
      <trkpt lat="44.35655" lon="2.58445">
        <ele>559.54</ele>
        <time>2016-06-23T02:15:26Z</time>
      </trkpt>
      <trkpt lat="44.35648" lon="2.58464">
        <ele>560.42</ele>
        <time>2016-06-23T02:15:39Z</time>
      </trkpt>
      <trkpt lat="44.35645" lon="2.58479">
        <ele>560.83</ele>
        <time>2016-06-23T02:15:47Z</time>
      </trkpt>
      <trkpt lat="44.35646" lon="2.58482">
        <ele>560.89</ele>
        <time>2016-06-23T02:15:48Z</time>
      </trkpt>
      <trkpt lat="44.35646" lon="2.58484">
        <ele>560.97</ele>
        <time>2016-06-23T02:15:49Z</time>
      </trkpt>
      <trkpt lat="44.35648" lon="2.58513">
        <ele>562.18</ele>
        <time>2016-06-23T02:16:04Z</time>
      </trkpt>
      <trkpt lat="44.3565" lon="2.58518">
        <ele>562.23</ele>
        <time>2016-06-23T02:16:06Z</time>
      </trkpt>
      <trkpt lat="44.35651" lon="2.5852">
        <ele>562.26</ele>
        <time>2016-06-23T02:16:07Z</time>
      </trkpt>
      <trkpt lat="44.35651" lon="2.58522">
        <ele>562.31</ele>
        <time>2016-06-23T02:16:08Z</time>
      </trkpt>
      <trkpt lat="44.35652" lon="2.58525">
        <ele>562.36</ele>
        <time>2016-06-23T02:16:09Z</time>
      </trkpt>
      <trkpt lat="44.35653" lon="2.58527">
        <ele>562.4</ele>
        <time>2016-06-23T02:16:10Z</time>
      </trkpt>
      <trkpt lat="44.35653" lon="2.58529">
        <ele>562.44</ele>
        <time>2016-06-23T02:16:11Z</time>
      </trkpt>
      <trkpt lat="44.35653" lon="2.58532">
        <ele>562.49</ele>
        <time>2016-06-23T02:16:12Z</time>
      </trkpt>
      <trkpt lat="44.35661" lon="2.58562">
        <ele>563.03</ele>
        <time>2016-06-23T02:16:25Z</time>
      </trkpt>
      <trkpt lat="44.35662" lon="2.58564">
        <ele>563.06</ele>
        <time>2016-06-23T02:16:26Z</time>
      </trkpt>
      <trkpt lat="44.35671" lon="2.58591">
        <ele>562.74</ele>
        <time>2016-06-23T02:16:40Z</time>
      </trkpt>
      <trkpt lat="44.35679" lon="2.58613">
        <ele>561.97</ele>
        <time>2016-06-23T02:16:52Z</time>
      </trkpt>
      <trkpt lat="44.35685" lon="2.58615">
        <ele>561.68</ele>
        <time>2016-06-23T02:16:55Z</time>
      </trkpt>
      <trkpt lat="44.35687" lon="2.58616">
        <ele>561.6</ele>
        <time>2016-06-23T02:16:56Z</time>
      </trkpt>
      <trkpt lat="44.35688" lon="2.58617">
        <ele>561.53</ele>
        <time>2016-06-23T02:16:57Z</time>
      </trkpt>
      <trkpt lat="44.3569" lon="2.58619">
        <ele>561.45</ele>
        <time>2016-06-23T02:16:58Z</time>
      </trkpt>
      <trkpt lat="44.35689" lon="2.58624">
        <ele>561.38</ele>
        <time>2016-06-23T02:16:59Z</time>
      </trkpt>
      <trkpt lat="44.35689" lon="2.58627">
        <ele>561.32</ele>
        <time>2016-06-23T02:17:00Z</time>
      </trkpt>
      <trkpt lat="44.35694" lon="2.58643">
        <ele>561</ele>
        <time>2016-06-23T02:17:07Z</time>
      </trkpt>
      <trkpt lat="44.35695" lon="2.58645">
        <ele>560.95</ele>
        <time>2016-06-23T02:17:08Z</time>
      </trkpt>
      <trkpt lat="44.35696" lon="2.58647">
        <ele>560.88</ele>
        <time>2016-06-23T02:17:09Z</time>
      </trkpt>
      <trkpt lat="44.35697" lon="2.58654">
        <ele>560.71</ele>
        <time>2016-06-23T02:17:12Z</time>
      </trkpt>
      <trkpt lat="44.35698" lon="2.58656">
        <ele>560.68</ele>
        <time>2016-06-23T02:17:13Z</time>
      </trkpt>
      <trkpt lat="44.35699" lon="2.58658">
        <ele>560.61</ele>
        <time>2016-06-23T02:17:14Z</time>
      </trkpt>
      <trkpt lat="44.35699" lon="2.58661">
        <ele>560.61</ele>
        <time>2016-06-23T02:17:15Z</time>
      </trkpt>
      <trkpt lat="44.35699" lon="2.58663">
        <ele>560.46</ele>
        <time>2016-06-23T02:17:16Z</time>
      </trkpt>
      <trkpt lat="44.35701" lon="2.58675">
        <ele>559.94</ele>
        <time>2016-06-23T02:17:22Z</time>
      </trkpt>
      <trkpt lat="44.35702" lon="2.58677">
        <ele>559.88</ele>
        <time>2016-06-23T02:17:23Z</time>
      </trkpt>
      <trkpt lat="44.35702" lon="2.58679">
        <ele>559.84</ele>
        <time>2016-06-23T02:17:24Z</time>
      </trkpt>
      <trkpt lat="44.35703" lon="2.58681">
        <ele>559.8</ele>
        <time>2016-06-23T02:17:25Z</time>
      </trkpt>
      <trkpt lat="44.35703" lon="2.58683">
        <ele>559.75</ele>
        <time>2016-06-23T02:17:26Z</time>
      </trkpt>
      <trkpt lat="44.35703" lon="2.58685">
        <ele>559.71</ele>
        <time>2016-06-23T02:17:27Z</time>
      </trkpt>
      <trkpt lat="44.35703" lon="2.58688">
        <ele>559.66</ele>
        <time>2016-06-23T02:17:28Z</time>
      </trkpt>
      <trkpt lat="44.35703" lon="2.5869">
        <ele>559.6</ele>
        <time>2016-06-23T02:17:29Z</time>
      </trkpt>
      <trkpt lat="44.35704" lon="2.58691">
        <ele>559.54</ele>
        <time>2016-06-23T02:17:30Z</time>
      </trkpt>
      <trkpt lat="44.35705" lon="2.58693">
        <ele>559.44</ele>
        <time>2016-06-23T02:17:31Z</time>
      </trkpt>
      <trkpt lat="44.35706" lon="2.58696">
        <ele>559.34</ele>
        <time>2016-06-23T02:17:32Z</time>
      </trkpt>
      <trkpt lat="44.35706" lon="2.58697">
        <ele>559.26</ele>
        <time>2016-06-23T02:17:33Z</time>
      </trkpt>
      <trkpt lat="44.35707" lon="2.58699">
        <ele>559.18</ele>
        <time>2016-06-23T02:17:34Z</time>
      </trkpt>
      <trkpt lat="44.35707" lon="2.58701">
        <ele>559.13</ele>
        <time>2016-06-23T02:17:35Z</time>
      </trkpt>
      <trkpt lat="44.35708" lon="2.58703">
        <ele>559.08</ele>
        <time>2016-06-23T02:17:36Z</time>
      </trkpt>
      <trkpt lat="44.35709" lon="2.58705">
        <ele>559.04</ele>
        <time>2016-06-23T02:17:37Z</time>
      </trkpt>
      <trkpt lat="44.35711" lon="2.5871">
        <ele>558.94</ele>
        <time>2016-06-23T02:17:40Z</time>
      </trkpt>
      <trkpt lat="44.35711" lon="2.58712">
        <ele>558.76</ele>
        <time>2016-06-23T02:17:41Z</time>
      </trkpt>
      <trkpt lat="44.35712" lon="2.58715">
        <ele>558.65</ele>
        <time>2016-06-23T02:17:42Z</time>
      </trkpt>
      <trkpt lat="44.35712" lon="2.58716">
        <ele>558.55</ele>
        <time>2016-06-23T02:17:43Z</time>
      </trkpt>
      <trkpt lat="44.35713" lon="2.58718">
        <ele>558.46</ele>
        <time>2016-06-23T02:17:44Z</time>
      </trkpt>
      <trkpt lat="44.35713" lon="2.5872">
        <ele>558.37</ele>
        <time>2016-06-23T02:17:45Z</time>
      </trkpt>
      <trkpt lat="44.35714" lon="2.58721">
        <ele>558.27</ele>
        <time>2016-06-23T02:17:46Z</time>
      </trkpt>
      <trkpt lat="44.35714" lon="2.58723">
        <ele>558.16</ele>
        <time>2016-06-23T02:17:47Z</time>
      </trkpt>
      <trkpt lat="44.35715" lon="2.58724">
        <ele>558.05</ele>
        <time>2016-06-23T02:17:48Z</time>
      </trkpt>
      <trkpt lat="44.35716" lon="2.58726">
        <ele>557.96</ele>
        <time>2016-06-23T02:17:49Z</time>
      </trkpt>
      <trkpt lat="44.35716" lon="2.58728">
        <ele>557.87</ele>
        <time>2016-06-23T02:17:50Z</time>
      </trkpt>
      <trkpt lat="44.35717" lon="2.58729">
        <ele>557.76</ele>
        <time>2016-06-23T02:17:51Z</time>
      </trkpt>
      <trkpt lat="44.35718" lon="2.58731">
        <ele>557.63</ele>
        <time>2016-06-23T02:17:52Z</time>
      </trkpt>
      <trkpt lat="44.35718" lon="2.58732">
        <ele>557.49</ele>
        <time>2016-06-23T02:17:53Z</time>
      </trkpt>
      <trkpt lat="44.35719" lon="2.58734">
        <ele>557.37</ele>
        <time>2016-06-23T02:17:54Z</time>
      </trkpt>
      <trkpt lat="44.35719" lon="2.58736">
        <ele>557.26</ele>
        <time>2016-06-23T02:17:55Z</time>
      </trkpt>
      <trkpt lat="44.3572" lon="2.58737">
        <ele>557.14</ele>
        <time>2016-06-23T02:17:56Z</time>
      </trkpt>
      <trkpt lat="44.3572" lon="2.58739">
        <ele>557.02</ele>
        <time>2016-06-23T02:17:57Z</time>
      </trkpt>
      <trkpt lat="44.35721" lon="2.58741">
        <ele>556.92</ele>
        <time>2016-06-23T02:17:58Z</time>
      </trkpt>
      <trkpt lat="44.35721" lon="2.58744">
        <ele>556.82</ele>
        <time>2016-06-23T02:17:59Z</time>
      </trkpt>
      <trkpt lat="44.35722" lon="2.58746">
        <ele>556.74</ele>
        <time>2016-06-23T02:18:00Z</time>
      </trkpt>
      <trkpt lat="44.35722" lon="2.58748">
        <ele>556.64</ele>
        <time>2016-06-23T02:18:01Z</time>
      </trkpt>
      <trkpt lat="44.35723" lon="2.5875">
        <ele>556.5</ele>
        <time>2016-06-23T02:18:02Z</time>
      </trkpt>
      <trkpt lat="44.35723" lon="2.58752">
        <ele>556.34</ele>
        <time>2016-06-23T02:18:03Z</time>
      </trkpt>
      <trkpt lat="44.35724" lon="2.58754">
        <ele>556.2</ele>
        <time>2016-06-23T02:18:04Z</time>
      </trkpt>
      <trkpt lat="44.35724" lon="2.58756">
        <ele>555.95</ele>
        <time>2016-06-23T02:18:05Z</time>
      </trkpt>
      <trkpt lat="44.35725" lon="2.58758">
        <ele>555.8</ele>
        <time>2016-06-23T02:18:06Z</time>
      </trkpt>
      <trkpt lat="44.35726" lon="2.5876">
        <ele>555.66</ele>
        <time>2016-06-23T02:18:07Z</time>
      </trkpt>
      <trkpt lat="44.35726" lon="2.58761">
        <ele>555.54</ele>
        <time>2016-06-23T02:18:08Z</time>
      </trkpt>
      <trkpt lat="44.35727" lon="2.58763">
        <ele>555.43</ele>
        <time>2016-06-23T02:18:09Z</time>
      </trkpt>
      <trkpt lat="44.35729" lon="2.58771">
        <ele>555.03</ele>
        <time>2016-06-23T02:18:13Z</time>
      </trkpt>
      <trkpt lat="44.3573" lon="2.58773">
        <ele>554.94</ele>
        <time>2016-06-23T02:18:14Z</time>
      </trkpt>
      <trkpt lat="44.3573" lon="2.58775">
        <ele>554.84</ele>
        <time>2016-06-23T02:18:15Z</time>
      </trkpt>
      <trkpt lat="44.35743" lon="2.58806">
        <ele>552.51</ele>
        <time>2016-06-23T02:18:33Z</time>
      </trkpt>
      <trkpt lat="44.35752" lon="2.58835">
        <ele>551.12</ele>
        <time>2016-06-23T02:18:48Z</time>
      </trkpt>
      <trkpt lat="44.35759" lon="2.58857">
        <ele>550.45</ele>
        <time>2016-06-23T02:19:00Z</time>
      </trkpt>
      <trkpt lat="44.3576" lon="2.58861">
        <ele>550.32</ele>
        <time>2016-06-23T02:19:02Z</time>
      </trkpt>
      <trkpt lat="44.35763" lon="2.58872">
        <ele>549.93</ele>
        <time>2016-06-23T02:19:08Z</time>
      </trkpt>
      <trkpt lat="44.35768" lon="2.58889">
        <ele>549.33</ele>
        <time>2016-06-23T02:19:17Z</time>
      </trkpt>
      <trkpt lat="44.35769" lon="2.58891">
        <ele>549.26</ele>
        <time>2016-06-23T02:19:18Z</time>
      </trkpt>
      <trkpt lat="44.35771" lon="2.58897">
        <ele>548.82</ele>
        <time>2016-06-23T02:19:21Z</time>
      </trkpt>
      <trkpt lat="44.35771" lon="2.58898">
        <ele>548.72</ele>
        <time>2016-06-23T02:19:22Z</time>
      </trkpt>
      <trkpt lat="44.35772" lon="2.589">
        <ele>548.64</ele>
        <time>2016-06-23T02:19:23Z</time>
      </trkpt>
      <trkpt lat="44.35772" lon="2.58902">
        <ele>548.55</ele>
        <time>2016-06-23T02:19:24Z</time>
      </trkpt>
      <trkpt lat="44.35773" lon="2.58904">
        <ele>548.44</ele>
        <time>2016-06-23T02:19:25Z</time>
      </trkpt>
      <trkpt lat="44.35773" lon="2.58907">
        <ele>548.34</ele>
        <time>2016-06-23T02:19:26Z</time>
      </trkpt>
      <trkpt lat="44.35774" lon="2.58908">
        <ele>548.24</ele>
        <time>2016-06-23T02:19:27Z</time>
      </trkpt>
      <trkpt lat="44.35774" lon="2.5891">
        <ele>548.14</ele>
        <time>2016-06-23T02:19:28Z</time>
      </trkpt>
      <trkpt lat="44.35777" lon="2.58922">
        <ele>547.46</ele>
        <time>2016-06-23T02:19:34Z</time>
      </trkpt>
      <trkpt lat="44.35777" lon="2.58924">
        <ele>547.37</ele>
        <time>2016-06-23T02:19:35Z</time>
      </trkpt>
      <trkpt lat="44.35778" lon="2.58926">
        <ele>547.3</ele>
        <time>2016-06-23T02:19:36Z</time>
      </trkpt>
      <trkpt lat="44.35778" lon="2.58928">
        <ele>547.22</ele>
        <time>2016-06-23T02:19:37Z</time>
      </trkpt>
      <trkpt lat="44.35779" lon="2.5893">
        <ele>547.17</ele>
        <time>2016-06-23T02:19:38Z</time>
      </trkpt>
      <trkpt lat="44.35779" lon="2.58932">
        <ele>547.11</ele>
        <time>2016-06-23T02:19:39Z</time>
      </trkpt>
      <trkpt lat="44.3578" lon="2.58934">
        <ele>547.04</ele>
        <time>2016-06-23T02:19:40Z</time>
      </trkpt>
      <trkpt lat="44.35781" lon="2.58936">
        <ele>546.96</ele>
        <time>2016-06-23T02:19:41Z</time>
      </trkpt>
      <trkpt lat="44.35782" lon="2.58938">
        <ele>546.88</ele>
        <time>2016-06-23T02:19:42Z</time>
      </trkpt>
      <trkpt lat="44.35782" lon="2.5894">
        <ele>546.78</ele>
        <time>2016-06-23T02:19:43Z</time>
      </trkpt>
      <trkpt lat="44.35782" lon="2.58942">
        <ele>546.55</ele>
        <time>2016-06-23T02:19:44Z</time>
      </trkpt>
      <trkpt lat="44.35783" lon="2.58944">
        <ele>546.55</ele>
        <time>2016-06-23T02:19:45Z</time>
      </trkpt>
      <trkpt lat="44.35789" lon="2.58971">
        <ele>544.71</ele>
        <time>2016-06-23T02:19:59Z</time>
      </trkpt>
      <trkpt lat="44.35791" lon="2.58977">
        <ele>544.45</ele>
        <time>2016-06-23T02:20:02Z</time>
      </trkpt>
      <trkpt lat="44.35791" lon="2.58978">
        <ele>544.34</ele>
        <time>2016-06-23T02:20:03Z</time>
      </trkpt>
      <trkpt lat="44.35798" lon="2.59004">
        <ele>542.77</ele>
        <time>2016-06-23T02:20:16Z</time>
      </trkpt>
      <trkpt lat="44.35802" lon="2.59029">
        <ele>541.7</ele>
        <time>2016-06-23T02:20:29Z</time>
      </trkpt>
      <trkpt lat="44.35811" lon="2.59058">
        <ele>540</ele>
        <time>2016-06-23T02:20:44Z</time>
      </trkpt>
      <trkpt lat="44.35813" lon="2.59066">
        <ele>539.43</ele>
        <time>2016-06-23T02:20:48Z</time>
      </trkpt>
      <trkpt lat="44.35814" lon="2.59068">
        <ele>539.3</ele>
        <time>2016-06-23T02:20:49Z</time>
      </trkpt>
      <trkpt lat="44.35814" lon="2.5907">
        <ele>539.18</ele>
        <time>2016-06-23T02:20:50Z</time>
      </trkpt>
      <trkpt lat="44.35815" lon="2.59072">
        <ele>539.06</ele>
        <time>2016-06-23T02:20:51Z</time>
      </trkpt>
      <trkpt lat="44.35815" lon="2.59073">
        <ele>538.95</ele>
        <time>2016-06-23T02:20:52Z</time>
      </trkpt>
      <trkpt lat="44.35816" lon="2.59075">
        <ele>538.85</ele>
        <time>2016-06-23T02:20:53Z</time>
      </trkpt>
      <trkpt lat="44.35818" lon="2.59083">
        <ele>538.29</ele>
        <time>2016-06-23T02:20:57Z</time>
      </trkpt>
      <trkpt lat="44.35819" lon="2.59085">
        <ele>538.15</ele>
        <time>2016-06-23T02:20:58Z</time>
      </trkpt>
      <trkpt lat="44.35819" lon="2.59087">
        <ele>538.03</ele>
        <time>2016-06-23T02:20:59Z</time>
      </trkpt>
      <trkpt lat="44.3582" lon="2.59089">
        <ele>537.91</ele>
        <time>2016-06-23T02:21:00Z</time>
      </trkpt>
      <trkpt lat="44.3582" lon="2.59091">
        <ele>537.8</ele>
        <time>2016-06-23T02:21:01Z</time>
      </trkpt>
      <trkpt lat="44.35821" lon="2.59096">
        <ele>537.5</ele>
        <time>2016-06-23T02:21:04Z</time>
      </trkpt>
      <trkpt lat="44.35822" lon="2.59098">
        <ele>537.41</ele>
        <time>2016-06-23T02:21:05Z</time>
      </trkpt>
      <trkpt lat="44.35827" lon="2.59119">
        <ele>536.16</ele>
        <time>2016-06-23T02:21:16Z</time>
      </trkpt>
      <trkpt lat="44.35828" lon="2.59122">
        <ele>536.06</ele>
        <time>2016-06-23T02:21:17Z</time>
      </trkpt>
      <trkpt lat="44.35835" lon="2.59148">
        <ele>534.47</ele>
        <time>2016-06-23T02:21:31Z</time>
      </trkpt>
      <trkpt lat="44.35846" lon="2.59174">
        <ele>532.22</ele>
        <time>2016-06-23T02:21:46Z</time>
      </trkpt>
      <trkpt lat="44.35857" lon="2.59195">
        <ele>530.63</ele>
        <time>2016-06-23T02:21:59Z</time>
      </trkpt>
      <trkpt lat="44.35863" lon="2.59202">
        <ele>530.01</ele>
        <time>2016-06-23T02:22:04Z</time>
      </trkpt>
      <trkpt lat="44.35864" lon="2.59203">
        <ele>529.89</ele>
        <time>2016-06-23T02:22:05Z</time>
      </trkpt>
      <trkpt lat="44.35865" lon="2.59205">
        <ele>529.79</ele>
        <time>2016-06-23T02:22:06Z</time>
      </trkpt>
      <trkpt lat="44.35866" lon="2.59206">
        <ele>529.7</ele>
        <time>2016-06-23T02:22:07Z</time>
      </trkpt>
      <trkpt lat="44.35867" lon="2.59208">
        <ele>529.61</ele>
        <time>2016-06-23T02:22:08Z</time>
      </trkpt>
      <trkpt lat="44.35868" lon="2.59209">
        <ele>529.52</ele>
        <time>2016-06-23T02:22:09Z</time>
      </trkpt>
      <trkpt lat="44.35869" lon="2.59211">
        <ele>529.44</ele>
        <time>2016-06-23T02:22:10Z</time>
      </trkpt>
      <trkpt lat="44.3587" lon="2.59213">
        <ele>529.37</ele>
        <time>2016-06-23T02:22:11Z</time>
      </trkpt>
      <trkpt lat="44.3587" lon="2.59214">
        <ele>529.31</ele>
        <time>2016-06-23T02:22:12Z</time>
      </trkpt>
      <trkpt lat="44.35871" lon="2.59215">
        <ele>529.25</ele>
        <time>2016-06-23T02:22:13Z</time>
      </trkpt>
      <trkpt lat="44.35872" lon="2.59217">
        <ele>529.2</ele>
        <time>2016-06-23T02:22:14Z</time>
      </trkpt>
      <trkpt lat="44.35889" lon="2.59238">
        <ele>528.15</ele>
        <time>2016-06-23T02:22:29Z</time>
      </trkpt>
      <trkpt lat="44.35891" lon="2.59239">
        <ele>528.18</ele>
        <time>2016-06-23T02:22:31Z</time>
      </trkpt>
      <trkpt lat="44.35892" lon="2.5924">
        <ele>528.21</ele>
        <time>2016-06-23T02:22:32Z</time>
      </trkpt>
      <trkpt lat="44.35893" lon="2.59242">
        <ele>528.26</ele>
        <time>2016-06-23T02:22:33Z</time>
      </trkpt>
      <trkpt lat="44.35894" lon="2.59243">
        <ele>528.3</ele>
        <time>2016-06-23T02:22:34Z</time>
      </trkpt>
      <trkpt lat="44.35894" lon="2.59244">
        <ele>528.33</ele>
        <time>2016-06-23T02:22:35Z</time>
      </trkpt>
      <trkpt lat="44.35895" lon="2.59246">
        <ele>528.35</ele>
        <time>2016-06-23T02:22:36Z</time>
      </trkpt>
      <trkpt lat="44.35896" lon="2.59248">
        <ele>528.35</ele>
        <time>2016-06-23T02:22:37Z</time>
      </trkpt>
      <trkpt lat="44.35897" lon="2.5925">
        <ele>528.35</ele>
        <time>2016-06-23T02:22:38Z</time>
      </trkpt>
      <trkpt lat="44.35898" lon="2.59251">
        <ele>528.31</ele>
        <time>2016-06-23T02:22:39Z</time>
      </trkpt>
      <trkpt lat="44.35899" lon="2.59253">
        <ele>528.23</ele>
        <time>2016-06-23T02:22:40Z</time>
      </trkpt>
      <trkpt lat="44.35912" lon="2.59276">
        <ele>526.33</ele>
        <time>2016-06-23T02:22:54Z</time>
      </trkpt>
      <trkpt lat="44.35926" lon="2.59296">
        <ele>525.81</ele>
        <time>2016-06-23T02:23:08Z</time>
      </trkpt>
      <trkpt lat="44.35937" lon="2.59315">
        <ele>525.56</ele>
        <time>2016-06-23T02:23:20Z</time>
      </trkpt>
      <trkpt lat="44.35946" lon="2.59337">
        <ele>525.42</ele>
        <time>2016-06-23T02:23:33Z</time>
      </trkpt>
      <trkpt lat="44.35947" lon="2.59339">
        <ele>525.42</ele>
        <time>2016-06-23T02:23:34Z</time>
      </trkpt>
      <trkpt lat="44.35948" lon="2.59341">
        <ele>525.43</ele>
        <time>2016-06-23T02:23:35Z</time>
      </trkpt>
      <trkpt lat="44.35948" lon="2.59343">
        <ele>525.44</ele>
        <time>2016-06-23T02:23:36Z</time>
      </trkpt>
      <trkpt lat="44.35949" lon="2.59345">
        <ele>525.45</ele>
        <time>2016-06-23T02:23:37Z</time>
      </trkpt>
      <trkpt lat="44.3595" lon="2.59346">
        <ele>525.46</ele>
        <time>2016-06-23T02:23:38Z</time>
      </trkpt>
      <trkpt lat="44.3595" lon="2.59348">
        <ele>525.47</ele>
        <time>2016-06-23T02:23:39Z</time>
      </trkpt>
      <trkpt lat="44.35951" lon="2.59349">
        <ele>525.49</ele>
        <time>2016-06-23T02:23:40Z</time>
      </trkpt>
      <trkpt lat="44.35952" lon="2.59351">
        <ele>525.5</ele>
        <time>2016-06-23T02:23:41Z</time>
      </trkpt>
      <trkpt lat="44.35964" lon="2.59375">
        <ele>525.54</ele>
        <time>2016-06-23T02:23:56Z</time>
      </trkpt>
      <trkpt lat="44.3597" lon="2.59394">
        <ele>525.34</ele>
        <time>2016-06-23T02:24:06Z</time>
      </trkpt>
      <trkpt lat="44.35971" lon="2.59396">
        <ele>525.29</ele>
        <time>2016-06-23T02:24:07Z</time>
      </trkpt>
      <trkpt lat="44.35971" lon="2.59398">
        <ele>525.2</ele>
        <time>2016-06-23T02:24:08Z</time>
      </trkpt>
      <trkpt lat="44.35972" lon="2.594">
        <ele>525.18</ele>
        <time>2016-06-23T02:24:09Z</time>
      </trkpt>
      <trkpt lat="44.35972" lon="2.59401">
        <ele>525.15</ele>
        <time>2016-06-23T02:24:10Z</time>
      </trkpt>
      <trkpt lat="44.35973" lon="2.59403">
        <ele>525.14</ele>
        <time>2016-06-23T02:24:11Z</time>
      </trkpt>
      <trkpt lat="44.35983" lon="2.59423">
        <ele>525.16</ele>
        <time>2016-06-23T02:24:23Z</time>
      </trkpt>
      <trkpt lat="44.35987" lon="2.59431">
        <ele>525.01</ele>
        <time>2016-06-23T02:24:28Z</time>
      </trkpt>
      <trkpt lat="44.35988" lon="2.59433">
        <ele>525.01</ele>
        <time>2016-06-23T02:24:29Z</time>
      </trkpt>
      <trkpt lat="44.35988" lon="2.59435">
        <ele>525</ele>
        <time>2016-06-23T02:24:30Z</time>
      </trkpt>
      <trkpt lat="44.35989" lon="2.59436">
        <ele>525</ele>
        <time>2016-06-23T02:24:31Z</time>
      </trkpt>
      <trkpt lat="44.3599" lon="2.59437">
        <ele>525</ele>
        <time>2016-06-23T02:24:32Z</time>
      </trkpt>
      <trkpt lat="44.35991" lon="2.59439">
        <ele>525.01</ele>
        <time>2016-06-23T02:24:33Z</time>
      </trkpt>
      <trkpt lat="44.35992" lon="2.5944">
        <ele>525.01</ele>
        <time>2016-06-23T02:24:34Z</time>
      </trkpt>
      <trkpt lat="44.35994" lon="2.59442">
        <ele>525.02</ele>
        <time>2016-06-23T02:24:35Z</time>
      </trkpt>
      <trkpt lat="44.35994" lon="2.59443">
        <ele>525.03</ele>
        <time>2016-06-23T02:24:36Z</time>
      </trkpt>
      <trkpt lat="44.35995" lon="2.59445">
        <ele>525.04</ele>
        <time>2016-06-23T02:24:37Z</time>
      </trkpt>
      <trkpt lat="44.35995" lon="2.59447">
        <ele>525.04</ele>
        <time>2016-06-23T02:24:38Z</time>
      </trkpt>
      <trkpt lat="44.35996" lon="2.59449">
        <ele>525.03</ele>
        <time>2016-06-23T02:24:39Z</time>
      </trkpt>
      <trkpt lat="44.35996" lon="2.5945">
        <ele>525.01</ele>
        <time>2016-06-23T02:24:40Z</time>
      </trkpt>
      <trkpt lat="44.36002" lon="2.59466">
        <ele>524.94</ele>
        <time>2016-06-23T02:24:49Z</time>
      </trkpt>
      <trkpt lat="44.36003" lon="2.59468">
        <ele>524.95</ele>
        <time>2016-06-23T02:24:50Z</time>
      </trkpt>
      <trkpt lat="44.36004" lon="2.59471">
        <ele>524.92</ele>
        <time>2016-06-23T02:24:52Z</time>
      </trkpt>
      <trkpt lat="44.36006" lon="2.59472">
        <ele>524.91</ele>
        <time>2016-06-23T02:24:53Z</time>
      </trkpt>
      <trkpt lat="44.36007" lon="2.59473">
        <ele>524.9</ele>
        <time>2016-06-23T02:24:54Z</time>
      </trkpt>
      <trkpt lat="44.36008" lon="2.59475">
        <ele>524.89</ele>
        <time>2016-06-23T02:24:55Z</time>
      </trkpt>
      <trkpt lat="44.36009" lon="2.59476">
        <ele>524.9</ele>
        <time>2016-06-23T02:24:56Z</time>
      </trkpt>
      <trkpt lat="44.3601" lon="2.59477">
        <ele>524.93</ele>
        <time>2016-06-23T02:24:57Z</time>
      </trkpt>
      <trkpt lat="44.36014" lon="2.59483">
        <ele>525.1</ele>
        <time>2016-06-23T02:25:01Z</time>
      </trkpt>
      <trkpt lat="44.36028" lon="2.59512">
        <ele>525.56</ele>
        <time>2016-06-23T02:25:19Z</time>
      </trkpt>
      <trkpt lat="44.36038" lon="2.59534">
        <ele>525.98</ele>
        <time>2016-06-23T02:25:33Z</time>
      </trkpt>
      <trkpt lat="44.36039" lon="2.59535">
        <ele>526.01</ele>
        <time>2016-06-23T02:25:34Z</time>
      </trkpt>
      <trkpt lat="44.36039" lon="2.59537">
        <ele>526.06</ele>
        <time>2016-06-23T02:25:35Z</time>
      </trkpt>
      <trkpt lat="44.3604" lon="2.59539">
        <ele>526.11</ele>
        <time>2016-06-23T02:25:36Z</time>
      </trkpt>
      <trkpt lat="44.36041" lon="2.59541">
        <ele>526.14</ele>
        <time>2016-06-23T02:25:37Z</time>
      </trkpt>
      <trkpt lat="44.36041" lon="2.59542">
        <ele>526.18</ele>
        <time>2016-06-23T02:25:38Z</time>
      </trkpt>
      <trkpt lat="44.36042" lon="2.59544">
        <ele>526.22</ele>
        <time>2016-06-23T02:25:39Z</time>
      </trkpt>
      <trkpt lat="44.36042" lon="2.59546">
        <ele>526.25</ele>
        <time>2016-06-23T02:25:40Z</time>
      </trkpt>
      <trkpt lat="44.36043" lon="2.59548">
        <ele>526.27</ele>
        <time>2016-06-23T02:25:41Z</time>
      </trkpt>
      <trkpt lat="44.36043" lon="2.5955">
        <ele>526.3</ele>
        <time>2016-06-23T02:25:42Z</time>
      </trkpt>
      <trkpt lat="44.36044" lon="2.59551">
        <ele>526.32</ele>
        <time>2016-06-23T02:25:43Z</time>
      </trkpt>
      <trkpt lat="44.36045" lon="2.59553">
        <ele>526.38</ele>
        <time>2016-06-23T02:25:44Z</time>
      </trkpt>
      <trkpt lat="44.36053" lon="2.59582">
        <ele>526.55</ele>
        <time>2016-06-23T02:25:59Z</time>
      </trkpt>
      <trkpt lat="44.36054" lon="2.59585">
        <ele>526.6</ele>
        <time>2016-06-23T02:26:01Z</time>
      </trkpt>
      <trkpt lat="44.36055" lon="2.59587">
        <ele>526.62</ele>
        <time>2016-06-23T02:26:02Z</time>
      </trkpt>
      <trkpt lat="44.36056" lon="2.59589">
        <ele>526.64</ele>
        <time>2016-06-23T02:26:03Z</time>
      </trkpt>
      <trkpt lat="44.36062" lon="2.59613">
        <ele>526.86</ele>
        <time>2016-06-23T02:26:16Z</time>
      </trkpt>
      <trkpt lat="44.36064" lon="2.5962">
        <ele>526.92</ele>
        <time>2016-06-23T02:26:20Z</time>
      </trkpt>
      <trkpt lat="44.36065" lon="2.59622">
        <ele>526.92</ele>
        <time>2016-06-23T02:26:21Z</time>
      </trkpt>
      <trkpt lat="44.36065" lon="2.59624">
        <ele>526.92</ele>
        <time>2016-06-23T02:26:22Z</time>
      </trkpt>
      <trkpt lat="44.36066" lon="2.59625">
        <ele>526.92</ele>
        <time>2016-06-23T02:26:23Z</time>
      </trkpt>
      <trkpt lat="44.36067" lon="2.59627">
        <ele>526.94</ele>
        <time>2016-06-23T02:26:24Z</time>
      </trkpt>
      <trkpt lat="44.36067" lon="2.59629">
        <ele>526.96</ele>
        <time>2016-06-23T02:26:25Z</time>
      </trkpt>
      <trkpt lat="44.36068" lon="2.59631">
        <ele>526.97</ele>
        <time>2016-06-23T02:26:26Z</time>
      </trkpt>
      <trkpt lat="44.36068" lon="2.59633">
        <ele>526.99</ele>
        <time>2016-06-23T02:26:27Z</time>
      </trkpt>
      <trkpt lat="44.36069" lon="2.59635">
        <ele>527.02</ele>
        <time>2016-06-23T02:26:28Z</time>
      </trkpt>
      <trkpt lat="44.3607" lon="2.59637">
        <ele>527.05</ele>
        <time>2016-06-23T02:26:29Z</time>
      </trkpt>
      <trkpt lat="44.36071" lon="2.59639">
        <ele>527.1</ele>
        <time>2016-06-23T02:26:30Z</time>
      </trkpt>
      <trkpt lat="44.36071" lon="2.5964">
        <ele>527.13</ele>
        <time>2016-06-23T02:26:31Z</time>
      </trkpt>
      <trkpt lat="44.36072" lon="2.59642">
        <ele>527.15</ele>
        <time>2016-06-23T02:26:32Z</time>
      </trkpt>
      <trkpt lat="44.36073" lon="2.59644">
        <ele>527.18</ele>
        <time>2016-06-23T02:26:33Z</time>
      </trkpt>
      <trkpt lat="44.36074" lon="2.59646">
        <ele>527.21</ele>
        <time>2016-06-23T02:26:34Z</time>
      </trkpt>
      <trkpt lat="44.36074" lon="2.59647">
        <ele>527.32</ele>
        <time>2016-06-23T02:26:35Z</time>
      </trkpt>
      <trkpt lat="44.36074" lon="2.59649">
        <ele>527.39</ele>
        <time>2016-06-23T02:26:36Z</time>
      </trkpt>
      <trkpt lat="44.36075" lon="2.59651">
        <ele>527.46</ele>
        <time>2016-06-23T02:26:37Z</time>
      </trkpt>
      <trkpt lat="44.36075" lon="2.59653">
        <ele>527.52</ele>
        <time>2016-06-23T02:26:38Z</time>
      </trkpt>
      <trkpt lat="44.36076" lon="2.59655">
        <ele>527.57</ele>
        <time>2016-06-23T02:26:39Z</time>
      </trkpt>
      <trkpt lat="44.36077" lon="2.59657">
        <ele>527.62</ele>
        <time>2016-06-23T02:26:40Z</time>
      </trkpt>
      <trkpt lat="44.36077" lon="2.59658">
        <ele>527.65</ele>
        <time>2016-06-23T02:26:41Z</time>
      </trkpt>
      <trkpt lat="44.36078" lon="2.5966">
        <ele>527.67</ele>
        <time>2016-06-23T02:26:42Z</time>
      </trkpt>
      <trkpt lat="44.36078" lon="2.59662">
        <ele>527.7</ele>
        <time>2016-06-23T02:26:43Z</time>
      </trkpt>
      <trkpt lat="44.36079" lon="2.59664">
        <ele>527.72</ele>
        <time>2016-06-23T02:26:44Z</time>
      </trkpt>
      <trkpt lat="44.36081" lon="2.59669">
        <ele>527.83</ele>
        <time>2016-06-23T02:26:47Z</time>
      </trkpt>
      <trkpt lat="44.3608" lon="2.59672">
        <ele>527.9</ele>
        <time>2016-06-23T02:26:48Z</time>
      </trkpt>
      <trkpt lat="44.36081" lon="2.59674">
        <ele>527.95</ele>
        <time>2016-06-23T02:26:49Z</time>
      </trkpt>
      <trkpt lat="44.36085" lon="2.59684">
        <ele>528.2</ele>
        <time>2016-06-23T02:26:55Z</time>
      </trkpt>
      <trkpt lat="44.36085" lon="2.59685">
        <ele>528.24</ele>
        <time>2016-06-23T02:26:56Z</time>
      </trkpt>
      <trkpt lat="44.36086" lon="2.59687">
        <ele>528.28</ele>
        <time>2016-06-23T02:26:57Z</time>
      </trkpt>
      <trkpt lat="44.36096" lon="2.59712">
        <ele>528.85</ele>
        <time>2016-06-23T02:27:11Z</time>
      </trkpt>
      <trkpt lat="44.36102" lon="2.59733">
        <ele>529.33</ele>
        <time>2016-06-23T02:27:23Z</time>
      </trkpt>
      <trkpt lat="44.36102" lon="2.59735">
        <ele>529.41</ele>
        <time>2016-06-23T02:27:24Z</time>
      </trkpt>
      <trkpt lat="44.36103" lon="2.59737">
        <ele>529.44</ele>
        <time>2016-06-23T02:27:25Z</time>
      </trkpt>
      <trkpt lat="44.36103" lon="2.59739">
        <ele>529.47</ele>
        <time>2016-06-23T02:27:26Z</time>
      </trkpt>
      <trkpt lat="44.36105" lon="2.59744">
        <ele>529.51</ele>
        <time>2016-06-23T02:27:29Z</time>
      </trkpt>
      <trkpt lat="44.36106" lon="2.59745">
        <ele>529.52</ele>
        <time>2016-06-23T02:27:30Z</time>
      </trkpt>
      <trkpt lat="44.36112" lon="2.59769">
        <ele>530.04</ele>
        <time>2016-06-23T02:27:43Z</time>
      </trkpt>
      <trkpt lat="44.36113" lon="2.59771">
        <ele>530.09</ele>
        <time>2016-06-23T02:27:44Z</time>
      </trkpt>
      <trkpt lat="44.36113" lon="2.59773">
        <ele>530.16</ele>
        <time>2016-06-23T02:27:45Z</time>
      </trkpt>
      <trkpt lat="44.36113" lon="2.59775">
        <ele>530.23</ele>
        <time>2016-06-23T02:27:46Z</time>
      </trkpt>
      <trkpt lat="44.36113" lon="2.59777">
        <ele>530.3</ele>
        <time>2016-06-23T02:27:47Z</time>
      </trkpt>
      <trkpt lat="44.36114" lon="2.59779">
        <ele>530.4</ele>
        <time>2016-06-23T02:27:48Z</time>
      </trkpt>
      <trkpt lat="44.36114" lon="2.59781">
        <ele>530.4</ele>
        <time>2016-06-23T02:27:49Z</time>
      </trkpt>
      <trkpt lat="44.36114" lon="2.59783">
        <ele>530.5</ele>
        <time>2016-06-23T02:27:50Z</time>
      </trkpt>
      <trkpt lat="44.36115" lon="2.59785">
        <ele>530.55</ele>
        <time>2016-06-23T02:27:51Z</time>
      </trkpt>
      <trkpt lat="44.36115" lon="2.59787">
        <ele>530.58</ele>
        <time>2016-06-23T02:27:52Z</time>
      </trkpt>
      <trkpt lat="44.36115" lon="2.59789">
        <ele>530.6</ele>
        <time>2016-06-23T02:27:53Z</time>
      </trkpt>
      <trkpt lat="44.36116" lon="2.59791">
        <ele>530.61</ele>
        <time>2016-06-23T02:27:54Z</time>
      </trkpt>
      <trkpt lat="44.36116" lon="2.59793">
        <ele>530.63</ele>
        <time>2016-06-23T02:27:55Z</time>
      </trkpt>
      <trkpt lat="44.36117" lon="2.59795">
        <ele>530.63</ele>
        <time>2016-06-23T02:27:56Z</time>
      </trkpt>
      <trkpt lat="44.36117" lon="2.59797">
        <ele>530.63</ele>
        <time>2016-06-23T02:27:57Z</time>
      </trkpt>
      <trkpt lat="44.36117" lon="2.59799">
        <ele>530.63</ele>
        <time>2016-06-23T02:27:58Z</time>
      </trkpt>
      <trkpt lat="44.36118" lon="2.598">
        <ele>530.62</ele>
        <time>2016-06-23T02:27:59Z</time>
      </trkpt>
      <trkpt lat="44.36118" lon="2.59802">
        <ele>530.6</ele>
        <time>2016-06-23T02:28:00Z</time>
      </trkpt>
      <trkpt lat="44.36119" lon="2.59804">
        <ele>530.6</ele>
        <time>2016-06-23T02:28:01Z</time>
      </trkpt>
      <trkpt lat="44.36119" lon="2.59806">
        <ele>530.6</ele>
        <time>2016-06-23T02:28:02Z</time>
      </trkpt>
      <trkpt lat="44.36121" lon="2.59811">
        <ele>530.6</ele>
        <time>2016-06-23T02:28:05Z</time>
      </trkpt>
      <trkpt lat="44.36121" lon="2.59813">
        <ele>530.61</ele>
        <time>2016-06-23T02:28:06Z</time>
      </trkpt>
      <trkpt lat="44.36128" lon="2.59843">
        <ele>531.16</ele>
        <time>2016-06-23T02:28:23Z</time>
      </trkpt>
      <trkpt lat="44.36131" lon="2.59858">
        <ele>531.43</ele>
        <time>2016-06-23T02:28:32Z</time>
      </trkpt>
      <trkpt lat="44.36136" lon="2.59882">
        <ele>532.02</ele>
        <time>2016-06-23T02:28:46Z</time>
      </trkpt>
      <trkpt lat="44.36139" lon="2.59907">
        <ele>532.63</ele>
        <time>2016-06-23T02:29:00Z</time>
      </trkpt>
      <trkpt lat="44.36142" lon="2.59929">
        <ele>533</ele>
        <time>2016-06-23T02:29:12Z</time>
      </trkpt>
      <trkpt lat="44.36143" lon="2.5993">
        <ele>533.03</ele>
        <time>2016-06-23T02:29:13Z</time>
      </trkpt>
      <trkpt lat="44.36144" lon="2.59931">
        <ele>533.06</ele>
        <time>2016-06-23T02:29:14Z</time>
      </trkpt>
      <trkpt lat="44.36145" lon="2.59932">
        <ele>533.08</ele>
        <time>2016-06-23T02:29:15Z</time>
      </trkpt>
      <trkpt lat="44.36147" lon="2.59932">
        <ele>533.09</ele>
        <time>2016-06-23T02:29:16Z</time>
      </trkpt>
      <trkpt lat="44.36148" lon="2.59932">
        <ele>533.12</ele>
        <time>2016-06-23T02:29:17Z</time>
      </trkpt>
      <trkpt lat="44.36148" lon="2.59933">
        <ele>533.14</ele>
        <time>2016-06-23T02:29:18Z</time>
      </trkpt>
      <trkpt lat="44.36149" lon="2.59934">
        <ele>533.17</ele>
        <time>2016-06-23T02:29:19Z</time>
      </trkpt>
      <trkpt lat="44.36152" lon="2.59943">
        <ele>533.37</ele>
        <time>2016-06-23T02:29:24Z</time>
      </trkpt>
      <trkpt lat="44.36157" lon="2.59941">
        <ele>533.7</ele>
        <time>2016-06-23T02:29:27Z</time>
      </trkpt>
      <trkpt lat="44.36159" lon="2.59941">
        <ele>533.79</ele>
        <time>2016-06-23T02:29:28Z</time>
      </trkpt>
      <trkpt lat="44.3616" lon="2.59941">
        <ele>533.87</ele>
        <time>2016-06-23T02:29:29Z</time>
      </trkpt>
      <trkpt lat="44.36161" lon="2.59942">
        <ele>533.93</ele>
        <time>2016-06-23T02:29:30Z</time>
      </trkpt>
      <trkpt lat="44.36162" lon="2.59943">
        <ele>534</ele>
        <time>2016-06-23T02:29:31Z</time>
      </trkpt>
      <trkpt lat="44.36162" lon="2.59945">
        <ele>534.07</ele>
        <time>2016-06-23T02:29:32Z</time>
      </trkpt>
      <trkpt lat="44.36161" lon="2.5997">
        <ele>535.54</ele>
        <time>2016-06-23T02:29:46Z</time>
      </trkpt>
      <trkpt lat="44.3616" lon="2.59991">
        <ele>537.53</ele>
        <time>2016-06-23T02:29:57Z</time>
      </trkpt>
      <trkpt lat="44.3616" lon="2.59993">
        <ele>537.65</ele>
        <time>2016-06-23T02:29:58Z</time>
      </trkpt>
      <trkpt lat="44.3616" lon="2.59996">
        <ele>537.76</ele>
        <time>2016-06-23T02:29:59Z</time>
      </trkpt>
      <trkpt lat="44.36159" lon="2.59998">
        <ele>537.87</ele>
        <time>2016-06-23T02:30:00Z</time>
      </trkpt>
      <trkpt lat="44.36159" lon="2.6">
        <ele>537.96</ele>
        <time>2016-06-23T02:30:01Z</time>
      </trkpt>
      <trkpt lat="44.36159" lon="2.60002">
        <ele>538.04</ele>
        <time>2016-06-23T02:30:02Z</time>
      </trkpt>
      <trkpt lat="44.36159" lon="2.60004">
        <ele>538.11</ele>
        <time>2016-06-23T02:30:03Z</time>
      </trkpt>
      <trkpt lat="44.36159" lon="2.60006">
        <ele>538.15</ele>
        <time>2016-06-23T02:30:04Z</time>
      </trkpt>
      <trkpt lat="44.36162" lon="2.60019">
        <ele>538.4</ele>
        <time>2016-06-23T02:30:11Z</time>
      </trkpt>
      <trkpt lat="44.36163" lon="2.60021">
        <ele>538.44</ele>
        <time>2016-06-23T02:30:12Z</time>
      </trkpt>
      <trkpt lat="44.36163" lon="2.60023">
        <ele>538.47</ele>
        <time>2016-06-23T02:30:13Z</time>
      </trkpt>
      <trkpt lat="44.36164" lon="2.60024">
        <ele>538.48</ele>
        <time>2016-06-23T02:30:14Z</time>
      </trkpt>
      <trkpt lat="44.36164" lon="2.60026">
        <ele>538.48</ele>
        <time>2016-06-23T02:30:15Z</time>
      </trkpt>
      <trkpt lat="44.36175" lon="2.60049">
        <ele>538.33</ele>
        <time>2016-06-23T02:30:29Z</time>
      </trkpt>
      <trkpt lat="44.36177" lon="2.60052">
        <ele>538.34</ele>
        <time>2016-06-23T02:30:31Z</time>
      </trkpt>
      <trkpt lat="44.3618" lon="2.60065">
        <ele>538.81</ele>
        <time>2016-06-23T02:30:38Z</time>
      </trkpt>
      <trkpt lat="44.36181" lon="2.60075">
        <ele>539.56</ele>
        <time>2016-06-23T02:30:44Z</time>
      </trkpt>
      <trkpt lat="44.36182" lon="2.60077">
        <ele>539.66</ele>
        <time>2016-06-23T02:30:45Z</time>
      </trkpt>
      <trkpt lat="44.36182" lon="2.60079">
        <ele>539.76</ele>
        <time>2016-06-23T02:30:46Z</time>
      </trkpt>
      <trkpt lat="44.36182" lon="2.60081">
        <ele>539.83</ele>
        <time>2016-06-23T02:30:47Z</time>
      </trkpt>
      <trkpt lat="44.36182" lon="2.60083">
        <ele>539.9</ele>
        <time>2016-06-23T02:30:48Z</time>
      </trkpt>
      <trkpt lat="44.36183" lon="2.60085">
        <ele>539.97</ele>
        <time>2016-06-23T02:30:49Z</time>
      </trkpt>
      <trkpt lat="44.36183" lon="2.60087">
        <ele>540.04</ele>
        <time>2016-06-23T02:30:50Z</time>
      </trkpt>
      <trkpt lat="44.36183" lon="2.60088">
        <ele>540.11</ele>
        <time>2016-06-23T02:30:51Z</time>
      </trkpt>
      <trkpt lat="44.36183" lon="2.6009">
        <ele>540.19</ele>
        <time>2016-06-23T02:30:52Z</time>
      </trkpt>
      <trkpt lat="44.36183" lon="2.60092">
        <ele>540.27</ele>
        <time>2016-06-23T02:30:53Z</time>
      </trkpt>
      <trkpt lat="44.36186" lon="2.60112">
        <ele>540.89</ele>
        <time>2016-06-23T02:31:04Z</time>
      </trkpt>
      <trkpt lat="44.36186" lon="2.60114">
        <ele>540.89</ele>
        <time>2016-06-23T02:31:05Z</time>
      </trkpt>
      <trkpt lat="44.36186" lon="2.60116">
        <ele>540.95</ele>
        <time>2016-06-23T02:31:06Z</time>
      </trkpt>
      <trkpt lat="44.36186" lon="2.60118">
        <ele>540.98</ele>
        <time>2016-06-23T02:31:07Z</time>
      </trkpt>
      <trkpt lat="44.36187" lon="2.6012">
        <ele>541</ele>
        <time>2016-06-23T02:31:08Z</time>
      </trkpt>
      <trkpt lat="44.36187" lon="2.60122">
        <ele>541.02</ele>
        <time>2016-06-23T02:31:09Z</time>
      </trkpt>
      <trkpt lat="44.36187" lon="2.60123">
        <ele>541.04</ele>
        <time>2016-06-23T02:31:10Z</time>
      </trkpt>
      <trkpt lat="44.36187" lon="2.60125">
        <ele>541.06</ele>
        <time>2016-06-23T02:31:11Z</time>
      </trkpt>
      <trkpt lat="44.36189" lon="2.60145">
        <ele>541.3</ele>
        <time>2016-06-23T02:31:21Z</time>
      </trkpt>
      <trkpt lat="44.3619" lon="2.60157">
        <ele>541.43</ele>
        <time>2016-06-23T02:31:27Z</time>
      </trkpt>
      <trkpt lat="44.3619" lon="2.60159">
        <ele>541.44</ele>
        <time>2016-06-23T02:31:28Z</time>
      </trkpt>
      <trkpt lat="44.36193" lon="2.60183">
        <ele>541.4</ele>
        <time>2016-06-23T02:31:41Z</time>
      </trkpt>
      <trkpt lat="44.36194" lon="2.60185">
        <ele>541.38</ele>
        <time>2016-06-23T02:31:42Z</time>
      </trkpt>
      <trkpt lat="44.36194" lon="2.60191">
        <ele>541.28</ele>
        <time>2016-06-23T02:31:45Z</time>
      </trkpt>
      <trkpt lat="44.36194" lon="2.60193">
        <ele>541.24</ele>
        <time>2016-06-23T02:31:46Z</time>
      </trkpt>
      <trkpt lat="44.36194" lon="2.60195">
        <ele>541.21</ele>
        <time>2016-06-23T02:31:47Z</time>
      </trkpt>
      <trkpt lat="44.36194" lon="2.60197">
        <ele>541.18</ele>
        <time>2016-06-23T02:31:48Z</time>
      </trkpt>
      <trkpt lat="44.36194" lon="2.60199">
        <ele>541.16</ele>
        <time>2016-06-23T02:31:49Z</time>
      </trkpt>
      <trkpt lat="44.36195" lon="2.60201">
        <ele>541.14</ele>
        <time>2016-06-23T02:31:50Z</time>
      </trkpt>
      <trkpt lat="44.36195" lon="2.60203">
        <ele>541.12</ele>
        <time>2016-06-23T02:31:51Z</time>
      </trkpt>
      <trkpt lat="44.36195" lon="2.60205">
        <ele>541.1</ele>
        <time>2016-06-23T02:31:52Z</time>
      </trkpt>
      <trkpt lat="44.36195" lon="2.60211">
        <ele>541.01</ele>
        <time>2016-06-23T02:31:55Z</time>
      </trkpt>
      <trkpt lat="44.36195" lon="2.60213">
        <ele>540.93</ele>
        <time>2016-06-23T02:31:56Z</time>
      </trkpt>
      <trkpt lat="44.36196" lon="2.60214">
        <ele>540.87</ele>
        <time>2016-06-23T02:31:57Z</time>
      </trkpt>
      <trkpt lat="44.36196" lon="2.60217">
        <ele>540.8</ele>
        <time>2016-06-23T02:31:58Z</time>
      </trkpt>
      <trkpt lat="44.36196" lon="2.60219">
        <ele>540.73</ele>
        <time>2016-06-23T02:31:59Z</time>
      </trkpt>
      <trkpt lat="44.36197" lon="2.60221">
        <ele>540.65</ele>
        <time>2016-06-23T02:32:00Z</time>
      </trkpt>
      <trkpt lat="44.36197" lon="2.60222">
        <ele>540.59</ele>
        <time>2016-06-23T02:32:01Z</time>
      </trkpt>
      <trkpt lat="44.36197" lon="2.60224">
        <ele>540.52</ele>
        <time>2016-06-23T02:32:02Z</time>
      </trkpt>
      <trkpt lat="44.36197" lon="2.60226">
        <ele>540.46</ele>
        <time>2016-06-23T02:32:03Z</time>
      </trkpt>
      <trkpt lat="44.36198" lon="2.60228">
        <ele>540.39</ele>
        <time>2016-06-23T02:32:04Z</time>
      </trkpt>
      <trkpt lat="44.36198" lon="2.6023">
        <ele>540.34</ele>
        <time>2016-06-23T02:32:05Z</time>
      </trkpt>
      <trkpt lat="44.36198" lon="2.60232">
        <ele>540.3</ele>
        <time>2016-06-23T02:32:06Z</time>
      </trkpt>
      <trkpt lat="44.36198" lon="2.60235">
        <ele>540.23</ele>
        <time>2016-06-23T02:32:08Z</time>
      </trkpt>
      <trkpt lat="44.36198" lon="2.60237">
        <ele>540.19</ele>
        <time>2016-06-23T02:32:09Z</time>
      </trkpt>
      <trkpt lat="44.36198" lon="2.60239">
        <ele>540.14</ele>
        <time>2016-06-23T02:32:10Z</time>
      </trkpt>
      <trkpt lat="44.36198" lon="2.60241">
        <ele>540.12</ele>
        <time>2016-06-23T02:32:11Z</time>
      </trkpt>
      <trkpt lat="44.36199" lon="2.60243">
        <ele>540.08</ele>
        <time>2016-06-23T02:32:12Z</time>
      </trkpt>
      <trkpt lat="44.36199" lon="2.60244">
        <ele>540.03</ele>
        <time>2016-06-23T02:32:13Z</time>
      </trkpt>
      <trkpt lat="44.36199" lon="2.60246">
        <ele>539.98</ele>
        <time>2016-06-23T02:32:14Z</time>
      </trkpt>
      <trkpt lat="44.362" lon="2.60248">
        <ele>539.93</ele>
        <time>2016-06-23T02:32:15Z</time>
      </trkpt>
      <trkpt lat="44.362" lon="2.6025">
        <ele>539.91</ele>
        <time>2016-06-23T02:32:16Z</time>
      </trkpt>
      <trkpt lat="44.362" lon="2.60252">
        <ele>539.89</ele>
        <time>2016-06-23T02:32:17Z</time>
      </trkpt>
      <trkpt lat="44.362" lon="2.60256">
        <ele>539.83</ele>
        <time>2016-06-23T02:32:19Z</time>
      </trkpt>
      <trkpt lat="44.362" lon="2.60258">
        <ele>539.79</ele>
        <time>2016-06-23T02:32:20Z</time>
      </trkpt>
      <trkpt lat="44.36201" lon="2.60268">
        <ele>539.91</ele>
        <time>2016-06-23T02:32:25Z</time>
      </trkpt>
      <trkpt lat="44.36201" lon="2.6027">
        <ele>539.93</ele>
        <time>2016-06-23T02:32:26Z</time>
      </trkpt>
      <trkpt lat="44.36202" lon="2.60272">
        <ele>539.97</ele>
        <time>2016-06-23T02:32:27Z</time>
      </trkpt>
      <trkpt lat="44.36202" lon="2.60273">
        <ele>539.98</ele>
        <time>2016-06-23T02:32:28Z</time>
      </trkpt>
      <trkpt lat="44.36202" lon="2.60275">
        <ele>539.96</ele>
        <time>2016-06-23T02:32:29Z</time>
      </trkpt>
      <trkpt lat="44.36202" lon="2.60277">
        <ele>539.93</ele>
        <time>2016-06-23T02:32:30Z</time>
      </trkpt>
      <trkpt lat="44.36203" lon="2.60281">
        <ele>539.87</ele>
        <time>2016-06-23T02:32:32Z</time>
      </trkpt>
      <trkpt lat="44.36203" lon="2.60283">
        <ele>539.83</ele>
        <time>2016-06-23T02:32:33Z</time>
      </trkpt>
      <trkpt lat="44.36203" lon="2.60285">
        <ele>539.79</ele>
        <time>2016-06-23T02:32:34Z</time>
      </trkpt>
      <trkpt lat="44.36203" lon="2.60288">
        <ele>539.77</ele>
        <time>2016-06-23T02:32:35Z</time>
      </trkpt>
      <trkpt lat="44.36203" lon="2.6029">
        <ele>539.74</ele>
        <time>2016-06-23T02:32:36Z</time>
      </trkpt>
      <trkpt lat="44.36204" lon="2.60291">
        <ele>539.72</ele>
        <time>2016-06-23T02:32:37Z</time>
      </trkpt>
      <trkpt lat="44.36204" lon="2.60294">
        <ele>539.7</ele>
        <time>2016-06-23T02:32:38Z</time>
      </trkpt>
      <trkpt lat="44.36204" lon="2.60296">
        <ele>539.7</ele>
        <time>2016-06-23T02:32:39Z</time>
      </trkpt>
      <trkpt lat="44.36207" lon="2.60315">
        <ele>540.06</ele>
        <time>2016-06-23T02:32:50Z</time>
      </trkpt>
      <trkpt lat="44.36208" lon="2.60317">
        <ele>540.1</ele>
        <time>2016-06-23T02:32:51Z</time>
      </trkpt>
      <trkpt lat="44.36224" lon="2.6033">
        <ele>540.64</ele>
        <time>2016-06-23T02:33:06Z</time>
      </trkpt>
      <trkpt lat="44.36241" lon="2.60354">
        <ele>540.79</ele>
        <time>2016-06-23T02:33:24Z</time>
      </trkpt>
      <trkpt lat="44.36257" lon="2.60376">
        <ele>541.32</ele>
        <time>2016-06-23T02:33:40Z</time>
      </trkpt>
      <trkpt lat="44.36261" lon="2.60381">
        <ele>541.48</ele>
        <time>2016-06-23T02:33:44Z</time>
      </trkpt>
      <trkpt lat="44.36267" lon="2.60392">
        <ele>541.74</ele>
        <time>2016-06-23T02:33:51Z</time>
      </trkpt>
      <trkpt lat="44.36276" lon="2.60412">
        <ele>542.09</ele>
        <time>2016-06-23T02:34:04Z</time>
      </trkpt>
      <trkpt lat="44.3629" lon="2.60432">
        <ele>542.57</ele>
        <time>2016-06-23T02:34:20Z</time>
      </trkpt>
      <trkpt lat="44.36305" lon="2.60453">
        <ele>543.2</ele>
        <time>2016-06-23T02:34:34Z</time>
      </trkpt>
      <trkpt lat="44.36317" lon="2.60475">
        <ele>544.02</ele>
        <time>2016-06-23T02:34:50Z</time>
      </trkpt>
      <trkpt lat="44.36322" lon="2.60488">
        <ele>544.02</ele>
        <time>2016-06-23T02:34:58Z</time>
      </trkpt>
      <trkpt lat="44.36333" lon="2.60501">
        <ele>543.9</ele>
        <time>2016-06-23T02:35:09Z</time>
      </trkpt>
      <trkpt lat="44.36348" lon="2.60518">
        <ele>545.16</ele>
        <time>2016-06-23T02:35:24Z</time>
      </trkpt>
      <trkpt lat="44.36352" lon="2.60523">
        <ele>545.32</ele>
        <time>2016-06-23T02:35:28Z</time>
      </trkpt>
      <trkpt lat="44.36362" lon="2.60534">
        <ele>545.65</ele>
        <time>2016-06-23T02:35:38Z</time>
      </trkpt>
      <trkpt lat="44.3638" lon="2.60558">
        <ele>547.07</ele>
        <time>2016-06-23T02:35:56Z</time>
      </trkpt>
      <trkpt lat="44.36394" lon="2.60577">
        <ele>549.02</ele>
        <time>2016-06-23T02:36:11Z</time>
      </trkpt>
      <trkpt lat="44.364" lon="2.60587">
        <ele>550.02</ele>
        <time>2016-06-23T02:36:17Z</time>
      </trkpt>
      <trkpt lat="44.36417" lon="2.60605">
        <ele>550.95</ele>
        <time>2016-06-23T02:36:33Z</time>
      </trkpt>
      <trkpt lat="44.36431" lon="2.60591">
        <ele>552.61</ele>
        <time>2016-06-23T02:36:47Z</time>
      </trkpt>
      <trkpt lat="44.36444" lon="2.60571">
        <ele>554.65</ele>
        <time>2016-06-23T02:37:02Z</time>
      </trkpt>
      <trkpt lat="44.36459" lon="2.60544">
        <ele>556.14</ele>
        <time>2016-06-23T02:37:20Z</time>
      </trkpt>
      <trkpt lat="44.36474" lon="2.60522">
        <ele>556.52</ele>
        <time>2016-06-23T02:37:36Z</time>
      </trkpt>
      <trkpt lat="44.36491" lon="2.605">
        <ele>557.66</ele>
        <time>2016-06-23T02:37:53Z</time>
      </trkpt>
      <trkpt lat="44.36508" lon="2.6048">
        <ele>558.9</ele>
        <time>2016-06-23T02:38:10Z</time>
      </trkpt>
      <trkpt lat="44.36523" lon="2.60465">
        <ele>561.11</ele>
        <time>2016-06-23T02:38:24Z</time>
      </trkpt>
      <trkpt lat="44.36539" lon="2.60452">
        <ele>561.29</ele>
        <time>2016-06-23T02:38:38Z</time>
      </trkpt>
      <trkpt lat="44.36554" lon="2.60437">
        <ele>562.09</ele>
        <time>2016-06-23T02:38:52Z</time>
      </trkpt>
      <trkpt lat="44.3657" lon="2.6042">
        <ele>564.5</ele>
        <time>2016-06-23T02:39:09Z</time>
      </trkpt>
      <trkpt lat="44.36589" lon="2.60407">
        <ele>566.56</ele>
        <time>2016-06-23T02:39:25Z</time>
      </trkpt>
      <trkpt lat="44.36609" lon="2.60397">
        <ele>568.07</ele>
        <time>2016-06-23T02:39:42Z</time>
      </trkpt>
      <trkpt lat="44.36631" lon="2.604">
        <ele>568.77</ele>
        <time>2016-06-23T02:39:59Z</time>
      </trkpt>
      <trkpt lat="44.36654" lon="2.60413">
        <ele>569.92</ele>
        <time>2016-06-23T02:40:16Z</time>
      </trkpt>
      <trkpt lat="44.36674" lon="2.6043">
        <ele>570.41</ele>
        <time>2016-06-23T02:40:33Z</time>
      </trkpt>
      <trkpt lat="44.36688" lon="2.60454">
        <ele>569.63</ele>
        <time>2016-06-23T02:40:49Z</time>
      </trkpt>
      <trkpt lat="44.36699" lon="2.60478">
        <ele>569</ele>
        <time>2016-06-23T02:41:04Z</time>
      </trkpt>
      <trkpt lat="44.36708" lon="2.60501">
        <ele>569.09</ele>
        <time>2016-06-23T02:41:17Z</time>
      </trkpt>
      <trkpt lat="44.36716" lon="2.60526">
        <ele>569.21</ele>
        <time>2016-06-23T02:41:30Z</time>
      </trkpt>
      <trkpt lat="44.36724" lon="2.60554">
        <ele>567.61</ele>
        <time>2016-06-23T02:41:45Z</time>
      </trkpt>
      <trkpt lat="44.36727" lon="2.60574">
        <ele>566.53</ele>
        <time>2016-06-23T02:41:55Z</time>
      </trkpt>
      <trkpt lat="44.36733" lon="2.60607">
        <ele>565.37</ele>
        <time>2016-06-23T02:42:12Z</time>
      </trkpt>
      <trkpt lat="44.36736" lon="2.60635">
        <ele>564.9</ele>
        <time>2016-06-23T02:42:26Z</time>
      </trkpt>
      <trkpt lat="44.36739" lon="2.60663">
        <ele>565.43</ele>
        <time>2016-06-23T02:42:40Z</time>
      </trkpt>
      <trkpt lat="44.3674" lon="2.60668">
        <ele>565.39</ele>
        <time>2016-06-23T02:42:42Z</time>
      </trkpt>
      <trkpt lat="44.3674" lon="2.60678">
        <ele>565.3</ele>
        <time>2016-06-23T02:42:47Z</time>
      </trkpt>
      <trkpt lat="44.3674" lon="2.60682">
        <ele>565.23</ele>
        <time>2016-06-23T02:42:49Z</time>
      </trkpt>
      <trkpt lat="44.36741" lon="2.60696">
        <ele>564.82</ele>
        <time>2016-06-23T02:42:56Z</time>
      </trkpt>
      <trkpt lat="44.36742" lon="2.60701">
        <ele>564.63</ele>
        <time>2016-06-23T02:42:59Z</time>
      </trkpt>
      <trkpt lat="44.36744" lon="2.60729">
        <ele>564.19</ele>
        <time>2016-06-23T02:43:13Z</time>
      </trkpt>
      <trkpt lat="44.36744" lon="2.60737">
        <ele>564.25</ele>
        <time>2016-06-23T02:43:17Z</time>
      </trkpt>
      <trkpt lat="44.36745" lon="2.60759">
        <ele>563.69</ele>
        <time>2016-06-23T02:43:28Z</time>
      </trkpt>
      <trkpt lat="44.36745" lon="2.60771">
        <ele>563.02</ele>
        <time>2016-06-23T02:43:34Z</time>
      </trkpt>
      <trkpt lat="44.36744" lon="2.60788">
        <ele>562.18</ele>
        <time>2016-06-23T02:43:43Z</time>
      </trkpt>
      <trkpt lat="44.36743" lon="2.60796">
        <ele>561.81</ele>
        <time>2016-06-23T02:43:47Z</time>
      </trkpt>
      <trkpt lat="44.36743" lon="2.60802">
        <ele>561.56</ele>
        <time>2016-06-23T02:43:50Z</time>
      </trkpt>
      <trkpt lat="44.36743" lon="2.60821">
        <ele>561.09</ele>
        <time>2016-06-23T02:44:00Z</time>
      </trkpt>
      <trkpt lat="44.36744" lon="2.60839">
        <ele>561.66</ele>
        <time>2016-06-23T02:44:09Z</time>
      </trkpt>
      <trkpt lat="44.36745" lon="2.60867">
        <ele>561.21</ele>
        <time>2016-06-23T02:44:23Z</time>
      </trkpt>
      <trkpt lat="44.36744" lon="2.60879">
        <ele>561.06</ele>
        <time>2016-06-23T02:44:29Z</time>
      </trkpt>
      <trkpt lat="44.36744" lon="2.60905">
        <ele>560.21</ele>
        <time>2016-06-23T02:44:42Z</time>
      </trkpt>
      <trkpt lat="44.36745" lon="2.60928">
        <ele>559.62</ele>
        <time>2016-06-23T02:44:54Z</time>
      </trkpt>
      <trkpt lat="44.36749" lon="2.6096">
        <ele>558.62</ele>
        <time>2016-06-23T02:45:10Z</time>
      </trkpt>
      <trkpt lat="44.36748" lon="2.6097">
        <ele>558.64</ele>
        <time>2016-06-23T02:45:15Z</time>
      </trkpt>
      <trkpt lat="44.36749" lon="2.60977">
        <ele>558.63</ele>
        <time>2016-06-23T02:45:19Z</time>
      </trkpt>
      <trkpt lat="44.36748" lon="2.61001">
        <ele>558.51</ele>
        <time>2016-06-23T02:45:31Z</time>
      </trkpt>
      <trkpt lat="44.36745" lon="2.61028">
        <ele>557.94</ele>
        <time>2016-06-23T02:45:46Z</time>
      </trkpt>
      <trkpt lat="44.36743" lon="2.61033">
        <ele>557.77</ele>
        <time>2016-06-23T02:45:49Z</time>
      </trkpt>
      <trkpt lat="44.36743" lon="2.61044">
        <ele>557.68</ele>
        <time>2016-06-23T02:45:54Z</time>
      </trkpt>
      <trkpt lat="44.3674" lon="2.61077">
        <ele>557.61</ele>
        <time>2016-06-23T02:46:09Z</time>
      </trkpt>
      <trkpt lat="44.36738" lon="2.61102">
        <ele>557.33</ele>
        <time>2016-06-23T02:46:21Z</time>
      </trkpt>
      <trkpt lat="44.36734" lon="2.6113">
        <ele>557.47</ele>
        <time>2016-06-23T02:46:35Z</time>
      </trkpt>
      <trkpt lat="44.36734" lon="2.61137">
        <ele>557.52</ele>
        <time>2016-06-23T02:46:39Z</time>
      </trkpt>
      <trkpt lat="44.3673" lon="2.6116">
        <ele>557.48</ele>
        <time>2016-06-23T02:46:51Z</time>
      </trkpt>
      <trkpt lat="44.36727" lon="2.61186">
        <ele>557.96</ele>
        <time>2016-06-23T02:47:06Z</time>
      </trkpt>
      <trkpt lat="44.36722" lon="2.61209">
        <ele>558.4</ele>
        <time>2016-06-23T02:47:19Z</time>
      </trkpt>
      <trkpt lat="44.36719" lon="2.61239">
        <ele>559.24</ele>
        <time>2016-06-23T02:47:34Z</time>
      </trkpt>
      <trkpt lat="44.36718" lon="2.61248">
        <ele>559.45</ele>
        <time>2016-06-23T02:47:38Z</time>
      </trkpt>
      <trkpt lat="44.36717" lon="2.61257">
        <ele>559.61</ele>
        <time>2016-06-23T02:47:42Z</time>
      </trkpt>
      <trkpt lat="44.36716" lon="2.61276">
        <ele>560.31</ele>
        <time>2016-06-23T02:47:52Z</time>
      </trkpt>
      <trkpt lat="44.36715" lon="2.61294">
        <ele>560.47</ele>
        <time>2016-06-23T02:48:01Z</time>
      </trkpt>
      <trkpt lat="44.36715" lon="2.61308">
        <ele>560.94</ele>
        <time>2016-06-23T02:48:08Z</time>
      </trkpt>
      <trkpt lat="44.36715" lon="2.61318">
        <ele>561.39</ele>
        <time>2016-06-23T02:48:13Z</time>
      </trkpt>
      <trkpt lat="44.36714" lon="2.61343">
        <ele>562.31</ele>
        <time>2016-06-23T02:48:26Z</time>
      </trkpt>
      <trkpt lat="44.36719" lon="2.6137">
        <ele>562.51</ele>
        <time>2016-06-23T02:48:41Z</time>
      </trkpt>
      <trkpt lat="44.36726" lon="2.61396">
        <ele>562.51</ele>
        <time>2016-06-23T02:48:56Z</time>
      </trkpt>
      <trkpt lat="44.36736" lon="2.61424">
        <ele>563.09</ele>
        <time>2016-06-23T02:49:11Z</time>
      </trkpt>
      <trkpt lat="44.36745" lon="2.61447">
        <ele>562.61</ele>
        <time>2016-06-23T02:49:25Z</time>
      </trkpt>
      <trkpt lat="44.36756" lon="2.61468">
        <ele>562.78</ele>
        <time>2016-06-23T02:49:39Z</time>
      </trkpt>
      <trkpt lat="44.36758" lon="2.61473">
        <ele>563.03</ele>
        <time>2016-06-23T02:49:42Z</time>
      </trkpt>
      <trkpt lat="44.36773" lon="2.61493">
        <ele>564.18</ele>
        <time>2016-06-23T02:49:59Z</time>
      </trkpt>
      <trkpt lat="44.3679" lon="2.6152">
        <ele>565.1</ele>
        <time>2016-06-23T02:50:17Z</time>
      </trkpt>
      <trkpt lat="44.36807" lon="2.61543">
        <ele>564.83</ele>
        <time>2016-06-23T02:50:33Z</time>
      </trkpt>
      <trkpt lat="44.36827" lon="2.61567">
        <ele>564.12</ele>
        <time>2016-06-23T02:50:52Z</time>
      </trkpt>
      <trkpt lat="44.36841" lon="2.61596">
        <ele>563.18</ele>
        <time>2016-06-23T02:51:09Z</time>
      </trkpt>
      <trkpt lat="44.36857" lon="2.6162">
        <ele>562.27</ele>
        <time>2016-06-23T02:51:25Z</time>
      </trkpt>
      <trkpt lat="44.36872" lon="2.61642">
        <ele>561.22</ele>
        <time>2016-06-23T02:51:41Z</time>
      </trkpt>
      <trkpt lat="44.36886" lon="2.61663">
        <ele>560.3</ele>
        <time>2016-06-23T02:51:56Z</time>
      </trkpt>
      <trkpt lat="44.36894" lon="2.61677">
        <ele>559.25</ele>
        <time>2016-06-23T02:52:05Z</time>
      </trkpt>
      <trkpt lat="44.36899" lon="2.61692">
        <ele>557.65</ele>
        <time>2016-06-23T02:52:13Z</time>
      </trkpt>
      <trkpt lat="44.3691" lon="2.61715">
        <ele>555.54</ele>
        <time>2016-06-23T02:52:26Z</time>
      </trkpt>
      <trkpt lat="44.36914" lon="2.61724">
        <ele>555.09</ele>
        <time>2016-06-23T02:52:31Z</time>
      </trkpt>
      <trkpt lat="44.36921" lon="2.61739">
        <ele>554.64</ele>
        <time>2016-06-23T02:52:40Z</time>
      </trkpt>
      <trkpt lat="44.36924" lon="2.61753">
        <ele>554.36</ele>
        <time>2016-06-23T02:52:47Z</time>
      </trkpt>
      <trkpt lat="44.36926" lon="2.61759">
        <ele>554.06</ele>
        <time>2016-06-23T02:52:51Z</time>
      </trkpt>
      <trkpt lat="44.36932" lon="2.61772">
        <ele>553.41</ele>
        <time>2016-06-23T02:52:58Z</time>
      </trkpt>
      <trkpt lat="44.36943" lon="2.61798">
        <ele>552</ele>
        <time>2016-06-23T02:53:12Z</time>
      </trkpt>
      <trkpt lat="44.36953" lon="2.61821">
        <ele>550.8</ele>
        <time>2016-06-23T02:53:25Z</time>
      </trkpt>
      <trkpt lat="44.36959" lon="2.61838">
        <ele>550.13</ele>
        <time>2016-06-23T02:53:35Z</time>
      </trkpt>
      <trkpt lat="44.3697" lon="2.61863">
        <ele>549.74</ele>
        <time>2016-06-23T02:53:50Z</time>
      </trkpt>
      <trkpt lat="44.36979" lon="2.61888">
        <ele>549.81</ele>
        <time>2016-06-23T02:54:04Z</time>
      </trkpt>
      <trkpt lat="44.36981" lon="2.61893">
        <ele>549.75</ele>
        <time>2016-06-23T02:54:07Z</time>
      </trkpt>
      <trkpt lat="44.36986" lon="2.61901">
        <ele>549.73</ele>
        <time>2016-06-23T02:54:12Z</time>
      </trkpt>
      <trkpt lat="44.36999" lon="2.61921">
        <ele>549.27</ele>
        <time>2016-06-23T02:54:26Z</time>
      </trkpt>
      <trkpt lat="44.37013" lon="2.61941">
        <ele>548.81</ele>
        <time>2016-06-23T02:54:41Z</time>
      </trkpt>
      <trkpt lat="44.37029" lon="2.61963">
        <ele>548.65</ele>
        <time>2016-06-23T02:54:57Z</time>
      </trkpt>
      <trkpt lat="44.37047" lon="2.61983">
        <ele>548.99</ele>
        <time>2016-06-23T02:55:12Z</time>
      </trkpt>
      <trkpt lat="44.37061" lon="2.62002">
        <ele>549.12</ele>
        <time>2016-06-23T02:55:27Z</time>
      </trkpt>
      <trkpt lat="44.37079" lon="2.62019">
        <ele>548.58</ele>
        <time>2016-06-23T02:55:43Z</time>
      </trkpt>
      <trkpt lat="44.37098" lon="2.62031">
        <ele>548.29</ele>
        <time>2016-06-23T02:55:58Z</time>
      </trkpt>
      <trkpt lat="44.37116" lon="2.62042">
        <ele>547.96</ele>
        <time>2016-06-23T02:56:12Z</time>
      </trkpt>
      <trkpt lat="44.37135" lon="2.62055">
        <ele>547.91</ele>
        <time>2016-06-23T02:56:28Z</time>
      </trkpt>
      <trkpt lat="44.37155" lon="2.62067">
        <ele>547.87</ele>
        <time>2016-06-23T02:56:43Z</time>
      </trkpt>
      <trkpt lat="44.37172" lon="2.62079">
        <ele>547.91</ele>
        <time>2016-06-23T02:56:58Z</time>
      </trkpt>
      <trkpt lat="44.3719" lon="2.62091">
        <ele>548.13</ele>
        <time>2016-06-23T02:57:12Z</time>
      </trkpt>
      <trkpt lat="44.37209" lon="2.62103">
        <ele>547.89</ele>
        <time>2016-06-23T02:57:27Z</time>
      </trkpt>
      <trkpt lat="44.3723" lon="2.62114">
        <ele>548.39</ele>
        <time>2016-06-23T02:57:42Z</time>
      </trkpt>
      <trkpt lat="44.37251" lon="2.62121">
        <ele>548.93</ele>
        <time>2016-06-23T02:57:57Z</time>
      </trkpt>
      <trkpt lat="44.37273" lon="2.62132">
        <ele>548.86</ele>
        <time>2016-06-23T02:58:15Z</time>
      </trkpt>
      <trkpt lat="44.37297" lon="2.62144">
        <ele>549.69</ele>
        <time>2016-06-23T02:58:34Z</time>
      </trkpt>
      <trkpt lat="44.37305" lon="2.62147">
        <ele>549.91</ele>
        <time>2016-06-23T02:58:40Z</time>
      </trkpt>
      <trkpt lat="44.37315" lon="2.62149">
        <ele>549.82</ele>
        <time>2016-06-23T02:58:47Z</time>
      </trkpt>
      <trkpt lat="44.37338" lon="2.62165">
        <ele>549.09</ele>
        <time>2016-06-23T02:59:05Z</time>
      </trkpt>
      <trkpt lat="44.37356" lon="2.62179">
        <ele>549.68</ele>
        <time>2016-06-23T02:59:21Z</time>
      </trkpt>
      <trkpt lat="44.37374" lon="2.62193">
        <ele>550.26</ele>
        <time>2016-06-23T02:59:37Z</time>
      </trkpt>
      <trkpt lat="44.3739" lon="2.62206">
        <ele>550.55</ele>
        <time>2016-06-23T02:59:51Z</time>
      </trkpt>
      <trkpt lat="44.37404" lon="2.62218">
        <ele>550.41</ele>
        <time>2016-06-23T03:00:04Z</time>
      </trkpt>
      <trkpt lat="44.37424" lon="2.62232">
        <ele>551.25</ele>
        <time>2016-06-23T03:00:20Z</time>
      </trkpt>
      <trkpt lat="44.37443" lon="2.62243">
        <ele>552.89</ele>
        <time>2016-06-23T03:00:36Z</time>
      </trkpt>
      <trkpt lat="44.37461" lon="2.62245">
        <ele>555.09</ele>
        <time>2016-06-23T03:00:53Z</time>
      </trkpt>
      <trkpt lat="44.37476" lon="2.62249">
        <ele>557.59</ele>
        <time>2016-06-23T03:01:07Z</time>
      </trkpt>
      <trkpt lat="44.37489" lon="2.62254">
        <ele>560.06</ele>
        <time>2016-06-23T03:01:21Z</time>
      </trkpt>
      <trkpt lat="44.37493" lon="2.62258">
        <ele>560.83</ele>
        <time>2016-06-23T03:01:26Z</time>
      </trkpt>
      <trkpt lat="44.37494" lon="2.62261">
        <ele>561.14</ele>
        <time>2016-06-23T03:01:28Z</time>
      </trkpt>
      <trkpt lat="44.37494" lon="2.62264">
        <ele>561.48</ele>
        <time>2016-06-23T03:01:30Z</time>
      </trkpt>
      <trkpt lat="44.37491" lon="2.62272">
        <ele>562.43</ele>
        <time>2016-06-23T03:01:36Z</time>
      </trkpt>
      <trkpt lat="44.37486" lon="2.62291">
        <ele>564.06</ele>
        <time>2016-06-23T03:01:48Z</time>
      </trkpt>
      <trkpt lat="44.37484" lon="2.62303">
        <ele>565</ele>
        <time>2016-06-23T03:01:55Z</time>
      </trkpt>
      <trkpt lat="44.3748" lon="2.62314">
        <ele>566.02</ele>
        <time>2016-06-23T03:02:02Z</time>
      </trkpt>
      <trkpt lat="44.37476" lon="2.62333">
        <ele>567.81</ele>
        <time>2016-06-23T03:02:14Z</time>
      </trkpt>
      <trkpt lat="44.37474" lon="2.62347">
        <ele>569.05</ele>
        <time>2016-06-23T03:02:23Z</time>
      </trkpt>
      <trkpt lat="44.37473" lon="2.62358">
        <ele>570.2</ele>
        <time>2016-06-23T03:02:30Z</time>
      </trkpt>
      <trkpt lat="44.37472" lon="2.62362">
        <ele>570.73</ele>
        <time>2016-06-23T03:02:33Z</time>
      </trkpt>
      <trkpt lat="44.3747" lon="2.62382">
        <ele>572.45</ele>
        <time>2016-06-23T03:02:47Z</time>
      </trkpt>
      <trkpt lat="44.37469" lon="2.62399">
        <ele>574.09</ele>
        <time>2016-06-23T03:02:58Z</time>
      </trkpt>
      <trkpt lat="44.37469" lon="2.62407">
        <ele>575.17</ele>
        <time>2016-06-23T03:03:03Z</time>
      </trkpt>
      <trkpt lat="44.3747" lon="2.62427">
        <ele>577.8</ele>
        <time>2016-06-23T03:03:18Z</time>
      </trkpt>
      <trkpt lat="44.37471" lon="2.6244">
        <ele>579.71</ele>
        <time>2016-06-23T03:03:27Z</time>
      </trkpt>
      <trkpt lat="44.37472" lon="2.62445">
        <ele>580.39</ele>
        <time>2016-06-23T03:03:30Z</time>
      </trkpt>
      <trkpt lat="44.37474" lon="2.62462">
        <ele>582.58</ele>
        <time>2016-06-23T03:03:42Z</time>
      </trkpt>
      <trkpt lat="44.37481" lon="2.62476">
        <ele>585.51</ele>
        <time>2016-06-23T03:03:56Z</time>
      </trkpt>
      <trkpt lat="44.37488" lon="2.62487">
        <ele>588.21</ele>
        <time>2016-06-23T03:04:09Z</time>
      </trkpt>
      <trkpt lat="44.37493" lon="2.62503">
        <ele>591.01</ele>
        <time>2016-06-23T03:04:23Z</time>
      </trkpt>
      <trkpt lat="44.37501" lon="2.6252">
        <ele>593.73</ele>
        <time>2016-06-23T03:04:38Z</time>
      </trkpt>
      <trkpt lat="44.37509" lon="2.62529">
        <ele>596.81</ele>
        <time>2016-06-23T03:04:51Z</time>
      </trkpt>
      <trkpt lat="44.37514" lon="2.62532">
        <ele>599.71</ele>
        <time>2016-06-23T03:05:07Z</time>
      </trkpt>
      <trkpt lat="44.37516" lon="2.62533">
        <ele>599.43</ele>
        <time>2016-06-23T03:05:31Z</time>
      </trkpt>
      <trkpt lat="44.37518" lon="2.62534">
        <ele>599.87</ele>
        <time>2016-06-23T03:05:41Z</time>
      </trkpt>
      <trkpt lat="44.37531" lon="2.6254">
        <ele>601.26</ele>
        <time>2016-06-23T03:05:55Z</time>
      </trkpt>
      <trkpt lat="44.37546" lon="2.62544">
        <ele>604</ele>
        <time>2016-06-23T03:06:10Z</time>
      </trkpt>
      <trkpt lat="44.37549" lon="2.62543">
        <ele>604.9</ele>
        <time>2016-06-23T03:06:13Z</time>
      </trkpt>
      <trkpt lat="44.37566" lon="2.6255">
        <ele>608.31</ele>
        <time>2016-06-23T03:06:30Z</time>
      </trkpt>
      <trkpt lat="44.37582" lon="2.62555">
        <ele>610.48</ele>
        <time>2016-06-23T03:06:44Z</time>
      </trkpt>
      <trkpt lat="44.37597" lon="2.62558">
        <ele>612.19</ele>
        <time>2016-06-23T03:06:57Z</time>
      </trkpt>
      <trkpt lat="44.37612" lon="2.62566">
        <ele>613.58</ele>
        <time>2016-06-23T03:07:10Z</time>
      </trkpt>
      <trkpt lat="44.37628" lon="2.62572">
        <ele>614.48</ele>
        <time>2016-06-23T03:07:23Z</time>
      </trkpt>
      <trkpt lat="44.37645" lon="2.62579">
        <ele>615.01</ele>
        <time>2016-06-23T03:07:37Z</time>
      </trkpt>
      <trkpt lat="44.37665" lon="2.62591">
        <ele>616.31</ele>
        <time>2016-06-23T03:07:54Z</time>
      </trkpt>
      <trkpt lat="44.37683" lon="2.62603">
        <ele>617.25</ele>
        <time>2016-06-23T03:08:09Z</time>
      </trkpt>
      <trkpt lat="44.37701" lon="2.62624">
        <ele>617.15</ele>
        <time>2016-06-23T03:08:27Z</time>
      </trkpt>
      <trkpt lat="44.37716" lon="2.62648">
        <ele>617.33</ele>
        <time>2016-06-23T03:08:44Z</time>
      </trkpt>
      <trkpt lat="44.37727" lon="2.62663">
        <ele>617.7</ele>
        <time>2016-06-23T03:08:55Z</time>
      </trkpt>
      <trkpt lat="44.37729" lon="2.62666">
        <ele>617.67</ele>
        <time>2016-06-23T03:08:57Z</time>
      </trkpt>
      <trkpt lat="44.37733" lon="2.62675">
        <ele>617.49</ele>
        <time>2016-06-23T03:09:03Z</time>
      </trkpt>
      <trkpt lat="44.37742" lon="2.62702">
        <ele>617.51</ele>
        <time>2016-06-23T03:09:18Z</time>
      </trkpt>
      <trkpt lat="44.37751" lon="2.62734">
        <ele>617.06</ele>
        <time>2016-06-23T03:09:35Z</time>
      </trkpt>
      <trkpt lat="44.37755" lon="2.62745">
        <ele>616.73</ele>
        <time>2016-06-23T03:09:41Z</time>
      </trkpt>
      <trkpt lat="44.37758" lon="2.62754">
        <ele>616.43</ele>
        <time>2016-06-23T03:09:46Z</time>
      </trkpt>
      <trkpt lat="44.37762" lon="2.62777">
        <ele>615.61</ele>
        <time>2016-06-23T03:09:59Z</time>
      </trkpt>
      <trkpt lat="44.37764" lon="2.62806">
        <ele>613.38</ele>
        <time>2016-06-23T03:10:13Z</time>
      </trkpt>
      <trkpt lat="44.37766" lon="2.62826">
        <ele>611.93</ele>
        <time>2016-06-23T03:10:23Z</time>
      </trkpt>
      <trkpt lat="44.37767" lon="2.62836">
        <ele>611.17</ele>
        <time>2016-06-23T03:10:28Z</time>
      </trkpt>
      <trkpt lat="44.3777" lon="2.62851">
        <ele>610.85</ele>
        <time>2016-06-23T03:10:42Z</time>
      </trkpt>
      <trkpt lat="44.37779" lon="2.62879">
        <ele>610.44</ele>
        <time>2016-06-23T03:10:57Z</time>
      </trkpt>
      <trkpt lat="44.37793" lon="2.62902">
        <ele>609.77</ele>
        <time>2016-06-23T03:11:12Z</time>
      </trkpt>
      <trkpt lat="44.37797" lon="2.62907">
        <ele>609.56</ele>
        <time>2016-06-23T03:11:16Z</time>
      </trkpt>
      <trkpt lat="44.37798" lon="2.62909">
        <ele>609.45</ele>
        <time>2016-06-23T03:11:18Z</time>
      </trkpt>
      <trkpt lat="44.37808" lon="2.62923">
        <ele>608.03</ele>
        <time>2016-06-23T03:11:28Z</time>
      </trkpt>
      <trkpt lat="44.37823" lon="2.62945">
        <ele>607.92</ele>
        <time>2016-06-23T03:11:42Z</time>
      </trkpt>
      <trkpt lat="44.37838" lon="2.62967">
        <ele>609.13</ele>
        <time>2016-06-23T03:11:58Z</time>
      </trkpt>
      <trkpt lat="44.37855" lon="2.62993">
        <ele>610.42</ele>
        <time>2016-06-23T03:12:16Z</time>
      </trkpt>
      <trkpt lat="44.37866" lon="2.63013">
        <ele>611.28</ele>
        <time>2016-06-23T03:12:30Z</time>
      </trkpt>
      <trkpt lat="44.37878" lon="2.63033">
        <ele>612.21</ele>
        <time>2016-06-23T03:12:44Z</time>
      </trkpt>
      <trkpt lat="44.3789" lon="2.63058">
        <ele>613.03</ele>
        <time>2016-06-23T03:13:00Z</time>
      </trkpt>
      <trkpt lat="44.37899" lon="2.63085">
        <ele>614.24</ele>
        <time>2016-06-23T03:13:16Z</time>
      </trkpt>
      <trkpt lat="44.37912" lon="2.63108">
        <ele>614.43</ele>
        <time>2016-06-23T03:13:31Z</time>
      </trkpt>
      <trkpt lat="44.37924" lon="2.63133">
        <ele>613.73</ele>
        <time>2016-06-23T03:13:46Z</time>
      </trkpt>
      <trkpt lat="44.37939" lon="2.63163">
        <ele>612.83</ele>
        <time>2016-06-23T03:14:04Z</time>
      </trkpt>
      <trkpt lat="44.37953" lon="2.63188">
        <ele>612.28</ele>
        <time>2016-06-23T03:14:20Z</time>
      </trkpt>
      <trkpt lat="44.37966" lon="2.63208">
        <ele>611.71</ele>
        <time>2016-06-23T03:14:33Z</time>
      </trkpt>
      <trkpt lat="44.37981" lon="2.63231">
        <ele>610.9</ele>
        <time>2016-06-23T03:14:49Z</time>
      </trkpt>
      <trkpt lat="44.37992" lon="2.63252">
        <ele>610.79</ele>
        <time>2016-06-23T03:15:02Z</time>
      </trkpt>
      <trkpt lat="44.38002" lon="2.63276">
        <ele>610.75</ele>
        <time>2016-06-23T03:15:17Z</time>
      </trkpt>
      <trkpt lat="44.38011" lon="2.63296">
        <ele>610.8</ele>
        <time>2016-06-23T03:15:30Z</time>
      </trkpt>
      <trkpt lat="44.38017" lon="2.63312">
        <ele>611</ele>
        <time>2016-06-23T03:15:39Z</time>
      </trkpt>
      <trkpt lat="44.38029" lon="2.63346">
        <ele>610.67</ele>
        <time>2016-06-23T03:15:58Z</time>
      </trkpt>
      <trkpt lat="44.38043" lon="2.6337">
        <ele>610.36</ele>
        <time>2016-06-23T03:16:14Z</time>
      </trkpt>
      <trkpt lat="44.38054" lon="2.63384">
        <ele>610.3</ele>
        <time>2016-06-23T03:16:24Z</time>
      </trkpt>
      <trkpt lat="44.38069" lon="2.63401">
        <ele>610.05</ele>
        <time>2016-06-23T03:16:39Z</time>
      </trkpt>
      <trkpt lat="44.38086" lon="2.63421">
        <ele>609.81</ele>
        <time>2016-06-23T03:16:54Z</time>
      </trkpt>
      <trkpt lat="44.38104" lon="2.63444">
        <ele>609.1</ele>
        <time>2016-06-23T03:17:11Z</time>
      </trkpt>
      <trkpt lat="44.38119" lon="2.63463">
        <ele>608.32</ele>
        <time>2016-06-23T03:17:25Z</time>
      </trkpt>
      <trkpt lat="44.38134" lon="2.6348">
        <ele>607.53</ele>
        <time>2016-06-23T03:17:39Z</time>
      </trkpt>
      <trkpt lat="44.38149" lon="2.63495">
        <ele>607.19</ele>
        <time>2016-06-23T03:17:53Z</time>
      </trkpt>
      <trkpt lat="44.38169" lon="2.63513">
        <ele>607.88</ele>
        <time>2016-06-23T03:18:10Z</time>
      </trkpt>
      <trkpt lat="44.38185" lon="2.63528">
        <ele>608.36</ele>
        <time>2016-06-23T03:18:25Z</time>
      </trkpt>
      <trkpt lat="44.38193" lon="2.63538">
        <ele>608.54</ele>
        <time>2016-06-23T03:18:33Z</time>
      </trkpt>
      <trkpt lat="44.38203" lon="2.63548">
        <ele>609.17</ele>
        <time>2016-06-23T03:18:42Z</time>
      </trkpt>
      <trkpt lat="44.38209" lon="2.63555">
        <ele>609.66</ele>
        <time>2016-06-23T03:18:48Z</time>
      </trkpt>
      <trkpt lat="44.38225" lon="2.63572">
        <ele>610.08</ele>
        <time>2016-06-23T03:19:03Z</time>
      </trkpt>
      <trkpt lat="44.38243" lon="2.63595">
        <ele>610.06</ele>
        <time>2016-06-23T03:19:19Z</time>
      </trkpt>
      <trkpt lat="44.38257" lon="2.63618">
        <ele>609.41</ele>
        <time>2016-06-23T03:19:34Z</time>
      </trkpt>
      <trkpt lat="44.38272" lon="2.63637">
        <ele>608.65</ele>
        <time>2016-06-23T03:19:48Z</time>
      </trkpt>
      <trkpt lat="44.38285" lon="2.6366">
        <ele>608.09</ele>
        <time>2016-06-23T03:20:03Z</time>
      </trkpt>
      <trkpt lat="44.38287" lon="2.63663">
        <ele>607.99</ele>
        <time>2016-06-23T03:20:05Z</time>
      </trkpt>
      <trkpt lat="44.38302" lon="2.63683">
        <ele>607.46</ele>
        <time>2016-06-23T03:20:20Z</time>
      </trkpt>
      <trkpt lat="44.38318" lon="2.63698">
        <ele>607.09</ele>
        <time>2016-06-23T03:20:34Z</time>
      </trkpt>
      <trkpt lat="44.38338" lon="2.63713">
        <ele>606.89</ele>
        <time>2016-06-23T03:20:50Z</time>
      </trkpt>
      <trkpt lat="44.3836" lon="2.63727">
        <ele>606.98</ele>
        <time>2016-06-23T03:21:07Z</time>
      </trkpt>
      <trkpt lat="44.38381" lon="2.63742">
        <ele>607.44</ele>
        <time>2016-06-23T03:21:25Z</time>
      </trkpt>
      <trkpt lat="44.38402" lon="2.63755">
        <ele>607.3</ele>
        <time>2016-06-23T03:21:42Z</time>
      </trkpt>
      <trkpt lat="44.3842" lon="2.63765">
        <ele>607.37</ele>
        <time>2016-06-23T03:21:56Z</time>
      </trkpt>
      <trkpt lat="44.3844" lon="2.63781">
        <ele>607.29</ele>
        <time>2016-06-23T03:22:12Z</time>
      </trkpt>
      <trkpt lat="44.38462" lon="2.63797">
        <ele>607.45</ele>
        <time>2016-06-23T03:22:29Z</time>
      </trkpt>
      <trkpt lat="44.38486" lon="2.63811">
        <ele>608.37</ele>
        <time>2016-06-23T03:22:47Z</time>
      </trkpt>
      <trkpt lat="44.38508" lon="2.63818">
        <ele>609.55</ele>
        <time>2016-06-23T03:23:04Z</time>
      </trkpt>
      <trkpt lat="44.3853" lon="2.63811">
        <ele>610.58</ele>
        <time>2016-06-23T03:23:21Z</time>
      </trkpt>
      <trkpt lat="44.38552" lon="2.63815">
        <ele>611.9</ele>
        <time>2016-06-23T03:23:38Z</time>
      </trkpt>
      <trkpt lat="44.38577" lon="2.63823">
        <ele>613.25</ele>
        <time>2016-06-23T03:23:58Z</time>
      </trkpt>
      <trkpt lat="44.38596" lon="2.63832">
        <ele>614.7</ele>
        <time>2016-06-23T03:24:14Z</time>
      </trkpt>
      <trkpt lat="44.38616" lon="2.63839">
        <ele>616.1</ele>
        <time>2016-06-23T03:24:30Z</time>
      </trkpt>
      <trkpt lat="44.38636" lon="2.63851">
        <ele>617.18</ele>
        <time>2016-06-23T03:24:46Z</time>
      </trkpt>
      <trkpt lat="44.38656" lon="2.63862">
        <ele>618.5</ele>
        <time>2016-06-23T03:25:02Z</time>
      </trkpt>
      <trkpt lat="44.38682" lon="2.6387">
        <ele>620.32</ele>
        <time>2016-06-23T03:25:21Z</time>
      </trkpt>
      <trkpt lat="44.38701" lon="2.63881">
        <ele>621.7</ele>
        <time>2016-06-23T03:25:37Z</time>
      </trkpt>
      <trkpt lat="44.38719" lon="2.63898">
        <ele>623.05</ele>
        <time>2016-06-23T03:25:54Z</time>
      </trkpt>
      <trkpt lat="44.38739" lon="2.63913">
        <ele>623.6</ele>
        <time>2016-06-23T03:26:11Z</time>
      </trkpt>
      <trkpt lat="44.38762" lon="2.63929">
        <ele>624.18</ele>
        <time>2016-06-23T03:26:30Z</time>
      </trkpt>
      <trkpt lat="44.38786" lon="2.63935">
        <ele>625.47</ele>
        <time>2016-06-23T03:26:48Z</time>
      </trkpt>
      <trkpt lat="44.38808" lon="2.63942">
        <ele>626.11</ele>
        <time>2016-06-23T03:27:05Z</time>
      </trkpt>
      <trkpt lat="44.38835" lon="2.63952">
        <ele>627</ele>
        <time>2016-06-23T03:27:25Z</time>
      </trkpt>
      <trkpt lat="44.38857" lon="2.63961">
        <ele>627.62</ele>
        <time>2016-06-23T03:27:43Z</time>
      </trkpt>
      <trkpt lat="44.38878" lon="2.6397">
        <ele>627.47</ele>
        <time>2016-06-23T03:27:59Z</time>
      </trkpt>
      <trkpt lat="44.38899" lon="2.63977">
        <ele>626.87</ele>
        <time>2016-06-23T03:28:14Z</time>
      </trkpt>
      <trkpt lat="44.38927" lon="2.63986">
        <ele>626.67</ele>
        <time>2016-06-23T03:28:36Z</time>
      </trkpt>
      <trkpt lat="44.38949" lon="2.63994">
        <ele>627.34</ele>
        <time>2016-06-23T03:28:53Z</time>
      </trkpt>
      <trkpt lat="44.38968" lon="2.63998">
        <ele>628.12</ele>
        <time>2016-06-23T03:29:06Z</time>
      </trkpt>
      <trkpt lat="44.38992" lon="2.64004">
        <ele>628.88</ele>
        <time>2016-06-23T03:29:23Z</time>
      </trkpt>
      <trkpt lat="44.39014" lon="2.64014">
        <ele>629.36</ele>
        <time>2016-06-23T03:29:39Z</time>
      </trkpt>
      <trkpt lat="44.39036" lon="2.64024">
        <ele>629.54</ele>
        <time>2016-06-23T03:29:56Z</time>
      </trkpt>
      <trkpt lat="44.39053" lon="2.64037">
        <ele>629.25</ele>
        <time>2016-06-23T03:30:10Z</time>
      </trkpt>
      <trkpt lat="44.39072" lon="2.64051">
        <ele>628.58</ele>
        <time>2016-06-23T03:30:25Z</time>
      </trkpt>
      <trkpt lat="44.39091" lon="2.64063">
        <ele>628.45</ele>
        <time>2016-06-23T03:30:41Z</time>
      </trkpt>
      <trkpt lat="44.39109" lon="2.64075">
        <ele>628.2</ele>
        <time>2016-06-23T03:30:56Z</time>
      </trkpt>
      <trkpt lat="44.39125" lon="2.64082">
        <ele>627.9</ele>
        <time>2016-06-23T03:31:07Z</time>
      </trkpt>
      <trkpt lat="44.3915" lon="2.64091">
        <ele>627.08</ele>
        <time>2016-06-23T03:31:24Z</time>
      </trkpt>
      <trkpt lat="44.39167" lon="2.64107">
        <ele>627</ele>
        <time>2016-06-23T03:31:38Z</time>
      </trkpt>
      <trkpt lat="44.39183" lon="2.64128">
        <ele>627.19</ele>
        <time>2016-06-23T03:31:54Z</time>
      </trkpt>
      <trkpt lat="44.39201" lon="2.64144">
        <ele>627.15</ele>
        <time>2016-06-23T03:32:09Z</time>
      </trkpt>
      <trkpt lat="44.39227" lon="2.64153">
        <ele>625.94</ele>
        <time>2016-06-23T03:32:28Z</time>
      </trkpt>
      <trkpt lat="44.39248" lon="2.64157">
        <ele>626.17</ele>
        <time>2016-06-23T03:32:42Z</time>
      </trkpt>
      <trkpt lat="44.39268" lon="2.64166">
        <ele>626.27</ele>
        <time>2016-06-23T03:32:57Z</time>
      </trkpt>
      <trkpt lat="44.39277" lon="2.64169">
        <ele>626.22</ele>
        <time>2016-06-23T03:33:04Z</time>
      </trkpt>
      <trkpt lat="44.39295" lon="2.6418">
        <ele>625.66</ele>
        <time>2016-06-23T03:33:18Z</time>
      </trkpt>
      <trkpt lat="44.39314" lon="2.64193">
        <ele>624.99</ele>
        <time>2016-06-23T03:33:33Z</time>
      </trkpt>
      <trkpt lat="44.39335" lon="2.64206">
        <ele>624.74</ele>
        <time>2016-06-23T03:33:49Z</time>
      </trkpt>
      <trkpt lat="44.39354" lon="2.64217">
        <ele>624.7</ele>
        <time>2016-06-23T03:34:04Z</time>
      </trkpt>
      <trkpt lat="44.39371" lon="2.64229">
        <ele>625.01</ele>
        <time>2016-06-23T03:34:18Z</time>
      </trkpt>
      <trkpt lat="44.39389" lon="2.64239">
        <ele>624.65</ele>
        <time>2016-06-23T03:34:32Z</time>
      </trkpt>
      <trkpt lat="44.3941" lon="2.64251">
        <ele>624.82</ele>
        <time>2016-06-23T03:34:48Z</time>
      </trkpt>
      <trkpt lat="44.3943" lon="2.64257">
        <ele>624.87</ele>
        <time>2016-06-23T03:35:03Z</time>
      </trkpt>
      <trkpt lat="44.39446" lon="2.64265">
        <ele>624.98</ele>
        <time>2016-06-23T03:35:16Z</time>
      </trkpt>
      <trkpt lat="44.39462" lon="2.64273">
        <ele>625.34</ele>
        <time>2016-06-23T03:35:28Z</time>
      </trkpt>
      <trkpt lat="44.39481" lon="2.64286">
        <ele>625.2</ele>
        <time>2016-06-23T03:35:43Z</time>
      </trkpt>
      <trkpt lat="44.39501" lon="2.643">
        <ele>625.36</ele>
        <time>2016-06-23T03:35:59Z</time>
      </trkpt>
      <trkpt lat="44.39518" lon="2.6431">
        <ele>625.47</ele>
        <time>2016-06-23T03:36:12Z</time>
      </trkpt>
      <trkpt lat="44.39534" lon="2.6432">
        <ele>626.31</ele>
        <time>2016-06-23T03:36:25Z</time>
      </trkpt>
      <trkpt lat="44.39552" lon="2.64331">
        <ele>626.85</ele>
        <time>2016-06-23T03:36:39Z</time>
      </trkpt>
      <trkpt lat="44.39571" lon="2.64344">
        <ele>627.14</ele>
        <time>2016-06-23T03:36:54Z</time>
      </trkpt>
      <trkpt lat="44.39589" lon="2.64357">
        <ele>627.33</ele>
        <time>2016-06-23T03:37:09Z</time>
      </trkpt>
      <trkpt lat="44.39606" lon="2.64367">
        <ele>627.36</ele>
        <time>2016-06-23T03:37:22Z</time>
      </trkpt>
      <trkpt lat="44.39623" lon="2.64378">
        <ele>627.19</ele>
        <time>2016-06-23T03:37:36Z</time>
      </trkpt>
      <trkpt lat="44.39639" lon="2.64386">
        <ele>627.25</ele>
        <time>2016-06-23T03:37:48Z</time>
      </trkpt>
      <trkpt lat="44.39653" lon="2.64395">
        <ele>627.73</ele>
        <time>2016-06-23T03:38:01Z</time>
      </trkpt>
      <trkpt lat="44.39668" lon="2.64406">
        <ele>628.91</ele>
        <time>2016-06-23T03:38:16Z</time>
      </trkpt>
      <trkpt lat="44.39683" lon="2.64416">
        <ele>629.51</ele>
        <time>2016-06-23T03:38:31Z</time>
      </trkpt>
      <trkpt lat="44.39698" lon="2.64423">
        <ele>630.26</ele>
        <time>2016-06-23T03:38:44Z</time>
      </trkpt>
      <trkpt lat="44.39715" lon="2.64432">
        <ele>631.24</ele>
        <time>2016-06-23T03:38:58Z</time>
      </trkpt>
      <trkpt lat="44.39731" lon="2.64441">
        <ele>632.16</ele>
        <time>2016-06-23T03:39:12Z</time>
      </trkpt>
      <trkpt lat="44.39749" lon="2.64453">
        <ele>633.14</ele>
        <time>2016-06-23T03:39:27Z</time>
      </trkpt>
      <trkpt lat="44.39767" lon="2.64463">
        <ele>633.34</ele>
        <time>2016-06-23T03:39:39Z</time>
      </trkpt>
      <trkpt lat="44.39784" lon="2.64473">
        <ele>633.17</ele>
        <time>2016-06-23T03:39:53Z</time>
      </trkpt>
      <trkpt lat="44.39801" lon="2.64488">
        <ele>632.61</ele>
        <time>2016-06-23T03:40:07Z</time>
      </trkpt>
      <trkpt lat="44.39803" lon="2.6449">
        <ele>632.48</ele>
        <time>2016-06-23T03:40:09Z</time>
      </trkpt>
      <trkpt lat="44.39814" lon="2.64499">
        <ele>631.74</ele>
        <time>2016-06-23T03:40:18Z</time>
      </trkpt>
      <trkpt lat="44.39825" lon="2.64508">
        <ele>630.85</ele>
        <time>2016-06-23T03:40:28Z</time>
      </trkpt>
      <trkpt lat="44.39843" lon="2.64522">
        <ele>629.5</ele>
        <time>2016-06-23T03:40:43Z</time>
      </trkpt>
      <trkpt lat="44.39863" lon="2.64532">
        <ele>628.27</ele>
        <time>2016-06-23T03:40:57Z</time>
      </trkpt>
      <trkpt lat="44.3988" lon="2.64537">
        <ele>626.79</ele>
        <time>2016-06-23T03:41:10Z</time>
      </trkpt>
      <trkpt lat="44.39886" lon="2.64538">
        <ele>626.49</ele>
        <time>2016-06-23T03:41:14Z</time>
      </trkpt>
      <trkpt lat="44.39905" lon="2.64542">
        <ele>625.03</ele>
        <time>2016-06-23T03:41:26Z</time>
      </trkpt>
      <trkpt lat="44.39923" lon="2.64546">
        <ele>624.04</ele>
        <time>2016-06-23T03:41:38Z</time>
      </trkpt>
      <trkpt lat="44.3994" lon="2.64553">
        <ele>622.99</ele>
        <time>2016-06-23T03:41:49Z</time>
      </trkpt>
      <trkpt lat="44.39955" lon="2.64565">
        <ele>622.19</ele>
        <time>2016-06-23T03:42:02Z</time>
      </trkpt>
      <trkpt lat="44.39964" lon="2.64578">
        <ele>622.65</ele>
        <time>2016-06-23T03:42:13Z</time>
      </trkpt>
      <trkpt lat="44.39976" lon="2.64597">
        <ele>623.58</ele>
        <time>2016-06-23T03:42:25Z</time>
      </trkpt>
      <trkpt lat="44.39985" lon="2.64617">
        <ele>625.12</ele>
        <time>2016-06-23T03:42:39Z</time>
      </trkpt>
      <trkpt lat="44.3999" lon="2.64635">
        <ele>625.82</ele>
        <time>2016-06-23T03:42:50Z</time>
      </trkpt>
      <trkpt lat="44.39997" lon="2.64656">
        <ele>627.41</ele>
        <time>2016-06-23T03:43:04Z</time>
      </trkpt>
      <trkpt lat="44.39999" lon="2.64663">
        <ele>627.9</ele>
        <time>2016-06-23T03:43:08Z</time>
      </trkpt>
      <trkpt lat="44.40002" lon="2.64672">
        <ele>628.33</ele>
        <time>2016-06-23T03:43:13Z</time>
      </trkpt>
      <trkpt lat="44.40008" lon="2.64694">
        <ele>629.37</ele>
        <time>2016-06-23T03:43:28Z</time>
      </trkpt>
      <trkpt lat="44.40012" lon="2.64705">
        <ele>629.49</ele>
        <time>2016-06-23T03:43:34Z</time>
      </trkpt>
      <trkpt lat="44.40026" lon="2.6473">
        <ele>629.69</ele>
        <time>2016-06-23T03:43:50Z</time>
      </trkpt>
      <trkpt lat="44.40041" lon="2.6475">
        <ele>630.41</ele>
        <time>2016-06-23T03:44:04Z</time>
      </trkpt>
      <trkpt lat="44.40057" lon="2.64771">
        <ele>630.38</ele>
        <time>2016-06-23T03:44:19Z</time>
      </trkpt>
      <trkpt lat="44.40063" lon="2.64778">
        <ele>630.39</ele>
        <time>2016-06-23T03:44:24Z</time>
      </trkpt>
      <trkpt lat="44.40067" lon="2.64783">
        <ele>630.33</ele>
        <time>2016-06-23T03:44:28Z</time>
      </trkpt>
      <trkpt lat="44.40081" lon="2.64799">
        <ele>629.72</ele>
        <time>2016-06-23T03:44:43Z</time>
      </trkpt>
      <trkpt lat="44.40086" lon="2.64804">
        <ele>629.62</ele>
        <time>2016-06-23T03:44:47Z</time>
      </trkpt>
      <trkpt lat="44.40092" lon="2.64813">
        <ele>629.69</ele>
        <time>2016-06-23T03:44:54Z</time>
      </trkpt>
      <trkpt lat="44.40103" lon="2.64831">
        <ele>629.48</ele>
        <time>2016-06-23T03:45:08Z</time>
      </trkpt>
      <trkpt lat="44.40107" lon="2.64842">
        <ele>629.56</ele>
        <time>2016-06-23T03:45:15Z</time>
      </trkpt>
      <trkpt lat="44.40113" lon="2.64849">
        <ele>629.53</ele>
        <time>2016-06-23T03:45:20Z</time>
      </trkpt>
      <trkpt lat="44.40115" lon="2.64852">
        <ele>629.46</ele>
        <time>2016-06-23T03:45:22Z</time>
      </trkpt>
      <trkpt lat="44.40124" lon="2.64858">
        <ele>629.09</ele>
        <time>2016-06-23T03:45:29Z</time>
      </trkpt>
      <trkpt lat="44.4014" lon="2.64879">
        <ele>628.01</ele>
        <time>2016-06-23T03:45:43Z</time>
      </trkpt>
      <trkpt lat="44.40141" lon="2.6488">
        <ele>627.89</ele>
        <time>2016-06-23T03:45:44Z</time>
      </trkpt>
      <trkpt lat="44.4015" lon="2.64903">
        <ele>626.5</ele>
        <time>2016-06-23T03:45:57Z</time>
      </trkpt>
      <trkpt lat="44.40156" lon="2.64917">
        <ele>625.56</ele>
        <time>2016-06-23T03:46:06Z</time>
      </trkpt>
      <trkpt lat="44.40161" lon="2.64938">
        <ele>624.17</ele>
        <time>2016-06-23T03:46:19Z</time>
      </trkpt>
      <trkpt lat="44.40166" lon="2.64965">
        <ele>622.43</ele>
        <time>2016-06-23T03:46:31Z</time>
      </trkpt>
      <trkpt lat="44.40172" lon="2.64993">
        <ele>619.86</ele>
        <time>2016-06-23T03:46:46Z</time>
      </trkpt>
      <trkpt lat="44.40174" lon="2.64995">
        <ele>619.61</ele>
        <time>2016-06-23T03:46:48Z</time>
      </trkpt>
      <trkpt lat="44.40177" lon="2.65007">
        <ele>619.06</ele>
        <time>2016-06-23T03:46:54Z</time>
      </trkpt>
      <trkpt lat="44.40171" lon="2.65034">
        <ele>616.69</ele>
        <time>2016-06-23T03:47:09Z</time>
      </trkpt>
      <trkpt lat="44.40164" lon="2.65061">
        <ele>614.55</ele>
        <time>2016-06-23T03:47:25Z</time>
      </trkpt>
      <trkpt lat="44.40164" lon="2.65071">
        <ele>614.24</ele>
        <time>2016-06-23T03:47:32Z</time>
      </trkpt>
      <trkpt lat="44.40163" lon="2.65075">
        <ele>614.19</ele>
        <time>2016-06-23T03:47:35Z</time>
      </trkpt>
      <trkpt lat="44.40163" lon="2.65095">
        <ele>613.84</ele>
        <time>2016-06-23T03:47:45Z</time>
      </trkpt>
      <trkpt lat="44.40163" lon="2.65102">
        <ele>613.77</ele>
        <time>2016-06-23T03:47:49Z</time>
      </trkpt>
      <trkpt lat="44.40166" lon="2.65114">
        <ele>613.67</ele>
        <time>2016-06-23T03:47:55Z</time>
      </trkpt>
      <trkpt lat="44.4017" lon="2.65133">
        <ele>613.66</ele>
        <time>2016-06-23T03:48:03Z</time>
      </trkpt>
      <trkpt lat="44.40173" lon="2.65139">
        <ele>613.58</ele>
        <time>2016-06-23T03:48:06Z</time>
      </trkpt>
      <trkpt lat="44.40176" lon="2.65147">
        <ele>613.31</ele>
        <time>2016-06-23T03:48:10Z</time>
      </trkpt>
      <trkpt lat="44.40177" lon="2.65152">
        <ele>613.01</ele>
        <time>2016-06-23T03:48:13Z</time>
      </trkpt>
      <trkpt lat="44.40183" lon="2.65167">
        <ele>611.98</ele>
        <time>2016-06-23T03:48:22Z</time>
      </trkpt>
      <trkpt lat="44.40195" lon="2.6519">
        <ele>610.14</ele>
        <time>2016-06-23T03:48:39Z</time>
      </trkpt>
      <trkpt lat="44.40212" lon="2.65205">
        <ele>608.19</ele>
        <time>2016-06-23T03:48:51Z</time>
      </trkpt>
      <trkpt lat="44.40227" lon="2.65215">
        <ele>606.7</ele>
        <time>2016-06-23T03:49:02Z</time>
      </trkpt>
      <trkpt lat="44.40245" lon="2.65225">
        <ele>604.64</ele>
        <time>2016-06-23T03:49:16Z</time>
      </trkpt>
      <trkpt lat="44.40265" lon="2.65232">
        <ele>603.73</ele>
        <time>2016-06-23T03:49:30Z</time>
      </trkpt>
      <trkpt lat="44.40283" lon="2.6524">
        <ele>602.71</ele>
        <time>2016-06-23T03:49:44Z</time>
      </trkpt>
      <trkpt lat="44.40299" lon="2.65252">
        <ele>602.09</ele>
        <time>2016-06-23T03:49:58Z</time>
      </trkpt>
      <trkpt lat="44.40317" lon="2.65272">
        <ele>601.71</ele>
        <time>2016-06-23T03:50:14Z</time>
      </trkpt>
      <trkpt lat="44.40332" lon="2.65289">
        <ele>601.14</ele>
        <time>2016-06-23T03:50:27Z</time>
      </trkpt>
      <trkpt lat="44.40339" lon="2.65299">
        <ele>600.81</ele>
        <time>2016-06-23T03:50:34Z</time>
      </trkpt>
      <trkpt lat="44.40343" lon="2.65311">
        <ele>600.72</ele>
        <time>2016-06-23T03:50:41Z</time>
      </trkpt>
      <trkpt lat="44.40346" lon="2.65317">
        <ele>600.7</ele>
        <time>2016-06-23T03:50:45Z</time>
      </trkpt>
      <trkpt lat="44.40363" lon="2.65342">
        <ele>600.48</ele>
        <time>2016-06-23T03:51:03Z</time>
      </trkpt>
      <trkpt lat="44.40372" lon="2.65361">
        <ele>599.44</ele>
        <time>2016-06-23T03:51:15Z</time>
      </trkpt>
      <trkpt lat="44.4038" lon="2.65376">
        <ele>598.4</ele>
        <time>2016-06-23T03:51:26Z</time>
      </trkpt>
      <trkpt lat="44.40394" lon="2.65401">
        <ele>598.06</ele>
        <time>2016-06-23T03:51:43Z</time>
      </trkpt>
      <trkpt lat="44.40406" lon="2.65421">
        <ele>597.56</ele>
        <time>2016-06-23T03:51:56Z</time>
      </trkpt>
      <trkpt lat="44.40418" lon="2.65443">
        <ele>598.33</ele>
        <time>2016-06-23T03:52:11Z</time>
      </trkpt>
      <trkpt lat="44.40429" lon="2.65462">
        <ele>599.98</ele>
        <time>2016-06-23T03:52:24Z</time>
      </trkpt>
      <trkpt lat="44.40436" lon="2.65472">
        <ele>600.71</ele>
        <time>2016-06-23T03:52:32Z</time>
      </trkpt>
      <trkpt lat="44.4045" lon="2.65488">
        <ele>602.11</ele>
        <time>2016-06-23T03:52:46Z</time>
      </trkpt>
      <trkpt lat="44.40459" lon="2.65498">
        <ele>603.1</ele>
        <time>2016-06-23T03:52:55Z</time>
      </trkpt>
      <trkpt lat="44.40474" lon="2.65507">
        <ele>604.23</ele>
        <time>2016-06-23T03:53:08Z</time>
      </trkpt>
      <trkpt lat="44.40479" lon="2.65512">
        <ele>604.75</ele>
        <time>2016-06-23T03:53:13Z</time>
      </trkpt>
      <trkpt lat="44.40483" lon="2.65515">
        <ele>604.99</ele>
        <time>2016-06-23T03:53:16Z</time>
      </trkpt>
      <trkpt lat="44.40488" lon="2.65519">
        <ele>605.39</ele>
        <time>2016-06-23T03:53:21Z</time>
      </trkpt>
      <trkpt lat="44.40492" lon="2.65521">
        <ele>605.72</ele>
        <time>2016-06-23T03:53:26Z</time>
      </trkpt>
      <trkpt lat="44.40494" lon="2.65524">
        <ele>605.89</ele>
        <time>2016-06-23T03:53:29Z</time>
      </trkpt>
      <trkpt lat="44.40513" lon="2.65532">
        <ele>606.77</ele>
        <time>2016-06-23T03:53:43Z</time>
      </trkpt>
      <trkpt lat="44.40531" lon="2.65535">
        <ele>607.65</ele>
        <time>2016-06-23T03:53:58Z</time>
      </trkpt>
      <trkpt lat="44.4055" lon="2.65541">
        <ele>608.5</ele>
        <time>2016-06-23T03:54:12Z</time>
      </trkpt>
      <trkpt lat="44.40574" lon="2.65553">
        <ele>608.84</ele>
        <time>2016-06-23T03:54:29Z</time>
      </trkpt>
      <trkpt lat="44.40592" lon="2.65569">
        <ele>608.95</ele>
        <time>2016-06-23T03:54:44Z</time>
      </trkpt>
      <trkpt lat="44.40607" lon="2.65587">
        <ele>608.52</ele>
        <time>2016-06-23T03:54:58Z</time>
      </trkpt>
      <trkpt lat="44.40619" lon="2.6561">
        <ele>608.04</ele>
        <time>2016-06-23T03:55:12Z</time>
      </trkpt>
      <trkpt lat="44.40622" lon="2.65617">
        <ele>607.82</ele>
        <time>2016-06-23T03:55:17Z</time>
      </trkpt>
      <trkpt lat="44.40625" lon="2.65622">
        <ele>607.74</ele>
        <time>2016-06-23T03:55:21Z</time>
      </trkpt>
      <trkpt lat="44.40628" lon="2.65632">
        <ele>607.57</ele>
        <time>2016-06-23T03:55:27Z</time>
      </trkpt>
      <trkpt lat="44.40635" lon="2.65643">
        <ele>607.07</ele>
        <time>2016-06-23T03:55:34Z</time>
      </trkpt>
      <trkpt lat="44.40651" lon="2.65658">
        <ele>606.62</ele>
        <time>2016-06-23T03:55:47Z</time>
      </trkpt>
      <trkpt lat="44.40664" lon="2.65666">
        <ele>606.56</ele>
        <time>2016-06-23T03:55:58Z</time>
      </trkpt>
      <trkpt lat="44.40683" lon="2.65681">
        <ele>606.71</ele>
        <time>2016-06-23T03:56:14Z</time>
      </trkpt>
      <trkpt lat="44.40699" lon="2.65695">
        <ele>607.32</ele>
        <time>2016-06-23T03:56:28Z</time>
      </trkpt>
      <trkpt lat="44.40717" lon="2.65707">
        <ele>607.31</ele>
        <time>2016-06-23T03:56:42Z</time>
      </trkpt>
      <trkpt lat="44.40734" lon="2.65715">
        <ele>607.12</ele>
        <time>2016-06-23T03:56:56Z</time>
      </trkpt>
      <trkpt lat="44.40751" lon="2.65724">
        <ele>607.17</ele>
        <time>2016-06-23T03:57:11Z</time>
      </trkpt>
      <trkpt lat="44.40765" lon="2.65731">
        <ele>607.66</ele>
        <time>2016-06-23T03:57:23Z</time>
      </trkpt>
      <trkpt lat="44.40781" lon="2.65744">
        <ele>608.65</ele>
        <time>2016-06-23T03:57:36Z</time>
      </trkpt>
      <trkpt lat="44.40791" lon="2.65755">
        <ele>609</ele>
        <time>2016-06-23T03:57:46Z</time>
      </trkpt>
      <trkpt lat="44.40791" lon="2.65757">
        <ele>609</ele>
        <time>2016-06-23T03:57:47Z</time>
      </trkpt>
      <trkpt lat="44.40792" lon="2.65759">
        <ele>609</ele>
        <time>2016-06-23T03:57:48Z</time>
      </trkpt>
      <trkpt lat="44.40793" lon="2.6576">
        <ele>609</ele>
        <time>2016-06-23T03:57:49Z</time>
      </trkpt>
      <trkpt lat="44.40793" lon="2.65762">
        <ele>609</ele>
        <time>2016-06-23T03:57:50Z</time>
      </trkpt>
      <trkpt lat="44.40793" lon="2.65764">
        <ele>608.99</ele>
        <time>2016-06-23T03:57:51Z</time>
      </trkpt>
      <trkpt lat="44.40793" lon="2.65766">
        <ele>608.98</ele>
        <time>2016-06-23T03:57:52Z</time>
      </trkpt>
      <trkpt lat="44.40793" lon="2.65767">
        <ele>608.97</ele>
        <time>2016-06-23T03:57:53Z</time>
      </trkpt>
      <trkpt lat="44.40794" lon="2.65769">
        <ele>608.95</ele>
        <time>2016-06-23T03:57:54Z</time>
      </trkpt>
      <trkpt lat="44.40794" lon="2.65771">
        <ele>608.94</ele>
        <time>2016-06-23T03:57:55Z</time>
      </trkpt>
      <trkpt lat="44.40794" lon="2.65772">
        <ele>608.92</ele>
        <time>2016-06-23T03:57:56Z</time>
      </trkpt>
      <trkpt lat="44.40794" lon="2.65774">
        <ele>608.91</ele>
        <time>2016-06-23T03:57:57Z</time>
      </trkpt>
      <trkpt lat="44.40795" lon="2.65776">
        <ele>608.91</ele>
        <time>2016-06-23T03:57:58Z</time>
      </trkpt>
      <trkpt lat="44.40795" lon="2.65778">
        <ele>608.9</ele>
        <time>2016-06-23T03:57:59Z</time>
      </trkpt>
      <trkpt lat="44.40801" lon="2.65798">
        <ele>608.65</ele>
        <time>2016-06-23T03:58:10Z</time>
      </trkpt>
      <trkpt lat="44.40802" lon="2.658">
        <ele>608.62</ele>
        <time>2016-06-23T03:58:11Z</time>
      </trkpt>
      <trkpt lat="44.40803" lon="2.65802">
        <ele>608.58</ele>
        <time>2016-06-23T03:58:12Z</time>
      </trkpt>
      <trkpt lat="44.40816" lon="2.65823">
        <ele>608.68</ele>
        <time>2016-06-23T03:58:25Z</time>
      </trkpt>
      <trkpt lat="44.40831" lon="2.65845">
        <ele>608.87</ele>
        <time>2016-06-23T03:58:40Z</time>
      </trkpt>
      <trkpt lat="44.40846" lon="2.65868">
        <ele>608.93</ele>
        <time>2016-06-23T03:58:55Z</time>
      </trkpt>
      <trkpt lat="44.40859" lon="2.65893">
        <ele>609.28</ele>
        <time>2016-06-23T03:59:10Z</time>
      </trkpt>
      <trkpt lat="44.40875" lon="2.65917">
        <ele>608.6</ele>
        <time>2016-06-23T03:59:26Z</time>
      </trkpt>
      <trkpt lat="44.4089" lon="2.65938">
        <ele>607.07</ele>
        <time>2016-06-23T03:59:42Z</time>
      </trkpt>
      <trkpt lat="44.40904" lon="2.65962">
        <ele>607.41</ele>
        <time>2016-06-23T03:59:58Z</time>
      </trkpt>
      <trkpt lat="44.40913" lon="2.65974">
        <ele>607.73</ele>
        <time>2016-06-23T04:00:09Z</time>
      </trkpt>
      <trkpt lat="44.40914" lon="2.65975">
        <ele>607.71</ele>
        <time>2016-06-23T04:00:10Z</time>
      </trkpt>
      <trkpt lat="44.40915" lon="2.65976">
        <ele>607.65</ele>
        <time>2016-06-23T04:00:11Z</time>
      </trkpt>
      <trkpt lat="44.40916" lon="2.65977">
        <ele>607.59</ele>
        <time>2016-06-23T04:00:12Z</time>
      </trkpt>
      <trkpt lat="44.40918" lon="2.65978">
        <ele>607.53</ele>
        <time>2016-06-23T04:00:13Z</time>
      </trkpt>
      <trkpt lat="44.40919" lon="2.65979">
        <ele>607.47</ele>
        <time>2016-06-23T04:00:14Z</time>
      </trkpt>
      <trkpt lat="44.4092" lon="2.6598">
        <ele>607.43</ele>
        <time>2016-06-23T04:00:15Z</time>
      </trkpt>
      <trkpt lat="44.40933" lon="2.66003">
        <ele>606.59</ele>
        <time>2016-06-23T04:00:31Z</time>
      </trkpt>
      <trkpt lat="44.40934" lon="2.66004">
        <ele>606.54</ele>
        <time>2016-06-23T04:00:32Z</time>
      </trkpt>
      <trkpt lat="44.40935" lon="2.66006">
        <ele>606.5</ele>
        <time>2016-06-23T04:00:33Z</time>
      </trkpt>
      <trkpt lat="44.40936" lon="2.66007">
        <ele>606.46</ele>
        <time>2016-06-23T04:00:34Z</time>
      </trkpt>
      <trkpt lat="44.40937" lon="2.66009">
        <ele>606.43</ele>
        <time>2016-06-23T04:00:35Z</time>
      </trkpt>
      <trkpt lat="44.40938" lon="2.66011">
        <ele>606.39</ele>
        <time>2016-06-23T04:00:36Z</time>
      </trkpt>
      <trkpt lat="44.40939" lon="2.66012">
        <ele>606.35</ele>
        <time>2016-06-23T04:00:37Z</time>
      </trkpt>
      <trkpt lat="44.40945" lon="2.66028">
        <ele>605.33</ele>
        <time>2016-06-23T04:00:49Z</time>
      </trkpt>
      <trkpt lat="44.40947" lon="2.66049">
        <ele>603.25</ele>
        <time>2016-06-23T04:01:01Z</time>
      </trkpt>
      <trkpt lat="44.40951" lon="2.66076">
        <ele>601.92</ele>
        <time>2016-06-23T04:01:15Z</time>
      </trkpt>
      <trkpt lat="44.40956" lon="2.66089">
        <ele>602.26</ele>
        <time>2016-06-23T04:01:23Z</time>
      </trkpt>
      <trkpt lat="44.40956" lon="2.6609">
        <ele>602.32</ele>
        <time>2016-06-23T04:01:24Z</time>
      </trkpt>
      <trkpt lat="44.40965" lon="2.66107">
        <ele>603.23</ele>
        <time>2016-06-23T04:01:35Z</time>
      </trkpt>
      <trkpt lat="44.40976" lon="2.66126">
        <ele>604.54</ele>
        <time>2016-06-23T04:01:47Z</time>
      </trkpt>
      <trkpt lat="44.40992" lon="2.66152">
        <ele>606.29</ele>
        <time>2016-06-23T04:02:03Z</time>
      </trkpt>
      <trkpt lat="44.40996" lon="2.66156">
        <ele>606.65</ele>
        <time>2016-06-23T04:02:07Z</time>
      </trkpt>
      <trkpt lat="44.40998" lon="2.66158">
        <ele>606.7</ele>
        <time>2016-06-23T04:02:08Z</time>
      </trkpt>
      <trkpt lat="44.41" lon="2.66159">
        <ele>606.75</ele>
        <time>2016-06-23T04:02:09Z</time>
      </trkpt>
      <trkpt lat="44.41001" lon="2.66159">
        <ele>606.78</ele>
        <time>2016-06-23T04:02:10Z</time>
      </trkpt>
      <trkpt lat="44.41002" lon="2.6616">
        <ele>606.81</ele>
        <time>2016-06-23T04:02:11Z</time>
      </trkpt>
      <trkpt lat="44.41024" lon="2.66175">
        <ele>606.86</ele>
        <time>2016-06-23T04:02:27Z</time>
      </trkpt>
      <trkpt lat="44.41041" lon="2.66182">
        <ele>606.81</ele>
        <time>2016-06-23T04:02:40Z</time>
      </trkpt>
      <trkpt lat="44.41044" lon="2.66185">
        <ele>606.7</ele>
        <time>2016-06-23T04:02:43Z</time>
      </trkpt>
      <trkpt lat="44.41045" lon="2.66186">
        <ele>606.68</ele>
        <time>2016-06-23T04:02:44Z</time>
      </trkpt>
      <trkpt lat="44.4105" lon="2.66189">
        <ele>606.43</ele>
        <time>2016-06-23T04:02:49Z</time>
      </trkpt>
      <trkpt lat="44.41052" lon="2.6619">
        <ele>606.39</ele>
        <time>2016-06-23T04:02:50Z</time>
      </trkpt>
      <trkpt lat="44.41053" lon="2.66191">
        <ele>606.34</ele>
        <time>2016-06-23T04:02:51Z</time>
      </trkpt>
      <trkpt lat="44.41054" lon="2.66191">
        <ele>606.29</ele>
        <time>2016-06-23T04:02:52Z</time>
      </trkpt>
      <trkpt lat="44.41056" lon="2.66192">
        <ele>606.24</ele>
        <time>2016-06-23T04:02:53Z</time>
      </trkpt>
      <trkpt lat="44.41057" lon="2.66193">
        <ele>606.18</ele>
        <time>2016-06-23T04:02:54Z</time>
      </trkpt>
      <trkpt lat="44.41073" lon="2.66201">
        <ele>605.95</ele>
        <time>2016-06-23T04:03:06Z</time>
      </trkpt>
      <trkpt lat="44.41094" lon="2.66209">
        <ele>606.78</ele>
        <time>2016-06-23T04:03:22Z</time>
      </trkpt>
      <trkpt lat="44.41116" lon="2.66214">
        <ele>608.07</ele>
        <time>2016-06-23T04:03:39Z</time>
      </trkpt>
      <trkpt lat="44.41138" lon="2.66217">
        <ele>608.27</ele>
        <time>2016-06-23T04:03:55Z</time>
      </trkpt>
      <trkpt lat="44.41153" lon="2.66221">
        <ele>608.23</ele>
        <time>2016-06-23T04:04:06Z</time>
      </trkpt>
      <trkpt lat="44.41176" lon="2.66229">
        <ele>608.18</ele>
        <time>2016-06-23T04:04:22Z</time>
      </trkpt>
      <trkpt lat="44.41183" lon="2.66231">
        <ele>608.1</ele>
        <time>2016-06-23T04:04:27Z</time>
      </trkpt>
      <trkpt lat="44.41184" lon="2.66232">
        <ele>608.05</ele>
        <time>2016-06-23T04:04:28Z</time>
      </trkpt>
      <trkpt lat="44.41186" lon="2.66233">
        <ele>608</ele>
        <time>2016-06-23T04:04:29Z</time>
      </trkpt>
      <trkpt lat="44.41205" lon="2.66242">
        <ele>608.11</ele>
        <time>2016-06-23T04:04:44Z</time>
      </trkpt>
      <trkpt lat="44.41221" lon="2.66248">
        <ele>608.54</ele>
        <time>2016-06-23T04:04:57Z</time>
      </trkpt>
      <trkpt lat="44.41242" lon="2.66265">
        <ele>609.63</ele>
        <time>2016-06-23T04:05:14Z</time>
      </trkpt>
      <trkpt lat="44.41256" lon="2.66287">
        <ele>610.15</ele>
        <time>2016-06-23T04:05:30Z</time>
      </trkpt>
      <trkpt lat="44.41274" lon="2.66302">
        <ele>610.1</ele>
        <time>2016-06-23T04:05:45Z</time>
      </trkpt>
      <trkpt lat="44.41287" lon="2.66311">
        <ele>609.62</ele>
        <time>2016-06-23T04:05:56Z</time>
      </trkpt>
      <trkpt lat="44.41305" lon="2.6632">
        <ele>608.84</ele>
        <time>2016-06-23T04:06:10Z</time>
      </trkpt>
      <trkpt lat="44.41328" lon="2.66326">
        <ele>608.77</ele>
        <time>2016-06-23T04:06:26Z</time>
      </trkpt>
      <trkpt lat="44.41348" lon="2.66333">
        <ele>610</ele>
        <time>2016-06-23T04:06:41Z</time>
      </trkpt>
      <trkpt lat="44.41367" lon="2.66346">
        <ele>611.39</ele>
        <time>2016-06-23T04:06:55Z</time>
      </trkpt>
      <trkpt lat="44.41383" lon="2.66365">
        <ele>611.34</ele>
        <time>2016-06-23T04:07:10Z</time>
      </trkpt>
      <trkpt lat="44.41396" lon="2.66384">
        <ele>611.44</ele>
        <time>2016-06-23T04:07:23Z</time>
      </trkpt>
      <trkpt lat="44.41407" lon="2.66403">
        <ele>611</ele>
        <time>2016-06-23T04:07:35Z</time>
      </trkpt>
      <trkpt lat="44.41417" lon="2.66414">
        <ele>609.95</ele>
        <time>2016-06-23T04:07:43Z</time>
      </trkpt>
      <trkpt lat="44.41419" lon="2.66415">
        <ele>609.64</ele>
        <time>2016-06-23T04:07:44Z</time>
      </trkpt>
      <trkpt lat="44.41423" lon="2.6642">
        <ele>609.16</ele>
        <time>2016-06-23T04:07:48Z</time>
      </trkpt>
      <trkpt lat="44.41442" lon="2.66439">
        <ele>608.99</ele>
        <time>2016-06-23T04:08:05Z</time>
      </trkpt>
      <trkpt lat="44.41459" lon="2.66463">
        <ele>609.98</ele>
        <time>2016-06-23T04:08:22Z</time>
      </trkpt>
      <trkpt lat="44.41475" lon="2.66486">
        <ele>610.45</ele>
        <time>2016-06-23T04:08:39Z</time>
      </trkpt>
      <trkpt lat="44.41479" lon="2.66494">
        <ele>610.9</ele>
        <time>2016-06-23T04:08:45Z</time>
      </trkpt>
      <trkpt lat="44.41491" lon="2.66518">
        <ele>611.44</ele>
        <time>2016-06-23T04:09:00Z</time>
      </trkpt>
      <trkpt lat="44.41502" lon="2.66543">
        <ele>611.72</ele>
        <time>2016-06-23T04:09:15Z</time>
      </trkpt>
      <trkpt lat="44.41511" lon="2.6656">
        <ele>611.86</ele>
        <time>2016-06-23T04:09:26Z</time>
      </trkpt>
      <trkpt lat="44.41512" lon="2.66561">
        <ele>611.89</ele>
        <time>2016-06-23T04:09:27Z</time>
      </trkpt>
      <trkpt lat="44.41513" lon="2.66563">
        <ele>611.91</ele>
        <time>2016-06-23T04:09:28Z</time>
      </trkpt>
      <trkpt lat="44.41514" lon="2.66564">
        <ele>611.93</ele>
        <time>2016-06-23T04:09:29Z</time>
      </trkpt>
      <trkpt lat="44.41515" lon="2.66565">
        <ele>611.96</ele>
        <time>2016-06-23T04:09:30Z</time>
      </trkpt>
      <trkpt lat="44.41516" lon="2.66567">
        <ele>611.99</ele>
        <time>2016-06-23T04:09:31Z</time>
      </trkpt>
      <trkpt lat="44.41517" lon="2.66568">
        <ele>612</ele>
        <time>2016-06-23T04:09:32Z</time>
      </trkpt>
      <trkpt lat="44.41517" lon="2.6657">
        <ele>612.04</ele>
        <time>2016-06-23T04:09:33Z</time>
      </trkpt>
      <trkpt lat="44.41519" lon="2.66571">
        <ele>612.07</ele>
        <time>2016-06-23T04:09:34Z</time>
      </trkpt>
      <trkpt lat="44.41519" lon="2.66573">
        <ele>612.11</ele>
        <time>2016-06-23T04:09:35Z</time>
      </trkpt>
      <trkpt lat="44.4152" lon="2.66574">
        <ele>612.18</ele>
        <time>2016-06-23T04:09:36Z</time>
      </trkpt>
      <trkpt lat="44.41521" lon="2.66576">
        <ele>612.21</ele>
        <time>2016-06-23T04:09:37Z</time>
      </trkpt>
      <trkpt lat="44.41538" lon="2.66598">
        <ele>612.92</ele>
        <time>2016-06-23T04:09:53Z</time>
      </trkpt>
      <trkpt lat="44.41542" lon="2.66601">
        <ele>613.03</ele>
        <time>2016-06-23T04:09:56Z</time>
      </trkpt>
      <trkpt lat="44.41543" lon="2.66603">
        <ele>613.05</ele>
        <time>2016-06-23T04:09:57Z</time>
      </trkpt>
      <trkpt lat="44.41545" lon="2.66604">
        <ele>613.08</ele>
        <time>2016-06-23T04:09:58Z</time>
      </trkpt>
      <trkpt lat="44.41546" lon="2.66605">
        <ele>613.06</ele>
        <time>2016-06-23T04:09:59Z</time>
      </trkpt>
      <trkpt lat="44.41547" lon="2.66606">
        <ele>613.02</ele>
        <time>2016-06-23T04:10:00Z</time>
      </trkpt>
      <trkpt lat="44.41547" lon="2.66608">
        <ele>613.01</ele>
        <time>2016-06-23T04:10:01Z</time>
      </trkpt>
      <trkpt lat="44.41547" lon="2.66609">
        <ele>613.04</ele>
        <time>2016-06-23T04:10:02Z</time>
      </trkpt>
      <trkpt lat="44.41546" lon="2.66609">
        <ele>613.08</ele>
        <time>2016-06-23T04:10:03Z</time>
      </trkpt>
      <trkpt lat="44.41545" lon="2.6661">
        <ele>613.11</ele>
        <time>2016-06-23T04:10:04Z</time>
      </trkpt>
      <trkpt lat="44.41534" lon="2.66624">
        <ele>613.74</ele>
        <time>2016-06-23T04:10:16Z</time>
      </trkpt>
      <trkpt lat="44.41524" lon="2.66636">
        <ele>614.16</ele>
        <time>2016-06-23T04:10:26Z</time>
      </trkpt>
      <trkpt lat="44.41522" lon="2.66641">
        <ele>614.11</ele>
        <time>2016-06-23T04:10:30Z</time>
      </trkpt>
      <trkpt lat="44.41516" lon="2.66653">
        <ele>614.12</ele>
        <time>2016-06-23T04:10:38Z</time>
      </trkpt>
      <trkpt lat="44.41514" lon="2.66678">
        <ele>614.56</ele>
        <time>2016-06-23T04:10:47Z</time>
      </trkpt>
      <trkpt lat="44.41513" lon="2.6668">
        <ele>614.57</ele>
        <time>2016-06-23T04:10:48Z</time>
      </trkpt>
      <trkpt lat="44.41513" lon="2.66683">
        <ele>614.57</ele>
        <time>2016-06-23T04:10:49Z</time>
      </trkpt>
      <trkpt lat="44.41513" lon="2.66686">
        <ele>614.57</ele>
        <time>2016-06-23T04:10:50Z</time>
      </trkpt>
      <trkpt lat="44.41514" lon="2.66689">
        <ele>614.57</ele>
        <time>2016-06-23T04:10:51Z</time>
      </trkpt>
      <trkpt lat="44.41513" lon="2.66691">
        <ele>614.57</ele>
        <time>2016-06-23T04:10:52Z</time>
      </trkpt>
      <trkpt lat="44.41513" lon="2.66693">
        <ele>614.55</ele>
        <time>2016-06-23T04:10:53Z</time>
      </trkpt>
      <trkpt lat="44.41513" lon="2.66695">
        <ele>614.49</ele>
        <time>2016-06-23T04:10:54Z</time>
      </trkpt>
      <trkpt lat="44.4151" lon="2.66721">
        <ele>614.17</ele>
        <time>2016-06-23T04:11:07Z</time>
      </trkpt>
      <trkpt lat="44.4151" lon="2.66727">
        <ele>614.15</ele>
        <time>2016-06-23T04:11:10Z</time>
      </trkpt>
      <trkpt lat="44.41506" lon="2.66753">
        <ele>614.32</ele>
        <time>2016-06-23T04:11:24Z</time>
      </trkpt>
      <trkpt lat="44.41506" lon="2.66768">
        <ele>614.25</ele>
        <time>2016-06-23T04:11:32Z</time>
      </trkpt>
      <trkpt lat="44.41506" lon="2.6677">
        <ele>614.26</ele>
        <time>2016-06-23T04:11:33Z</time>
      </trkpt>
      <trkpt lat="44.41505" lon="2.66803">
        <ele>614.41</ele>
        <time>2016-06-23T04:11:49Z</time>
      </trkpt>
      <trkpt lat="44.41501" lon="2.66836">
        <ele>614.84</ele>
        <time>2016-06-23T04:12:06Z</time>
      </trkpt>
      <trkpt lat="44.41497" lon="2.6685">
        <ele>614.98</ele>
        <time>2016-06-23T04:12:14Z</time>
      </trkpt>
      <trkpt lat="44.41496" lon="2.66852">
        <ele>615</ele>
        <time>2016-06-23T04:12:15Z</time>
      </trkpt>
      <trkpt lat="44.41496" lon="2.66854">
        <ele>615.04</ele>
        <time>2016-06-23T04:12:16Z</time>
      </trkpt>
      <trkpt lat="44.41496" lon="2.66856">
        <ele>615.06</ele>
        <time>2016-06-23T04:12:17Z</time>
      </trkpt>
      <trkpt lat="44.41495" lon="2.66858">
        <ele>615.11</ele>
        <time>2016-06-23T04:12:18Z</time>
      </trkpt>
      <trkpt lat="44.41494" lon="2.66859">
        <ele>615.15</ele>
        <time>2016-06-23T04:12:19Z</time>
      </trkpt>
      <trkpt lat="44.41494" lon="2.66861">
        <ele>615.2</ele>
        <time>2016-06-23T04:12:20Z</time>
      </trkpt>
      <trkpt lat="44.41493" lon="2.66863">
        <ele>615.21</ele>
        <time>2016-06-23T04:12:21Z</time>
      </trkpt>
      <trkpt lat="44.41493" lon="2.66865">
        <ele>615.25</ele>
        <time>2016-06-23T04:12:22Z</time>
      </trkpt>
      <trkpt lat="44.41492" lon="2.66867">
        <ele>615.26</ele>
        <time>2016-06-23T04:12:23Z</time>
      </trkpt>
      <trkpt lat="44.41492" lon="2.66868">
        <ele>615.24</ele>
        <time>2016-06-23T04:12:24Z</time>
      </trkpt>
      <trkpt lat="44.41491" lon="2.6687">
        <ele>615.21</ele>
        <time>2016-06-23T04:12:25Z</time>
      </trkpt>
      <trkpt lat="44.41484" lon="2.66902">
        <ele>615.07</ele>
        <time>2016-06-23T04:12:42Z</time>
      </trkpt>
      <trkpt lat="44.41479" lon="2.66938">
        <ele>615.83</ele>
        <time>2016-06-23T04:13:02Z</time>
      </trkpt>
      <trkpt lat="44.41474" lon="2.66968">
        <ele>616.6</ele>
        <time>2016-06-23T04:13:18Z</time>
      </trkpt>
      <trkpt lat="44.41469" lon="2.66994">
        <ele>617.07</ele>
        <time>2016-06-23T04:13:32Z</time>
      </trkpt>
      <trkpt lat="44.41465" lon="2.6701">
        <ele>617.27</ele>
        <time>2016-06-23T04:13:41Z</time>
      </trkpt>
      <trkpt lat="44.41464" lon="2.67012">
        <ele>617.29</ele>
        <time>2016-06-23T04:13:42Z</time>
      </trkpt>
      <trkpt lat="44.41464" lon="2.67013">
        <ele>617.31</ele>
        <time>2016-06-23T04:13:43Z</time>
      </trkpt>
      <trkpt lat="44.41455" lon="2.67045">
        <ele>617.89</ele>
        <time>2016-06-23T04:14:00Z</time>
      </trkpt>
      <trkpt lat="44.4145" lon="2.67061">
        <ele>618.24</ele>
        <time>2016-06-23T04:14:11Z</time>
      </trkpt>
      <trkpt lat="44.41449" lon="2.67063">
        <ele>618.18</ele>
        <time>2016-06-23T04:14:12Z</time>
      </trkpt>
      <trkpt lat="44.41449" lon="2.67065">
        <ele>618.13</ele>
        <time>2016-06-23T04:14:13Z</time>
      </trkpt>
      <trkpt lat="44.41449" lon="2.67066">
        <ele>618.11</ele>
        <time>2016-06-23T04:14:14Z</time>
      </trkpt>
      <trkpt lat="44.41448" lon="2.67068">
        <ele>618.11</ele>
        <time>2016-06-23T04:14:15Z</time>
      </trkpt>
      <trkpt lat="44.41447" lon="2.6707">
        <ele>618.13</ele>
        <time>2016-06-23T04:14:16Z</time>
      </trkpt>
      <trkpt lat="44.41447" lon="2.67072">
        <ele>618.14</ele>
        <time>2016-06-23T04:14:17Z</time>
      </trkpt>
      <trkpt lat="44.41442" lon="2.67095">
        <ele>618.08</ele>
        <time>2016-06-23T04:14:29Z</time>
      </trkpt>
      <trkpt lat="44.41437" lon="2.67119">
        <ele>618.15</ele>
        <time>2016-06-23T04:14:42Z</time>
      </trkpt>
      <trkpt lat="44.41433" lon="2.67134">
        <ele>618.17</ele>
        <time>2016-06-23T04:14:50Z</time>
      </trkpt>
      <trkpt lat="44.41429" lon="2.67157">
        <ele>618.37</ele>
        <time>2016-06-23T04:15:03Z</time>
      </trkpt>
      <trkpt lat="44.41426" lon="2.67182">
        <ele>618.27</ele>
        <time>2016-06-23T04:15:17Z</time>
      </trkpt>
      <trkpt lat="44.41426" lon="2.67184">
        <ele>618.29</ele>
        <time>2016-06-23T04:15:18Z</time>
      </trkpt>
      <trkpt lat="44.41424" lon="2.67198">
        <ele>618.66</ele>
        <time>2016-06-23T04:15:26Z</time>
      </trkpt>
      <trkpt lat="44.41424" lon="2.672">
        <ele>618.68</ele>
        <time>2016-06-23T04:15:27Z</time>
      </trkpt>
      <trkpt lat="44.41424" lon="2.67202">
        <ele>618.68</ele>
        <time>2016-06-23T04:15:28Z</time>
      </trkpt>
      <trkpt lat="44.41424" lon="2.67204">
        <ele>618.68</ele>
        <time>2016-06-23T04:15:29Z</time>
      </trkpt>
      <trkpt lat="44.41424" lon="2.67206">
        <ele>618.68</ele>
        <time>2016-06-23T04:15:30Z</time>
      </trkpt>
      <trkpt lat="44.41424" lon="2.67208">
        <ele>618.69</ele>
        <time>2016-06-23T04:15:31Z</time>
      </trkpt>
      <trkpt lat="44.41424" lon="2.6721">
        <ele>618.73</ele>
        <time>2016-06-23T04:15:32Z</time>
      </trkpt>
      <trkpt lat="44.41424" lon="2.67212">
        <ele>618.73</ele>
        <time>2016-06-23T04:15:33Z</time>
      </trkpt>
      <trkpt lat="44.41424" lon="2.67213">
        <ele>618.79</ele>
        <time>2016-06-23T04:15:34Z</time>
      </trkpt>
      <trkpt lat="44.41424" lon="2.67215">
        <ele>618.82</ele>
        <time>2016-06-23T04:15:35Z</time>
      </trkpt>
      <trkpt lat="44.4142" lon="2.67242">
        <ele>619.19</ele>
        <time>2016-06-23T04:15:50Z</time>
      </trkpt>
      <trkpt lat="44.41417" lon="2.67268">
        <ele>618.49</ele>
        <time>2016-06-23T04:16:04Z</time>
      </trkpt>
      <trkpt lat="44.41417" lon="2.6727">
        <ele>618.44</ele>
        <time>2016-06-23T04:16:05Z</time>
      </trkpt>
      <trkpt lat="44.41417" lon="2.67272">
        <ele>618.39</ele>
        <time>2016-06-23T04:16:06Z</time>
      </trkpt>
      <trkpt lat="44.41417" lon="2.67274">
        <ele>618.33</ele>
        <time>2016-06-23T04:16:07Z</time>
      </trkpt>
      <trkpt lat="44.41417" lon="2.67276">
        <ele>618.27</ele>
        <time>2016-06-23T04:16:08Z</time>
      </trkpt>
      <trkpt lat="44.41414" lon="2.67301">
        <ele>617.27</ele>
        <time>2016-06-23T04:16:21Z</time>
      </trkpt>
      <trkpt lat="44.4142" lon="2.67316">
        <ele>617.25</ele>
        <time>2016-06-23T04:16:29Z</time>
      </trkpt>
      <trkpt lat="44.4142" lon="2.67318">
        <ele>617.25</ele>
        <time>2016-06-23T04:16:30Z</time>
      </trkpt>
      <trkpt lat="44.41421" lon="2.67319">
        <ele>617.25</ele>
        <time>2016-06-23T04:16:31Z</time>
      </trkpt>
      <trkpt lat="44.41422" lon="2.67325">
        <ele>617.22</ele>
        <time>2016-06-23T04:16:35Z</time>
      </trkpt>
      <trkpt lat="44.41422" lon="2.67327">
        <ele>617.22</ele>
        <time>2016-06-23T04:16:36Z</time>
      </trkpt>
      <trkpt lat="44.41422" lon="2.67329">
        <ele>617.23</ele>
        <time>2016-06-23T04:16:37Z</time>
      </trkpt>
      <trkpt lat="44.41423" lon="2.67331">
        <ele>617.24</ele>
        <time>2016-06-23T04:16:38Z</time>
      </trkpt>
      <trkpt lat="44.41423" lon="2.67333">
        <ele>617.26</ele>
        <time>2016-06-23T04:16:39Z</time>
      </trkpt>
      <trkpt lat="44.41423" lon="2.67336">
        <ele>617.3</ele>
        <time>2016-06-23T04:16:40Z</time>
      </trkpt>
      <trkpt lat="44.41423" lon="2.67337">
        <ele>617.37</ele>
        <time>2016-06-23T04:16:41Z</time>
      </trkpt>
      <trkpt lat="44.41423" lon="2.67339">
        <ele>617.43</ele>
        <time>2016-06-23T04:16:42Z</time>
      </trkpt>
      <trkpt lat="44.41423" lon="2.67341">
        <ele>617.47</ele>
        <time>2016-06-23T04:16:43Z</time>
      </trkpt>
      <trkpt lat="44.41422" lon="2.67343">
        <ele>617.52</ele>
        <time>2016-06-23T04:16:44Z</time>
      </trkpt>
      <trkpt lat="44.41422" lon="2.67345">
        <ele>617.57</ele>
        <time>2016-06-23T04:16:45Z</time>
      </trkpt>
      <trkpt lat="44.41422" lon="2.67347">
        <ele>617.6</ele>
        <time>2016-06-23T04:16:46Z</time>
      </trkpt>
      <trkpt lat="44.41422" lon="2.67348">
        <ele>617.64</ele>
        <time>2016-06-23T04:16:47Z</time>
      </trkpt>
      <trkpt lat="44.4142" lon="2.67374">
        <ele>618.35</ele>
        <time>2016-06-23T04:17:00Z</time>
      </trkpt>
      <trkpt lat="44.41419" lon="2.67377">
        <ele>618.42</ele>
        <time>2016-06-23T04:17:02Z</time>
      </trkpt>
      <trkpt lat="44.41418" lon="2.67378">
        <ele>618.46</ele>
        <time>2016-06-23T04:17:03Z</time>
      </trkpt>
      <trkpt lat="44.41418" lon="2.6738">
        <ele>618.48</ele>
        <time>2016-06-23T04:17:04Z</time>
      </trkpt>
      <trkpt lat="44.41418" lon="2.67383">
        <ele>618.49</ele>
        <time>2016-06-23T04:17:05Z</time>
      </trkpt>
      <trkpt lat="44.41418" lon="2.67384">
        <ele>618.54</ele>
        <time>2016-06-23T04:17:06Z</time>
      </trkpt>
      <trkpt lat="44.41418" lon="2.67386">
        <ele>618.59</ele>
        <time>2016-06-23T04:17:07Z</time>
      </trkpt>
      <trkpt lat="44.41419" lon="2.67409">
        <ele>619.15</ele>
        <time>2016-06-23T04:17:18Z</time>
      </trkpt>
      <trkpt lat="44.41423" lon="2.67414">
        <ele>619.41</ele>
        <time>2016-06-23T04:17:22Z</time>
      </trkpt>
      <trkpt lat="44.41428" lon="2.67414">
        <ele>619.59</ele>
        <time>2016-06-23T04:17:26Z</time>
      </trkpt>
      <trkpt lat="44.41431" lon="2.67414">
        <ele>619.67</ele>
        <time>2016-06-23T04:17:28Z</time>
      </trkpt>
      <trkpt lat="44.41449" lon="2.67422">
        <ele>620.54</ele>
        <time>2016-06-23T04:17:42Z</time>
      </trkpt>
      <trkpt lat="44.41467" lon="2.67427">
        <ele>620.9</ele>
        <time>2016-06-23T04:17:56Z</time>
      </trkpt>
      <trkpt lat="44.41479" lon="2.67427">
        <ele>621.58</ele>
        <time>2016-06-23T04:18:05Z</time>
      </trkpt>
      <trkpt lat="44.41498" lon="2.67445">
        <ele>622.04</ele>
        <time>2016-06-23T04:18:21Z</time>
      </trkpt>
      <trkpt lat="44.41503" lon="2.67476">
        <ele>622.11</ele>
        <time>2016-06-23T04:18:37Z</time>
      </trkpt>
      <trkpt lat="44.41505" lon="2.67501">
        <ele>622</ele>
        <time>2016-06-23T04:18:50Z</time>
      </trkpt>
      <trkpt lat="44.41506" lon="2.67514">
        <ele>621.87</ele>
        <time>2016-06-23T04:18:57Z</time>
      </trkpt>
      <trkpt lat="44.41514" lon="2.6753">
        <ele>622.05</ele>
        <time>2016-06-23T04:19:07Z</time>
      </trkpt>
      <trkpt lat="44.41526" lon="2.67558">
        <ele>622.36</ele>
        <time>2016-06-23T04:19:23Z</time>
      </trkpt>
      <trkpt lat="44.41528" lon="2.67589">
        <ele>621.95</ele>
        <time>2016-06-23T04:19:38Z</time>
      </trkpt>
      <trkpt lat="44.41532" lon="2.67608">
        <ele>622.13</ele>
        <time>2016-06-23T04:19:48Z</time>
      </trkpt>
      <trkpt lat="44.41532" lon="2.67615">
        <ele>621.83</ele>
        <time>2016-06-23T04:19:52Z</time>
      </trkpt>
      <trkpt lat="44.41539" lon="2.67642">
        <ele>621.47</ele>
        <time>2016-06-23T04:20:08Z</time>
      </trkpt>
      <trkpt lat="44.41552" lon="2.67669">
        <ele>621.63</ele>
        <time>2016-06-23T04:20:24Z</time>
      </trkpt>
      <trkpt lat="44.41564" lon="2.6769">
        <ele>622.49</ele>
        <time>2016-06-23T04:20:38Z</time>
      </trkpt>
      <trkpt lat="44.41573" lon="2.67717">
        <ele>623.42</ele>
        <time>2016-06-23T04:20:55Z</time>
      </trkpt>
      <trkpt lat="44.41573" lon="2.67742">
        <ele>624.21</ele>
        <time>2016-06-23T04:21:10Z</time>
      </trkpt>
      <trkpt lat="44.41572" lon="2.67745">
        <ele>624.26</ele>
        <time>2016-06-23T04:21:12Z</time>
      </trkpt>
      <trkpt lat="44.41571" lon="2.67759">
        <ele>624.55</ele>
        <time>2016-06-23T04:21:21Z</time>
      </trkpt>
      <trkpt lat="44.4157" lon="2.6777">
        <ele>624.73</ele>
        <time>2016-06-23T04:21:27Z</time>
      </trkpt>
      <trkpt lat="44.4157" lon="2.67779">
        <ele>624.96</ele>
        <time>2016-06-23T04:21:32Z</time>
      </trkpt>
      <trkpt lat="44.4157" lon="2.67786">
        <ele>625.07</ele>
        <time>2016-06-23T04:21:37Z</time>
      </trkpt>
      <trkpt lat="44.41568" lon="2.67797">
        <ele>625.07</ele>
        <time>2016-06-23T04:21:42Z</time>
      </trkpt>
      <trkpt lat="44.41566" lon="2.67808">
        <ele>625.19</ele>
        <time>2016-06-23T04:21:47Z</time>
      </trkpt>
      <trkpt lat="44.41574" lon="2.67835">
        <ele>625.68</ele>
        <time>2016-06-23T04:22:01Z</time>
      </trkpt>
      <trkpt lat="44.41574" lon="2.67843">
        <ele>625.68</ele>
        <time>2016-06-23T04:22:05Z</time>
      </trkpt>
      <trkpt lat="44.41575" lon="2.67861">
        <ele>626</ele>
        <time>2016-06-23T04:22:16Z</time>
      </trkpt>
      <trkpt lat="44.41576" lon="2.67874">
        <ele>626.38</ele>
        <time>2016-06-23T04:22:23Z</time>
      </trkpt>
      <trkpt lat="44.41577" lon="2.67893">
        <ele>626.88</ele>
        <time>2016-06-23T04:22:33Z</time>
      </trkpt>
      <trkpt lat="44.41577" lon="2.67925">
        <ele>627.52</ele>
        <time>2016-06-23T04:22:49Z</time>
      </trkpt>
      <trkpt lat="44.41578" lon="2.67948">
        <ele>627.75</ele>
        <time>2016-06-23T04:23:00Z</time>
      </trkpt>
      <trkpt lat="44.41578" lon="2.67967">
        <ele>628.29</ele>
        <time>2016-06-23T04:23:10Z</time>
      </trkpt>
      <trkpt lat="44.41581" lon="2.67998">
        <ele>628.87</ele>
        <time>2016-06-23T04:23:25Z</time>
      </trkpt>
      <trkpt lat="44.4159" lon="2.68021">
        <ele>629.03</ele>
        <time>2016-06-23T04:23:38Z</time>
      </trkpt>
      <trkpt lat="44.41594" lon="2.68026">
        <ele>628.83</ele>
        <time>2016-06-23T04:23:41Z</time>
      </trkpt>
      <trkpt lat="44.41606" lon="2.68043">
        <ele>628.4</ele>
        <time>2016-06-23T04:23:53Z</time>
      </trkpt>
      <trkpt lat="44.41617" lon="2.68066">
        <ele>628.58</ele>
        <time>2016-06-23T04:24:07Z</time>
      </trkpt>
      <trkpt lat="44.41626" lon="2.6809">
        <ele>628.71</ele>
        <time>2016-06-23T04:24:21Z</time>
      </trkpt>
      <trkpt lat="44.41641" lon="2.68093">
        <ele>628.59</ele>
        <time>2016-06-23T04:24:34Z</time>
      </trkpt>
      <trkpt lat="44.41645" lon="2.68096">
        <ele>627.78</ele>
        <time>2016-06-23T04:24:50Z</time>
      </trkpt>
      <trkpt lat="44.41644" lon="2.68094">
        <ele>627</ele>
        <time>2016-06-23T04:25:19Z</time>
      </trkpt>
      <trkpt lat="44.41643" lon="2.68093">
        <ele>626.3</ele>
        <time>2016-06-23T04:27:08Z</time>
      </trkpt>
      <trkpt lat="44.41641" lon="2.68093">
        <ele>626.5</ele>
        <time>2016-06-23T04:28:51Z</time>
      </trkpt>
      <trkpt lat="44.41641" lon="2.68094">
        <ele>626.16</ele>
        <time>2016-06-23T04:29:34Z</time>
      </trkpt>
      <trkpt lat="44.41642" lon="2.68095">
        <ele>626.36</ele>
        <time>2016-06-23T04:30:07Z</time>
      </trkpt>
      <trkpt lat="44.41643" lon="2.68097">
        <ele>626.61</ele>
        <time>2016-06-23T04:30:34Z</time>
      </trkpt>
      <trkpt lat="44.41642" lon="2.68097">
        <ele>626.84</ele>
        <time>2016-06-23T04:30:56Z</time>
      </trkpt>
      <trkpt lat="44.41641" lon="2.68094">
        <ele>626.63</ele>
        <time>2016-06-23T04:31:02Z</time>
      </trkpt>
      <trkpt lat="44.41639" lon="2.68093">
        <ele>626.61</ele>
        <time>2016-06-23T04:31:04Z</time>
      </trkpt>
      <trkpt lat="44.4163" lon="2.68109">
        <ele>626.91</ele>
        <time>2016-06-23T04:31:16Z</time>
      </trkpt>
      <trkpt lat="44.41632" lon="2.6812">
        <ele>626.75</ele>
        <time>2016-06-23T04:31:23Z</time>
      </trkpt>
      <trkpt lat="44.41637" lon="2.68128">
        <ele>626.59</ele>
        <time>2016-06-23T04:31:29Z</time>
      </trkpt>
      <trkpt lat="44.41643" lon="2.68155">
        <ele>626.5</ele>
        <time>2016-06-23T04:31:45Z</time>
      </trkpt>
      <trkpt lat="44.41655" lon="2.68171">
        <ele>626.5</ele>
        <time>2016-06-23T04:31:58Z</time>
      </trkpt>
      <trkpt lat="44.4166" lon="2.68176">
        <ele>626.43</ele>
        <time>2016-06-23T04:32:02Z</time>
      </trkpt>
      <trkpt lat="44.41676" lon="2.68201">
        <ele>626.77</ele>
        <time>2016-06-23T04:32:18Z</time>
      </trkpt>
      <trkpt lat="44.41687" lon="2.68226">
        <ele>626.86</ele>
        <time>2016-06-23T04:32:32Z</time>
      </trkpt>
      <trkpt lat="44.41687" lon="2.6823">
        <ele>626.93</ele>
        <time>2016-06-23T04:32:34Z</time>
      </trkpt>
      <trkpt lat="44.41687" lon="2.68257">
        <ele>626.97</ele>
        <time>2016-06-23T04:32:48Z</time>
      </trkpt>
      <trkpt lat="44.41685" lon="2.68298">
        <ele>627.82</ele>
        <time>2016-06-23T04:33:08Z</time>
      </trkpt>
      <trkpt lat="44.41685" lon="2.68306">
        <ele>628.01</ele>
        <time>2016-06-23T04:33:12Z</time>
      </trkpt>
      <trkpt lat="44.41685" lon="2.68319">
        <ele>628.41</ele>
        <time>2016-06-23T04:33:18Z</time>
      </trkpt>
      <trkpt lat="44.41684" lon="2.6835">
        <ele>629.44</ele>
        <time>2016-06-23T04:33:34Z</time>
      </trkpt>
      <trkpt lat="44.41684" lon="2.68352">
        <ele>629.49</ele>
        <time>2016-06-23T04:33:35Z</time>
      </trkpt>
      <trkpt lat="44.41682" lon="2.68365">
        <ele>629.68</ele>
        <time>2016-06-23T04:33:42Z</time>
      </trkpt>
      <trkpt lat="44.41682" lon="2.68372">
        <ele>629.95</ele>
        <time>2016-06-23T04:33:46Z</time>
      </trkpt>
      <trkpt lat="44.41678" lon="2.68404">
        <ele>631.52</ele>
        <time>2016-06-23T04:34:02Z</time>
      </trkpt>
      <trkpt lat="44.41674" lon="2.6842">
        <ele>632.18</ele>
        <time>2016-06-23T04:34:11Z</time>
      </trkpt>
      <trkpt lat="44.41677" lon="2.6845">
        <ele>632.47</ele>
        <time>2016-06-23T04:34:26Z</time>
      </trkpt>
      <trkpt lat="44.4168" lon="2.68463">
        <ele>633.17</ele>
        <time>2016-06-23T04:34:32Z</time>
      </trkpt>
      <trkpt lat="44.41683" lon="2.68474">
        <ele>632.91</ele>
        <time>2016-06-23T04:34:38Z</time>
      </trkpt>
      <trkpt lat="44.41687" lon="2.68505">
        <ele>633.39</ele>
        <time>2016-06-23T04:34:54Z</time>
      </trkpt>
      <trkpt lat="44.41687" lon="2.68524">
        <ele>634.37</ele>
        <time>2016-06-23T04:35:04Z</time>
      </trkpt>
      <trkpt lat="44.41687" lon="2.68552">
        <ele>635</ele>
        <time>2016-06-23T04:35:20Z</time>
      </trkpt>
      <trkpt lat="44.4169" lon="2.68561">
        <ele>634.87</ele>
        <time>2016-06-23T04:35:32Z</time>
      </trkpt>
      <trkpt lat="44.4169" lon="2.68562">
        <ele>634.85</ele>
        <time>2016-06-23T04:35:34Z</time>
      </trkpt>
      <trkpt lat="44.41691" lon="2.68566">
        <ele>634.83</ele>
        <time>2016-06-23T04:35:37Z</time>
      </trkpt>
      <trkpt lat="44.41698" lon="2.6859">
        <ele>634.6</ele>
        <time>2016-06-23T04:35:50Z</time>
      </trkpt>
      <trkpt lat="44.41708" lon="2.68615">
        <ele>634.05</ele>
        <time>2016-06-23T04:36:04Z</time>
      </trkpt>
      <trkpt lat="44.41716" lon="2.68635">
        <ele>633.54</ele>
        <time>2016-06-23T04:36:16Z</time>
      </trkpt>
      <trkpt lat="44.41725" lon="2.68658">
        <ele>634</ele>
        <time>2016-06-23T04:36:30Z</time>
      </trkpt>
      <trkpt lat="44.41734" lon="2.68684">
        <ele>634.43</ele>
        <time>2016-06-23T04:36:45Z</time>
      </trkpt>
      <trkpt lat="44.41737" lon="2.68694">
        <ele>634.53</ele>
        <time>2016-06-23T04:36:54Z</time>
      </trkpt>
      <trkpt lat="44.41733" lon="2.68694">
        <ele>634.56</ele>
        <time>2016-06-23T04:36:58Z</time>
      </trkpt>
      <trkpt lat="44.4173" lon="2.68702">
        <ele>634.61</ele>
        <time>2016-06-23T04:37:14Z</time>
      </trkpt>
      <trkpt lat="44.41732" lon="2.68702">
        <ele>634.84</ele>
        <time>2016-06-23T04:37:31Z</time>
      </trkpt>
      <trkpt lat="44.41736" lon="2.68699">
        <ele>634.88</ele>
        <time>2016-06-23T04:37:35Z</time>
      </trkpt>
      <trkpt lat="44.4174" lon="2.68706">
        <ele>635.06</ele>
        <time>2016-06-23T04:37:40Z</time>
      </trkpt>
      <trkpt lat="44.41741" lon="2.68713">
        <ele>635.19</ele>
        <time>2016-06-23T04:37:44Z</time>
      </trkpt>
      <trkpt lat="44.41737" lon="2.68725">
        <ele>635.11</ele>
        <time>2016-06-23T04:37:51Z</time>
      </trkpt>
      <trkpt lat="44.41734" lon="2.68734">
        <ele>635.17</ele>
        <time>2016-06-23T04:37:56Z</time>
      </trkpt>
      <trkpt lat="44.41732" lon="2.68742">
        <ele>635.27</ele>
        <time>2016-06-23T04:38:00Z</time>
      </trkpt>
      <trkpt lat="44.41724" lon="2.68771">
        <ele>635.71</ele>
        <time>2016-06-23T04:38:16Z</time>
      </trkpt>
      <trkpt lat="44.41724" lon="2.68773">
        <ele>635.75</ele>
        <time>2016-06-23T04:38:17Z</time>
      </trkpt>
      <trkpt lat="44.41719" lon="2.68788">
        <ele>635.99</ele>
        <time>2016-06-23T04:38:25Z</time>
      </trkpt>
      <trkpt lat="44.41714" lon="2.68808">
        <ele>636.26</ele>
        <time>2016-06-23T04:38:35Z</time>
      </trkpt>
      <trkpt lat="44.41712" lon="2.68818">
        <ele>636.47</ele>
        <time>2016-06-23T04:38:40Z</time>
      </trkpt>
      <trkpt lat="44.41711" lon="2.68826">
        <ele>636.5</ele>
        <time>2016-06-23T04:38:44Z</time>
      </trkpt>
      <trkpt lat="44.41711" lon="2.6885">
        <ele>636.36</ele>
        <time>2016-06-23T04:38:55Z</time>
      </trkpt>
      <trkpt lat="44.41713" lon="2.68862">
        <ele>636.1</ele>
        <time>2016-06-23T04:39:01Z</time>
      </trkpt>
      <trkpt lat="44.41716" lon="2.68886">
        <ele>635.34</ele>
        <time>2016-06-23T04:39:13Z</time>
      </trkpt>
      <trkpt lat="44.41717" lon="2.68907">
        <ele>634.93</ele>
        <time>2016-06-23T04:39:22Z</time>
      </trkpt>
      <trkpt lat="44.41716" lon="2.68928">
        <ele>634.63</ele>
        <time>2016-06-23T04:39:32Z</time>
      </trkpt>
      <trkpt lat="44.41728" lon="2.68955">
        <ele>633.33</ele>
        <time>2016-06-23T04:39:45Z</time>
      </trkpt>
      <trkpt lat="44.41733" lon="2.68965">
        <ele>633.19</ele>
        <time>2016-06-23T04:39:51Z</time>
      </trkpt>
      <trkpt lat="44.41736" lon="2.68974">
        <ele>633.64</ele>
        <time>2016-06-23T04:39:56Z</time>
      </trkpt>
      <trkpt lat="44.41751" lon="2.68995">
        <ele>633.31</ele>
        <time>2016-06-23T04:40:09Z</time>
      </trkpt>
      <trkpt lat="44.41763" lon="2.69014">
        <ele>633.39</ele>
        <time>2016-06-23T04:40:21Z</time>
      </trkpt>
      <trkpt lat="44.4177" lon="2.69028">
        <ele>633.47</ele>
        <time>2016-06-23T04:40:29Z</time>
      </trkpt>
      <trkpt lat="44.41779" lon="2.69051">
        <ele>633.11</ele>
        <time>2016-06-23T04:40:42Z</time>
      </trkpt>
      <trkpt lat="44.41783" lon="2.69066">
        <ele>632.7</ele>
        <time>2016-06-23T04:40:50Z</time>
      </trkpt>
      <trkpt lat="44.41786" lon="2.69073">
        <ele>632.45</ele>
        <time>2016-06-23T04:40:54Z</time>
      </trkpt>
      <trkpt lat="44.41787" lon="2.69076">
        <ele>632.35</ele>
        <time>2016-06-23T04:40:56Z</time>
      </trkpt>
      <trkpt lat="44.41788" lon="2.69089">
        <ele>631.91</ele>
        <time>2016-06-23T04:41:03Z</time>
      </trkpt>
      <trkpt lat="44.41789" lon="2.69092">
        <ele>631.73</ele>
        <time>2016-06-23T04:41:05Z</time>
      </trkpt>
      <trkpt lat="44.41789" lon="2.69101">
        <ele>631.24</ele>
        <time>2016-06-23T04:41:10Z</time>
      </trkpt>
      <trkpt lat="44.41789" lon="2.69118">
        <ele>630.27</ele>
        <time>2016-06-23T04:41:18Z</time>
      </trkpt>
      <trkpt lat="44.41789" lon="2.69129">
        <ele>629.76</ele>
        <time>2016-06-23T04:41:23Z</time>
      </trkpt>
      <trkpt lat="44.41789" lon="2.69139">
        <ele>629.14</ele>
        <time>2016-06-23T04:41:28Z</time>
      </trkpt>
      <trkpt lat="44.41789" lon="2.69149">
        <ele>628.55</ele>
        <time>2016-06-23T04:41:33Z</time>
      </trkpt>
      <trkpt lat="44.4179" lon="2.69178">
        <ele>627.3</ele>
        <time>2016-06-23T04:41:47Z</time>
      </trkpt>
      <trkpt lat="44.4179" lon="2.69194">
        <ele>627.01</ele>
        <time>2016-06-23T04:41:55Z</time>
      </trkpt>
      <trkpt lat="44.41788" lon="2.69225">
        <ele>627.57</ele>
        <time>2016-06-23T04:42:10Z</time>
      </trkpt>
      <trkpt lat="44.41788" lon="2.69244">
        <ele>628.13</ele>
        <time>2016-06-23T04:42:19Z</time>
      </trkpt>
      <trkpt lat="44.4179" lon="2.6926">
        <ele>628.49</ele>
        <time>2016-06-23T04:42:27Z</time>
      </trkpt>
      <trkpt lat="44.41785" lon="2.69286">
        <ele>628.75</ele>
        <time>2016-06-23T04:42:41Z</time>
      </trkpt>
      <trkpt lat="44.41783" lon="2.69289">
        <ele>628.7</ele>
        <time>2016-06-23T04:42:43Z</time>
      </trkpt>
      <trkpt lat="44.41778" lon="2.69304">
        <ele>629.35</ele>
        <time>2016-06-23T04:42:52Z</time>
      </trkpt>
      <trkpt lat="44.41773" lon="2.6932">
        <ele>630.09</ele>
        <time>2016-06-23T04:43:01Z</time>
      </trkpt>
      <trkpt lat="44.41771" lon="2.6933">
        <ele>630.49</ele>
        <time>2016-06-23T04:43:07Z</time>
      </trkpt>
      <trkpt lat="44.41767" lon="2.69355">
        <ele>631.37</ele>
        <time>2016-06-23T04:43:20Z</time>
      </trkpt>
      <trkpt lat="44.41766" lon="2.69381">
        <ele>631.86</ele>
        <time>2016-06-23T04:43:35Z</time>
      </trkpt>
      <trkpt lat="44.41766" lon="2.69384">
        <ele>631.88</ele>
        <time>2016-06-23T04:43:39Z</time>
      </trkpt>
      <trkpt lat="44.41766" lon="2.69387">
        <ele>631.87</ele>
        <time>2016-06-23T04:43:41Z</time>
      </trkpt>
      <trkpt lat="44.41766" lon="2.69395">
        <ele>631.85</ele>
        <time>2016-06-23T04:43:49Z</time>
      </trkpt>
      <trkpt lat="44.41766" lon="2.69401">
        <ele>631.79</ele>
        <time>2016-06-23T04:43:53Z</time>
      </trkpt>
      <trkpt lat="44.41757" lon="2.69433">
        <ele>633.04</ele>
        <time>2016-06-23T04:44:05Z</time>
      </trkpt>
      <trkpt lat="44.41756" lon="2.69434">
        <ele>633.14</ele>
        <time>2016-06-23T04:44:06Z</time>
      </trkpt>
      <trkpt lat="44.41742" lon="2.69442">
        <ele>633.19</ele>
        <time>2016-06-23T04:44:18Z</time>
      </trkpt>
      <trkpt lat="44.41748" lon="2.69444">
        <ele>633.29</ele>
        <time>2016-06-23T04:44:23Z</time>
      </trkpt>
      <trkpt lat="44.41749" lon="2.69444">
        <ele>633.31</ele>
        <time>2016-06-23T04:44:24Z</time>
      </trkpt>
      <trkpt lat="44.41752" lon="2.69445">
        <ele>633.3</ele>
        <time>2016-06-23T04:44:26Z</time>
      </trkpt>
      <trkpt lat="44.41773" lon="2.69455">
        <ele>632.53</ele>
        <time>2016-06-23T04:44:41Z</time>
      </trkpt>
      <trkpt lat="44.41791" lon="2.69458">
        <ele>632.17</ele>
        <time>2016-06-23T04:44:54Z</time>
      </trkpt>
      <trkpt lat="44.41795" lon="2.69461">
        <ele>631.86</ele>
        <time>2016-06-23T04:44:59Z</time>
      </trkpt>
      <trkpt lat="44.41795" lon="2.69462">
        <ele>631.8</ele>
        <time>2016-06-23T04:45:00Z</time>
      </trkpt>
      <trkpt lat="44.41794" lon="2.69463">
        <ele>631.76</ele>
        <time>2016-06-23T04:45:01Z</time>
      </trkpt>
      <trkpt lat="44.41793" lon="2.69464">
        <ele>631.76</ele>
        <time>2016-06-23T04:45:02Z</time>
      </trkpt>
      <trkpt lat="44.41792" lon="2.69466">
        <ele>631.78</ele>
        <time>2016-06-23T04:45:03Z</time>
      </trkpt>
      <trkpt lat="44.41785" lon="2.69491">
        <ele>631.31</ele>
        <time>2016-06-23T04:45:18Z</time>
      </trkpt>
      <trkpt lat="44.41783" lon="2.69525">
        <ele>631.35</ele>
        <time>2016-06-23T04:45:36Z</time>
      </trkpt>
      <trkpt lat="44.4178" lon="2.69554">
        <ele>631.98</ele>
        <time>2016-06-23T04:45:50Z</time>
      </trkpt>
      <trkpt lat="44.41778" lon="2.69582">
        <ele>632</ele>
        <time>2016-06-23T04:46:05Z</time>
      </trkpt>
      <trkpt lat="44.41776" lon="2.69599">
        <ele>631.51</ele>
        <time>2016-06-23T04:46:14Z</time>
      </trkpt>
      <trkpt lat="44.41776" lon="2.69601">
        <ele>631.44</ele>
        <time>2016-06-23T04:46:15Z</time>
      </trkpt>
      <trkpt lat="44.41776" lon="2.69616">
        <ele>631.4</ele>
        <time>2016-06-23T04:46:22Z</time>
      </trkpt>
      <trkpt lat="44.41776" lon="2.69618">
        <ele>631.44</ele>
        <time>2016-06-23T04:46:23Z</time>
      </trkpt>
      <trkpt lat="44.41776" lon="2.6962">
        <ele>631.48</ele>
        <time>2016-06-23T04:46:24Z</time>
      </trkpt>
      <trkpt lat="44.41776" lon="2.69622">
        <ele>631.51</ele>
        <time>2016-06-23T04:46:25Z</time>
      </trkpt>
      <trkpt lat="44.41776" lon="2.69624">
        <ele>631.51</ele>
        <time>2016-06-23T04:46:26Z</time>
      </trkpt>
      <trkpt lat="44.41776" lon="2.69653">
        <ele>631.38</ele>
        <time>2016-06-23T04:46:40Z</time>
      </trkpt>
      <trkpt lat="44.41776" lon="2.69673">
        <ele>631.74</ele>
        <time>2016-06-23T04:46:50Z</time>
      </trkpt>
      <trkpt lat="44.41776" lon="2.69675">
        <ele>631.75</ele>
        <time>2016-06-23T04:46:51Z</time>
      </trkpt>
      <trkpt lat="44.41777" lon="2.69678">
        <ele>631.74</ele>
        <time>2016-06-23T04:46:53Z</time>
      </trkpt>
      <trkpt lat="44.41777" lon="2.6968">
        <ele>631.73</ele>
        <time>2016-06-23T04:46:54Z</time>
      </trkpt>
      <trkpt lat="44.41777" lon="2.69682">
        <ele>631.72</ele>
        <time>2016-06-23T04:46:55Z</time>
      </trkpt>
      <trkpt lat="44.41777" lon="2.69685">
        <ele>631.72</ele>
        <time>2016-06-23T04:46:56Z</time>
      </trkpt>
      <trkpt lat="44.41778" lon="2.69688">
        <ele>631.72</ele>
        <time>2016-06-23T04:46:57Z</time>
      </trkpt>
      <trkpt lat="44.41778" lon="2.69692">
        <ele>631.74</ele>
        <time>2016-06-23T04:46:58Z</time>
      </trkpt>
      <trkpt lat="44.41778" lon="2.69695">
        <ele>631.79</ele>
        <time>2016-06-23T04:46:59Z</time>
      </trkpt>
      <trkpt lat="44.41778" lon="2.69698">
        <ele>631.83</ele>
        <time>2016-06-23T04:47:00Z</time>
      </trkpt>
      <trkpt lat="44.4178" lon="2.69702">
        <ele>631.91</ele>
        <time>2016-06-23T04:47:01Z</time>
      </trkpt>
      <trkpt lat="44.4179" lon="2.69725">
        <ele>632.61</ele>
        <time>2016-06-23T04:47:13Z</time>
      </trkpt>
      <trkpt lat="44.41792" lon="2.69737">
        <ele>632.97</ele>
        <time>2016-06-23T04:47:20Z</time>
      </trkpt>
      <trkpt lat="44.41793" lon="2.69738">
        <ele>633.04</ele>
        <time>2016-06-23T04:47:21Z</time>
      </trkpt>
      <trkpt lat="44.41794" lon="2.6974">
        <ele>633.11</ele>
        <time>2016-06-23T04:47:22Z</time>
      </trkpt>
      <trkpt lat="44.41794" lon="2.69742">
        <ele>633.21</ele>
        <time>2016-06-23T04:47:23Z</time>
      </trkpt>
      <trkpt lat="44.41795" lon="2.69744">
        <ele>633.38</ele>
        <time>2016-06-23T04:47:24Z</time>
      </trkpt>
      <trkpt lat="44.41796" lon="2.69745">
        <ele>633.56</ele>
        <time>2016-06-23T04:47:25Z</time>
      </trkpt>
      <trkpt lat="44.41796" lon="2.69747">
        <ele>633.85</ele>
        <time>2016-06-23T04:47:26Z</time>
      </trkpt>
      <trkpt lat="44.41797" lon="2.69749">
        <ele>633.95</ele>
        <time>2016-06-23T04:47:27Z</time>
      </trkpt>
      <trkpt lat="44.41797" lon="2.69751">
        <ele>634.03</ele>
        <time>2016-06-23T04:47:28Z</time>
      </trkpt>
      <trkpt lat="44.41798" lon="2.69756">
        <ele>634.17</ele>
        <time>2016-06-23T04:47:30Z</time>
      </trkpt>
      <trkpt lat="44.41799" lon="2.69758">
        <ele>634.23</ele>
        <time>2016-06-23T04:47:31Z</time>
      </trkpt>
      <trkpt lat="44.41799" lon="2.6976">
        <ele>634.28</ele>
        <time>2016-06-23T04:47:32Z</time>
      </trkpt>
      <trkpt lat="44.418" lon="2.69761">
        <ele>634.34</ele>
        <time>2016-06-23T04:47:33Z</time>
      </trkpt>
      <trkpt lat="44.41801" lon="2.69763">
        <ele>634.45</ele>
        <time>2016-06-23T04:47:34Z</time>
      </trkpt>
      <trkpt lat="44.41801" lon="2.69765">
        <ele>634.55</ele>
        <time>2016-06-23T04:47:35Z</time>
      </trkpt>
      <trkpt lat="44.41801" lon="2.69767">
        <ele>634.63</ele>
        <time>2016-06-23T04:47:36Z</time>
      </trkpt>
      <trkpt lat="44.41802" lon="2.69769">
        <ele>634.72</ele>
        <time>2016-06-23T04:47:37Z</time>
      </trkpt>
      <trkpt lat="44.41802" lon="2.69772">
        <ele>634.89</ele>
        <time>2016-06-23T04:47:39Z</time>
      </trkpt>
      <trkpt lat="44.41803" lon="2.69774">
        <ele>634.94</ele>
        <time>2016-06-23T04:47:40Z</time>
      </trkpt>
      <trkpt lat="44.41803" lon="2.69776">
        <ele>634.97</ele>
        <time>2016-06-23T04:47:41Z</time>
      </trkpt>
      <trkpt lat="44.41804" lon="2.69778">
        <ele>634.97</ele>
        <time>2016-06-23T04:47:42Z</time>
      </trkpt>
      <trkpt lat="44.41805" lon="2.69779">
        <ele>634.97</ele>
        <time>2016-06-23T04:47:43Z</time>
      </trkpt>
      <trkpt lat="44.41805" lon="2.69781">
        <ele>634.95</ele>
        <time>2016-06-23T04:47:44Z</time>
      </trkpt>
      <trkpt lat="44.41806" lon="2.69783">
        <ele>634.94</ele>
        <time>2016-06-23T04:47:45Z</time>
      </trkpt>
      <trkpt lat="44.41806" lon="2.69785">
        <ele>634.94</ele>
        <time>2016-06-23T04:47:46Z</time>
      </trkpt>
      <trkpt lat="44.41807" lon="2.69787">
        <ele>634.92</ele>
        <time>2016-06-23T04:47:47Z</time>
      </trkpt>
      <trkpt lat="44.41807" lon="2.69789">
        <ele>634.91</ele>
        <time>2016-06-23T04:47:48Z</time>
      </trkpt>
      <trkpt lat="44.41807" lon="2.69791">
        <ele>634.9</ele>
        <time>2016-06-23T04:47:49Z</time>
      </trkpt>
      <trkpt lat="44.41808" lon="2.69793">
        <ele>634.99</ele>
        <time>2016-06-23T04:47:50Z</time>
      </trkpt>
      <trkpt lat="44.41808" lon="2.69794">
        <ele>634.99</ele>
        <time>2016-06-23T04:47:51Z</time>
      </trkpt>
      <trkpt lat="44.41809" lon="2.69796">
        <ele>635.06</ele>
        <time>2016-06-23T04:47:52Z</time>
      </trkpt>
      <trkpt lat="44.41809" lon="2.69798">
        <ele>635.1</ele>
        <time>2016-06-23T04:47:53Z</time>
      </trkpt>
      <trkpt lat="44.4181" lon="2.698">
        <ele>635.11</ele>
        <time>2016-06-23T04:47:54Z</time>
      </trkpt>
      <trkpt lat="44.4181" lon="2.69801">
        <ele>635.14</ele>
        <time>2016-06-23T04:47:55Z</time>
      </trkpt>
      <trkpt lat="44.4181" lon="2.69803">
        <ele>635.14</ele>
        <time>2016-06-23T04:47:56Z</time>
      </trkpt>
      <trkpt lat="44.41811" lon="2.69805">
        <ele>635.15</ele>
        <time>2016-06-23T04:47:57Z</time>
      </trkpt>
      <trkpt lat="44.41812" lon="2.69807">
        <ele>635.16</ele>
        <time>2016-06-23T04:47:58Z</time>
      </trkpt>
      <trkpt lat="44.41812" lon="2.69809">
        <ele>635.18</ele>
        <time>2016-06-23T04:47:59Z</time>
      </trkpt>
      <trkpt lat="44.41812" lon="2.69811">
        <ele>635.23</ele>
        <time>2016-06-23T04:48:00Z</time>
      </trkpt>
      <trkpt lat="44.41813" lon="2.69813">
        <ele>635.28</ele>
        <time>2016-06-23T04:48:01Z</time>
      </trkpt>
      <trkpt lat="44.41816" lon="2.69823">
        <ele>635.59</ele>
        <time>2016-06-23T04:48:07Z</time>
      </trkpt>
      <trkpt lat="44.41817" lon="2.69825">
        <ele>635.65</ele>
        <time>2016-06-23T04:48:08Z</time>
      </trkpt>
      <trkpt lat="44.41825" lon="2.69848">
        <ele>636.39</ele>
        <time>2016-06-23T04:48:20Z</time>
      </trkpt>
      <trkpt lat="44.4183" lon="2.69862">
        <ele>636.74</ele>
        <time>2016-06-23T04:48:27Z</time>
      </trkpt>
      <trkpt lat="44.4183" lon="2.69864">
        <ele>636.79</ele>
        <time>2016-06-23T04:48:28Z</time>
      </trkpt>
      <trkpt lat="44.41831" lon="2.69866">
        <ele>636.83</ele>
        <time>2016-06-23T04:48:29Z</time>
      </trkpt>
      <trkpt lat="44.41836" lon="2.69878">
        <ele>637.28</ele>
        <time>2016-06-23T04:48:36Z</time>
      </trkpt>
      <trkpt lat="44.41837" lon="2.69882">
        <ele>637.31</ele>
        <time>2016-06-23T04:48:38Z</time>
      </trkpt>
      <trkpt lat="44.41842" lon="2.69894">
        <ele>637.2</ele>
        <time>2016-06-23T04:48:45Z</time>
      </trkpt>
      <trkpt lat="44.41843" lon="2.69898">
        <ele>637.32</ele>
        <time>2016-06-23T04:48:47Z</time>
      </trkpt>
      <trkpt lat="44.41844" lon="2.699">
        <ele>637.41</ele>
        <time>2016-06-23T04:48:48Z</time>
      </trkpt>
      <trkpt lat="44.41845" lon="2.69903">
        <ele>637.56</ele>
        <time>2016-06-23T04:48:50Z</time>
      </trkpt>
      <trkpt lat="44.41846" lon="2.69905">
        <ele>637.62</ele>
        <time>2016-06-23T04:48:51Z</time>
      </trkpt>
      <trkpt lat="44.41846" lon="2.69907">
        <ele>637.65</ele>
        <time>2016-06-23T04:48:52Z</time>
      </trkpt>
      <trkpt lat="44.41847" lon="2.69909">
        <ele>637.65</ele>
        <time>2016-06-23T04:48:53Z</time>
      </trkpt>
      <trkpt lat="44.41847" lon="2.69911">
        <ele>637.65</ele>
        <time>2016-06-23T04:48:54Z</time>
      </trkpt>
      <trkpt lat="44.41848" lon="2.69913">
        <ele>637.65</ele>
        <time>2016-06-23T04:48:55Z</time>
      </trkpt>
      <trkpt lat="44.41848" lon="2.69915">
        <ele>637.66</ele>
        <time>2016-06-23T04:48:56Z</time>
      </trkpt>
      <trkpt lat="44.41848" lon="2.69917">
        <ele>637.73</ele>
        <time>2016-06-23T04:48:57Z</time>
      </trkpt>
      <trkpt lat="44.41849" lon="2.69919">
        <ele>637.78</ele>
        <time>2016-06-23T04:48:58Z</time>
      </trkpt>
      <trkpt lat="44.4185" lon="2.69923">
        <ele>637.85</ele>
        <time>2016-06-23T04:49:00Z</time>
      </trkpt>
      <trkpt lat="44.4185" lon="2.69925">
        <ele>637.88</ele>
        <time>2016-06-23T04:49:01Z</time>
      </trkpt>
      <trkpt lat="44.41851" lon="2.69948">
        <ele>638.07</ele>
        <time>2016-06-23T04:49:14Z</time>
      </trkpt>
      <trkpt lat="44.41853" lon="2.69957">
        <ele>638.02</ele>
        <time>2016-06-23T04:49:18Z</time>
      </trkpt>
      <trkpt lat="44.4186" lon="2.69983">
        <ele>637.18</ele>
        <time>2016-06-23T04:49:32Z</time>
      </trkpt>
      <trkpt lat="44.4186" lon="2.69985">
        <ele>637.09</ele>
        <time>2016-06-23T04:49:33Z</time>
      </trkpt>
      <trkpt lat="44.41861" lon="2.69987">
        <ele>637.01</ele>
        <time>2016-06-23T04:49:34Z</time>
      </trkpt>
      <trkpt lat="44.41861" lon="2.69989">
        <ele>636.94</ele>
        <time>2016-06-23T04:49:35Z</time>
      </trkpt>
      <trkpt lat="44.41862" lon="2.69993">
        <ele>636.77</ele>
        <time>2016-06-23T04:49:37Z</time>
      </trkpt>
      <trkpt lat="44.41862" lon="2.69995">
        <ele>636.68</ele>
        <time>2016-06-23T04:49:38Z</time>
      </trkpt>
      <trkpt lat="44.41862" lon="2.69997">
        <ele>636.61</ele>
        <time>2016-06-23T04:49:39Z</time>
      </trkpt>
      <trkpt lat="44.41863" lon="2.69999">
        <ele>636.54</ele>
        <time>2016-06-23T04:49:40Z</time>
      </trkpt>
      <trkpt lat="44.41864" lon="2.70001">
        <ele>636.5</ele>
        <time>2016-06-23T04:49:41Z</time>
      </trkpt>
      <trkpt lat="44.41864" lon="2.70003">
        <ele>636.43</ele>
        <time>2016-06-23T04:49:42Z</time>
      </trkpt>
      <trkpt lat="44.41865" lon="2.70005">
        <ele>636.38</ele>
        <time>2016-06-23T04:49:43Z</time>
      </trkpt>
      <trkpt lat="44.41866" lon="2.70012">
        <ele>636.26</ele>
        <time>2016-06-23T04:49:46Z</time>
      </trkpt>
      <trkpt lat="44.41865" lon="2.70014">
        <ele>636.24</ele>
        <time>2016-06-23T04:49:47Z</time>
      </trkpt>
      <trkpt lat="44.41865" lon="2.70016">
        <ele>636.2</ele>
        <time>2016-06-23T04:49:48Z</time>
      </trkpt>
      <trkpt lat="44.41865" lon="2.70018">
        <ele>636.19</ele>
        <time>2016-06-23T04:49:49Z</time>
      </trkpt>
      <trkpt lat="44.41866" lon="2.7002">
        <ele>636.2</ele>
        <time>2016-06-23T04:49:50Z</time>
      </trkpt>
      <trkpt lat="44.41866" lon="2.70022">
        <ele>636.25</ele>
        <time>2016-06-23T04:49:51Z</time>
      </trkpt>
      <trkpt lat="44.41867" lon="2.70024">
        <ele>636.28</ele>
        <time>2016-06-23T04:49:52Z</time>
      </trkpt>
      <trkpt lat="44.41866" lon="2.70026">
        <ele>636.35</ele>
        <time>2016-06-23T04:49:53Z</time>
      </trkpt>
      <trkpt lat="44.41867" lon="2.70028">
        <ele>636.4</ele>
        <time>2016-06-23T04:49:54Z</time>
      </trkpt>
      <trkpt lat="44.41867" lon="2.70029">
        <ele>636.49</ele>
        <time>2016-06-23T04:49:55Z</time>
      </trkpt>
      <trkpt lat="44.41867" lon="2.70031">
        <ele>636.62</ele>
        <time>2016-06-23T04:49:56Z</time>
      </trkpt>
      <trkpt lat="44.41867" lon="2.70033">
        <ele>636.65</ele>
        <time>2016-06-23T04:49:57Z</time>
      </trkpt>
      <trkpt lat="44.41867" lon="2.70035">
        <ele>636.62</ele>
        <time>2016-06-23T04:49:58Z</time>
      </trkpt>
      <trkpt lat="44.41868" lon="2.70038">
        <ele>636.55</ele>
        <time>2016-06-23T04:50:00Z</time>
      </trkpt>
      <trkpt lat="44.41868" lon="2.7004">
        <ele>636.53</ele>
        <time>2016-06-23T04:50:01Z</time>
      </trkpt>
      <trkpt lat="44.41868" lon="2.70042">
        <ele>636.53</ele>
        <time>2016-06-23T04:50:02Z</time>
      </trkpt>
      <trkpt lat="44.41868" lon="2.70043">
        <ele>636.53</ele>
        <time>2016-06-23T04:50:03Z</time>
      </trkpt>
      <trkpt lat="44.41868" lon="2.70045">
        <ele>636.58</ele>
        <time>2016-06-23T04:50:04Z</time>
      </trkpt>
      <trkpt lat="44.41868" lon="2.70047">
        <ele>636.68</ele>
        <time>2016-06-23T04:50:05Z</time>
      </trkpt>
      <trkpt lat="44.41868" lon="2.70049">
        <ele>636.79</ele>
        <time>2016-06-23T04:50:06Z</time>
      </trkpt>
      <trkpt lat="44.41868" lon="2.70051">
        <ele>636.91</ele>
        <time>2016-06-23T04:50:07Z</time>
      </trkpt>
      <trkpt lat="44.41867" lon="2.70053">
        <ele>637.04</ele>
        <time>2016-06-23T04:50:08Z</time>
      </trkpt>
      <trkpt lat="44.41867" lon="2.70055">
        <ele>637.18</ele>
        <time>2016-06-23T04:50:09Z</time>
      </trkpt>
      <trkpt lat="44.41866" lon="2.70057">
        <ele>637.33</ele>
        <time>2016-06-23T04:50:10Z</time>
      </trkpt>
      <trkpt lat="44.41866" lon="2.70059">
        <ele>637.48</ele>
        <time>2016-06-23T04:50:11Z</time>
      </trkpt>
      <trkpt lat="44.41866" lon="2.70061">
        <ele>637.61</ele>
        <time>2016-06-23T04:50:12Z</time>
      </trkpt>
      <trkpt lat="44.41859" lon="2.70088">
        <ele>638.13</ele>
        <time>2016-06-23T04:50:25Z</time>
      </trkpt>
      <trkpt lat="44.41853" lon="2.70112">
        <ele>638.07</ele>
        <time>2016-06-23T04:50:38Z</time>
      </trkpt>
      <trkpt lat="44.41843" lon="2.70132">
        <ele>638.25</ele>
        <time>2016-06-23T04:50:50Z</time>
      </trkpt>
      <trkpt lat="44.41836" lon="2.70157">
        <ele>638.65</ele>
        <time>2016-06-23T04:51:03Z</time>
      </trkpt>
      <trkpt lat="44.41835" lon="2.70166">
        <ele>638.17</ele>
        <time>2016-06-23T04:51:10Z</time>
      </trkpt>
      <trkpt lat="44.41834" lon="2.70167">
        <ele>638.13</ele>
        <time>2016-06-23T04:51:11Z</time>
      </trkpt>
      <trkpt lat="44.41834" lon="2.70169">
        <ele>638.1</ele>
        <time>2016-06-23T04:51:12Z</time>
      </trkpt>
      <trkpt lat="44.41833" lon="2.70179">
        <ele>638.02</ele>
        <time>2016-06-23T04:51:17Z</time>
      </trkpt>
      <trkpt lat="44.41833" lon="2.70182">
        <ele>638</ele>
        <time>2016-06-23T04:51:18Z</time>
      </trkpt>
      <trkpt lat="44.41833" lon="2.70184">
        <ele>637.98</ele>
        <time>2016-06-23T04:51:19Z</time>
      </trkpt>
      <trkpt lat="44.41833" lon="2.70186">
        <ele>637.96</ele>
        <time>2016-06-23T04:51:20Z</time>
      </trkpt>
      <trkpt lat="44.41833" lon="2.70188">
        <ele>637.94</ele>
        <time>2016-06-23T04:51:21Z</time>
      </trkpt>
      <trkpt lat="44.41833" lon="2.7019">
        <ele>637.93</ele>
        <time>2016-06-23T04:51:22Z</time>
      </trkpt>
      <trkpt lat="44.41833" lon="2.70192">
        <ele>637.95</ele>
        <time>2016-06-23T04:51:23Z</time>
      </trkpt>
      <trkpt lat="44.41833" lon="2.70195">
        <ele>637.96</ele>
        <time>2016-06-23T04:51:24Z</time>
      </trkpt>
      <trkpt lat="44.41833" lon="2.70221">
        <ele>637.93</ele>
        <time>2016-06-23T04:51:38Z</time>
      </trkpt>
      <trkpt lat="44.41833" lon="2.70223">
        <ele>637.83</ele>
        <time>2016-06-23T04:51:39Z</time>
      </trkpt>
      <trkpt lat="44.41834" lon="2.70225">
        <ele>637.76</ele>
        <time>2016-06-23T04:51:40Z</time>
      </trkpt>
      <trkpt lat="44.41835" lon="2.70227">
        <ele>637.69</ele>
        <time>2016-06-23T04:51:41Z</time>
      </trkpt>
      <trkpt lat="44.41835" lon="2.70229">
        <ele>637.62</ele>
        <time>2016-06-23T04:51:42Z</time>
      </trkpt>
      <trkpt lat="44.41836" lon="2.70231">
        <ele>637.52</ele>
        <time>2016-06-23T04:51:43Z</time>
      </trkpt>
      <trkpt lat="44.41836" lon="2.70233">
        <ele>637.44</ele>
        <time>2016-06-23T04:51:44Z</time>
      </trkpt>
      <trkpt lat="44.41837" lon="2.70235">
        <ele>637.37</ele>
        <time>2016-06-23T04:51:45Z</time>
      </trkpt>
      <trkpt lat="44.41837" lon="2.70237">
        <ele>637.3</ele>
        <time>2016-06-23T04:51:46Z</time>
      </trkpt>
      <trkpt lat="44.41842" lon="2.70252">
        <ele>636.78</ele>
        <time>2016-06-23T04:51:54Z</time>
      </trkpt>
      <trkpt lat="44.41842" lon="2.70254">
        <ele>636.68</ele>
        <time>2016-06-23T04:51:55Z</time>
      </trkpt>
      <trkpt lat="44.41851" lon="2.70281">
        <ele>636.1</ele>
        <time>2016-06-23T04:52:09Z</time>
      </trkpt>
      <trkpt lat="44.41855" lon="2.70292">
        <ele>636.18</ele>
        <time>2016-06-23T04:52:16Z</time>
      </trkpt>
      <trkpt lat="44.41856" lon="2.70294">
        <ele>636.21</ele>
        <time>2016-06-23T04:52:17Z</time>
      </trkpt>
      <trkpt lat="44.41858" lon="2.70298">
        <ele>636.24</ele>
        <time>2016-06-23T04:52:19Z</time>
      </trkpt>
      <trkpt lat="44.41858" lon="2.703">
        <ele>636.25</ele>
        <time>2016-06-23T04:52:20Z</time>
      </trkpt>
      <trkpt lat="44.41859" lon="2.70303">
        <ele>636.25</ele>
        <time>2016-06-23T04:52:21Z</time>
      </trkpt>
      <trkpt lat="44.4186" lon="2.70305">
        <ele>636.27</ele>
        <time>2016-06-23T04:52:22Z</time>
      </trkpt>
      <trkpt lat="44.41861" lon="2.70307">
        <ele>636.29</ele>
        <time>2016-06-23T04:52:23Z</time>
      </trkpt>
      <trkpt lat="44.41862" lon="2.70309">
        <ele>636.36</ele>
        <time>2016-06-23T04:52:24Z</time>
      </trkpt>
      <trkpt lat="44.41869" lon="2.70337">
        <ele>637.17</ele>
        <time>2016-06-23T04:52:39Z</time>
      </trkpt>
      <trkpt lat="44.41876" lon="2.70365">
        <ele>639.05</ele>
        <time>2016-06-23T04:52:54Z</time>
      </trkpt>
      <trkpt lat="44.41883" lon="2.70388">
        <ele>639.41</ele>
        <time>2016-06-23T04:53:07Z</time>
      </trkpt>
      <trkpt lat="44.41889" lon="2.70412">
        <ele>640.12</ele>
        <time>2016-06-23T04:53:21Z</time>
      </trkpt>
      <trkpt lat="44.4189" lon="2.70413">
        <ele>640.16</ele>
        <time>2016-06-23T04:53:22Z</time>
      </trkpt>
      <trkpt lat="44.41891" lon="2.70415">
        <ele>640.2</ele>
        <time>2016-06-23T04:53:23Z</time>
      </trkpt>
      <trkpt lat="44.41891" lon="2.70417">
        <ele>640.25</ele>
        <time>2016-06-23T04:53:24Z</time>
      </trkpt>
      <trkpt lat="44.41891" lon="2.70419">
        <ele>640.3</ele>
        <time>2016-06-23T04:53:25Z</time>
      </trkpt>
      <trkpt lat="44.41892" lon="2.7042">
        <ele>640.36</ele>
        <time>2016-06-23T04:53:26Z</time>
      </trkpt>
      <trkpt lat="44.41893" lon="2.70422">
        <ele>640.42</ele>
        <time>2016-06-23T04:53:27Z</time>
      </trkpt>
      <trkpt lat="44.41893" lon="2.70424">
        <ele>640.46</ele>
        <time>2016-06-23T04:53:28Z</time>
      </trkpt>
      <trkpt lat="44.41893" lon="2.70426">
        <ele>640.5</ele>
        <time>2016-06-23T04:53:29Z</time>
      </trkpt>
      <trkpt lat="44.41894" lon="2.70428">
        <ele>640.53</ele>
        <time>2016-06-23T04:53:30Z</time>
      </trkpt>
      <trkpt lat="44.41894" lon="2.70429">
        <ele>640.56</ele>
        <time>2016-06-23T04:53:31Z</time>
      </trkpt>
      <trkpt lat="44.41895" lon="2.70431">
        <ele>640.58</ele>
        <time>2016-06-23T04:53:32Z</time>
      </trkpt>
      <trkpt lat="44.41895" lon="2.70433">
        <ele>640.61</ele>
        <time>2016-06-23T04:53:33Z</time>
      </trkpt>
      <trkpt lat="44.41896" lon="2.70435">
        <ele>640.65</ele>
        <time>2016-06-23T04:53:34Z</time>
      </trkpt>
      <trkpt lat="44.41897" lon="2.70437">
        <ele>640.71</ele>
        <time>2016-06-23T04:53:35Z</time>
      </trkpt>
      <trkpt lat="44.41897" lon="2.70439">
        <ele>640.81</ele>
        <time>2016-06-23T04:53:36Z</time>
      </trkpt>
      <trkpt lat="44.41906" lon="2.70468">
        <ele>642.14</ele>
        <time>2016-06-23T04:53:52Z</time>
      </trkpt>
      <trkpt lat="44.41915" lon="2.70496">
        <ele>643.02</ele>
        <time>2016-06-23T04:54:07Z</time>
      </trkpt>
      <trkpt lat="44.41916" lon="2.705">
        <ele>643.03</ele>
        <time>2016-06-23T04:54:09Z</time>
      </trkpt>
      <trkpt lat="44.41917" lon="2.70501">
        <ele>643.05</ele>
        <time>2016-06-23T04:54:10Z</time>
      </trkpt>
      <trkpt lat="44.41918" lon="2.70503">
        <ele>643.09</ele>
        <time>2016-06-23T04:54:11Z</time>
      </trkpt>
      <trkpt lat="44.41918" lon="2.70505">
        <ele>643.14</ele>
        <time>2016-06-23T04:54:12Z</time>
      </trkpt>
      <trkpt lat="44.41919" lon="2.70507">
        <ele>643.18</ele>
        <time>2016-06-23T04:54:13Z</time>
      </trkpt>
      <trkpt lat="44.4193" lon="2.70533">
        <ele>643.26</ele>
        <time>2016-06-23T04:54:27Z</time>
      </trkpt>
      <trkpt lat="44.41938" lon="2.70553">
        <ele>643.43</ele>
        <time>2016-06-23T04:54:39Z</time>
      </trkpt>
      <trkpt lat="44.41947" lon="2.70575">
        <ele>644.23</ele>
        <time>2016-06-23T04:54:52Z</time>
      </trkpt>
      <trkpt lat="44.41953" lon="2.70592">
        <ele>644.83</ele>
        <time>2016-06-23T04:55:01Z</time>
      </trkpt>
      <trkpt lat="44.41953" lon="2.70594">
        <ele>644.9</ele>
        <time>2016-06-23T04:55:02Z</time>
      </trkpt>
      <trkpt lat="44.41954" lon="2.70596">
        <ele>644.94</ele>
        <time>2016-06-23T04:55:03Z</time>
      </trkpt>
      <trkpt lat="44.41954" lon="2.70597">
        <ele>645.02</ele>
        <time>2016-06-23T04:55:04Z</time>
      </trkpt>
      <trkpt lat="44.41955" lon="2.70599">
        <ele>645.05</ele>
        <time>2016-06-23T04:55:05Z</time>
      </trkpt>
      <trkpt lat="44.41955" lon="2.70601">
        <ele>645.1</ele>
        <time>2016-06-23T04:55:06Z</time>
      </trkpt>
      <trkpt lat="44.41956" lon="2.70602">
        <ele>645.17</ele>
        <time>2016-06-23T04:55:07Z</time>
      </trkpt>
      <trkpt lat="44.41957" lon="2.70604">
        <ele>645.24</ele>
        <time>2016-06-23T04:55:08Z</time>
      </trkpt>
      <trkpt lat="44.41957" lon="2.70606">
        <ele>645.32</ele>
        <time>2016-06-23T04:55:09Z</time>
      </trkpt>
      <trkpt lat="44.41958" lon="2.70608">
        <ele>645.4</ele>
        <time>2016-06-23T04:55:10Z</time>
      </trkpt>
      <trkpt lat="44.41959" lon="2.7061">
        <ele>645.46</ele>
        <time>2016-06-23T04:55:11Z</time>
      </trkpt>
      <trkpt lat="44.41959" lon="2.70611">
        <ele>645.52</ele>
        <time>2016-06-23T04:55:12Z</time>
      </trkpt>
      <trkpt lat="44.4196" lon="2.70613">
        <ele>645.57</ele>
        <time>2016-06-23T04:55:13Z</time>
      </trkpt>
      <trkpt lat="44.4196" lon="2.70615">
        <ele>645.6</ele>
        <time>2016-06-23T04:55:14Z</time>
      </trkpt>
      <trkpt lat="44.41961" lon="2.70617">
        <ele>645.63</ele>
        <time>2016-06-23T04:55:15Z</time>
      </trkpt>
      <trkpt lat="44.41962" lon="2.70618">
        <ele>645.65</ele>
        <time>2016-06-23T04:55:16Z</time>
      </trkpt>
      <trkpt lat="44.41962" lon="2.7062">
        <ele>645.66</ele>
        <time>2016-06-23T04:55:17Z</time>
      </trkpt>
      <trkpt lat="44.41963" lon="2.70622">
        <ele>645.67</ele>
        <time>2016-06-23T04:55:18Z</time>
      </trkpt>
      <trkpt lat="44.41963" lon="2.70624">
        <ele>645.66</ele>
        <time>2016-06-23T04:55:19Z</time>
      </trkpt>
      <trkpt lat="44.41976" lon="2.70656">
        <ele>645.77</ele>
        <time>2016-06-23T04:55:38Z</time>
      </trkpt>
      <trkpt lat="44.41987" lon="2.70686">
        <ele>646.25</ele>
        <time>2016-06-23T04:55:54Z</time>
      </trkpt>
      <trkpt lat="44.41996" lon="2.7071">
        <ele>646.17</ele>
        <time>2016-06-23T04:56:08Z</time>
      </trkpt>
      <trkpt lat="44.42005" lon="2.70736">
        <ele>646.25</ele>
        <time>2016-06-23T04:56:23Z</time>
      </trkpt>
      <trkpt lat="44.42005" lon="2.70738">
        <ele>646.25</ele>
        <time>2016-06-23T04:56:24Z</time>
      </trkpt>
      <trkpt lat="44.42006" lon="2.7074">
        <ele>646.25</ele>
        <time>2016-06-23T04:56:25Z</time>
      </trkpt>
      <trkpt lat="44.42007" lon="2.70741">
        <ele>646.29</ele>
        <time>2016-06-23T04:56:26Z</time>
      </trkpt>
      <trkpt lat="44.42007" lon="2.70743">
        <ele>646.35</ele>
        <time>2016-06-23T04:56:27Z</time>
      </trkpt>
      <trkpt lat="44.42008" lon="2.70744">
        <ele>646.43</ele>
        <time>2016-06-23T04:56:28Z</time>
      </trkpt>
      <trkpt lat="44.42009" lon="2.70746">
        <ele>646.49</ele>
        <time>2016-06-23T04:56:29Z</time>
      </trkpt>
      <trkpt lat="44.4201" lon="2.70748">
        <ele>646.56</ele>
        <time>2016-06-23T04:56:30Z</time>
      </trkpt>
      <trkpt lat="44.4201" lon="2.70749">
        <ele>646.61</ele>
        <time>2016-06-23T04:56:31Z</time>
      </trkpt>
      <trkpt lat="44.42011" lon="2.70751">
        <ele>646.65</ele>
        <time>2016-06-23T04:56:32Z</time>
      </trkpt>
      <trkpt lat="44.42011" lon="2.70753">
        <ele>646.64</ele>
        <time>2016-06-23T04:56:33Z</time>
      </trkpt>
      <trkpt lat="44.42012" lon="2.70754">
        <ele>646.61</ele>
        <time>2016-06-23T04:56:34Z</time>
      </trkpt>
      <trkpt lat="44.42014" lon="2.70756">
        <ele>646.57</ele>
        <time>2016-06-23T04:56:35Z</time>
      </trkpt>
      <trkpt lat="44.42015" lon="2.70758">
        <ele>646.53</ele>
        <time>2016-06-23T04:56:36Z</time>
      </trkpt>
      <trkpt lat="44.42015" lon="2.7076">
        <ele>646.47</ele>
        <time>2016-06-23T04:56:37Z</time>
      </trkpt>
      <trkpt lat="44.42016" lon="2.70762">
        <ele>646.41</ele>
        <time>2016-06-23T04:56:38Z</time>
      </trkpt>
      <trkpt lat="44.42016" lon="2.70763">
        <ele>646.34</ele>
        <time>2016-06-23T04:56:39Z</time>
      </trkpt>
      <trkpt lat="44.4202" lon="2.70772">
        <ele>646.15</ele>
        <time>2016-06-23T04:56:44Z</time>
      </trkpt>
      <trkpt lat="44.42021" lon="2.70773">
        <ele>646.15</ele>
        <time>2016-06-23T04:56:45Z</time>
      </trkpt>
      <trkpt lat="44.42022" lon="2.70775">
        <ele>646.17</ele>
        <time>2016-06-23T04:56:46Z</time>
      </trkpt>
      <trkpt lat="44.42024" lon="2.70782">
        <ele>646.27</ele>
        <time>2016-06-23T04:56:50Z</time>
      </trkpt>
      <trkpt lat="44.42025" lon="2.70784">
        <ele>646.32</ele>
        <time>2016-06-23T04:56:51Z</time>
      </trkpt>
      <trkpt lat="44.4203" lon="2.70794">
        <ele>646.56</ele>
        <time>2016-06-23T04:56:57Z</time>
      </trkpt>
      <trkpt lat="44.4203" lon="2.70796">
        <ele>646.56</ele>
        <time>2016-06-23T04:56:58Z</time>
      </trkpt>
      <trkpt lat="44.42039" lon="2.70826">
        <ele>646.31</ele>
        <time>2016-06-23T04:57:14Z</time>
      </trkpt>
      <trkpt lat="44.42039" lon="2.70827">
        <ele>646.31</ele>
        <time>2016-06-23T04:57:15Z</time>
      </trkpt>
      <trkpt lat="44.42041" lon="2.70835">
        <ele>646.37</ele>
        <time>2016-06-23T04:57:20Z</time>
      </trkpt>
      <trkpt lat="44.42042" lon="2.70837">
        <ele>646.41</ele>
        <time>2016-06-23T04:57:21Z</time>
      </trkpt>
      <trkpt lat="44.42051" lon="2.70859">
        <ele>646.73</ele>
        <time>2016-06-23T04:57:34Z</time>
      </trkpt>
      <trkpt lat="44.4206" lon="2.70888">
        <ele>646.84</ele>
        <time>2016-06-23T04:57:49Z</time>
      </trkpt>
      <trkpt lat="44.4207" lon="2.70923">
        <ele>646.54</ele>
        <time>2016-06-23T04:58:07Z</time>
      </trkpt>
      <trkpt lat="44.42081" lon="2.70954">
        <ele>645.96</ele>
        <time>2016-06-23T04:58:24Z</time>
      </trkpt>
      <trkpt lat="44.42091" lon="2.70979">
        <ele>645.52</ele>
        <time>2016-06-23T04:58:38Z</time>
      </trkpt>
      <trkpt lat="44.42093" lon="2.70984">
        <ele>645.17</ele>
        <time>2016-06-23T04:58:41Z</time>
      </trkpt>
      <trkpt lat="44.42094" lon="2.70985">
        <ele>645.07</ele>
        <time>2016-06-23T04:58:42Z</time>
      </trkpt>
      <trkpt lat="44.42094" lon="2.70987">
        <ele>644.97</ele>
        <time>2016-06-23T04:58:43Z</time>
      </trkpt>
      <trkpt lat="44.42095" lon="2.70988">
        <ele>644.86</ele>
        <time>2016-06-23T04:58:44Z</time>
      </trkpt>
      <trkpt lat="44.42095" lon="2.7099">
        <ele>644.86</ele>
        <time>2016-06-23T04:58:45Z</time>
      </trkpt>
      <trkpt lat="44.42096" lon="2.70992">
        <ele>644.81</ele>
        <time>2016-06-23T04:58:46Z</time>
      </trkpt>
      <trkpt lat="44.42097" lon="2.70993">
        <ele>644.84</ele>
        <time>2016-06-23T04:58:47Z</time>
      </trkpt>
      <trkpt lat="44.42097" lon="2.70995">
        <ele>644.91</ele>
        <time>2016-06-23T04:58:48Z</time>
      </trkpt>
      <trkpt lat="44.42098" lon="2.70997">
        <ele>645.01</ele>
        <time>2016-06-23T04:58:49Z</time>
      </trkpt>
      <trkpt lat="44.42098" lon="2.70999">
        <ele>645.14</ele>
        <time>2016-06-23T04:58:50Z</time>
      </trkpt>
      <trkpt lat="44.42099" lon="2.71001">
        <ele>645.29</ele>
        <time>2016-06-23T04:58:51Z</time>
      </trkpt>
      <trkpt lat="44.421" lon="2.71003">
        <ele>645.41</ele>
        <time>2016-06-23T04:58:52Z</time>
      </trkpt>
      <trkpt lat="44.421" lon="2.71004">
        <ele>645.51</ele>
        <time>2016-06-23T04:58:53Z</time>
      </trkpt>
      <trkpt lat="44.42101" lon="2.71006">
        <ele>645.59</ele>
        <time>2016-06-23T04:58:54Z</time>
      </trkpt>
      <trkpt lat="44.42106" lon="2.7102">
        <ele>644.91</ele>
        <time>2016-06-23T04:59:02Z</time>
      </trkpt>
      <trkpt lat="44.42107" lon="2.71022">
        <ele>644.77</ele>
        <time>2016-06-23T04:59:03Z</time>
      </trkpt>
      <trkpt lat="44.42116" lon="2.71038">
        <ele>643.45</ele>
        <time>2016-06-23T04:59:13Z</time>
      </trkpt>
      <trkpt lat="44.42117" lon="2.7104">
        <ele>643.34</ele>
        <time>2016-06-23T04:59:14Z</time>
      </trkpt>
      <trkpt lat="44.42118" lon="2.71042">
        <ele>643.22</ele>
        <time>2016-06-23T04:59:15Z</time>
      </trkpt>
      <trkpt lat="44.42119" lon="2.71043">
        <ele>643.11</ele>
        <time>2016-06-23T04:59:16Z</time>
      </trkpt>
      <trkpt lat="44.42119" lon="2.71045">
        <ele>643.01</ele>
        <time>2016-06-23T04:59:17Z</time>
      </trkpt>
      <trkpt lat="44.4212" lon="2.71047">
        <ele>642.9</ele>
        <time>2016-06-23T04:59:18Z</time>
      </trkpt>
      <trkpt lat="44.4212" lon="2.71049">
        <ele>642.81</ele>
        <time>2016-06-23T04:59:19Z</time>
      </trkpt>
      <trkpt lat="44.42121" lon="2.71051">
        <ele>642.75</ele>
        <time>2016-06-23T04:59:20Z</time>
      </trkpt>
      <trkpt lat="44.42122" lon="2.71053">
        <ele>642.66</ele>
        <time>2016-06-23T04:59:21Z</time>
      </trkpt>
      <trkpt lat="44.42128" lon="2.71078">
        <ele>641.52</ele>
        <time>2016-06-23T04:59:35Z</time>
      </trkpt>
      <trkpt lat="44.42131" lon="2.71106">
        <ele>639.52</ele>
        <time>2016-06-23T04:59:50Z</time>
      </trkpt>
      <trkpt lat="44.42133" lon="2.71133">
        <ele>638.7</ele>
        <time>2016-06-23T05:00:05Z</time>
      </trkpt>
      <trkpt lat="44.42134" lon="2.7116">
        <ele>639.02</ele>
        <time>2016-06-23T05:00:19Z</time>
      </trkpt>
      <trkpt lat="44.4213" lon="2.71182">
        <ele>639.88</ele>
        <time>2016-06-23T05:00:32Z</time>
      </trkpt>
      <trkpt lat="44.42126" lon="2.71204">
        <ele>640.95</ele>
        <time>2016-06-23T05:00:45Z</time>
      </trkpt>
      <trkpt lat="44.42121" lon="2.71232">
        <ele>642.28</ele>
        <time>2016-06-23T05:01:01Z</time>
      </trkpt>
      <trkpt lat="44.42121" lon="2.71233">
        <ele>642.35</ele>
        <time>2016-06-23T05:01:02Z</time>
      </trkpt>
      <trkpt lat="44.42121" lon="2.71235">
        <ele>642.41</ele>
        <time>2016-06-23T05:01:03Z</time>
      </trkpt>
      <trkpt lat="44.42122" lon="2.71259">
        <ele>643.9</ele>
        <time>2016-06-23T05:01:16Z</time>
      </trkpt>
      <trkpt lat="44.42124" lon="2.71271">
        <ele>644.46</ele>
        <time>2016-06-23T05:01:23Z</time>
      </trkpt>
      <trkpt lat="44.42123" lon="2.71284">
        <ele>644.8</ele>
        <time>2016-06-23T05:01:31Z</time>
      </trkpt>
      <trkpt lat="44.42123" lon="2.71291">
        <ele>644.97</ele>
        <time>2016-06-23T05:01:35Z</time>
      </trkpt>
      <trkpt lat="44.42123" lon="2.71296">
        <ele>645.28</ele>
        <time>2016-06-23T05:01:38Z</time>
      </trkpt>
      <trkpt lat="44.42121" lon="2.71319">
        <ele>646.54</ele>
        <time>2016-06-23T05:01:51Z</time>
      </trkpt>
      <trkpt lat="44.42116" lon="2.71343">
        <ele>647.23</ele>
        <time>2016-06-23T05:02:04Z</time>
      </trkpt>
      <trkpt lat="44.42111" lon="2.7137">
        <ele>648.25</ele>
        <time>2016-06-23T05:02:19Z</time>
      </trkpt>
      <trkpt lat="44.42104" lon="2.71393">
        <ele>648.48</ele>
        <time>2016-06-23T05:02:31Z</time>
      </trkpt>
      <trkpt lat="44.42103" lon="2.71395">
        <ele>648.55</ele>
        <time>2016-06-23T05:02:32Z</time>
      </trkpt>
      <trkpt lat="44.42097" lon="2.71416">
        <ele>649.52</ele>
        <time>2016-06-23T05:02:44Z</time>
      </trkpt>
      <trkpt lat="44.4209" lon="2.71436">
        <ele>650.21</ele>
        <time>2016-06-23T05:02:55Z</time>
      </trkpt>
      <trkpt lat="44.42087" lon="2.71445">
        <ele>650.62</ele>
        <time>2016-06-23T05:03:00Z</time>
      </trkpt>
      <trkpt lat="44.42086" lon="2.71446">
        <ele>650.66</ele>
        <time>2016-06-23T05:03:01Z</time>
      </trkpt>
      <trkpt lat="44.42077" lon="2.71473">
        <ele>651.42</ele>
        <time>2016-06-23T05:03:16Z</time>
      </trkpt>
      <trkpt lat="44.42072" lon="2.71494">
        <ele>652.97</ele>
        <time>2016-06-23T05:03:28Z</time>
      </trkpt>
      <trkpt lat="44.42066" lon="2.71518">
        <ele>654.52</ele>
        <time>2016-06-23T05:03:42Z</time>
      </trkpt>
      <trkpt lat="44.42061" lon="2.71541">
        <ele>656.31</ele>
        <time>2016-06-23T05:03:55Z</time>
      </trkpt>
      <trkpt lat="44.42058" lon="2.71555">
        <ele>657.44</ele>
        <time>2016-06-23T05:04:04Z</time>
      </trkpt>
      <trkpt lat="44.42058" lon="2.71557">
        <ele>657.63</ele>
        <time>2016-06-23T05:04:05Z</time>
      </trkpt>
      <trkpt lat="44.42058" lon="2.71559">
        <ele>657.81</ele>
        <time>2016-06-23T05:04:06Z</time>
      </trkpt>
      <trkpt lat="44.42055" lon="2.71566">
        <ele>658.36</ele>
        <time>2016-06-23T05:04:11Z</time>
      </trkpt>
      <trkpt lat="44.42055" lon="2.71568">
        <ele>658.44</ele>
        <time>2016-06-23T05:04:12Z</time>
      </trkpt>
      <trkpt lat="44.4205" lon="2.71588">
        <ele>659.68</ele>
        <time>2016-06-23T05:04:25Z</time>
      </trkpt>
      <trkpt lat="44.42046" lon="2.71609">
        <ele>660.83</ele>
        <time>2016-06-23T05:04:37Z</time>
      </trkpt>
      <trkpt lat="44.42043" lon="2.71619">
        <ele>661.28</ele>
        <time>2016-06-23T05:04:43Z</time>
      </trkpt>
      <trkpt lat="44.42043" lon="2.71621">
        <ele>661.36</ele>
        <time>2016-06-23T05:04:44Z</time>
      </trkpt>
      <trkpt lat="44.42043" lon="2.71623">
        <ele>661.46</ele>
        <time>2016-06-23T05:04:45Z</time>
      </trkpt>
      <trkpt lat="44.42043" lon="2.71625">
        <ele>661.56</ele>
        <time>2016-06-23T05:04:46Z</time>
      </trkpt>
      <trkpt lat="44.42043" lon="2.71627">
        <ele>661.64</ele>
        <time>2016-06-23T05:04:47Z</time>
      </trkpt>
      <trkpt lat="44.42042" lon="2.7163">
        <ele>661.87</ele>
        <time>2016-06-23T05:04:49Z</time>
      </trkpt>
      <trkpt lat="44.42042" lon="2.71632">
        <ele>661.94</ele>
        <time>2016-06-23T05:04:50Z</time>
      </trkpt>
      <trkpt lat="44.42042" lon="2.71634">
        <ele>662</ele>
        <time>2016-06-23T05:04:51Z</time>
      </trkpt>
      <trkpt lat="44.4204" lon="2.71657">
        <ele>663.05</ele>
        <time>2016-06-23T05:05:03Z</time>
      </trkpt>
      <trkpt lat="44.42038" lon="2.7168">
        <ele>663.66</ele>
        <time>2016-06-23T05:05:16Z</time>
      </trkpt>
      <trkpt lat="44.42034" lon="2.71715">
        <ele>663.6</ele>
        <time>2016-06-23T05:05:33Z</time>
      </trkpt>
      <trkpt lat="44.42034" lon="2.7172">
        <ele>663.57</ele>
        <time>2016-06-23T05:05:35Z</time>
      </trkpt>
      <trkpt lat="44.42034" lon="2.71722">
        <ele>663.45</ele>
        <time>2016-06-23T05:05:36Z</time>
      </trkpt>
      <trkpt lat="44.42034" lon="2.71756">
        <ele>662.7</ele>
        <time>2016-06-23T05:05:52Z</time>
      </trkpt>
      <trkpt lat="44.42034" lon="2.71764">
        <ele>662.29</ele>
        <time>2016-06-23T05:05:56Z</time>
      </trkpt>
      <trkpt lat="44.42034" lon="2.71766">
        <ele>662.17</ele>
        <time>2016-06-23T05:05:57Z</time>
      </trkpt>
      <trkpt lat="44.42035" lon="2.71768">
        <ele>662.04</ele>
        <time>2016-06-23T05:05:58Z</time>
      </trkpt>
      <trkpt lat="44.42035" lon="2.7177">
        <ele>661.93</ele>
        <time>2016-06-23T05:05:59Z</time>
      </trkpt>
      <trkpt lat="44.42035" lon="2.71772">
        <ele>661.83</ele>
        <time>2016-06-23T05:06:00Z</time>
      </trkpt>
      <trkpt lat="44.42035" lon="2.71774">
        <ele>661.7</ele>
        <time>2016-06-23T05:06:01Z</time>
      </trkpt>
      <trkpt lat="44.42035" lon="2.71777">
        <ele>661.46</ele>
        <time>2016-06-23T05:06:02Z</time>
      </trkpt>
      <trkpt lat="44.42038" lon="2.71794">
        <ele>660.71</ele>
        <time>2016-06-23T05:06:10Z</time>
      </trkpt>
      <trkpt lat="44.4204" lon="2.71795">
        <ele>660.65</ele>
        <time>2016-06-23T05:06:11Z</time>
      </trkpt>
      <trkpt lat="44.42041" lon="2.71797">
        <ele>660.59</ele>
        <time>2016-06-23T05:06:12Z</time>
      </trkpt>
      <trkpt lat="44.42042" lon="2.71799">
        <ele>660.54</ele>
        <time>2016-06-23T05:06:13Z</time>
      </trkpt>
      <trkpt lat="44.42042" lon="2.71801">
        <ele>660.46</ele>
        <time>2016-06-23T05:06:14Z</time>
      </trkpt>
      <trkpt lat="44.42055" lon="2.71816">
        <ele>658.64</ele>
        <time>2016-06-23T05:06:26Z</time>
      </trkpt>
      <trkpt lat="44.42058" lon="2.71818">
        <ele>658.33</ele>
        <time>2016-06-23T05:06:28Z</time>
      </trkpt>
      <trkpt lat="44.42074" lon="2.71833">
        <ele>656.39</ele>
        <time>2016-06-23T05:06:42Z</time>
      </trkpt>
      <trkpt lat="44.42075" lon="2.71835">
        <ele>656.23</ele>
        <time>2016-06-23T05:06:43Z</time>
      </trkpt>
      <trkpt lat="44.42078" lon="2.71844">
        <ele>655.26</ele>
        <time>2016-06-23T05:06:49Z</time>
      </trkpt>
      <trkpt lat="44.42079" lon="2.71845">
        <ele>654.88</ele>
        <time>2016-06-23T05:06:50Z</time>
      </trkpt>
      <trkpt lat="44.42079" lon="2.71847">
        <ele>654.88</ele>
        <time>2016-06-23T05:06:51Z</time>
      </trkpt>
      <trkpt lat="44.4208" lon="2.71848">
        <ele>654.51</ele>
        <time>2016-06-23T05:06:52Z</time>
      </trkpt>
      <trkpt lat="44.4208" lon="2.7185">
        <ele>654.34</ele>
        <time>2016-06-23T05:06:53Z</time>
      </trkpt>
      <trkpt lat="44.4208" lon="2.71852">
        <ele>654.15</ele>
        <time>2016-06-23T05:06:54Z</time>
      </trkpt>
      <trkpt lat="44.4208" lon="2.71854">
        <ele>653.95</ele>
        <time>2016-06-23T05:06:55Z</time>
      </trkpt>
      <trkpt lat="44.42081" lon="2.71856">
        <ele>653.74</ele>
        <time>2016-06-23T05:06:56Z</time>
      </trkpt>
      <trkpt lat="44.42081" lon="2.71858">
        <ele>653.54</ele>
        <time>2016-06-23T05:06:57Z</time>
      </trkpt>
      <trkpt lat="44.42081" lon="2.71859">
        <ele>653.35</ele>
        <time>2016-06-23T05:06:58Z</time>
      </trkpt>
      <trkpt lat="44.42089" lon="2.71882">
        <ele>651.35</ele>
        <time>2016-06-23T05:07:11Z</time>
      </trkpt>
      <trkpt lat="44.42093" lon="2.71898">
        <ele>649.91</ele>
        <time>2016-06-23T05:07:20Z</time>
      </trkpt>
      <trkpt lat="44.42095" lon="2.71913">
        <ele>649.15</ele>
        <time>2016-06-23T05:07:29Z</time>
      </trkpt>
      <trkpt lat="44.42093" lon="2.71938">
        <ele>647.82</ele>
        <time>2016-06-23T05:07:43Z</time>
      </trkpt>
      <trkpt lat="44.42092" lon="2.71964">
        <ele>646.07</ele>
        <time>2016-06-23T05:07:57Z</time>
      </trkpt>
      <trkpt lat="44.42091" lon="2.71967">
        <ele>645.87</ele>
        <time>2016-06-23T05:07:59Z</time>
      </trkpt>
      <trkpt lat="44.42091" lon="2.71969">
        <ele>645.75</ele>
        <time>2016-06-23T05:08:00Z</time>
      </trkpt>
      <trkpt lat="44.42087" lon="2.71984">
        <ele>644.65</ele>
        <time>2016-06-23T05:08:09Z</time>
      </trkpt>
      <trkpt lat="44.42086" lon="2.71985">
        <ele>644.51</ele>
        <time>2016-06-23T05:08:10Z</time>
      </trkpt>
      <trkpt lat="44.42086" lon="2.71987">
        <ele>644.37</ele>
        <time>2016-06-23T05:08:11Z</time>
      </trkpt>
      <trkpt lat="44.42085" lon="2.71988">
        <ele>644.25</ele>
        <time>2016-06-23T05:08:12Z</time>
      </trkpt>
      <trkpt lat="44.42085" lon="2.7199">
        <ele>644.14</ele>
        <time>2016-06-23T05:08:13Z</time>
      </trkpt>
      <trkpt lat="44.42075" lon="2.72011">
        <ele>642.78</ele>
        <time>2016-06-23T05:08:25Z</time>
      </trkpt>
      <trkpt lat="44.42071" lon="2.72018">
        <ele>642.06</ele>
        <time>2016-06-23T05:08:30Z</time>
      </trkpt>
      <trkpt lat="44.4207" lon="2.7202">
        <ele>641.95</ele>
        <time>2016-06-23T05:08:31Z</time>
      </trkpt>
      <trkpt lat="44.42069" lon="2.72022">
        <ele>641.83</ele>
        <time>2016-06-23T05:08:32Z</time>
      </trkpt>
      <trkpt lat="44.42067" lon="2.72022">
        <ele>641.71</ele>
        <time>2016-06-23T05:08:33Z</time>
      </trkpt>
      <trkpt lat="44.42067" lon="2.72024">
        <ele>641.61</ele>
        <time>2016-06-23T05:08:34Z</time>
      </trkpt>
      <trkpt lat="44.42066" lon="2.72025">
        <ele>641.51</ele>
        <time>2016-06-23T05:08:35Z</time>
      </trkpt>
      <trkpt lat="44.42065" lon="2.72027">
        <ele>641.4</ele>
        <time>2016-06-23T05:08:36Z</time>
      </trkpt>
      <trkpt lat="44.42064" lon="2.72029">
        <ele>641.27</ele>
        <time>2016-06-23T05:08:37Z</time>
      </trkpt>
      <trkpt lat="44.42047" lon="2.72046">
        <ele>639.48</ele>
        <time>2016-06-23T05:08:51Z</time>
      </trkpt>
      <trkpt lat="44.4203" lon="2.72058">
        <ele>638.09</ele>
        <time>2016-06-23T05:09:04Z</time>
      </trkpt>
      <trkpt lat="44.42015" lon="2.72075">
        <ele>636.93</ele>
        <time>2016-06-23T05:09:19Z</time>
      </trkpt>
      <trkpt lat="44.42014" lon="2.72077">
        <ele>636.85</ele>
        <time>2016-06-23T05:09:20Z</time>
      </trkpt>
      <trkpt lat="44.42008" lon="2.72104">
        <ele>635.91</ele>
        <time>2016-06-23T05:09:35Z</time>
      </trkpt>
      <trkpt lat="44.42008" lon="2.72106">
        <ele>635.87</ele>
        <time>2016-06-23T05:09:36Z</time>
      </trkpt>
      <trkpt lat="44.42009" lon="2.72117">
        <ele>635.71</ele>
        <time>2016-06-23T05:09:41Z</time>
      </trkpt>
      <trkpt lat="44.42012" lon="2.72146">
        <ele>635.74</ele>
        <time>2016-06-23T05:09:56Z</time>
      </trkpt>
      <trkpt lat="44.42024" lon="2.72168">
        <ele>636.29</ele>
        <time>2016-06-23T05:10:10Z</time>
      </trkpt>
      <trkpt lat="44.42038" lon="2.72185">
        <ele>636.32</ele>
        <time>2016-06-23T05:10:24Z</time>
      </trkpt>
      <trkpt lat="44.42053" lon="2.72203">
        <ele>636.25</ele>
        <time>2016-06-23T05:10:40Z</time>
      </trkpt>
      <trkpt lat="44.42067" lon="2.7222">
        <ele>635.94</ele>
        <time>2016-06-23T05:10:54Z</time>
      </trkpt>
      <trkpt lat="44.42087" lon="2.72244">
        <ele>635.21</ele>
        <time>2016-06-23T05:11:10Z</time>
      </trkpt>
      <trkpt lat="44.42099" lon="2.72266">
        <ele>634.57</ele>
        <time>2016-06-23T05:11:25Z</time>
      </trkpt>
      <trkpt lat="44.42112" lon="2.72288">
        <ele>633.46</ele>
        <time>2016-06-23T05:11:39Z</time>
      </trkpt>
      <trkpt lat="44.42124" lon="2.72317">
        <ele>633.19</ele>
        <time>2016-06-23T05:11:57Z</time>
      </trkpt>
      <trkpt lat="44.42139" lon="2.72344">
        <ele>632.59</ele>
        <time>2016-06-23T05:12:14Z</time>
      </trkpt>
      <trkpt lat="44.42155" lon="2.7237">
        <ele>632.86</ele>
        <time>2016-06-23T05:12:32Z</time>
      </trkpt>
      <trkpt lat="44.42157" lon="2.72373">
        <ele>632.85</ele>
        <time>2016-06-23T05:12:34Z</time>
      </trkpt>
      <trkpt lat="44.42158" lon="2.72374">
        <ele>632.84</ele>
        <time>2016-06-23T05:12:35Z</time>
      </trkpt>
      <trkpt lat="44.42171" lon="2.72397">
        <ele>632.21</ele>
        <time>2016-06-23T05:12:50Z</time>
      </trkpt>
      <trkpt lat="44.42184" lon="2.72418">
        <ele>631.87</ele>
        <time>2016-06-23T05:13:05Z</time>
      </trkpt>
      <trkpt lat="44.42196" lon="2.72447">
        <ele>631.03</ele>
        <time>2016-06-23T05:13:23Z</time>
      </trkpt>
      <trkpt lat="44.42205" lon="2.72471">
        <ele>630.73</ele>
        <time>2016-06-23T05:13:38Z</time>
      </trkpt>
      <trkpt lat="44.42206" lon="2.72472">
        <ele>630.71</ele>
        <time>2016-06-23T05:13:39Z</time>
      </trkpt>
      <trkpt lat="44.42206" lon="2.72474">
        <ele>630.7</ele>
        <time>2016-06-23T05:13:40Z</time>
      </trkpt>
      <trkpt lat="44.42207" lon="2.72475">
        <ele>630.68</ele>
        <time>2016-06-23T05:13:41Z</time>
      </trkpt>
      <trkpt lat="44.42215" lon="2.72496">
        <ele>630.71</ele>
        <time>2016-06-23T05:13:54Z</time>
      </trkpt>
      <trkpt lat="44.42215" lon="2.72506">
        <ele>630.72</ele>
        <time>2016-06-23T05:14:02Z</time>
      </trkpt>
      <trkpt lat="44.42216" lon="2.72507">
        <ele>630.7</ele>
        <time>2016-06-23T05:14:03Z</time>
      </trkpt>
      <trkpt lat="44.42216" lon="2.72508">
        <ele>630.68</ele>
        <time>2016-06-23T05:14:04Z</time>
      </trkpt>
      <trkpt lat="44.42217" lon="2.7251">
        <ele>630.65</ele>
        <time>2016-06-23T05:14:05Z</time>
      </trkpt>
      <trkpt lat="44.42218" lon="2.72512">
        <ele>630.63</ele>
        <time>2016-06-23T05:14:06Z</time>
      </trkpt>
      <trkpt lat="44.42219" lon="2.72514">
        <ele>630.61</ele>
        <time>2016-06-23T05:14:07Z</time>
      </trkpt>
      <trkpt lat="44.42219" lon="2.72516">
        <ele>630.6</ele>
        <time>2016-06-23T05:14:08Z</time>
      </trkpt>
      <trkpt lat="44.4222" lon="2.72518">
        <ele>630.6</ele>
        <time>2016-06-23T05:14:09Z</time>
      </trkpt>
      <trkpt lat="44.42221" lon="2.7252">
        <ele>630.6</ele>
        <time>2016-06-23T05:14:10Z</time>
      </trkpt>
      <trkpt lat="44.42221" lon="2.72523">
        <ele>630.61</ele>
        <time>2016-06-23T05:14:11Z</time>
      </trkpt>
      <trkpt lat="44.42222" lon="2.72525">
        <ele>630.62</ele>
        <time>2016-06-23T05:14:12Z</time>
      </trkpt>
      <trkpt lat="44.42223" lon="2.72527">
        <ele>630.62</ele>
        <time>2016-06-23T05:14:13Z</time>
      </trkpt>
      <trkpt lat="44.42228" lon="2.72553">
        <ele>630.18</ele>
        <time>2016-06-23T05:14:27Z</time>
      </trkpt>
      <trkpt lat="44.42227" lon="2.7256">
        <ele>629.84</ele>
        <time>2016-06-23T05:14:31Z</time>
      </trkpt>
      <trkpt lat="44.42227" lon="2.72562">
        <ele>629.78</ele>
        <time>2016-06-23T05:14:32Z</time>
      </trkpt>
      <trkpt lat="44.42227" lon="2.72564">
        <ele>629.74</ele>
        <time>2016-06-23T05:14:33Z</time>
      </trkpt>
      <trkpt lat="44.42228" lon="2.72566">
        <ele>629.7</ele>
        <time>2016-06-23T05:14:34Z</time>
      </trkpt>
      <trkpt lat="44.4223" lon="2.72584">
        <ele>629.22</ele>
        <time>2016-06-23T05:14:45Z</time>
      </trkpt>
      <trkpt lat="44.42231" lon="2.72586">
        <ele>629.14</ele>
        <time>2016-06-23T05:14:46Z</time>
      </trkpt>
      <trkpt lat="44.42232" lon="2.72587">
        <ele>629.05</ele>
        <time>2016-06-23T05:14:47Z</time>
      </trkpt>
      <trkpt lat="44.42233" lon="2.72592">
        <ele>628.62</ele>
        <time>2016-06-23T05:14:51Z</time>
      </trkpt>
      <trkpt lat="44.42242" lon="2.72612">
        <ele>628.97</ele>
        <time>2016-06-23T05:15:04Z</time>
      </trkpt>
      <trkpt lat="44.42253" lon="2.72633">
        <ele>630.18</ele>
        <time>2016-06-23T05:15:18Z</time>
      </trkpt>
      <trkpt lat="44.42266" lon="2.72654">
        <ele>631.65</ele>
        <time>2016-06-23T05:15:32Z</time>
      </trkpt>
      <trkpt lat="44.42274" lon="2.72662">
        <ele>632.22</ele>
        <time>2016-06-23T05:15:40Z</time>
      </trkpt>
      <trkpt lat="44.42286" lon="2.72669">
        <ele>632.48</ele>
        <time>2016-06-23T05:15:51Z</time>
      </trkpt>
      <trkpt lat="44.4229" lon="2.72671">
        <ele>632.78</ele>
        <time>2016-06-23T05:15:55Z</time>
      </trkpt>
      <trkpt lat="44.42298" lon="2.7268">
        <ele>634.13</ele>
        <time>2016-06-23T05:16:05Z</time>
      </trkpt>
      <trkpt lat="44.42291" lon="2.72697">
        <ele>635.12</ele>
        <time>2016-06-23T05:16:18Z</time>
      </trkpt>
      <trkpt lat="44.42286" lon="2.72703">
        <ele>635.14</ele>
        <time>2016-06-23T05:16:24Z</time>
      </trkpt>
      <trkpt lat="44.42286" lon="2.72704">
        <ele>635.14</ele>
        <time>2016-06-23T05:16:25Z</time>
      </trkpt>
      <trkpt lat="44.42285" lon="2.72706">
        <ele>635.14</ele>
        <time>2016-06-23T05:16:26Z</time>
      </trkpt>
      <trkpt lat="44.42278" lon="2.72725">
        <ele>635.56</ele>
        <time>2016-06-23T05:16:39Z</time>
      </trkpt>
      <trkpt lat="44.4227" lon="2.72749">
        <ele>635.63</ele>
        <time>2016-06-23T05:16:53Z</time>
      </trkpt>
      <trkpt lat="44.42265" lon="2.72756">
        <ele>635.98</ele>
        <time>2016-06-23T05:16:58Z</time>
      </trkpt>
      <trkpt lat="44.42255" lon="2.72774">
        <ele>635.7</ele>
        <time>2016-06-23T05:17:11Z</time>
      </trkpt>
      <trkpt lat="44.42246" lon="2.72794">
        <ele>635.56</ele>
        <time>2016-06-23T05:17:24Z</time>
      </trkpt>
      <trkpt lat="44.42238" lon="2.72802">
        <ele>635.16</ele>
        <time>2016-06-23T05:17:32Z</time>
      </trkpt>
      <trkpt lat="44.42237" lon="2.72804">
        <ele>635.17</ele>
        <time>2016-06-23T05:17:33Z</time>
      </trkpt>
      <trkpt lat="44.42236" lon="2.72805">
        <ele>635.16</ele>
        <time>2016-06-23T05:17:34Z</time>
      </trkpt>
      <trkpt lat="44.42235" lon="2.72806">
        <ele>635.14</ele>
        <time>2016-06-23T05:17:35Z</time>
      </trkpt>
      <trkpt lat="44.42234" lon="2.72808">
        <ele>635.11</ele>
        <time>2016-06-23T05:17:36Z</time>
      </trkpt>
      <trkpt lat="44.42232" lon="2.72809">
        <ele>635.07</ele>
        <time>2016-06-23T05:17:37Z</time>
      </trkpt>
      <trkpt lat="44.42231" lon="2.7281">
        <ele>635.02</ele>
        <time>2016-06-23T05:17:38Z</time>
      </trkpt>
      <trkpt lat="44.4223" lon="2.72811">
        <ele>634.95</ele>
        <time>2016-06-23T05:17:39Z</time>
      </trkpt>
      <trkpt lat="44.42229" lon="2.72811">
        <ele>634.89</ele>
        <time>2016-06-23T05:17:40Z</time>
      </trkpt>
      <trkpt lat="44.42228" lon="2.72812">
        <ele>634.85</ele>
        <time>2016-06-23T05:17:41Z</time>
      </trkpt>
      <trkpt lat="44.42227" lon="2.72814">
        <ele>634.85</ele>
        <time>2016-06-23T05:17:42Z</time>
      </trkpt>
      <trkpt lat="44.42226" lon="2.72815">
        <ele>634.9</ele>
        <time>2016-06-23T05:17:43Z</time>
      </trkpt>
      <trkpt lat="44.42225" lon="2.72817">
        <ele>634.91</ele>
        <time>2016-06-23T05:17:44Z</time>
      </trkpt>
      <trkpt lat="44.42224" lon="2.72818">
        <ele>634.94</ele>
        <time>2016-06-23T05:17:45Z</time>
      </trkpt>
      <trkpt lat="44.42223" lon="2.7282">
        <ele>634.97</ele>
        <time>2016-06-23T05:17:46Z</time>
      </trkpt>
      <trkpt lat="44.42222" lon="2.7282">
        <ele>634.99</ele>
        <time>2016-06-23T05:17:47Z</time>
      </trkpt>
      <trkpt lat="44.42219" lon="2.72821">
        <ele>634.96</ele>
        <time>2016-06-23T05:17:50Z</time>
      </trkpt>
      <trkpt lat="44.42218" lon="2.72821">
        <ele>634.93</ele>
        <time>2016-06-23T05:17:51Z</time>
      </trkpt>
      <trkpt lat="44.42216" lon="2.72821">
        <ele>634.75</ele>
        <time>2016-06-23T05:17:53Z</time>
      </trkpt>
      <trkpt lat="44.4221" lon="2.72822">
        <ele>632.7</ele>
        <time>2016-06-23T05:18:12Z</time>
      </trkpt>
      <trkpt lat="44.42207" lon="2.72825">
        <ele>632.86</ele>
        <time>2016-06-23T05:18:52Z</time>
      </trkpt>
      <trkpt lat="44.42205" lon="2.72824">
        <ele>632.83</ele>
        <time>2016-06-23T05:18:53Z</time>
      </trkpt>
      <trkpt lat="44.42204" lon="2.72824">
        <ele>632.78</ele>
        <time>2016-06-23T05:18:54Z</time>
      </trkpt>
      <trkpt lat="44.42203" lon="2.72825">
        <ele>632.73</ele>
        <time>2016-06-23T05:18:55Z</time>
      </trkpt>
      <trkpt lat="44.42202" lon="2.72825">
        <ele>632.59</ele>
        <time>2016-06-23T05:18:56Z</time>
      </trkpt>
      <trkpt lat="44.42195" lon="2.72827">
        <ele>631.88</ele>
        <time>2016-06-23T05:19:01Z</time>
      </trkpt>
      <trkpt lat="44.42193" lon="2.72829">
        <ele>631.43</ele>
        <time>2016-06-23T05:19:03Z</time>
      </trkpt>
      <trkpt lat="44.42191" lon="2.72829">
        <ele>631.02</ele>
        <time>2016-06-23T05:19:05Z</time>
      </trkpt>
      <trkpt lat="44.4219" lon="2.72827">
        <ele>630.29</ele>
        <time>2016-06-23T05:19:08Z</time>
      </trkpt>
      <trkpt lat="44.42182" lon="2.72814">
        <ele>627.03</ele>
        <time>2016-06-23T05:19:19Z</time>
      </trkpt>
      <trkpt lat="44.42174" lon="2.72815">
        <ele>623.99</ele>
        <time>2016-06-23T05:19:25Z</time>
      </trkpt>
      <trkpt lat="44.4217" lon="2.72816">
        <ele>622.49</ele>
        <time>2016-06-23T05:19:29Z</time>
      </trkpt>
      <trkpt lat="44.42168" lon="2.72818">
        <ele>621.79</ele>
        <time>2016-06-23T05:19:31Z</time>
      </trkpt>
      <trkpt lat="44.4216" lon="2.72829">
        <ele>618.74</ele>
        <time>2016-06-23T05:19:40Z</time>
      </trkpt>
      <trkpt lat="44.42149" lon="2.72846">
        <ele>615.63</ele>
        <time>2016-06-23T05:19:52Z</time>
      </trkpt>
      <trkpt lat="44.4214" lon="2.72869">
        <ele>613.09</ele>
        <time>2016-06-23T05:20:07Z</time>
      </trkpt>
      <trkpt lat="44.42137" lon="2.72872">
        <ele>612.74</ele>
        <time>2016-06-23T05:20:10Z</time>
      </trkpt>
      <trkpt lat="44.42123" lon="2.72894">
        <ele>610.61</ele>
        <time>2016-06-23T05:20:25Z</time>
      </trkpt>
      <trkpt lat="44.42118" lon="2.72905">
        <ele>609.6</ele>
        <time>2016-06-23T05:20:32Z</time>
      </trkpt>
      <trkpt lat="44.42116" lon="2.7291">
        <ele>609.1</ele>
        <time>2016-06-23T05:20:35Z</time>
      </trkpt>
      <trkpt lat="44.42114" lon="2.72913">
        <ele>608.77</ele>
        <time>2016-06-23T05:20:37Z</time>
      </trkpt>
      <trkpt lat="44.42112" lon="2.72918">
        <ele>608.3</ele>
        <time>2016-06-23T05:20:40Z</time>
      </trkpt>
      <trkpt lat="44.4212" lon="2.7294">
        <ele>606.95</ele>
        <time>2016-06-23T05:20:51Z</time>
      </trkpt>
      <trkpt lat="44.42124" lon="2.72948">
        <ele>606.45</ele>
        <time>2016-06-23T05:20:55Z</time>
      </trkpt>
      <trkpt lat="44.42129" lon="2.72957">
        <ele>605.44</ele>
        <time>2016-06-23T05:21:10Z</time>
      </trkpt>
      <trkpt lat="44.42129" lon="2.72965">
        <ele>605.41</ele>
        <time>2016-06-23T05:21:23Z</time>
      </trkpt>
      <trkpt lat="44.42129" lon="2.72971">
        <ele>604.33</ele>
        <time>2016-06-23T05:21:27Z</time>
      </trkpt>
      <trkpt lat="44.42125" lon="2.7299">
        <ele>600.89</ele>
        <time>2016-06-23T05:21:39Z</time>
      </trkpt>
      <trkpt lat="44.42125" lon="2.72991">
        <ele>600.57</ele>
        <time>2016-06-23T05:21:40Z</time>
      </trkpt>
      <trkpt lat="44.42117" lon="2.73003">
        <ele>600.19</ele>
        <time>2016-06-23T05:21:55Z</time>
      </trkpt>
      <trkpt lat="44.4211" lon="2.73007">
        <ele>603.36</ele>
        <time>2016-06-23T05:22:10Z</time>
      </trkpt>
      <trkpt lat="44.42103" lon="2.73015">
        <ele>606.43</ele>
        <time>2016-06-23T05:22:27Z</time>
      </trkpt>
      <trkpt lat="44.42098" lon="2.7302">
        <ele>609.48</ele>
        <time>2016-06-23T05:22:41Z</time>
      </trkpt>
      <trkpt lat="44.42089" lon="2.73027">
        <ele>612.11</ele>
        <time>2016-06-23T05:22:57Z</time>
      </trkpt>
      <trkpt lat="44.42078" lon="2.7304">
        <ele>615.44</ele>
        <time>2016-06-23T05:23:14Z</time>
      </trkpt>
      <trkpt lat="44.42072" lon="2.73054">
        <ele>618.56</ele>
        <time>2016-06-23T05:23:29Z</time>
      </trkpt>
      <trkpt lat="44.42066" lon="2.73068">
        <ele>621.76</ele>
        <time>2016-06-23T05:23:44Z</time>
      </trkpt>
      <trkpt lat="44.42058" lon="2.73081">
        <ele>624.93</ele>
        <time>2016-06-23T05:23:58Z</time>
      </trkpt>
      <trkpt lat="44.42052" lon="2.73098">
        <ele>627.5</ele>
        <time>2016-06-23T05:24:13Z</time>
      </trkpt>
      <trkpt lat="44.42056" lon="2.73115">
        <ele>630.15</ele>
        <time>2016-06-23T05:24:25Z</time>
      </trkpt>
      <trkpt lat="44.42058" lon="2.73122">
        <ele>631.27</ele>
        <time>2016-06-23T05:24:30Z</time>
      </trkpt>
      <trkpt lat="44.42067" lon="2.73138">
        <ele>634.61</ele>
        <time>2016-06-23T05:24:46Z</time>
      </trkpt>
      <trkpt lat="44.42071" lon="2.73152">
        <ele>637.23</ele>
        <time>2016-06-23T05:25:01Z</time>
      </trkpt>
      <trkpt lat="44.42073" lon="2.73169">
        <ele>639.48</ele>
        <time>2016-06-23T05:25:16Z</time>
      </trkpt>
      <trkpt lat="44.42069" lon="2.73195">
        <ele>641.08</ele>
        <time>2016-06-23T05:25:34Z</time>
      </trkpt>
      <trkpt lat="44.42068" lon="2.73198">
        <ele>641.37</ele>
        <time>2016-06-23T05:25:36Z</time>
      </trkpt>
      <trkpt lat="44.42063" lon="2.73223">
        <ele>643.02</ele>
        <time>2016-06-23T05:25:52Z</time>
      </trkpt>
      <trkpt lat="44.42061" lon="2.73246">
        <ele>644.94</ele>
        <time>2016-06-23T05:26:06Z</time>
      </trkpt>
      <trkpt lat="44.4206" lon="2.73269">
        <ele>646.38</ele>
        <time>2016-06-23T05:26:19Z</time>
      </trkpt>
      <trkpt lat="44.42059" lon="2.73292">
        <ele>648.88</ele>
        <time>2016-06-23T05:26:34Z</time>
      </trkpt>
      <trkpt lat="44.4206" lon="2.73317">
        <ele>651.23</ele>
        <time>2016-06-23T05:26:49Z</time>
      </trkpt>
      <trkpt lat="44.42065" lon="2.7334">
        <ele>653.73</ele>
        <time>2016-06-23T05:27:05Z</time>
      </trkpt>
      <trkpt lat="44.42068" lon="2.7336">
        <ele>655.83</ele>
        <time>2016-06-23T05:27:20Z</time>
      </trkpt>
      <trkpt lat="44.42067" lon="2.73372">
        <ele>657.18</ele>
        <time>2016-06-23T05:27:30Z</time>
      </trkpt>
      <trkpt lat="44.42057" lon="2.73388">
        <ele>658.56</ele>
        <time>2016-06-23T05:27:46Z</time>
      </trkpt>
      <trkpt lat="44.42054" lon="2.73396">
        <ele>658.67</ele>
        <time>2016-06-23T05:27:52Z</time>
      </trkpt>
      <trkpt lat="44.42054" lon="2.73418">
        <ele>660.45</ele>
        <time>2016-06-23T05:28:07Z</time>
      </trkpt>
      <trkpt lat="44.42055" lon="2.73426">
        <ele>661.26</ele>
        <time>2016-06-23T05:28:12Z</time>
      </trkpt>
      <trkpt lat="44.42058" lon="2.73439">
        <ele>663.11</ele>
        <time>2016-06-23T05:28:21Z</time>
      </trkpt>
      <trkpt lat="44.42063" lon="2.73463">
        <ele>666.13</ele>
        <time>2016-06-23T05:28:36Z</time>
      </trkpt>
      <trkpt lat="44.42064" lon="2.73466">
        <ele>666.46</ele>
        <time>2016-06-23T05:28:38Z</time>
      </trkpt>
      <trkpt lat="44.42071" lon="2.73484">
        <ele>669.47</ele>
        <time>2016-06-23T05:28:53Z</time>
      </trkpt>
      <trkpt lat="44.42075" lon="2.73503">
        <ele>672.58</ele>
        <time>2016-06-23T05:29:06Z</time>
      </trkpt>
      <trkpt lat="44.42081" lon="2.73523">
        <ele>674.63</ele>
        <time>2016-06-23T05:29:20Z</time>
      </trkpt>
      <trkpt lat="44.42082" lon="2.73524">
        <ele>674.63</ele>
        <time>2016-06-23T05:29:21Z</time>
      </trkpt>
      <trkpt lat="44.42085" lon="2.73534">
        <ele>675.81</ele>
        <time>2016-06-23T05:29:28Z</time>
      </trkpt>
      <trkpt lat="44.42089" lon="2.73554">
        <ele>677.29</ele>
        <time>2016-06-23T05:29:42Z</time>
      </trkpt>
      <trkpt lat="44.42096" lon="2.73574">
        <ele>678.35</ele>
        <time>2016-06-23T05:29:55Z</time>
      </trkpt>
      <trkpt lat="44.42102" lon="2.73595">
        <ele>679.23</ele>
        <time>2016-06-23T05:30:08Z</time>
      </trkpt>
      <trkpt lat="44.42104" lon="2.73601">
        <ele>679.29</ele>
        <time>2016-06-23T05:30:12Z</time>
      </trkpt>
      <trkpt lat="44.4211" lon="2.73618">
        <ele>678.76</ele>
        <time>2016-06-23T05:30:24Z</time>
      </trkpt>
      <trkpt lat="44.42111" lon="2.73622">
        <ele>678.73</ele>
        <time>2016-06-23T05:30:27Z</time>
      </trkpt>
      <trkpt lat="44.42108" lon="2.73631">
        <ele>678.84</ele>
        <time>2016-06-23T05:30:35Z</time>
      </trkpt>
      <trkpt lat="44.42107" lon="2.73633">
        <ele>678.97</ele>
        <time>2016-06-23T05:30:37Z</time>
      </trkpt>
      <trkpt lat="44.42103" lon="2.73657">
        <ele>679.76</ele>
        <time>2016-06-23T05:30:53Z</time>
      </trkpt>
      <trkpt lat="44.42102" lon="2.73665">
        <ele>679.96</ele>
        <time>2016-06-23T05:30:58Z</time>
      </trkpt>
      <trkpt lat="44.42105" lon="2.73691">
        <ele>681.26</ele>
        <time>2016-06-23T05:31:15Z</time>
      </trkpt>
      <trkpt lat="44.42105" lon="2.73703">
        <ele>681.9</ele>
        <time>2016-06-23T05:31:24Z</time>
      </trkpt>
      <trkpt lat="44.42106" lon="2.73713">
        <ele>682.18</ele>
        <time>2016-06-23T05:31:31Z</time>
      </trkpt>
      <trkpt lat="44.42105" lon="2.73736">
        <ele>683.42</ele>
        <time>2016-06-23T05:31:46Z</time>
      </trkpt>
      <trkpt lat="44.42102" lon="2.73756">
        <ele>684.44</ele>
        <time>2016-06-23T05:31:59Z</time>
      </trkpt>
      <trkpt lat="44.42097" lon="2.73774">
        <ele>685.82</ele>
        <time>2016-06-23T05:32:12Z</time>
      </trkpt>
      <trkpt lat="44.42095" lon="2.73803">
        <ele>686.74</ele>
        <time>2016-06-23T05:32:27Z</time>
      </trkpt>
      <trkpt lat="44.42095" lon="2.73827">
        <ele>687.27</ele>
        <time>2016-06-23T05:32:38Z</time>
      </trkpt>
      <trkpt lat="44.42095" lon="2.73858">
        <ele>686.82</ele>
        <time>2016-06-23T05:32:52Z</time>
      </trkpt>
      <trkpt lat="44.42094" lon="2.73878">
        <ele>687</ele>
        <time>2016-06-23T05:33:03Z</time>
      </trkpt>
      <trkpt lat="44.42092" lon="2.73887">
        <ele>686.95</ele>
        <time>2016-06-23T05:33:08Z</time>
      </trkpt>
      <trkpt lat="44.42088" lon="2.73909">
        <ele>686.81</ele>
        <time>2016-06-23T05:33:20Z</time>
      </trkpt>
      <trkpt lat="44.42086" lon="2.73938">
        <ele>686.88</ele>
        <time>2016-06-23T05:33:34Z</time>
      </trkpt>
      <trkpt lat="44.42084" lon="2.73965">
        <ele>686.35</ele>
        <time>2016-06-23T05:33:47Z</time>
      </trkpt>
      <trkpt lat="44.42078" lon="2.73986">
        <ele>685.75</ele>
        <time>2016-06-23T05:33:59Z</time>
      </trkpt>
      <trkpt lat="44.42067" lon="2.73998">
        <ele>684.51</ele>
        <time>2016-06-23T05:34:10Z</time>
      </trkpt>
      <trkpt lat="44.42065" lon="2.73999">
        <ele>684.23</ele>
        <time>2016-06-23T05:34:12Z</time>
      </trkpt>
      <trkpt lat="44.42059" lon="2.74005">
        <ele>683.51</ele>
        <time>2016-06-23T05:34:17Z</time>
      </trkpt>
      <trkpt lat="44.42051" lon="2.74029">
        <ele>681.73</ele>
        <time>2016-06-23T05:34:32Z</time>
      </trkpt>
      <trkpt lat="44.4205" lon="2.74054">
        <ele>680.91</ele>
        <time>2016-06-23T05:34:46Z</time>
      </trkpt>
      <trkpt lat="44.42051" lon="2.74084">
        <ele>679.77</ele>
        <time>2016-06-23T05:35:01Z</time>
      </trkpt>
      <trkpt lat="44.42052" lon="2.74089">
        <ele>679.51</ele>
        <time>2016-06-23T05:35:03Z</time>
      </trkpt>
      <trkpt lat="44.42055" lon="2.74106">
        <ele>678.41</ele>
        <time>2016-06-23T05:35:11Z</time>
      </trkpt>
      <trkpt lat="44.42064" lon="2.7413">
        <ele>676.18</ele>
        <time>2016-06-23T05:35:24Z</time>
      </trkpt>
      <trkpt lat="44.42076" lon="2.74148">
        <ele>674.22</ele>
        <time>2016-06-23T05:35:36Z</time>
      </trkpt>
      <trkpt lat="44.42088" lon="2.7416">
        <ele>672.77</ele>
        <time>2016-06-23T05:35:47Z</time>
      </trkpt>
      <trkpt lat="44.42101" lon="2.74172">
        <ele>671.52</ele>
        <time>2016-06-23T05:35:58Z</time>
      </trkpt>
      <trkpt lat="44.42103" lon="2.74179">
        <ele>670.69</ele>
        <time>2016-06-23T05:36:02Z</time>
      </trkpt>
      <trkpt lat="44.4209" lon="2.7419">
        <ele>668.69</ele>
        <time>2016-06-23T05:36:14Z</time>
      </trkpt>
      <trkpt lat="44.42085" lon="2.74192">
        <ele>667.69</ele>
        <time>2016-06-23T05:36:19Z</time>
      </trkpt>
      <trkpt lat="44.42077" lon="2.74199">
        <ele>665.7</ele>
        <time>2016-06-23T05:36:28Z</time>
      </trkpt>
      <trkpt lat="44.42072" lon="2.74206">
        <ele>664.11</ele>
        <time>2016-06-23T05:36:35Z</time>
      </trkpt>
      <trkpt lat="44.42067" lon="2.74215">
        <ele>663.27</ele>
        <time>2016-06-23T05:36:41Z</time>
      </trkpt>
      <trkpt lat="44.42064" lon="2.7422">
        <ele>662.94</ele>
        <time>2016-06-23T05:36:45Z</time>
      </trkpt>
      <trkpt lat="44.42061" lon="2.74229">
        <ele>662.3</ele>
        <time>2016-06-23T05:36:50Z</time>
      </trkpt>
      <trkpt lat="44.42057" lon="2.74243">
        <ele>661.63</ele>
        <time>2016-06-23T05:36:58Z</time>
      </trkpt>
      <trkpt lat="44.42052" lon="2.74277">
        <ele>660</ele>
        <time>2016-06-23T05:37:14Z</time>
      </trkpt>
      <trkpt lat="44.42053" lon="2.74308">
        <ele>660.27</ele>
        <time>2016-06-23T05:37:28Z</time>
      </trkpt>
      <trkpt lat="44.4205" lon="2.74338">
        <ele>661.23</ele>
        <time>2016-06-23T05:37:44Z</time>
      </trkpt>
      <trkpt lat="44.42049" lon="2.74359">
        <ele>662.7</ele>
        <time>2016-06-23T05:37:56Z</time>
      </trkpt>
      <trkpt lat="44.42047" lon="2.74384">
        <ele>663.17</ele>
        <time>2016-06-23T05:38:09Z</time>
      </trkpt>
      <trkpt lat="44.42045" lon="2.74408">
        <ele>664.1</ele>
        <time>2016-06-23T05:38:22Z</time>
      </trkpt>
      <trkpt lat="44.4204" lon="2.74436">
        <ele>664.69</ele>
        <time>2016-06-23T05:38:37Z</time>
      </trkpt>
      <trkpt lat="44.42037" lon="2.74461">
        <ele>665.74</ele>
        <time>2016-06-23T05:38:51Z</time>
      </trkpt>
      <trkpt lat="44.42031" lon="2.74485">
        <ele>665.69</ele>
        <time>2016-06-23T05:39:06Z</time>
      </trkpt>
      <trkpt lat="44.42031" lon="2.74511">
        <ele>666.21</ele>
        <time>2016-06-23T05:39:19Z</time>
      </trkpt>
      <trkpt lat="44.42035" lon="2.74539">
        <ele>665.76</ele>
        <time>2016-06-23T05:39:34Z</time>
      </trkpt>
      <trkpt lat="44.42044" lon="2.74551">
        <ele>665.16</ele>
        <time>2016-06-23T05:39:47Z</time>
      </trkpt>
      <trkpt lat="44.42054" lon="2.74563">
        <ele>664.65</ele>
        <time>2016-06-23T05:39:56Z</time>
      </trkpt>
      <trkpt lat="44.42065" lon="2.74575">
        <ele>664.23</ele>
        <time>2016-06-23T05:40:06Z</time>
      </trkpt>
      <trkpt lat="44.42082" lon="2.74591">
        <ele>663.46</ele>
        <time>2016-06-23T05:40:21Z</time>
      </trkpt>
      <trkpt lat="44.42086" lon="2.74593">
        <ele>663.3</ele>
        <time>2016-06-23T05:40:24Z</time>
      </trkpt>
      <trkpt lat="44.42092" lon="2.74597">
        <ele>663.1</ele>
        <time>2016-06-23T05:40:29Z</time>
      </trkpt>
      <trkpt lat="44.42109" lon="2.74604">
        <ele>662.88</ele>
        <time>2016-06-23T05:40:41Z</time>
      </trkpt>
      <trkpt lat="44.42115" lon="2.7461">
        <ele>662.72</ele>
        <time>2016-06-23T05:40:46Z</time>
      </trkpt>
      <trkpt lat="44.42114" lon="2.74622">
        <ele>663.06</ele>
        <time>2016-06-23T05:40:54Z</time>
      </trkpt>
      <trkpt lat="44.42109" lon="2.74635">
        <ele>664.02</ele>
        <time>2016-06-23T05:41:02Z</time>
      </trkpt>
      <trkpt lat="44.42102" lon="2.74655">
        <ele>664.76</ele>
        <time>2016-06-23T05:41:14Z</time>
      </trkpt>
      <trkpt lat="44.42094" lon="2.74674">
        <ele>665.01</ele>
        <time>2016-06-23T05:41:26Z</time>
      </trkpt>
      <trkpt lat="44.42083" lon="2.74696">
        <ele>664.49</ele>
        <time>2016-06-23T05:41:40Z</time>
      </trkpt>
      <trkpt lat="44.4207" lon="2.74719">
        <ele>664.16</ele>
        <time>2016-06-23T05:41:55Z</time>
      </trkpt>
      <trkpt lat="44.42054" lon="2.74743">
        <ele>663.22</ele>
        <time>2016-06-23T05:42:12Z</time>
      </trkpt>
      <trkpt lat="44.42037" lon="2.74764">
        <ele>662.71</ele>
        <time>2016-06-23T05:42:28Z</time>
      </trkpt>
      <trkpt lat="44.42036" lon="2.74765">
        <ele>662.69</ele>
        <time>2016-06-23T05:42:29Z</time>
      </trkpt>
      <trkpt lat="44.42023" lon="2.74786">
        <ele>661.25</ele>
        <time>2016-06-23T05:42:43Z</time>
      </trkpt>
      <trkpt lat="44.42005" lon="2.74811">
        <ele>659.8</ele>
        <time>2016-06-23T05:43:00Z</time>
      </trkpt>
      <trkpt lat="44.41988" lon="2.74835">
        <ele>659.42</ele>
        <time>2016-06-23T05:43:17Z</time>
      </trkpt>
      <trkpt lat="44.4197" lon="2.74856">
        <ele>658.25</ele>
        <time>2016-06-23T05:43:34Z</time>
      </trkpt>
      <trkpt lat="44.41952" lon="2.74878">
        <ele>656.67</ele>
        <time>2016-06-23T05:43:51Z</time>
      </trkpt>
      <trkpt lat="44.41938" lon="2.74904">
        <ele>655.35</ele>
        <time>2016-06-23T05:44:08Z</time>
      </trkpt>
      <trkpt lat="44.41927" lon="2.74931">
        <ele>654.34</ele>
        <time>2016-06-23T05:44:24Z</time>
      </trkpt>
      <trkpt lat="44.41918" lon="2.74958">
        <ele>651.3</ele>
        <time>2016-06-23T05:44:39Z</time>
      </trkpt>
      <trkpt lat="44.41914" lon="2.74988">
        <ele>649.05</ele>
        <time>2016-06-23T05:44:54Z</time>
      </trkpt>
      <trkpt lat="44.41906" lon="2.75008">
        <ele>647.78</ele>
        <time>2016-06-23T05:45:06Z</time>
      </trkpt>
      <trkpt lat="44.41892" lon="2.75032">
        <ele>645.24</ele>
        <time>2016-06-23T05:45:23Z</time>
      </trkpt>
      <trkpt lat="44.41886" lon="2.75061">
        <ele>642.72</ele>
        <time>2016-06-23T05:45:35Z</time>
      </trkpt>
      <trkpt lat="44.41884" lon="2.75084">
        <ele>639.72</ele>
        <time>2016-06-23T05:45:43Z</time>
      </trkpt>
      <trkpt lat="44.41884" lon="2.75104">
        <ele>636.64</ele>
        <time>2016-06-23T05:45:53Z</time>
      </trkpt>
      <trkpt lat="44.41883" lon="2.75134">
        <ele>635.14</ele>
        <time>2016-06-23T05:46:09Z</time>
      </trkpt>
      <trkpt lat="44.41883" lon="2.75134">
        <ele>635.01</ele>
        <time>2016-06-23T05:46:14Z</time>
      </trkpt>
      <trkpt lat="44.41883" lon="2.75131">
        <ele>635.07</ele>
        <time>2016-06-23T05:46:16Z</time>
      </trkpt>
      <trkpt lat="44.41883" lon="2.75129">
        <ele>635.09</ele>
        <time>2016-06-23T05:46:17Z</time>
      </trkpt>
      <trkpt lat="44.41883" lon="2.75128">
        <ele>635.12</ele>
        <time>2016-06-23T05:46:18Z</time>
      </trkpt>
      <trkpt lat="44.41876" lon="2.75118">
        <ele>636.17</ele>
        <time>2016-06-23T05:46:33Z</time>
      </trkpt>
      <trkpt lat="44.41869" lon="2.75121">
        <ele>636.61</ele>
        <time>2016-06-23T05:46:41Z</time>
      </trkpt>
      <trkpt lat="44.41857" lon="2.75128">
        <ele>638.5</ele>
        <time>2016-06-23T05:46:54Z</time>
      </trkpt>
      <trkpt lat="44.41857" lon="2.75129">
        <ele>638.64</ele>
        <time>2016-06-23T05:46:55Z</time>
      </trkpt>
      <trkpt lat="44.41856" lon="2.75133">
        <ele>638.85</ele>
        <time>2016-06-23T05:46:57Z</time>
      </trkpt>
      <trkpt lat="44.41856" lon="2.75135">
        <ele>638.92</ele>
        <time>2016-06-23T05:46:58Z</time>
      </trkpt>
      <trkpt lat="44.41856" lon="2.75137">
        <ele>638.98</ele>
        <time>2016-06-23T05:46:59Z</time>
      </trkpt>
      <trkpt lat="44.41856" lon="2.75141">
        <ele>639.07</ele>
        <time>2016-06-23T05:47:01Z</time>
      </trkpt>
      <trkpt lat="44.41856" lon="2.75143">
        <ele>639.12</ele>
        <time>2016-06-23T05:47:02Z</time>
      </trkpt>
      <trkpt lat="44.41855" lon="2.75145">
        <ele>639.17</ele>
        <time>2016-06-23T05:47:03Z</time>
      </trkpt>
      <trkpt lat="44.41855" lon="2.75146">
        <ele>639.18</ele>
        <time>2016-06-23T05:47:04Z</time>
      </trkpt>
      <trkpt lat="44.41853" lon="2.75153">
        <ele>639.04</ele>
        <time>2016-06-23T05:47:09Z</time>
      </trkpt>
      <trkpt lat="44.41853" lon="2.75155">
        <ele>639.01</ele>
        <time>2016-06-23T05:47:10Z</time>
      </trkpt>
      <trkpt lat="44.41852" lon="2.75157">
        <ele>639.02</ele>
        <time>2016-06-23T05:47:11Z</time>
      </trkpt>
      <trkpt lat="44.41849" lon="2.75181">
        <ele>639.01</ele>
        <time>2016-06-23T05:47:23Z</time>
      </trkpt>
      <trkpt lat="44.41849" lon="2.75183">
        <ele>639.04</ele>
        <time>2016-06-23T05:47:24Z</time>
      </trkpt>
      <trkpt lat="44.41848" lon="2.75185">
        <ele>639.07</ele>
        <time>2016-06-23T05:47:25Z</time>
      </trkpt>
      <trkpt lat="44.41848" lon="2.75187">
        <ele>639.11</ele>
        <time>2016-06-23T05:47:26Z</time>
      </trkpt>
      <trkpt lat="44.41848" lon="2.7519">
        <ele>639.17</ele>
        <time>2016-06-23T05:47:27Z</time>
      </trkpt>
      <trkpt lat="44.41847" lon="2.75192">
        <ele>639.23</ele>
        <time>2016-06-23T05:47:28Z</time>
      </trkpt>
      <trkpt lat="44.41847" lon="2.75194">
        <ele>639.29</ele>
        <time>2016-06-23T05:47:29Z</time>
      </trkpt>
      <trkpt lat="44.41846" lon="2.75196">
        <ele>639.32</ele>
        <time>2016-06-23T05:47:30Z</time>
      </trkpt>
      <trkpt lat="44.41846" lon="2.75198">
        <ele>639.36</ele>
        <time>2016-06-23T05:47:31Z</time>
      </trkpt>
      <trkpt lat="44.41845" lon="2.75199">
        <ele>639.36</ele>
        <time>2016-06-23T05:47:32Z</time>
      </trkpt>
      <trkpt lat="44.41845" lon="2.75202">
        <ele>639.32</ele>
        <time>2016-06-23T05:47:33Z</time>
      </trkpt>
      <trkpt lat="44.41844" lon="2.75203">
        <ele>639.23</ele>
        <time>2016-06-23T05:47:34Z</time>
      </trkpt>
      <trkpt lat="44.41844" lon="2.75205">
        <ele>639.18</ele>
        <time>2016-06-23T05:47:35Z</time>
      </trkpt>
      <trkpt lat="44.41844" lon="2.75207">
        <ele>639.13</ele>
        <time>2016-06-23T05:47:36Z</time>
      </trkpt>
      <trkpt lat="44.41843" lon="2.75209">
        <ele>639.08</ele>
        <time>2016-06-23T05:47:37Z</time>
      </trkpt>
      <trkpt lat="44.41843" lon="2.75212">
        <ele>639.04</ele>
        <time>2016-06-23T05:47:38Z</time>
      </trkpt>
      <trkpt lat="44.41842" lon="2.75213">
        <ele>638.98</ele>
        <time>2016-06-23T05:47:39Z</time>
      </trkpt>
      <trkpt lat="44.41842" lon="2.75215">
        <ele>638.91</ele>
        <time>2016-06-23T05:47:40Z</time>
      </trkpt>
      <trkpt lat="44.41841" lon="2.75217">
        <ele>638.85</ele>
        <time>2016-06-23T05:47:41Z</time>
      </trkpt>
      <trkpt lat="44.4184" lon="2.75219">
        <ele>638.77</ele>
        <time>2016-06-23T05:47:42Z</time>
      </trkpt>
      <trkpt lat="44.41833" lon="2.75244">
        <ele>637.69</ele>
        <time>2016-06-23T05:47:55Z</time>
      </trkpt>
      <trkpt lat="44.41832" lon="2.75247">
        <ele>637.54</ele>
        <time>2016-06-23T05:47:57Z</time>
      </trkpt>
      <trkpt lat="44.41831" lon="2.75249">
        <ele>637.5</ele>
        <time>2016-06-23T05:47:58Z</time>
      </trkpt>
      <trkpt lat="44.41831" lon="2.7525">
        <ele>637.46</ele>
        <time>2016-06-23T05:47:59Z</time>
      </trkpt>
      <trkpt lat="44.4183" lon="2.75252">
        <ele>637.42</ele>
        <time>2016-06-23T05:48:00Z</time>
      </trkpt>
      <trkpt lat="44.4183" lon="2.75254">
        <ele>637.39</ele>
        <time>2016-06-23T05:48:01Z</time>
      </trkpt>
      <trkpt lat="44.41829" lon="2.75256">
        <ele>637.33</ele>
        <time>2016-06-23T05:48:02Z</time>
      </trkpt>
      <trkpt lat="44.41828" lon="2.75258">
        <ele>637.3</ele>
        <time>2016-06-23T05:48:03Z</time>
      </trkpt>
      <trkpt lat="44.41827" lon="2.7526">
        <ele>637.25</ele>
        <time>2016-06-23T05:48:04Z</time>
      </trkpt>
      <trkpt lat="44.41827" lon="2.75261">
        <ele>637.22</ele>
        <time>2016-06-23T05:48:05Z</time>
      </trkpt>
      <trkpt lat="44.41818" lon="2.75287">
        <ele>636.86</ele>
        <time>2016-06-23T05:48:20Z</time>
      </trkpt>
      <trkpt lat="44.41813" lon="2.75314">
        <ele>636.64</ele>
        <time>2016-06-23T05:48:34Z</time>
      </trkpt>
      <trkpt lat="44.41807" lon="2.75344">
        <ele>636.27</ele>
        <time>2016-06-23T05:48:49Z</time>
      </trkpt>
      <trkpt lat="44.418" lon="2.7537">
        <ele>635.69</ele>
        <time>2016-06-23T05:49:03Z</time>
      </trkpt>
      <trkpt lat="44.41797" lon="2.75378">
        <ele>635.37</ele>
        <time>2016-06-23T05:49:08Z</time>
      </trkpt>
      <trkpt lat="44.41796" lon="2.7538">
        <ele>635.31</ele>
        <time>2016-06-23T05:49:09Z</time>
      </trkpt>
      <trkpt lat="44.41795" lon="2.75381">
        <ele>635.25</ele>
        <time>2016-06-23T05:49:10Z</time>
      </trkpt>
      <trkpt lat="44.41784" lon="2.75404">
        <ele>633.77</ele>
        <time>2016-06-23T05:49:25Z</time>
      </trkpt>
      <trkpt lat="44.41771" lon="2.75426">
        <ele>632.6</ele>
        <time>2016-06-23T05:49:40Z</time>
      </trkpt>
      <trkpt lat="44.41755" lon="2.75451">
        <ele>631.11</ele>
        <time>2016-06-23T05:49:56Z</time>
      </trkpt>
      <trkpt lat="44.41744" lon="2.75476">
        <ele>629.39</ele>
        <time>2016-06-23T05:50:09Z</time>
      </trkpt>
      <trkpt lat="44.41731" lon="2.75499">
        <ele>627.35</ele>
        <time>2016-06-23T05:50:23Z</time>
      </trkpt>
      <trkpt lat="44.41722" lon="2.75523">
        <ele>625.2</ele>
        <time>2016-06-23T05:50:37Z</time>
      </trkpt>
      <trkpt lat="44.41718" lon="2.7554">
        <ele>623.04</ele>
        <time>2016-06-23T05:50:46Z</time>
      </trkpt>
      <trkpt lat="44.41718" lon="2.75542">
        <ele>622.81</ele>
        <time>2016-06-23T05:50:47Z</time>
      </trkpt>
      <trkpt lat="44.41717" lon="2.75544">
        <ele>622.59</ele>
        <time>2016-06-23T05:50:48Z</time>
      </trkpt>
      <trkpt lat="44.41716" lon="2.75549">
        <ele>621.92</ele>
        <time>2016-06-23T05:50:51Z</time>
      </trkpt>
      <trkpt lat="44.41716" lon="2.75551">
        <ele>621.66</ele>
        <time>2016-06-23T05:50:52Z</time>
      </trkpt>
      <trkpt lat="44.41716" lon="2.75554">
        <ele>621.45</ele>
        <time>2016-06-23T05:50:53Z</time>
      </trkpt>
      <trkpt lat="44.41716" lon="2.75556">
        <ele>621.27</ele>
        <time>2016-06-23T05:50:54Z</time>
      </trkpt>
      <trkpt lat="44.41716" lon="2.75558">
        <ele>621.1</ele>
        <time>2016-06-23T05:50:55Z</time>
      </trkpt>
      <trkpt lat="44.41717" lon="2.75561">
        <ele>620.8</ele>
        <time>2016-06-23T05:50:56Z</time>
      </trkpt>
      <trkpt lat="44.41717" lon="2.75563">
        <ele>620.8</ele>
        <time>2016-06-23T05:50:57Z</time>
      </trkpt>
      <trkpt lat="44.41717" lon="2.75565">
        <ele>620.45</ele>
        <time>2016-06-23T05:50:58Z</time>
      </trkpt>
      <trkpt lat="44.41718" lon="2.75567">
        <ele>620.26</ele>
        <time>2016-06-23T05:50:59Z</time>
      </trkpt>
      <trkpt lat="44.41718" lon="2.75569">
        <ele>620.08</ele>
        <time>2016-06-23T05:51:00Z</time>
      </trkpt>
      <trkpt lat="44.41718" lon="2.75572">
        <ele>619.91</ele>
        <time>2016-06-23T05:51:01Z</time>
      </trkpt>
      <trkpt lat="44.41718" lon="2.75574">
        <ele>619.7</ele>
        <time>2016-06-23T05:51:02Z</time>
      </trkpt>
      <trkpt lat="44.41718" lon="2.75576">
        <ele>619.5</ele>
        <time>2016-06-23T05:51:03Z</time>
      </trkpt>
      <trkpt lat="44.41719" lon="2.75587">
        <ele>618.82</ele>
        <time>2016-06-23T05:51:08Z</time>
      </trkpt>
      <trkpt lat="44.41719" lon="2.75589">
        <ele>618.72</ele>
        <time>2016-06-23T05:51:09Z</time>
      </trkpt>
      <trkpt lat="44.41719" lon="2.75591">
        <ele>618.64</ele>
        <time>2016-06-23T05:51:10Z</time>
      </trkpt>
      <trkpt lat="44.41722" lon="2.75621">
        <ele>616.84</ele>
        <time>2016-06-23T05:51:25Z</time>
      </trkpt>
      <trkpt lat="44.4172" lon="2.75647">
        <ele>615.28</ele>
        <time>2016-06-23T05:51:40Z</time>
      </trkpt>
      <trkpt lat="44.41724" lon="2.75674">
        <ele>612.19</ele>
        <time>2016-06-23T05:51:53Z</time>
      </trkpt>
      <trkpt lat="44.41732" lon="2.75701">
        <ele>609.37</ele>
        <time>2016-06-23T05:52:08Z</time>
      </trkpt>
      <trkpt lat="44.41736" lon="2.75728">
        <ele>607.38</ele>
        <time>2016-06-23T05:52:23Z</time>
      </trkpt>
      <trkpt lat="44.41739" lon="2.75758">
        <ele>606.93</ele>
        <time>2016-06-23T05:52:39Z</time>
      </trkpt>
      <trkpt lat="44.4174" lon="2.75767">
        <ele>606.8</ele>
        <time>2016-06-23T05:52:44Z</time>
      </trkpt>
      <trkpt lat="44.41739" lon="2.75769">
        <ele>606.77</ele>
        <time>2016-06-23T05:52:45Z</time>
      </trkpt>
      <trkpt lat="44.41739" lon="2.7577">
        <ele>606.76</ele>
        <time>2016-06-23T05:52:46Z</time>
      </trkpt>
      <trkpt lat="44.41739" lon="2.75772">
        <ele>606.76</ele>
        <time>2016-06-23T05:52:47Z</time>
      </trkpt>
      <trkpt lat="44.41739" lon="2.75774">
        <ele>606.8</ele>
        <time>2016-06-23T05:52:48Z</time>
      </trkpt>
      <trkpt lat="44.41739" lon="2.75776">
        <ele>606.83</ele>
        <time>2016-06-23T05:52:49Z</time>
      </trkpt>
      <trkpt lat="44.4174" lon="2.75805">
        <ele>606.53</ele>
        <time>2016-06-23T05:53:04Z</time>
      </trkpt>
      <trkpt lat="44.41741" lon="2.75828">
        <ele>606.89</ele>
        <time>2016-06-23T05:53:16Z</time>
      </trkpt>
      <trkpt lat="44.41741" lon="2.75856">
        <ele>606.95</ele>
        <time>2016-06-23T05:53:30Z</time>
      </trkpt>
      <trkpt lat="44.41739" lon="2.75885">
        <ele>607.82</ele>
        <time>2016-06-23T05:53:45Z</time>
      </trkpt>
      <trkpt lat="44.41736" lon="2.75917">
        <ele>608.17</ele>
        <time>2016-06-23T05:54:01Z</time>
      </trkpt>
      <trkpt lat="44.41734" lon="2.75943">
        <ele>608.71</ele>
        <time>2016-06-23T05:54:15Z</time>
      </trkpt>
      <trkpt lat="44.4173" lon="2.75969">
        <ele>608.49</ele>
        <time>2016-06-23T05:54:29Z</time>
      </trkpt>
      <trkpt lat="44.41727" lon="2.75991">
        <ele>609.5</ele>
        <time>2016-06-23T05:54:42Z</time>
      </trkpt>
      <trkpt lat="44.41726" lon="2.76012">
        <ele>610.91</ele>
        <time>2016-06-23T05:54:55Z</time>
      </trkpt>
      <trkpt lat="44.4172" lon="2.76041">
        <ele>611.48</ele>
        <time>2016-06-23T05:55:12Z</time>
      </trkpt>
      <trkpt lat="44.41716" lon="2.76066">
        <ele>612.46</ele>
        <time>2016-06-23T05:55:25Z</time>
      </trkpt>
      <trkpt lat="44.4171" lon="2.76091">
        <ele>613.46</ele>
        <time>2016-06-23T05:55:40Z</time>
      </trkpt>
      <trkpt lat="44.41704" lon="2.76115">
        <ele>614.17</ele>
        <time>2016-06-23T05:55:54Z</time>
      </trkpt>
      <trkpt lat="44.41702" lon="2.76135">
        <ele>615.27</ele>
        <time>2016-06-23T05:56:06Z</time>
      </trkpt>
      <trkpt lat="44.417" lon="2.76152">
        <ele>616.08</ele>
        <time>2016-06-23T05:56:16Z</time>
      </trkpt>
      <trkpt lat="44.417" lon="2.76153">
        <ele>616.17</ele>
        <time>2016-06-23T05:56:17Z</time>
      </trkpt>
      <trkpt lat="44.41699" lon="2.76155">
        <ele>616.22</ele>
        <time>2016-06-23T05:56:18Z</time>
      </trkpt>
      <trkpt lat="44.41699" lon="2.76157">
        <ele>616.3</ele>
        <time>2016-06-23T05:56:19Z</time>
      </trkpt>
      <trkpt lat="44.41699" lon="2.76158">
        <ele>616.38</ele>
        <time>2016-06-23T05:56:20Z</time>
      </trkpt>
      <trkpt lat="44.41699" lon="2.76161">
        <ele>616.47</ele>
        <time>2016-06-23T05:56:21Z</time>
      </trkpt>
      <trkpt lat="44.41699" lon="2.76163">
        <ele>616.57</ele>
        <time>2016-06-23T05:56:22Z</time>
      </trkpt>
      <trkpt lat="44.41697" lon="2.76185">
        <ele>617.99</ele>
        <time>2016-06-23T05:56:35Z</time>
      </trkpt>
      <trkpt lat="44.41696" lon="2.76207">
        <ele>619.06</ele>
        <time>2016-06-23T05:56:47Z</time>
      </trkpt>
      <trkpt lat="44.41696" lon="2.76211">
        <ele>619.14</ele>
        <time>2016-06-23T05:56:49Z</time>
      </trkpt>
      <trkpt lat="44.41697" lon="2.76212">
        <ele>619.2</ele>
        <time>2016-06-23T05:56:50Z</time>
      </trkpt>
      <trkpt lat="44.41697" lon="2.76214">
        <ele>619.26</ele>
        <time>2016-06-23T05:56:51Z</time>
      </trkpt>
      <trkpt lat="44.41697" lon="2.76216">
        <ele>619.33</ele>
        <time>2016-06-23T05:56:52Z</time>
      </trkpt>
      <trkpt lat="44.41697" lon="2.76218">
        <ele>619.39</ele>
        <time>2016-06-23T05:56:53Z</time>
      </trkpt>
      <trkpt lat="44.41695" lon="2.7624">
        <ele>620.59</ele>
        <time>2016-06-23T05:57:06Z</time>
      </trkpt>
      <trkpt lat="44.41694" lon="2.76262">
        <ele>621.22</ele>
        <time>2016-06-23T05:57:19Z</time>
      </trkpt>
      <trkpt lat="44.41692" lon="2.76274">
        <ele>621.82</ele>
        <time>2016-06-23T05:57:26Z</time>
      </trkpt>
      <trkpt lat="44.41689" lon="2.76292">
        <ele>622.56</ele>
        <time>2016-06-23T05:57:38Z</time>
      </trkpt>
      <trkpt lat="44.41684" lon="2.76313">
        <ele>624.4</ele>
        <time>2016-06-23T05:57:52Z</time>
      </trkpt>
      <trkpt lat="44.41679" lon="2.76331">
        <ele>625.8</ele>
        <time>2016-06-23T05:58:04Z</time>
      </trkpt>
      <trkpt lat="44.41674" lon="2.76352">
        <ele>628.82</ele>
        <time>2016-06-23T05:58:19Z</time>
      </trkpt>
      <trkpt lat="44.41672" lon="2.76361">
        <ele>629.65</ele>
        <time>2016-06-23T05:58:25Z</time>
      </trkpt>
      <trkpt lat="44.41664" lon="2.76382">
        <ele>631.78</ele>
        <time>2016-06-23T05:58:40Z</time>
      </trkpt>
      <trkpt lat="44.41656" lon="2.76406">
        <ele>634.26</ele>
        <time>2016-06-23T05:58:58Z</time>
      </trkpt>
      <trkpt lat="44.41654" lon="2.76418">
        <ele>635.38</ele>
        <time>2016-06-23T05:59:13Z</time>
      </trkpt>
      <trkpt lat="44.41652" lon="2.76424">
        <ele>635.57</ele>
        <time>2016-06-23T05:59:17Z</time>
      </trkpt>
      <trkpt lat="44.41649" lon="2.76436">
        <ele>636.92</ele>
        <time>2016-06-23T05:59:25Z</time>
      </trkpt>
      <trkpt lat="44.41649" lon="2.76438">
        <ele>637.12</ele>
        <time>2016-06-23T05:59:26Z</time>
      </trkpt>
      <trkpt lat="44.41649" lon="2.76439">
        <ele>637.26</ele>
        <time>2016-06-23T05:59:27Z</time>
      </trkpt>
      <trkpt lat="44.41648" lon="2.76441">
        <ele>637.37</ele>
        <time>2016-06-23T05:59:28Z</time>
      </trkpt>
      <trkpt lat="44.41648" lon="2.76443">
        <ele>637.45</ele>
        <time>2016-06-23T05:59:29Z</time>
      </trkpt>
      <trkpt lat="44.41648" lon="2.76444">
        <ele>637.52</ele>
        <time>2016-06-23T05:59:30Z</time>
      </trkpt>
      <trkpt lat="44.41644" lon="2.76466">
        <ele>638.65</ele>
        <time>2016-06-23T05:59:42Z</time>
      </trkpt>
      <trkpt lat="44.41639" lon="2.76492">
        <ele>640.05</ele>
        <time>2016-06-23T05:59:56Z</time>
      </trkpt>
      <trkpt lat="44.41632" lon="2.7652">
        <ele>640.88</ele>
        <time>2016-06-23T06:00:12Z</time>
      </trkpt>
      <trkpt lat="44.41628" lon="2.7655">
        <ele>641.75</ele>
        <time>2016-06-23T06:00:28Z</time>
      </trkpt>
      <trkpt lat="44.41625" lon="2.76584">
        <ele>642.34</ele>
        <time>2016-06-23T06:00:46Z</time>
      </trkpt>
      <trkpt lat="44.41621" lon="2.76615">
        <ele>642.78</ele>
        <time>2016-06-23T06:01:03Z</time>
      </trkpt>
      <trkpt lat="44.41622" lon="2.76639">
        <ele>643.34</ele>
        <time>2016-06-23T06:01:16Z</time>
      </trkpt>
      <trkpt lat="44.41631" lon="2.76663">
        <ele>644.06</ele>
        <time>2016-06-23T06:01:32Z</time>
      </trkpt>
      <trkpt lat="44.41641" lon="2.76683">
        <ele>644.66</ele>
        <time>2016-06-23T06:01:46Z</time>
      </trkpt>
      <trkpt lat="44.4165" lon="2.76706">
        <ele>646.01</ele>
        <time>2016-06-23T06:02:00Z</time>
      </trkpt>
      <trkpt lat="44.41659" lon="2.76731">
        <ele>646.97</ele>
        <time>2016-06-23T06:02:16Z</time>
      </trkpt>
      <trkpt lat="44.41668" lon="2.76759">
        <ele>647.51</ele>
        <time>2016-06-23T06:02:33Z</time>
      </trkpt>
      <trkpt lat="44.41673" lon="2.76788">
        <ele>647.66</ele>
        <time>2016-06-23T06:02:49Z</time>
      </trkpt>
      <trkpt lat="44.41677" lon="2.76815">
        <ele>647.75</ele>
        <time>2016-06-23T06:03:05Z</time>
      </trkpt>
      <trkpt lat="44.41682" lon="2.76843">
        <ele>647.22</ele>
        <time>2016-06-23T06:03:20Z</time>
      </trkpt>
      <trkpt lat="44.41687" lon="2.76873">
        <ele>646.8</ele>
        <time>2016-06-23T06:03:35Z</time>
      </trkpt>
      <trkpt lat="44.41692" lon="2.76902">
        <ele>644.66</ele>
        <time>2016-06-23T06:03:50Z</time>
      </trkpt>
      <trkpt lat="44.41697" lon="2.76928">
        <ele>643.59</ele>
        <time>2016-06-23T06:04:04Z</time>
      </trkpt>
      <trkpt lat="44.417" lon="2.7694">
        <ele>643.05</ele>
        <time>2016-06-23T06:04:11Z</time>
      </trkpt>
      <trkpt lat="44.417" lon="2.76942">
        <ele>642.97</ele>
        <time>2016-06-23T06:04:12Z</time>
      </trkpt>
      <trkpt lat="44.41701" lon="2.76944">
        <ele>642.91</ele>
        <time>2016-06-23T06:04:13Z</time>
      </trkpt>
      <trkpt lat="44.41701" lon="2.76946">
        <ele>642.84</ele>
        <time>2016-06-23T06:04:14Z</time>
      </trkpt>
      <trkpt lat="44.41701" lon="2.76948">
        <ele>642.77</ele>
        <time>2016-06-23T06:04:15Z</time>
      </trkpt>
      <trkpt lat="44.41701" lon="2.76949">
        <ele>642.7</ele>
        <time>2016-06-23T06:04:16Z</time>
      </trkpt>
      <trkpt lat="44.41702" lon="2.76951">
        <ele>642.61</ele>
        <time>2016-06-23T06:04:17Z</time>
      </trkpt>
      <trkpt lat="44.41702" lon="2.76953">
        <ele>642.5</ele>
        <time>2016-06-23T06:04:18Z</time>
      </trkpt>
      <trkpt lat="44.41702" lon="2.76955">
        <ele>642.38</ele>
        <time>2016-06-23T06:04:19Z</time>
      </trkpt>
      <trkpt lat="44.41703" lon="2.76956">
        <ele>642.25</ele>
        <time>2016-06-23T06:04:20Z</time>
      </trkpt>
      <trkpt lat="44.41703" lon="2.76958">
        <ele>642.12</ele>
        <time>2016-06-23T06:04:21Z</time>
      </trkpt>
      <trkpt lat="44.41703" lon="2.7696">
        <ele>642.03</ele>
        <time>2016-06-23T06:04:22Z</time>
      </trkpt>
      <trkpt lat="44.41708" lon="2.76985">
        <ele>641.62</ele>
        <time>2016-06-23T06:04:36Z</time>
      </trkpt>
      <trkpt lat="44.41715" lon="2.77014">
        <ele>641.5</ele>
        <time>2016-06-23T06:04:52Z</time>
      </trkpt>
      <trkpt lat="44.41724" lon="2.77047">
        <ele>640.05</ele>
        <time>2016-06-23T06:05:10Z</time>
      </trkpt>
      <trkpt lat="44.41733" lon="2.77078">
        <ele>638.8</ele>
        <time>2016-06-23T06:05:27Z</time>
      </trkpt>
      <trkpt lat="44.41743" lon="2.77104">
        <ele>637.23</ele>
        <time>2016-06-23T06:05:42Z</time>
      </trkpt>
      <trkpt lat="44.41753" lon="2.77125">
        <ele>635.63</ele>
        <time>2016-06-23T06:05:56Z</time>
      </trkpt>
      <trkpt lat="44.41758" lon="2.77146">
        <ele>633.76</ele>
        <time>2016-06-23T06:06:07Z</time>
      </trkpt>
      <trkpt lat="44.41758" lon="2.77148">
        <ele>633.61</ele>
        <time>2016-06-23T06:06:08Z</time>
      </trkpt>
      <trkpt lat="44.41758" lon="2.7715">
        <ele>633.49</ele>
        <time>2016-06-23T06:06:09Z</time>
      </trkpt>
      <trkpt lat="44.41758" lon="2.77152">
        <ele>633.38</ele>
        <time>2016-06-23T06:06:10Z</time>
      </trkpt>
      <trkpt lat="44.41759" lon="2.77155">
        <ele>633.28</ele>
        <time>2016-06-23T06:06:11Z</time>
      </trkpt>
      <trkpt lat="44.41759" lon="2.77157">
        <ele>633.16</ele>
        <time>2016-06-23T06:06:12Z</time>
      </trkpt>
      <trkpt lat="44.41763" lon="2.77185">
        <ele>631.36</ele>
        <time>2016-06-23T06:06:27Z</time>
      </trkpt>
      <trkpt lat="44.41764" lon="2.77209">
        <ele>629.16</ele>
        <time>2016-06-23T06:06:41Z</time>
      </trkpt>
      <trkpt lat="44.41766" lon="2.77232">
        <ele>628.89</ele>
        <time>2016-06-23T06:06:54Z</time>
      </trkpt>
      <trkpt lat="44.4177" lon="2.7726">
        <ele>628.62</ele>
        <time>2016-06-23T06:07:09Z</time>
      </trkpt>
      <trkpt lat="44.41771" lon="2.7728">
        <ele>627.99</ele>
        <time>2016-06-23T06:07:20Z</time>
      </trkpt>
      <trkpt lat="44.41775" lon="2.77306">
        <ele>627.64</ele>
        <time>2016-06-23T06:07:34Z</time>
      </trkpt>
      <trkpt lat="44.41775" lon="2.77307">
        <ele>627.62</ele>
        <time>2016-06-23T06:07:35Z</time>
      </trkpt>
      <trkpt lat="44.41775" lon="2.77309">
        <ele>627.61</ele>
        <time>2016-06-23T06:07:36Z</time>
      </trkpt>
      <trkpt lat="44.41775" lon="2.77311">
        <ele>627.61</ele>
        <time>2016-06-23T06:07:37Z</time>
      </trkpt>
      <trkpt lat="44.41776" lon="2.77313">
        <ele>627.6</ele>
        <time>2016-06-23T06:07:38Z</time>
      </trkpt>
      <trkpt lat="44.41776" lon="2.77315">
        <ele>627.59</ele>
        <time>2016-06-23T06:07:39Z</time>
      </trkpt>
      <trkpt lat="44.41776" lon="2.77317">
        <ele>627.55</ele>
        <time>2016-06-23T06:07:40Z</time>
      </trkpt>
      <trkpt lat="44.41779" lon="2.77342">
        <ele>626.83</ele>
        <time>2016-06-23T06:07:54Z</time>
      </trkpt>
      <trkpt lat="44.4178" lon="2.7736">
        <ele>626.16</ele>
        <time>2016-06-23T06:08:05Z</time>
      </trkpt>
      <trkpt lat="44.41781" lon="2.77363">
        <ele>626.15</ele>
        <time>2016-06-23T06:08:06Z</time>
      </trkpt>
      <trkpt lat="44.41781" lon="2.77365">
        <ele>626.12</ele>
        <time>2016-06-23T06:08:07Z</time>
      </trkpt>
      <trkpt lat="44.41781" lon="2.77369">
        <ele>626.09</ele>
        <time>2016-06-23T06:08:09Z</time>
      </trkpt>
      <trkpt lat="44.41781" lon="2.77371">
        <ele>626.08</ele>
        <time>2016-06-23T06:08:10Z</time>
      </trkpt>
      <trkpt lat="44.41781" lon="2.77373">
        <ele>626.06</ele>
        <time>2016-06-23T06:08:11Z</time>
      </trkpt>
      <trkpt lat="44.41781" lon="2.77388">
        <ele>626.3</ele>
        <time>2016-06-23T06:08:19Z</time>
      </trkpt>
      <trkpt lat="44.41781" lon="2.77389">
        <ele>626.34</ele>
        <time>2016-06-23T06:08:20Z</time>
      </trkpt>
      <trkpt lat="44.41781" lon="2.77391">
        <ele>626.36</ele>
        <time>2016-06-23T06:08:21Z</time>
      </trkpt>
      <trkpt lat="44.41781" lon="2.77393">
        <ele>626.35</ele>
        <time>2016-06-23T06:08:22Z</time>
      </trkpt>
      <trkpt lat="44.41781" lon="2.77396">
        <ele>626.34</ele>
        <time>2016-06-23T06:08:23Z</time>
      </trkpt>
      <trkpt lat="44.41781" lon="2.77398">
        <ele>626.33</ele>
        <time>2016-06-23T06:08:24Z</time>
      </trkpt>
      <trkpt lat="44.41781" lon="2.774">
        <ele>626.32</ele>
        <time>2016-06-23T06:08:25Z</time>
      </trkpt>
      <trkpt lat="44.41781" lon="2.77403">
        <ele>626.32</ele>
        <time>2016-06-23T06:08:26Z</time>
      </trkpt>
      <trkpt lat="44.41781" lon="2.77405">
        <ele>626.3</ele>
        <time>2016-06-23T06:08:27Z</time>
      </trkpt>
      <trkpt lat="44.4178" lon="2.77436">
        <ele>625.52</ele>
        <time>2016-06-23T06:08:42Z</time>
      </trkpt>
      <trkpt lat="44.41787" lon="2.77462">
        <ele>624.81</ele>
        <time>2016-06-23T06:08:56Z</time>
      </trkpt>
      <trkpt lat="44.41792" lon="2.77478">
        <ele>623.74</ele>
        <time>2016-06-23T06:09:04Z</time>
      </trkpt>
      <trkpt lat="44.41793" lon="2.7748">
        <ele>623.62</ele>
        <time>2016-06-23T06:09:05Z</time>
      </trkpt>
      <trkpt lat="44.41794" lon="2.77482">
        <ele>623.52</ele>
        <time>2016-06-23T06:09:06Z</time>
      </trkpt>
      <trkpt lat="44.41798" lon="2.77495">
        <ele>623.26</ele>
        <time>2016-06-23T06:09:13Z</time>
      </trkpt>
      <trkpt lat="44.41802" lon="2.77516">
        <ele>621.46</ele>
        <time>2016-06-23T06:09:26Z</time>
      </trkpt>
      <trkpt lat="44.4181" lon="2.7754">
        <ele>620.27</ele>
        <time>2016-06-23T06:09:40Z</time>
      </trkpt>
      <trkpt lat="44.41816" lon="2.77565">
        <ele>618.95</ele>
        <time>2016-06-23T06:09:54Z</time>
      </trkpt>
      <trkpt lat="44.41816" lon="2.77567">
        <ele>618.83</ele>
        <time>2016-06-23T06:09:55Z</time>
      </trkpt>
      <trkpt lat="44.41816" lon="2.77569">
        <ele>618.68</ele>
        <time>2016-06-23T06:09:56Z</time>
      </trkpt>
      <trkpt lat="44.41823" lon="2.77595">
        <ele>616.97</ele>
        <time>2016-06-23T06:10:10Z</time>
      </trkpt>
      <trkpt lat="44.41832" lon="2.77626">
        <ele>615.52</ele>
        <time>2016-06-23T06:10:27Z</time>
      </trkpt>
      <trkpt lat="44.41834" lon="2.77631">
        <ele>615.24</ele>
        <time>2016-06-23T06:10:30Z</time>
      </trkpt>
      <trkpt lat="44.41834" lon="2.77633">
        <ele>615.17</ele>
        <time>2016-06-23T06:10:31Z</time>
      </trkpt>
      <trkpt lat="44.41834" lon="2.77635">
        <ele>615.06</ele>
        <time>2016-06-23T06:10:32Z</time>
      </trkpt>
      <trkpt lat="44.41836" lon="2.77642">
        <ele>614.78</ele>
        <time>2016-06-23T06:10:36Z</time>
      </trkpt>
      <trkpt lat="44.41839" lon="2.77655">
        <ele>614.19</ele>
        <time>2016-06-23T06:10:43Z</time>
      </trkpt>
      <trkpt lat="44.4184" lon="2.77657">
        <ele>614.09</ele>
        <time>2016-06-23T06:10:44Z</time>
      </trkpt>
      <trkpt lat="44.41841" lon="2.77659">
        <ele>613.99</ele>
        <time>2016-06-23T06:10:45Z</time>
      </trkpt>
      <trkpt lat="44.41845" lon="2.7768">
        <ele>612.72</ele>
        <time>2016-06-23T06:10:55Z</time>
      </trkpt>
      <trkpt lat="44.41846" lon="2.77681">
        <ele>612.49</ele>
        <time>2016-06-23T06:10:56Z</time>
      </trkpt>
      <trkpt lat="44.41847" lon="2.77683">
        <ele>612.49</ele>
        <time>2016-06-23T06:10:57Z</time>
      </trkpt>
      <trkpt lat="44.41847" lon="2.77685">
        <ele>612.33</ele>
        <time>2016-06-23T06:10:58Z</time>
      </trkpt>
      <trkpt lat="44.41847" lon="2.77687">
        <ele>612.28</ele>
        <time>2016-06-23T06:10:59Z</time>
      </trkpt>
      <trkpt lat="44.41848" lon="2.77689">
        <ele>612.22</ele>
        <time>2016-06-23T06:11:00Z</time>
      </trkpt>
      <trkpt lat="44.41855" lon="2.77715">
        <ele>610.97</ele>
        <time>2016-06-23T06:11:15Z</time>
      </trkpt>
      <trkpt lat="44.41855" lon="2.77719">
        <ele>610.78</ele>
        <time>2016-06-23T06:11:17Z</time>
      </trkpt>
      <trkpt lat="44.41856" lon="2.77721">
        <ele>610.7</ele>
        <time>2016-06-23T06:11:18Z</time>
      </trkpt>
      <trkpt lat="44.41856" lon="2.77723">
        <ele>610.61</ele>
        <time>2016-06-23T06:11:19Z</time>
      </trkpt>
      <trkpt lat="44.4186" lon="2.77751">
        <ele>609.35</ele>
        <time>2016-06-23T06:11:34Z</time>
      </trkpt>
      <trkpt lat="44.41863" lon="2.77775">
        <ele>607.68</ele>
        <time>2016-06-23T06:11:47Z</time>
      </trkpt>
      <trkpt lat="44.41868" lon="2.77809">
        <ele>606.24</ele>
        <time>2016-06-23T06:12:05Z</time>
      </trkpt>
      <trkpt lat="44.41868" lon="2.77843">
        <ele>605.25</ele>
        <time>2016-06-23T06:12:23Z</time>
      </trkpt>
      <trkpt lat="44.41866" lon="2.7787">
        <ele>604.89</ele>
        <time>2016-06-23T06:12:39Z</time>
      </trkpt>
      <trkpt lat="44.41866" lon="2.77901">
        <ele>604.56</ele>
        <time>2016-06-23T06:12:55Z</time>
      </trkpt>
      <trkpt lat="44.41867" lon="2.77928">
        <ele>604.79</ele>
        <time>2016-06-23T06:13:10Z</time>
      </trkpt>
      <trkpt lat="44.41866" lon="2.77931">
        <ele>604.96</ele>
        <time>2016-06-23T06:13:12Z</time>
      </trkpt>
      <trkpt lat="44.41865" lon="2.77932">
        <ele>605.05</ele>
        <time>2016-06-23T06:13:13Z</time>
      </trkpt>
      <trkpt lat="44.41862" lon="2.77938">
        <ele>605.53</ele>
        <time>2016-06-23T06:13:18Z</time>
      </trkpt>
      <trkpt lat="44.41859" lon="2.77941">
        <ele>605.73</ele>
        <time>2016-06-23T06:13:21Z</time>
      </trkpt>
      <trkpt lat="44.41859" lon="2.77942">
        <ele>605.81</ele>
        <time>2016-06-23T06:13:22Z</time>
      </trkpt>
      <trkpt lat="44.41849" lon="2.77952">
        <ele>606.98</ele>
        <time>2016-06-23T06:13:35Z</time>
      </trkpt>
      <trkpt lat="44.41843" lon="2.77964">
        <ele>608.85</ele>
        <time>2016-06-23T06:13:47Z</time>
      </trkpt>
      <trkpt lat="44.41842" lon="2.77966">
        <ele>609.3</ele>
        <time>2016-06-23T06:13:49Z</time>
      </trkpt>
      <trkpt lat="44.41842" lon="2.77968">
        <ele>609.5</ele>
        <time>2016-06-23T06:13:50Z</time>
      </trkpt>
      <trkpt lat="44.4184" lon="2.7797">
        <ele>609.88</ele>
        <time>2016-06-23T06:13:52Z</time>
      </trkpt>
      <trkpt lat="44.41836" lon="2.77977">
        <ele>610.7</ele>
        <time>2016-06-23T06:13:57Z</time>
      </trkpt>
      <trkpt lat="44.41835" lon="2.77978">
        <ele>610.82</ele>
        <time>2016-06-23T06:13:58Z</time>
      </trkpt>
      <trkpt lat="44.41834" lon="2.7798">
        <ele>610.93</ele>
        <time>2016-06-23T06:13:59Z</time>
      </trkpt>
      <trkpt lat="44.41834" lon="2.77982">
        <ele>611.02</ele>
        <time>2016-06-23T06:14:00Z</time>
      </trkpt>
      <trkpt lat="44.41833" lon="2.77984">
        <ele>611.11</ele>
        <time>2016-06-23T06:14:01Z</time>
      </trkpt>
      <trkpt lat="44.41823" lon="2.78011">
        <ele>613.02</ele>
        <time>2016-06-23T06:14:18Z</time>
      </trkpt>
      <trkpt lat="44.41821" lon="2.78016">
        <ele>613.26</ele>
        <time>2016-06-23T06:14:21Z</time>
      </trkpt>
      <trkpt lat="44.4182" lon="2.78017">
        <ele>613.38</ele>
        <time>2016-06-23T06:14:22Z</time>
      </trkpt>
      <trkpt lat="44.41812" lon="2.78035">
        <ele>615.06</ele>
        <time>2016-06-23T06:14:36Z</time>
      </trkpt>
      <trkpt lat="44.41801" lon="2.78052">
        <ele>616.97</ele>
        <time>2016-06-23T06:14:50Z</time>
      </trkpt>
      <trkpt lat="44.41792" lon="2.78068">
        <ele>618.43</ele>
        <time>2016-06-23T06:15:02Z</time>
      </trkpt>
      <trkpt lat="44.41786" lon="2.78077">
        <ele>619.25</ele>
        <time>2016-06-23T06:15:09Z</time>
      </trkpt>
      <trkpt lat="44.41785" lon="2.78078">
        <ele>619.41</ele>
        <time>2016-06-23T06:15:10Z</time>
      </trkpt>
      <trkpt lat="44.41784" lon="2.7808">
        <ele>619.59</ele>
        <time>2016-06-23T06:15:11Z</time>
      </trkpt>
      <trkpt lat="44.41783" lon="2.78081">
        <ele>619.76</ele>
        <time>2016-06-23T06:15:12Z</time>
      </trkpt>
      <trkpt lat="44.41782" lon="2.78082">
        <ele>619.95</ele>
        <time>2016-06-23T06:15:13Z</time>
      </trkpt>
      <trkpt lat="44.41777" lon="2.78093">
        <ele>621.45</ele>
        <time>2016-06-23T06:15:20Z</time>
      </trkpt>
      <trkpt lat="44.41776" lon="2.78095">
        <ele>621.57</ele>
        <time>2016-06-23T06:15:21Z</time>
      </trkpt>
      <trkpt lat="44.41776" lon="2.78096">
        <ele>621.73</ele>
        <time>2016-06-23T06:15:22Z</time>
      </trkpt>
      <trkpt lat="44.41775" lon="2.78098">
        <ele>621.73</ele>
        <time>2016-06-23T06:15:23Z</time>
      </trkpt>
      <trkpt lat="44.41774" lon="2.78099">
        <ele>621.75</ele>
        <time>2016-06-23T06:15:24Z</time>
      </trkpt>
      <trkpt lat="44.41773" lon="2.78101">
        <ele>621.76</ele>
        <time>2016-06-23T06:15:25Z</time>
      </trkpt>
      <trkpt lat="44.41765" lon="2.78114">
        <ele>622.71</ele>
        <time>2016-06-23T06:15:36Z</time>
      </trkpt>
      <trkpt lat="44.41765" lon="2.78116">
        <ele>622.86</ele>
        <time>2016-06-23T06:15:37Z</time>
      </trkpt>
      <trkpt lat="44.41764" lon="2.78117">
        <ele>623.02</ele>
        <time>2016-06-23T06:15:38Z</time>
      </trkpt>
      <trkpt lat="44.41763" lon="2.7812">
        <ele>623.31</ele>
        <time>2016-06-23T06:15:40Z</time>
      </trkpt>
      <trkpt lat="44.41751" lon="2.78142">
        <ele>625.45</ele>
        <time>2016-06-23T06:15:55Z</time>
      </trkpt>
      <trkpt lat="44.41743" lon="2.78156">
        <ele>625.79</ele>
        <time>2016-06-23T06:16:06Z</time>
      </trkpt>
      <trkpt lat="44.41735" lon="2.78168">
        <ele>626.64</ele>
        <time>2016-06-23T06:16:17Z</time>
      </trkpt>
      <trkpt lat="44.41733" lon="2.7817">
        <ele>626.72</ele>
        <time>2016-06-23T06:16:19Z</time>
      </trkpt>
      <trkpt lat="44.41727" lon="2.7818">
        <ele>627.87</ele>
        <time>2016-06-23T06:16:28Z</time>
      </trkpt>
      <trkpt lat="44.41727" lon="2.78181">
        <ele>628.03</ele>
        <time>2016-06-23T06:16:29Z</time>
      </trkpt>
      <trkpt lat="44.41724" lon="2.78185">
        <ele>628.54</ele>
        <time>2016-06-23T06:16:33Z</time>
      </trkpt>
      <trkpt lat="44.41722" lon="2.78187">
        <ele>628.7</ele>
        <time>2016-06-23T06:16:35Z</time>
      </trkpt>
      <trkpt lat="44.41721" lon="2.78188">
        <ele>628.85</ele>
        <time>2016-06-23T06:16:36Z</time>
      </trkpt>
      <trkpt lat="44.4172" lon="2.7819">
        <ele>628.92</ele>
        <time>2016-06-23T06:16:37Z</time>
      </trkpt>
      <trkpt lat="44.4172" lon="2.78191">
        <ele>629</ele>
        <time>2016-06-23T06:16:38Z</time>
      </trkpt>
      <trkpt lat="44.41716" lon="2.78197">
        <ele>629.63</ele>
        <time>2016-06-23T06:16:44Z</time>
      </trkpt>
      <trkpt lat="44.41715" lon="2.78198">
        <ele>629.71</ele>
        <time>2016-06-23T06:16:45Z</time>
      </trkpt>
      <trkpt lat="44.41705" lon="2.78215">
        <ele>630.86</ele>
        <time>2016-06-23T06:16:58Z</time>
      </trkpt>
      <trkpt lat="44.41692" lon="2.7823">
        <ele>631.55</ele>
        <time>2016-06-23T06:17:11Z</time>
      </trkpt>
      <trkpt lat="44.41676" lon="2.78253">
        <ele>632.3</ele>
        <time>2016-06-23T06:17:26Z</time>
      </trkpt>
      <trkpt lat="44.41669" lon="2.78262">
        <ele>632.29</ele>
        <time>2016-06-23T06:17:33Z</time>
      </trkpt>
      <trkpt lat="44.41668" lon="2.78264">
        <ele>632.28</ele>
        <time>2016-06-23T06:17:34Z</time>
      </trkpt>
      <trkpt lat="44.41667" lon="2.78265">
        <ele>632.27</ele>
        <time>2016-06-23T06:17:35Z</time>
      </trkpt>
      <trkpt lat="44.41666" lon="2.78266">
        <ele>632.26</ele>
        <time>2016-06-23T06:17:36Z</time>
      </trkpt>
      <trkpt lat="44.41665" lon="2.78267">
        <ele>632.25</ele>
        <time>2016-06-23T06:17:37Z</time>
      </trkpt>
      <trkpt lat="44.41664" lon="2.78268">
        <ele>632.25</ele>
        <time>2016-06-23T06:17:38Z</time>
      </trkpt>
      <trkpt lat="44.41662" lon="2.7827">
        <ele>632.25</ele>
        <time>2016-06-23T06:17:39Z</time>
      </trkpt>
      <trkpt lat="44.41661" lon="2.7827">
        <ele>632.26</ele>
        <time>2016-06-23T06:17:40Z</time>
      </trkpt>
      <trkpt lat="44.4166" lon="2.78271">
        <ele>632.31</ele>
        <time>2016-06-23T06:17:41Z</time>
      </trkpt>
      <trkpt lat="44.41659" lon="2.78273">
        <ele>632.37</ele>
        <time>2016-06-23T06:17:42Z</time>
      </trkpt>
      <trkpt lat="44.41658" lon="2.78274">
        <ele>632.44</ele>
        <time>2016-06-23T06:17:43Z</time>
      </trkpt>
      <trkpt lat="44.41657" lon="2.78276">
        <ele>632.54</ele>
        <time>2016-06-23T06:17:44Z</time>
      </trkpt>
      <trkpt lat="44.41656" lon="2.78277">
        <ele>632.68</ele>
        <time>2016-06-23T06:17:45Z</time>
      </trkpt>
      <trkpt lat="44.41655" lon="2.78278">
        <ele>632.81</ele>
        <time>2016-06-23T06:17:46Z</time>
      </trkpt>
      <trkpt lat="44.41654" lon="2.7828">
        <ele>632.91</ele>
        <time>2016-06-23T06:17:47Z</time>
      </trkpt>
      <trkpt lat="44.41653" lon="2.78282">
        <ele>632.97</ele>
        <time>2016-06-23T06:17:48Z</time>
      </trkpt>
      <trkpt lat="44.41652" lon="2.78283">
        <ele>633.02</ele>
        <time>2016-06-23T06:17:49Z</time>
      </trkpt>
      <trkpt lat="44.41652" lon="2.78284">
        <ele>632.98</ele>
        <time>2016-06-23T06:17:50Z</time>
      </trkpt>
      <trkpt lat="44.4165" lon="2.78285">
        <ele>632.98</ele>
        <time>2016-06-23T06:17:51Z</time>
      </trkpt>
      <trkpt lat="44.41648" lon="2.78289">
        <ele>632.87</ele>
        <time>2016-06-23T06:17:54Z</time>
      </trkpt>
      <trkpt lat="44.41647" lon="2.7829">
        <ele>632.85</ele>
        <time>2016-06-23T06:17:55Z</time>
      </trkpt>
      <trkpt lat="44.41646" lon="2.78292">
        <ele>632.84</ele>
        <time>2016-06-23T06:17:56Z</time>
      </trkpt>
      <trkpt lat="44.41639" lon="2.78303">
        <ele>632.65</ele>
        <time>2016-06-23T06:18:04Z</time>
      </trkpt>
      <trkpt lat="44.41638" lon="2.78304">
        <ele>632.63</ele>
        <time>2016-06-23T06:18:05Z</time>
      </trkpt>
      <trkpt lat="44.41637" lon="2.78306">
        <ele>632.63</ele>
        <time>2016-06-23T06:18:06Z</time>
      </trkpt>
      <trkpt lat="44.41632" lon="2.78317">
        <ele>632.7</ele>
        <time>2016-06-23T06:18:14Z</time>
      </trkpt>
      <trkpt lat="44.41631" lon="2.78318">
        <ele>632.72</ele>
        <time>2016-06-23T06:18:15Z</time>
      </trkpt>
      <trkpt lat="44.4163" lon="2.7832">
        <ele>632.76</ele>
        <time>2016-06-23T06:18:16Z</time>
      </trkpt>
      <trkpt lat="44.41629" lon="2.78321">
        <ele>632.78</ele>
        <time>2016-06-23T06:18:17Z</time>
      </trkpt>
      <trkpt lat="44.41628" lon="2.78323">
        <ele>632.81</ele>
        <time>2016-06-23T06:18:18Z</time>
      </trkpt>
      <trkpt lat="44.41627" lon="2.78324">
        <ele>632.83</ele>
        <time>2016-06-23T06:18:19Z</time>
      </trkpt>
      <trkpt lat="44.41626" lon="2.78325">
        <ele>632.84</ele>
        <time>2016-06-23T06:18:20Z</time>
      </trkpt>
      <trkpt lat="44.41625" lon="2.78327">
        <ele>632.86</ele>
        <time>2016-06-23T06:18:21Z</time>
      </trkpt>
      <trkpt lat="44.41624" lon="2.78328">
        <ele>632.87</ele>
        <time>2016-06-23T06:18:22Z</time>
      </trkpt>
      <trkpt lat="44.41624" lon="2.7833">
        <ele>632.88</ele>
        <time>2016-06-23T06:18:23Z</time>
      </trkpt>
      <trkpt lat="44.41623" lon="2.78332">
        <ele>632.88</ele>
        <time>2016-06-23T06:18:24Z</time>
      </trkpt>
      <trkpt lat="44.41621" lon="2.78335">
        <ele>632.94</ele>
        <time>2016-06-23T06:18:27Z</time>
      </trkpt>
      <trkpt lat="44.4162" lon="2.78337">
        <ele>632.99</ele>
        <time>2016-06-23T06:18:28Z</time>
      </trkpt>
      <trkpt lat="44.41619" lon="2.78338">
        <ele>633.03</ele>
        <time>2016-06-23T06:18:29Z</time>
      </trkpt>
      <trkpt lat="44.41618" lon="2.78339">
        <ele>633.09</ele>
        <time>2016-06-23T06:18:30Z</time>
      </trkpt>
      <trkpt lat="44.41616" lon="2.78343">
        <ele>633.28</ele>
        <time>2016-06-23T06:18:33Z</time>
      </trkpt>
      <trkpt lat="44.41614" lon="2.78347">
        <ele>633.37</ele>
        <time>2016-06-23T06:18:36Z</time>
      </trkpt>
      <trkpt lat="44.41602" lon="2.78372">
        <ele>632.53</ele>
        <time>2016-06-23T06:18:50Z</time>
      </trkpt>
      <trkpt lat="44.416" lon="2.78406">
        <ele>632.62</ele>
        <time>2016-06-23T06:19:05Z</time>
      </trkpt>
      <trkpt lat="44.41601" lon="2.78436">
        <ele>631.73</ele>
        <time>2016-06-23T06:19:20Z</time>
      </trkpt>
      <trkpt lat="44.41602" lon="2.78442">
        <ele>631.48</ele>
        <time>2016-06-23T06:19:23Z</time>
      </trkpt>
      <trkpt lat="44.41602" lon="2.78444">
        <ele>631.42</ele>
        <time>2016-06-23T06:19:24Z</time>
      </trkpt>
      <trkpt lat="44.41604" lon="2.78456">
        <ele>631.45</ele>
        <time>2016-06-23T06:19:30Z</time>
      </trkpt>
      <trkpt lat="44.41604" lon="2.78462">
        <ele>631.44</ele>
        <time>2016-06-23T06:19:33Z</time>
      </trkpt>
      <trkpt lat="44.41604" lon="2.78464">
        <ele>631.4</ele>
        <time>2016-06-23T06:19:34Z</time>
      </trkpt>
      <trkpt lat="44.41604" lon="2.78466">
        <ele>631.36</ele>
        <time>2016-06-23T06:19:35Z</time>
      </trkpt>
      <trkpt lat="44.41604" lon="2.78468">
        <ele>631.32</ele>
        <time>2016-06-23T06:19:36Z</time>
      </trkpt>
      <trkpt lat="44.41605" lon="2.78471">
        <ele>631.29</ele>
        <time>2016-06-23T06:19:37Z</time>
      </trkpt>
      <trkpt lat="44.41606" lon="2.78478">
        <ele>631.05</ele>
        <time>2016-06-23T06:19:41Z</time>
      </trkpt>
      <trkpt lat="44.41607" lon="2.7848">
        <ele>630.92</ele>
        <time>2016-06-23T06:19:42Z</time>
      </trkpt>
      <trkpt lat="44.41607" lon="2.78483">
        <ele>630.79</ele>
        <time>2016-06-23T06:19:43Z</time>
      </trkpt>
      <trkpt lat="44.41611" lon="2.78514">
        <ele>629.05</ele>
        <time>2016-06-23T06:19:58Z</time>
      </trkpt>
      <trkpt lat="44.41614" lon="2.78543">
        <ele>628.78</ele>
        <time>2016-06-23T06:20:13Z</time>
      </trkpt>
      <trkpt lat="44.41616" lon="2.78568">
        <ele>625.7</ele>
        <time>2016-06-23T06:20:26Z</time>
      </trkpt>
      <trkpt lat="44.41618" lon="2.78596">
        <ele>624.14</ele>
        <time>2016-06-23T06:20:40Z</time>
      </trkpt>
      <trkpt lat="44.41622" lon="2.78625">
        <ele>623.73</ele>
        <time>2016-06-23T06:20:54Z</time>
      </trkpt>
      <trkpt lat="44.41625" lon="2.78657">
        <ele>624.6</ele>
        <time>2016-06-23T06:21:11Z</time>
      </trkpt>
      <trkpt lat="44.41625" lon="2.78665">
        <ele>624.8</ele>
        <time>2016-06-23T06:21:15Z</time>
      </trkpt>
      <trkpt lat="44.41625" lon="2.78667">
        <ele>624.83</ele>
        <time>2016-06-23T06:21:16Z</time>
      </trkpt>
      <trkpt lat="44.41626" lon="2.78669">
        <ele>624.86</ele>
        <time>2016-06-23T06:21:17Z</time>
      </trkpt>
      <trkpt lat="44.41625" lon="2.78671">
        <ele>624.88</ele>
        <time>2016-06-23T06:21:18Z</time>
      </trkpt>
      <trkpt lat="44.41626" lon="2.78673">
        <ele>624.9</ele>
        <time>2016-06-23T06:21:19Z</time>
      </trkpt>
      <trkpt lat="44.41626" lon="2.78675">
        <ele>624.89</ele>
        <time>2016-06-23T06:21:20Z</time>
      </trkpt>
      <trkpt lat="44.41626" lon="2.78676">
        <ele>624.84</ele>
        <time>2016-06-23T06:21:21Z</time>
      </trkpt>
      <trkpt lat="44.41626" lon="2.78678">
        <ele>624.76</ele>
        <time>2016-06-23T06:21:22Z</time>
      </trkpt>
      <trkpt lat="44.41628" lon="2.78704">
        <ele>622.38</ele>
        <time>2016-06-23T06:21:36Z</time>
      </trkpt>
      <trkpt lat="44.41629" lon="2.78723">
        <ele>621.47</ele>
        <time>2016-06-23T06:21:46Z</time>
      </trkpt>
      <trkpt lat="44.41629" lon="2.78725">
        <ele>621.42</ele>
        <time>2016-06-23T06:21:47Z</time>
      </trkpt>
      <trkpt lat="44.41631" lon="2.78757">
        <ele>619.97</ele>
        <time>2016-06-23T06:22:03Z</time>
      </trkpt>
      <trkpt lat="44.41633" lon="2.78789">
        <ele>616.89</ele>
        <time>2016-06-23T06:22:17Z</time>
      </trkpt>
      <trkpt lat="44.41636" lon="2.78808">
        <ele>615.08</ele>
        <time>2016-06-23T06:22:23Z</time>
      </trkpt>
      <trkpt lat="44.41636" lon="2.78809">
        <ele>614.43</ele>
        <time>2016-06-23T06:22:24Z</time>
      </trkpt>
      <trkpt lat="44.41637" lon="2.78811">
        <ele>614.1</ele>
        <time>2016-06-23T06:22:25Z</time>
      </trkpt>
      <trkpt lat="44.41637" lon="2.78812">
        <ele>613.81</ele>
        <time>2016-06-23T06:22:26Z</time>
      </trkpt>
      <trkpt lat="44.41638" lon="2.78814">
        <ele>613.57</ele>
        <time>2016-06-23T06:22:27Z</time>
      </trkpt>
      <trkpt lat="44.41642" lon="2.7883">
        <ele>612.31</ele>
        <time>2016-06-23T06:22:36Z</time>
      </trkpt>
      <trkpt lat="44.41643" lon="2.78831">
        <ele>612.25</ele>
        <time>2016-06-23T06:22:37Z</time>
      </trkpt>
      <trkpt lat="44.41643" lon="2.78833">
        <ele>612.19</ele>
        <time>2016-06-23T06:22:38Z</time>
      </trkpt>
      <trkpt lat="44.41652" lon="2.78863">
        <ele>609.98</ele>
        <time>2016-06-23T06:22:55Z</time>
      </trkpt>
      <trkpt lat="44.41661" lon="2.78896">
        <ele>607.07</ele>
        <time>2016-06-23T06:23:11Z</time>
      </trkpt>
      <trkpt lat="44.41669" lon="2.78923">
        <ele>603.69</ele>
        <time>2016-06-23T06:23:24Z</time>
      </trkpt>
      <trkpt lat="44.41674" lon="2.7894">
        <ele>600.43</ele>
        <time>2016-06-23T06:23:31Z</time>
      </trkpt>
      <trkpt lat="44.41677" lon="2.78953">
        <ele>597.22</ele>
        <time>2016-06-23T06:23:37Z</time>
      </trkpt>
      <trkpt lat="44.41671" lon="2.78973">
        <ele>594.13</ele>
        <time>2016-06-23T06:23:50Z</time>
      </trkpt>
      <trkpt lat="44.41666" lon="2.78972">
        <ele>593.83</ele>
        <time>2016-06-23T06:23:54Z</time>
      </trkpt>
      <trkpt lat="44.41648" lon="2.78973">
        <ele>593.34</ele>
        <time>2016-06-23T06:24:07Z</time>
      </trkpt>
      <trkpt lat="44.41647" lon="2.78973">
        <ele>593.26</ele>
        <time>2016-06-23T06:24:08Z</time>
      </trkpt>
      <trkpt lat="44.41646" lon="2.78973">
        <ele>593.21</ele>
        <time>2016-06-23T06:24:09Z</time>
      </trkpt>
      <trkpt lat="44.41644" lon="2.78973">
        <ele>593.18</ele>
        <time>2016-06-23T06:24:10Z</time>
      </trkpt>
      <trkpt lat="44.41643" lon="2.78973">
        <ele>593.17</ele>
        <time>2016-06-23T06:24:11Z</time>
      </trkpt>
      <trkpt lat="44.41642" lon="2.78974">
        <ele>593.17</ele>
        <time>2016-06-23T06:24:12Z</time>
      </trkpt>
      <trkpt lat="44.4164" lon="2.78974">
        <ele>593.17</ele>
        <time>2016-06-23T06:24:13Z</time>
      </trkpt>
      <trkpt lat="44.41639" lon="2.78975">
        <ele>593.18</ele>
        <time>2016-06-23T06:24:14Z</time>
      </trkpt>
      <trkpt lat="44.41638" lon="2.78975">
        <ele>593.18</ele>
        <time>2016-06-23T06:24:15Z</time>
      </trkpt>
      <trkpt lat="44.41636" lon="2.78975">
        <ele>593.18</ele>
        <time>2016-06-23T06:24:16Z</time>
      </trkpt>
      <trkpt lat="44.41635" lon="2.78975">
        <ele>593.18</ele>
        <time>2016-06-23T06:24:17Z</time>
      </trkpt>
      <trkpt lat="44.41633" lon="2.78976">
        <ele>593.16</ele>
        <time>2016-06-23T06:24:18Z</time>
      </trkpt>
      <trkpt lat="44.41632" lon="2.78976">
        <ele>593.13</ele>
        <time>2016-06-23T06:24:19Z</time>
      </trkpt>
      <trkpt lat="44.41631" lon="2.78977">
        <ele>593.08</ele>
        <time>2016-06-23T06:24:20Z</time>
      </trkpt>
      <trkpt lat="44.41629" lon="2.78977">
        <ele>593.04</ele>
        <time>2016-06-23T06:24:21Z</time>
      </trkpt>
      <trkpt lat="44.41628" lon="2.78978">
        <ele>592.99</ele>
        <time>2016-06-23T06:24:22Z</time>
      </trkpt>
      <trkpt lat="44.41627" lon="2.78978">
        <ele>592.92</ele>
        <time>2016-06-23T06:24:23Z</time>
      </trkpt>
      <trkpt lat="44.41625" lon="2.78979">
        <ele>592.86</ele>
        <time>2016-06-23T06:24:24Z</time>
      </trkpt>
      <trkpt lat="44.41624" lon="2.7898">
        <ele>592.8</ele>
        <time>2016-06-23T06:24:25Z</time>
      </trkpt>
      <trkpt lat="44.41622" lon="2.78981">
        <ele>592.69</ele>
        <time>2016-06-23T06:24:26Z</time>
      </trkpt>
      <trkpt lat="44.41621" lon="2.78982">
        <ele>592.69</ele>
        <time>2016-06-23T06:24:27Z</time>
      </trkpt>
      <trkpt lat="44.4162" lon="2.78983">
        <ele>592.58</ele>
        <time>2016-06-23T06:24:28Z</time>
      </trkpt>
      <trkpt lat="44.41618" lon="2.78983">
        <ele>592.53</ele>
        <time>2016-06-23T06:24:29Z</time>
      </trkpt>
      <trkpt lat="44.41602" lon="2.78993">
        <ele>591.88</ele>
        <time>2016-06-23T06:24:42Z</time>
      </trkpt>
      <trkpt lat="44.41593" lon="2.78998">
        <ele>591.44</ele>
        <time>2016-06-23T06:24:49Z</time>
      </trkpt>
      <trkpt lat="44.41591" lon="2.78999">
        <ele>591.39</ele>
        <time>2016-06-23T06:24:50Z</time>
      </trkpt>
      <trkpt lat="44.4159" lon="2.79">
        <ele>591.36</ele>
        <time>2016-06-23T06:24:51Z</time>
      </trkpt>
      <trkpt lat="44.41587" lon="2.79002">
        <ele>591.23</ele>
        <time>2016-06-23T06:24:54Z</time>
      </trkpt>
      <trkpt lat="44.41586" lon="2.79002">
        <ele>591.19</ele>
        <time>2016-06-23T06:24:55Z</time>
      </trkpt>
      <trkpt lat="44.41568" lon="2.79014">
        <ele>590.36</ele>
        <time>2016-06-23T06:25:09Z</time>
      </trkpt>
      <trkpt lat="44.41551" lon="2.7902">
        <ele>590.11</ele>
        <time>2016-06-23T06:25:22Z</time>
      </trkpt>
      <trkpt lat="44.41544" lon="2.79031">
        <ele>589.13</ele>
        <time>2016-06-23T06:25:33Z</time>
      </trkpt>
      <trkpt lat="44.41543" lon="2.79034">
        <ele>588.83</ele>
        <time>2016-06-23T06:25:35Z</time>
      </trkpt>
      <trkpt lat="44.41543" lon="2.79053">
        <ele>587.63</ele>
        <time>2016-06-23T06:25:44Z</time>
      </trkpt>
      <trkpt lat="44.41543" lon="2.79055">
        <ele>587.58</ele>
        <time>2016-06-23T06:25:45Z</time>
      </trkpt>
      <trkpt lat="44.41546" lon="2.79083">
        <ele>587.83</ele>
        <time>2016-06-23T06:26:02Z</time>
      </trkpt>
      <trkpt lat="44.41548" lon="2.79091">
        <ele>587.81</ele>
        <time>2016-06-23T06:26:07Z</time>
      </trkpt>
      <trkpt lat="44.41555" lon="2.79108">
        <ele>587.99</ele>
        <time>2016-06-23T06:26:19Z</time>
      </trkpt>
      <trkpt lat="44.41561" lon="2.79122">
        <ele>588.68</ele>
        <time>2016-06-23T06:26:28Z</time>
      </trkpt>
      <trkpt lat="44.41562" lon="2.79123">
        <ele>588.76</ele>
        <time>2016-06-23T06:26:29Z</time>
      </trkpt>
      <trkpt lat="44.41562" lon="2.79125">
        <ele>588.85</ele>
        <time>2016-06-23T06:26:30Z</time>
      </trkpt>
      <trkpt lat="44.41563" lon="2.79126">
        <ele>588.94</ele>
        <time>2016-06-23T06:26:31Z</time>
      </trkpt>
      <trkpt lat="44.41564" lon="2.79128">
        <ele>589.02</ele>
        <time>2016-06-23T06:26:32Z</time>
      </trkpt>
      <trkpt lat="44.41575" lon="2.79149">
        <ele>589.96</ele>
        <time>2016-06-23T06:26:46Z</time>
      </trkpt>
      <trkpt lat="44.41587" lon="2.79172">
        <ele>590.52</ele>
        <time>2016-06-23T06:27:01Z</time>
      </trkpt>
      <trkpt lat="44.41598" lon="2.79191">
        <ele>591.05</ele>
        <time>2016-06-23T06:27:14Z</time>
      </trkpt>
      <trkpt lat="44.41599" lon="2.79192">
        <ele>591.11</ele>
        <time>2016-06-23T06:27:15Z</time>
      </trkpt>
      <trkpt lat="44.416" lon="2.79194">
        <ele>591.17</ele>
        <time>2016-06-23T06:27:16Z</time>
      </trkpt>
      <trkpt lat="44.41601" lon="2.79195">
        <ele>591.23</ele>
        <time>2016-06-23T06:27:17Z</time>
      </trkpt>
      <trkpt lat="44.41601" lon="2.79197">
        <ele>591.28</ele>
        <time>2016-06-23T06:27:18Z</time>
      </trkpt>
      <trkpt lat="44.41602" lon="2.79198">
        <ele>591.35</ele>
        <time>2016-06-23T06:27:19Z</time>
      </trkpt>
      <trkpt lat="44.41603" lon="2.792">
        <ele>591.42</ele>
        <time>2016-06-23T06:27:20Z</time>
      </trkpt>
      <trkpt lat="44.41603" lon="2.79202">
        <ele>591.51</ele>
        <time>2016-06-23T06:27:21Z</time>
      </trkpt>
      <trkpt lat="44.41608" lon="2.79231">
        <ele>592.2</ele>
        <time>2016-06-23T06:27:37Z</time>
      </trkpt>
      <trkpt lat="44.41614" lon="2.79258">
        <ele>592.99</ele>
        <time>2016-06-23T06:27:53Z</time>
      </trkpt>
      <trkpt lat="44.41614" lon="2.79265">
        <ele>593.12</ele>
        <time>2016-06-23T06:27:57Z</time>
      </trkpt>
      <trkpt lat="44.41616" lon="2.79277">
        <ele>593.59</ele>
        <time>2016-06-23T06:28:06Z</time>
      </trkpt>
      <trkpt lat="44.41617" lon="2.79279">
        <ele>593.64</ele>
        <time>2016-06-23T06:28:07Z</time>
      </trkpt>
      <trkpt lat="44.41617" lon="2.7928">
        <ele>593.7</ele>
        <time>2016-06-23T06:28:08Z</time>
      </trkpt>
      <trkpt lat="44.41617" lon="2.79282">
        <ele>593.73</ele>
        <time>2016-06-23T06:28:09Z</time>
      </trkpt>
      <trkpt lat="44.41617" lon="2.79284">
        <ele>593.77</ele>
        <time>2016-06-23T06:28:10Z</time>
      </trkpt>
      <trkpt lat="44.41617" lon="2.79286">
        <ele>593.81</ele>
        <time>2016-06-23T06:28:11Z</time>
      </trkpt>
      <trkpt lat="44.41618" lon="2.79287">
        <ele>593.86</ele>
        <time>2016-06-23T06:28:12Z</time>
      </trkpt>
      <trkpt lat="44.4162" lon="2.79308">
        <ele>595.32</ele>
        <time>2016-06-23T06:28:25Z</time>
      </trkpt>
      <trkpt lat="44.4162" lon="2.79309">
        <ele>595.41</ele>
        <time>2016-06-23T06:28:26Z</time>
      </trkpt>
      <trkpt lat="44.4162" lon="2.79311">
        <ele>595.49</ele>
        <time>2016-06-23T06:28:27Z</time>
      </trkpt>
      <trkpt lat="44.4162" lon="2.79313">
        <ele>595.58</ele>
        <time>2016-06-23T06:28:28Z</time>
      </trkpt>
      <trkpt lat="44.41621" lon="2.79321">
        <ele>596.19</ele>
        <time>2016-06-23T06:28:34Z</time>
      </trkpt>
      <trkpt lat="44.41626" lon="2.79342">
        <ele>597.08</ele>
        <time>2016-06-23T06:28:49Z</time>
      </trkpt>
      <trkpt lat="44.41626" lon="2.79345">
        <ele>597.26</ele>
        <time>2016-06-23T06:28:51Z</time>
      </trkpt>
      <trkpt lat="44.41626" lon="2.79347">
        <ele>597.33</ele>
        <time>2016-06-23T06:28:52Z</time>
      </trkpt>
      <trkpt lat="44.41627" lon="2.7935">
        <ele>597.38</ele>
        <time>2016-06-23T06:28:53Z</time>
      </trkpt>
      <trkpt lat="44.41628" lon="2.79352">
        <ele>597.43</ele>
        <time>2016-06-23T06:28:54Z</time>
      </trkpt>
      <trkpt lat="44.41629" lon="2.79359">
        <ele>597.66</ele>
        <time>2016-06-23T06:28:58Z</time>
      </trkpt>
      <trkpt lat="44.4163" lon="2.79361">
        <ele>597.77</ele>
        <time>2016-06-23T06:28:59Z</time>
      </trkpt>
      <trkpt lat="44.41633" lon="2.79374">
        <ele>598.6</ele>
        <time>2016-06-23T06:29:08Z</time>
      </trkpt>
      <trkpt lat="44.41633" lon="2.79376">
        <ele>598.64</ele>
        <time>2016-06-23T06:29:09Z</time>
      </trkpt>
      <trkpt lat="44.41639" lon="2.79398">
        <ele>598.68</ele>
        <time>2016-06-23T06:29:23Z</time>
      </trkpt>
      <trkpt lat="44.4164" lon="2.79404">
        <ele>598.74</ele>
        <time>2016-06-23T06:29:26Z</time>
      </trkpt>
      <trkpt lat="44.41645" lon="2.79427">
        <ele>599.12</ele>
        <time>2016-06-23T06:29:39Z</time>
      </trkpt>
      <trkpt lat="44.41646" lon="2.79433">
        <ele>599.33</ele>
        <time>2016-06-23T06:29:42Z</time>
      </trkpt>
      <trkpt lat="44.41646" lon="2.79435">
        <ele>599.39</ele>
        <time>2016-06-23T06:29:43Z</time>
      </trkpt>
      <trkpt lat="44.41651" lon="2.79458">
        <ele>599.83</ele>
        <time>2016-06-23T06:29:57Z</time>
      </trkpt>
      <trkpt lat="44.41659" lon="2.79495">
        <ele>600.12</ele>
        <time>2016-06-23T06:30:19Z</time>
      </trkpt>
      <trkpt lat="44.41659" lon="2.79497">
        <ele>600.23</ele>
        <time>2016-06-23T06:30:20Z</time>
      </trkpt>
      <trkpt lat="44.41659" lon="2.79516">
        <ele>600.83</ele>
        <time>2016-06-23T06:30:30Z</time>
      </trkpt>
      <trkpt lat="44.41661" lon="2.79544">
        <ele>601.64</ele>
        <time>2016-06-23T06:30:44Z</time>
      </trkpt>
      <trkpt lat="44.41666" lon="2.79573">
        <ele>603.24</ele>
        <time>2016-06-23T06:31:00Z</time>
      </trkpt>
      <trkpt lat="44.41673" lon="2.796">
        <ele>603.45</ele>
        <time>2016-06-23T06:31:15Z</time>
      </trkpt>
      <trkpt lat="44.41675" lon="2.79615">
        <ele>603.77</ele>
        <time>2016-06-23T06:31:23Z</time>
      </trkpt>
      <trkpt lat="44.41677" lon="2.79634">
        <ele>604.12</ele>
        <time>2016-06-23T06:31:32Z</time>
      </trkpt>
      <trkpt lat="44.41678" lon="2.7964">
        <ele>604.15</ele>
        <time>2016-06-23T06:31:36Z</time>
      </trkpt>
      <trkpt lat="44.41678" lon="2.79644">
        <ele>604.21</ele>
        <time>2016-06-23T06:31:38Z</time>
      </trkpt>
      <trkpt lat="44.41681" lon="2.79667">
        <ele>604.57</ele>
        <time>2016-06-23T06:31:52Z</time>
      </trkpt>
      <trkpt lat="44.41682" lon="2.7969">
        <ele>605.61</ele>
        <time>2016-06-23T06:32:05Z</time>
      </trkpt>
      <trkpt lat="44.41683" lon="2.79712">
        <ele>606.42</ele>
        <time>2016-06-23T06:32:16Z</time>
      </trkpt>
      <trkpt lat="44.41683" lon="2.79715">
        <ele>606.45</ele>
        <time>2016-06-23T06:32:17Z</time>
      </trkpt>
      <trkpt lat="44.41683" lon="2.79718">
        <ele>606.46</ele>
        <time>2016-06-23T06:32:18Z</time>
      </trkpt>
      <trkpt lat="44.41686" lon="2.79749">
        <ele>606.66</ele>
        <time>2016-06-23T06:32:32Z</time>
      </trkpt>
      <trkpt lat="44.4169" lon="2.79778">
        <ele>606.69</ele>
        <time>2016-06-23T06:32:46Z</time>
      </trkpt>
      <trkpt lat="44.41692" lon="2.79799">
        <ele>605.94</ele>
        <time>2016-06-23T06:32:57Z</time>
      </trkpt>
      <trkpt lat="44.41692" lon="2.79801">
        <ele>606.03</ele>
        <time>2016-06-23T06:32:58Z</time>
      </trkpt>
      <trkpt lat="44.41693" lon="2.79803">
        <ele>606.17</ele>
        <time>2016-06-23T06:32:59Z</time>
      </trkpt>
      <trkpt lat="44.41693" lon="2.79805">
        <ele>606.29</ele>
        <time>2016-06-23T06:33:00Z</time>
      </trkpt>
      <trkpt lat="44.41693" lon="2.79807">
        <ele>606.39</ele>
        <time>2016-06-23T06:33:01Z</time>
      </trkpt>
      <trkpt lat="44.41694" lon="2.79809">
        <ele>606.46</ele>
        <time>2016-06-23T06:33:02Z</time>
      </trkpt>
      <trkpt lat="44.41694" lon="2.79812">
        <ele>606.43</ele>
        <time>2016-06-23T06:33:03Z</time>
      </trkpt>
      <trkpt lat="44.41695" lon="2.79816">
        <ele>606.25</ele>
        <time>2016-06-23T06:33:05Z</time>
      </trkpt>
      <trkpt lat="44.41695" lon="2.79817">
        <ele>606.13</ele>
        <time>2016-06-23T06:33:06Z</time>
      </trkpt>
      <trkpt lat="44.41695" lon="2.79819">
        <ele>606.01</ele>
        <time>2016-06-23T06:33:07Z</time>
      </trkpt>
      <trkpt lat="44.417" lon="2.79842">
        <ele>605.09</ele>
        <time>2016-06-23T06:33:20Z</time>
      </trkpt>
      <trkpt lat="44.41703" lon="2.79862">
        <ele>605.12</ele>
        <time>2016-06-23T06:33:30Z</time>
      </trkpt>
      <trkpt lat="44.41704" lon="2.79863">
        <ele>605.16</ele>
        <time>2016-06-23T06:33:31Z</time>
      </trkpt>
      <trkpt lat="44.41704" lon="2.79865">
        <ele>605.19</ele>
        <time>2016-06-23T06:33:32Z</time>
      </trkpt>
      <trkpt lat="44.41704" lon="2.79867">
        <ele>605.23</ele>
        <time>2016-06-23T06:33:33Z</time>
      </trkpt>
      <trkpt lat="44.41705" lon="2.79869">
        <ele>605.27</ele>
        <time>2016-06-23T06:33:34Z</time>
      </trkpt>
      <trkpt lat="44.41704" lon="2.7988">
        <ele>603.91</ele>
        <time>2016-06-23T06:33:48Z</time>
      </trkpt>
      <trkpt lat="44.41706" lon="2.7988">
        <ele>603.77</ele>
        <time>2016-06-23T06:34:05Z</time>
      </trkpt>
      <trkpt lat="44.41706" lon="2.79883">
        <ele>603.81</ele>
        <time>2016-06-23T06:34:09Z</time>
      </trkpt>
      <trkpt lat="44.41706" lon="2.79885">
        <ele>603.83</ele>
        <time>2016-06-23T06:34:10Z</time>
      </trkpt>
      <trkpt lat="44.41707" lon="2.79886">
        <ele>603.81</ele>
        <time>2016-06-23T06:34:11Z</time>
      </trkpt>
      <trkpt lat="44.41708" lon="2.7991">
        <ele>603.09</ele>
        <time>2016-06-23T06:34:25Z</time>
      </trkpt>
      <trkpt lat="44.41709" lon="2.79919">
        <ele>602.59</ele>
        <time>2016-06-23T06:34:30Z</time>
      </trkpt>
      <trkpt lat="44.41709" lon="2.79921">
        <ele>602.52</ele>
        <time>2016-06-23T06:34:31Z</time>
      </trkpt>
      <trkpt lat="44.41709" lon="2.79923">
        <ele>602.38</ele>
        <time>2016-06-23T06:34:32Z</time>
      </trkpt>
      <trkpt lat="44.41709" lon="2.79925">
        <ele>602.38</ele>
        <time>2016-06-23T06:34:33Z</time>
      </trkpt>
      <trkpt lat="44.4171" lon="2.79927">
        <ele>602.29</ele>
        <time>2016-06-23T06:34:34Z</time>
      </trkpt>
      <trkpt lat="44.4171" lon="2.79929">
        <ele>602.25</ele>
        <time>2016-06-23T06:34:35Z</time>
      </trkpt>
      <trkpt lat="44.4171" lon="2.7993">
        <ele>602.23</ele>
        <time>2016-06-23T06:34:36Z</time>
      </trkpt>
      <trkpt lat="44.4171" lon="2.79932">
        <ele>602.21</ele>
        <time>2016-06-23T06:34:37Z</time>
      </trkpt>
      <trkpt lat="44.41713" lon="2.79955">
        <ele>601.97</ele>
        <time>2016-06-23T06:34:50Z</time>
      </trkpt>
      <trkpt lat="44.41714" lon="2.79988">
        <ele>601.54</ele>
        <time>2016-06-23T06:35:08Z</time>
      </trkpt>
      <trkpt lat="44.41714" lon="2.8001">
        <ele>602.17</ele>
        <time>2016-06-23T06:35:25Z</time>
      </trkpt>
      <trkpt lat="44.41715" lon="2.80037">
        <ele>602.66</ele>
        <time>2016-06-23T06:35:40Z</time>
      </trkpt>
      <trkpt lat="44.41714" lon="2.80058">
        <ele>603.07</ele>
        <time>2016-06-23T06:35:52Z</time>
      </trkpt>
      <trkpt lat="44.41714" lon="2.80059">
        <ele>603.11</ele>
        <time>2016-06-23T06:35:53Z</time>
      </trkpt>
      <trkpt lat="44.41714" lon="2.80061">
        <ele>603.18</ele>
        <time>2016-06-23T06:35:54Z</time>
      </trkpt>
      <trkpt lat="44.41717" lon="2.80088">
        <ele>604.2</ele>
        <time>2016-06-23T06:36:08Z</time>
      </trkpt>
      <trkpt lat="44.41717" lon="2.80096">
        <ele>604.25</ele>
        <time>2016-06-23T06:36:11Z</time>
      </trkpt>
      <trkpt lat="44.41722" lon="2.80125">
        <ele>605.42</ele>
        <time>2016-06-23T06:36:24Z</time>
      </trkpt>
      <trkpt lat="44.41726" lon="2.80147">
        <ele>606.31</ele>
        <time>2016-06-23T06:36:36Z</time>
      </trkpt>
      <trkpt lat="44.41733" lon="2.80162">
        <ele>606.84</ele>
        <time>2016-06-23T06:36:47Z</time>
      </trkpt>
      <trkpt lat="44.41734" lon="2.80164">
        <ele>606.9</ele>
        <time>2016-06-23T06:36:48Z</time>
      </trkpt>
      <trkpt lat="44.41734" lon="2.80166">
        <ele>606.94</ele>
        <time>2016-06-23T06:36:49Z</time>
      </trkpt>
      <trkpt lat="44.41736" lon="2.80169">
        <ele>606.98</ele>
        <time>2016-06-23T06:36:51Z</time>
      </trkpt>
      <trkpt lat="44.41737" lon="2.80171">
        <ele>607</ele>
        <time>2016-06-23T06:36:52Z</time>
      </trkpt>
      <trkpt lat="44.41746" lon="2.80195">
        <ele>606.41</ele>
        <time>2016-06-23T06:37:09Z</time>
      </trkpt>
      <trkpt lat="44.41758" lon="2.80214">
        <ele>605.67</ele>
        <time>2016-06-23T06:37:22Z</time>
      </trkpt>
      <trkpt lat="44.41764" lon="2.80224">
        <ele>605.06</ele>
        <time>2016-06-23T06:37:28Z</time>
      </trkpt>
      <trkpt lat="44.41766" lon="2.80229">
        <ele>604.75</ele>
        <time>2016-06-23T06:37:31Z</time>
      </trkpt>
      <trkpt lat="44.41777" lon="2.80243">
        <ele>604.27</ele>
        <time>2016-06-23T06:37:43Z</time>
      </trkpt>
      <trkpt lat="44.41778" lon="2.80245">
        <ele>604.24</ele>
        <time>2016-06-23T06:37:44Z</time>
      </trkpt>
      <trkpt lat="44.41783" lon="2.80254">
        <ele>604.1</ele>
        <time>2016-06-23T06:37:50Z</time>
      </trkpt>
      <trkpt lat="44.41784" lon="2.80256">
        <ele>604.1</ele>
        <time>2016-06-23T06:37:51Z</time>
      </trkpt>
      <trkpt lat="44.41785" lon="2.80258">
        <ele>604.11</ele>
        <time>2016-06-23T06:37:52Z</time>
      </trkpt>
      <trkpt lat="44.41786" lon="2.80259">
        <ele>604.13</ele>
        <time>2016-06-23T06:37:53Z</time>
      </trkpt>
      <trkpt lat="44.41787" lon="2.80261">
        <ele>604.17</ele>
        <time>2016-06-23T06:37:54Z</time>
      </trkpt>
      <trkpt lat="44.41788" lon="2.80263">
        <ele>604.19</ele>
        <time>2016-06-23T06:37:55Z</time>
      </trkpt>
      <trkpt lat="44.41789" lon="2.80264">
        <ele>604.21</ele>
        <time>2016-06-23T06:37:56Z</time>
      </trkpt>
      <trkpt lat="44.41792" lon="2.80268">
        <ele>604.28</ele>
        <time>2016-06-23T06:37:59Z</time>
      </trkpt>
      <trkpt lat="44.4181" lon="2.8029">
        <ele>603.9</ele>
        <time>2016-06-23T06:38:15Z</time>
      </trkpt>
      <trkpt lat="44.41811" lon="2.80292">
        <ele>603.87</ele>
        <time>2016-06-23T06:38:16Z</time>
      </trkpt>
      <trkpt lat="44.41812" lon="2.80293">
        <ele>603.83</ele>
        <time>2016-06-23T06:38:17Z</time>
      </trkpt>
      <trkpt lat="44.41813" lon="2.80295">
        <ele>603.77</ele>
        <time>2016-06-23T06:38:18Z</time>
      </trkpt>
      <trkpt lat="44.41815" lon="2.80297">
        <ele>603.7</ele>
        <time>2016-06-23T06:38:19Z</time>
      </trkpt>
      <trkpt lat="44.41816" lon="2.80298">
        <ele>603.63</ele>
        <time>2016-06-23T06:38:20Z</time>
      </trkpt>
      <trkpt lat="44.41817" lon="2.80299">
        <ele>603.57</ele>
        <time>2016-06-23T06:38:21Z</time>
      </trkpt>
      <trkpt lat="44.41825" lon="2.80307">
        <ele>603.05</ele>
        <time>2016-06-23T06:38:28Z</time>
      </trkpt>
      <trkpt lat="44.4184" lon="2.80315">
        <ele>602.06</ele>
        <time>2016-06-23T06:38:39Z</time>
      </trkpt>
      <trkpt lat="44.41844" lon="2.80318">
        <ele>601.86</ele>
        <time>2016-06-23T06:38:42Z</time>
      </trkpt>
      <trkpt lat="44.41845" lon="2.80319">
        <ele>601.81</ele>
        <time>2016-06-23T06:38:43Z</time>
      </trkpt>
      <trkpt lat="44.41846" lon="2.8032">
        <ele>601.77</ele>
        <time>2016-06-23T06:38:44Z</time>
      </trkpt>
      <trkpt lat="44.41847" lon="2.80321">
        <ele>601.74</ele>
        <time>2016-06-23T06:38:45Z</time>
      </trkpt>
      <trkpt lat="44.41848" lon="2.80322">
        <ele>601.69</ele>
        <time>2016-06-23T06:38:46Z</time>
      </trkpt>
      <trkpt lat="44.41849" lon="2.80323">
        <ele>601.65</ele>
        <time>2016-06-23T06:38:47Z</time>
      </trkpt>
      <trkpt lat="44.41865" lon="2.80339">
        <ele>600.68</ele>
        <time>2016-06-23T06:38:59Z</time>
      </trkpt>
      <trkpt lat="44.41877" lon="2.80347">
        <ele>600.35</ele>
        <time>2016-06-23T06:39:07Z</time>
      </trkpt>
      <trkpt lat="44.41895" lon="2.80353">
        <ele>599.09</ele>
        <time>2016-06-23T06:39:19Z</time>
      </trkpt>
      <trkpt lat="44.41911" lon="2.80358">
        <ele>597.45</ele>
        <time>2016-06-23T06:39:31Z</time>
      </trkpt>
      <trkpt lat="44.41929" lon="2.80358">
        <ele>595.5</ele>
        <time>2016-06-23T06:39:46Z</time>
      </trkpt>
      <trkpt lat="44.41936" lon="2.80359">
        <ele>595.02</ele>
        <time>2016-06-23T06:39:52Z</time>
      </trkpt>
      <trkpt lat="44.41937" lon="2.80359">
        <ele>594.96</ele>
        <time>2016-06-23T06:39:53Z</time>
      </trkpt>
      <trkpt lat="44.41939" lon="2.80359">
        <ele>594.91</ele>
        <time>2016-06-23T06:39:54Z</time>
      </trkpt>
      <trkpt lat="44.41941" lon="2.80359">
        <ele>594.85</ele>
        <time>2016-06-23T06:39:55Z</time>
      </trkpt>
      <trkpt lat="44.41942" lon="2.80359">
        <ele>594.8</ele>
        <time>2016-06-23T06:39:56Z</time>
      </trkpt>
      <trkpt lat="44.41944" lon="2.80359">
        <ele>594.74</ele>
        <time>2016-06-23T06:39:57Z</time>
      </trkpt>
      <trkpt lat="44.41946" lon="2.80359">
        <ele>594.69</ele>
        <time>2016-06-23T06:39:58Z</time>
      </trkpt>
      <trkpt lat="44.41947" lon="2.80359">
        <ele>594.62</ele>
        <time>2016-06-23T06:39:59Z</time>
      </trkpt>
      <trkpt lat="44.41949" lon="2.80359">
        <ele>594.56</ele>
        <time>2016-06-23T06:40:00Z</time>
      </trkpt>
      <trkpt lat="44.4195" lon="2.80359">
        <ele>594.48</ele>
        <time>2016-06-23T06:40:01Z</time>
      </trkpt>
      <trkpt lat="44.4197" lon="2.80362">
        <ele>593.91</ele>
        <time>2016-06-23T06:40:14Z</time>
      </trkpt>
      <trkpt lat="44.41982" lon="2.80372">
        <ele>593.58</ele>
        <time>2016-06-23T06:40:26Z</time>
      </trkpt>
      <trkpt lat="44.41984" lon="2.80379">
        <ele>593.09</ele>
        <time>2016-06-23T06:40:31Z</time>
      </trkpt>
      <trkpt lat="44.41985" lon="2.80381">
        <ele>593.03</ele>
        <time>2016-06-23T06:40:32Z</time>
      </trkpt>
      <trkpt lat="44.41985" lon="2.80382">
        <ele>592.98</ele>
        <time>2016-06-23T06:40:33Z</time>
      </trkpt>
      <trkpt lat="44.41986" lon="2.80384">
        <ele>592.94</ele>
        <time>2016-06-23T06:40:34Z</time>
      </trkpt>
      <trkpt lat="44.41986" lon="2.80386">
        <ele>592.91</ele>
        <time>2016-06-23T06:40:35Z</time>
      </trkpt>
      <trkpt lat="44.41986" lon="2.80387">
        <ele>592.87</ele>
        <time>2016-06-23T06:40:36Z</time>
      </trkpt>
      <trkpt lat="44.41986" lon="2.80389">
        <ele>592.85</ele>
        <time>2016-06-23T06:40:37Z</time>
      </trkpt>
      <trkpt lat="44.4199" lon="2.80407">
        <ele>592.57</ele>
        <time>2016-06-23T06:40:49Z</time>
      </trkpt>
      <trkpt lat="44.4199" lon="2.80409">
        <ele>592.55</ele>
        <time>2016-06-23T06:40:50Z</time>
      </trkpt>
      <trkpt lat="44.4199" lon="2.80411">
        <ele>592.53</ele>
        <time>2016-06-23T06:40:51Z</time>
      </trkpt>
      <trkpt lat="44.41991" lon="2.80413">
        <ele>592.51</ele>
        <time>2016-06-23T06:40:52Z</time>
      </trkpt>
      <trkpt lat="44.41991" lon="2.80414">
        <ele>592.5</ele>
        <time>2016-06-23T06:40:53Z</time>
      </trkpt>
      <trkpt lat="44.41994" lon="2.80426">
        <ele>592.31</ele>
        <time>2016-06-23T06:40:59Z</time>
      </trkpt>
      <trkpt lat="44.41994" lon="2.80428">
        <ele>592.26</ele>
        <time>2016-06-23T06:41:00Z</time>
      </trkpt>
      <trkpt lat="44.41995" lon="2.8043">
        <ele>592.19</ele>
        <time>2016-06-23T06:41:01Z</time>
      </trkpt>
      <trkpt lat="44.41995" lon="2.80432">
        <ele>592.14</ele>
        <time>2016-06-23T06:41:02Z</time>
      </trkpt>
      <trkpt lat="44.41996" lon="2.80434">
        <ele>592.1</ele>
        <time>2016-06-23T06:41:03Z</time>
      </trkpt>
      <trkpt lat="44.41996" lon="2.80435">
        <ele>592.11</ele>
        <time>2016-06-23T06:41:04Z</time>
      </trkpt>
      <trkpt lat="44.41997" lon="2.80437">
        <ele>592.13</ele>
        <time>2016-06-23T06:41:05Z</time>
      </trkpt>
      <trkpt lat="44.41997" lon="2.80439">
        <ele>592.15</ele>
        <time>2016-06-23T06:41:06Z</time>
      </trkpt>
      <trkpt lat="44.42005" lon="2.80465">
        <ele>592.11</ele>
        <time>2016-06-23T06:41:21Z</time>
      </trkpt>
      <trkpt lat="44.42016" lon="2.80492">
        <ele>590.53</ele>
        <time>2016-06-23T06:41:37Z</time>
      </trkpt>
      <trkpt lat="44.42017" lon="2.80516">
        <ele>589.8</ele>
        <time>2016-06-23T06:41:50Z</time>
      </trkpt>
      <trkpt lat="44.42009" lon="2.8054">
        <ele>588.96</ele>
        <time>2016-06-23T06:42:06Z</time>
      </trkpt>
      <trkpt lat="44.42006" lon="2.80546">
        <ele>588.83</ele>
        <time>2016-06-23T06:42:11Z</time>
      </trkpt>
      <trkpt lat="44.42006" lon="2.80548">
        <ele>588.79</ele>
        <time>2016-06-23T06:42:12Z</time>
      </trkpt>
      <trkpt lat="44.42005" lon="2.8055">
        <ele>588.75</ele>
        <time>2016-06-23T06:42:13Z</time>
      </trkpt>
      <trkpt lat="44.41998" lon="2.80572">
        <ele>588.67</ele>
        <time>2016-06-23T06:42:27Z</time>
      </trkpt>
      <trkpt lat="44.41993" lon="2.80593">
        <ele>588.65</ele>
        <time>2016-06-23T06:42:40Z</time>
      </trkpt>
      <trkpt lat="44.41989" lon="2.80605">
        <ele>588.74</ele>
        <time>2016-06-23T06:42:47Z</time>
      </trkpt>
      <trkpt lat="44.41981" lon="2.80633">
        <ele>588.61</ele>
        <time>2016-06-23T06:43:03Z</time>
      </trkpt>
      <trkpt lat="44.41976" lon="2.8066">
        <ele>588.3</ele>
        <time>2016-06-23T06:43:18Z</time>
      </trkpt>
      <trkpt lat="44.4197" lon="2.80687">
        <ele>588.44</ele>
        <time>2016-06-23T06:43:32Z</time>
      </trkpt>
      <trkpt lat="44.4197" lon="2.80689">
        <ele>588.47</ele>
        <time>2016-06-23T06:43:33Z</time>
      </trkpt>
      <trkpt lat="44.4197" lon="2.80691">
        <ele>588.49</ele>
        <time>2016-06-23T06:43:34Z</time>
      </trkpt>
      <trkpt lat="44.41969" lon="2.80693">
        <ele>588.5</ele>
        <time>2016-06-23T06:43:35Z</time>
      </trkpt>
      <trkpt lat="44.41963" lon="2.80716">
        <ele>588.88</ele>
        <time>2016-06-23T06:43:47Z</time>
      </trkpt>
      <trkpt lat="44.41963" lon="2.80718">
        <ele>588.9</ele>
        <time>2016-06-23T06:43:48Z</time>
      </trkpt>
      <trkpt lat="44.41962" lon="2.80719">
        <ele>588.93</ele>
        <time>2016-06-23T06:43:49Z</time>
      </trkpt>
      <trkpt lat="44.41957" lon="2.80749">
        <ele>589.26</ele>
        <time>2016-06-23T06:44:06Z</time>
      </trkpt>
      <trkpt lat="44.41954" lon="2.80771">
        <ele>589.65</ele>
        <time>2016-06-23T06:44:19Z</time>
      </trkpt>
      <trkpt lat="44.41955" lon="2.80774">
        <ele>589.63</ele>
        <time>2016-06-23T06:44:21Z</time>
      </trkpt>
      <trkpt lat="44.41955" lon="2.80785">
        <ele>589.81</ele>
        <time>2016-06-23T06:44:29Z</time>
      </trkpt>
      <trkpt lat="44.41949" lon="2.80806">
        <ele>589.95</ele>
        <time>2016-06-23T06:44:43Z</time>
      </trkpt>
      <trkpt lat="44.41945" lon="2.8082">
        <ele>589.64</ele>
        <time>2016-06-23T06:44:53Z</time>
      </trkpt>
      <trkpt lat="44.41944" lon="2.80822">
        <ele>589.62</ele>
        <time>2016-06-23T06:44:54Z</time>
      </trkpt>
      <trkpt lat="44.41942" lon="2.80831">
        <ele>589.49</ele>
        <time>2016-06-23T06:45:00Z</time>
      </trkpt>
      <trkpt lat="44.41942" lon="2.80833">
        <ele>589.45</ele>
        <time>2016-06-23T06:45:01Z</time>
      </trkpt>
      <trkpt lat="44.41942" lon="2.80834">
        <ele>589.41</ele>
        <time>2016-06-23T06:45:02Z</time>
      </trkpt>
      <trkpt lat="44.41941" lon="2.80841">
        <ele>589.16</ele>
        <time>2016-06-23T06:45:06Z</time>
      </trkpt>
      <trkpt lat="44.41941" lon="2.80843">
        <ele>589.08</ele>
        <time>2016-06-23T06:45:07Z</time>
      </trkpt>
      <trkpt lat="44.4194" lon="2.80849">
        <ele>588.84</ele>
        <time>2016-06-23T06:45:10Z</time>
      </trkpt>
      <trkpt lat="44.4194" lon="2.80851">
        <ele>588.75</ele>
        <time>2016-06-23T06:45:11Z</time>
      </trkpt>
      <trkpt lat="44.41934" lon="2.80877">
        <ele>587.72</ele>
        <time>2016-06-23T06:45:25Z</time>
      </trkpt>
      <trkpt lat="44.41926" lon="2.80895">
        <ele>586.83</ele>
        <time>2016-06-23T06:45:39Z</time>
      </trkpt>
      <trkpt lat="44.41933" lon="2.80897">
        <ele>586.4</ele>
        <time>2016-06-23T06:45:50Z</time>
      </trkpt>
      <trkpt lat="44.41936" lon="2.80899">
        <ele>586.54</ele>
        <time>2016-06-23T06:46:07Z</time>
      </trkpt>
      <trkpt lat="44.41936" lon="2.809">
        <ele>585.24</ele>
        <time>2016-06-23T06:46:22Z</time>
      </trkpt>
      <trkpt lat="44.41937" lon="2.809">
        <ele>585.69</ele>
        <time>2016-06-23T06:46:51Z</time>
      </trkpt>
      <trkpt lat="44.41936" lon="2.80898">
        <ele>585.52</ele>
        <time>2016-06-23T06:47:26Z</time>
      </trkpt>
      <trkpt lat="44.41935" lon="2.80898">
        <ele>585.72</ele>
        <time>2016-06-23T06:47:56Z</time>
      </trkpt>
      <trkpt lat="44.41934" lon="2.80898">
        <ele>585.44</ele>
        <time>2016-06-23T06:48:24Z</time>
      </trkpt>
      <trkpt lat="44.41934" lon="2.80899">
        <ele>585.63</ele>
        <time>2016-06-23T06:49:03Z</time>
      </trkpt>
      <trkpt lat="44.41938" lon="2.809">
        <ele>585.65</ele>
        <time>2016-06-23T06:49:32Z</time>
      </trkpt>
      <trkpt lat="44.41937" lon="2.809">
        <ele>586.82</ele>
        <time>2016-06-23T06:49:57Z</time>
      </trkpt>
      <trkpt lat="44.41937" lon="2.80902">
        <ele>586.79</ele>
        <time>2016-06-23T06:50:22Z</time>
      </trkpt>
      <trkpt lat="44.41937" lon="2.80902">
        <ele>586.73</ele>
        <time>2016-06-23T06:50:51Z</time>
      </trkpt>
      <trkpt lat="44.41936" lon="2.80902">
        <ele>586.79</ele>
        <time>2016-06-23T06:51:28Z</time>
      </trkpt>
      <trkpt lat="44.41935" lon="2.80901">
        <ele>586.88</ele>
        <time>2016-06-23T06:51:48Z</time>
      </trkpt>
      <trkpt lat="44.41934" lon="2.80902">
        <ele>586.86</ele>
        <time>2016-06-23T06:51:49Z</time>
      </trkpt>
      <trkpt lat="44.41933" lon="2.80902">
        <ele>586.85</ele>
        <time>2016-06-23T06:51:50Z</time>
      </trkpt>
      <trkpt lat="44.41928" lon="2.80904">
        <ele>586.8</ele>
        <time>2016-06-23T06:51:57Z</time>
      </trkpt>
      <trkpt lat="44.41911" lon="2.80914">
        <ele>586.97</ele>
        <time>2016-06-23T06:52:12Z</time>
      </trkpt>
      <trkpt lat="44.41894" lon="2.80925">
        <ele>586.82</ele>
        <time>2016-06-23T06:52:27Z</time>
      </trkpt>
      <trkpt lat="44.41894" lon="2.80927">
        <ele>586.87</ele>
        <time>2016-06-23T06:52:28Z</time>
      </trkpt>
      <trkpt lat="44.41894" lon="2.80929">
        <ele>586.92</ele>
        <time>2016-06-23T06:52:29Z</time>
      </trkpt>
      <trkpt lat="44.41894" lon="2.8093">
        <ele>586.99</ele>
        <time>2016-06-23T06:52:30Z</time>
      </trkpt>
      <trkpt lat="44.41894" lon="2.80932">
        <ele>587.05</ele>
        <time>2016-06-23T06:52:31Z</time>
      </trkpt>
      <trkpt lat="44.41895" lon="2.80933">
        <ele>587.12</ele>
        <time>2016-06-23T06:52:32Z</time>
      </trkpt>
      <trkpt lat="44.41895" lon="2.80936">
        <ele>587.22</ele>
        <time>2016-06-23T06:52:34Z</time>
      </trkpt>
      <trkpt lat="44.41896" lon="2.80937">
        <ele>587.26</ele>
        <time>2016-06-23T06:52:35Z</time>
      </trkpt>
      <trkpt lat="44.41897" lon="2.80943">
        <ele>587.4</ele>
        <time>2016-06-23T06:52:40Z</time>
      </trkpt>
      <trkpt lat="44.41897" lon="2.80944">
        <ele>587.43</ele>
        <time>2016-06-23T06:52:41Z</time>
      </trkpt>
      <trkpt lat="44.41898" lon="2.80946">
        <ele>587.46</ele>
        <time>2016-06-23T06:52:42Z</time>
      </trkpt>
      <trkpt lat="44.41899" lon="2.80951">
        <ele>587.82</ele>
        <time>2016-06-23T06:52:46Z</time>
      </trkpt>
      <trkpt lat="44.41899" lon="2.80952">
        <ele>587.88</ele>
        <time>2016-06-23T06:52:47Z</time>
      </trkpt>
      <trkpt lat="44.419" lon="2.80954">
        <ele>587.96</ele>
        <time>2016-06-23T06:52:48Z</time>
      </trkpt>
      <trkpt lat="44.41901" lon="2.80959">
        <ele>588.29</ele>
        <time>2016-06-23T06:52:51Z</time>
      </trkpt>
      <trkpt lat="44.41903" lon="2.80965">
        <ele>588.55</ele>
        <time>2016-06-23T06:52:54Z</time>
      </trkpt>
      <trkpt lat="44.41904" lon="2.80966">
        <ele>588.62</ele>
        <time>2016-06-23T06:52:55Z</time>
      </trkpt>
      <trkpt lat="44.41905" lon="2.80968">
        <ele>588.81</ele>
        <time>2016-06-23T06:52:57Z</time>
      </trkpt>
      <trkpt lat="44.41905" lon="2.8097">
        <ele>588.92</ele>
        <time>2016-06-23T06:52:58Z</time>
      </trkpt>
      <trkpt lat="44.419" lon="2.80985">
        <ele>590.48</ele>
        <time>2016-06-23T06:53:10Z</time>
      </trkpt>
      <trkpt lat="44.41885" lon="2.80998">
        <ele>591.99</ele>
        <time>2016-06-23T06:53:25Z</time>
      </trkpt>
      <trkpt lat="44.41884" lon="2.80998">
        <ele>592.11</ele>
        <time>2016-06-23T06:53:26Z</time>
      </trkpt>
      <trkpt lat="44.41883" lon="2.80999">
        <ele>592.23</ele>
        <time>2016-06-23T06:53:27Z</time>
      </trkpt>
      <trkpt lat="44.41882" lon="2.80999">
        <ele>592.34</ele>
        <time>2016-06-23T06:53:28Z</time>
      </trkpt>
      <trkpt lat="44.41878" lon="2.81">
        <ele>592.59</ele>
        <time>2016-06-23T06:53:31Z</time>
      </trkpt>
      <trkpt lat="44.41877" lon="2.81">
        <ele>592.63</ele>
        <time>2016-06-23T06:53:32Z</time>
      </trkpt>
      <trkpt lat="44.41875" lon="2.81">
        <ele>592.69</ele>
        <time>2016-06-23T06:53:33Z</time>
      </trkpt>
      <trkpt lat="44.41857" lon="2.8101">
        <ele>594.25</ele>
        <time>2016-06-23T06:53:48Z</time>
      </trkpt>
      <trkpt lat="44.4184" lon="2.81018">
        <ele>595.33</ele>
        <time>2016-06-23T06:54:01Z</time>
      </trkpt>
      <trkpt lat="44.41826" lon="2.81029">
        <ele>596.83</ele>
        <time>2016-06-23T06:54:15Z</time>
      </trkpt>
      <trkpt lat="44.4181" lon="2.81043">
        <ele>598.54</ele>
        <time>2016-06-23T06:54:31Z</time>
      </trkpt>
      <trkpt lat="44.41797" lon="2.81059">
        <ele>599.95</ele>
        <time>2016-06-23T06:54:45Z</time>
      </trkpt>
      <trkpt lat="44.41793" lon="2.81062">
        <ele>600.1</ele>
        <time>2016-06-23T06:54:48Z</time>
      </trkpt>
      <trkpt lat="44.41791" lon="2.81064">
        <ele>600.13</ele>
        <time>2016-06-23T06:54:49Z</time>
      </trkpt>
      <trkpt lat="44.4179" lon="2.81066">
        <ele>600.18</ele>
        <time>2016-06-23T06:54:50Z</time>
      </trkpt>
      <trkpt lat="44.4179" lon="2.81067">
        <ele>600.2</ele>
        <time>2016-06-23T06:54:51Z</time>
      </trkpt>
      <trkpt lat="44.41789" lon="2.81069">
        <ele>600.21</ele>
        <time>2016-06-23T06:54:52Z</time>
      </trkpt>
      <trkpt lat="44.41787" lon="2.8107">
        <ele>600.23</ele>
        <time>2016-06-23T06:54:53Z</time>
      </trkpt>
      <trkpt lat="44.41786" lon="2.81072">
        <ele>600.26</ele>
        <time>2016-06-23T06:54:54Z</time>
      </trkpt>
      <trkpt lat="44.41785" lon="2.81073">
        <ele>600.29</ele>
        <time>2016-06-23T06:54:55Z</time>
      </trkpt>
      <trkpt lat="44.41784" lon="2.81075">
        <ele>600.31</ele>
        <time>2016-06-23T06:54:56Z</time>
      </trkpt>
      <trkpt lat="44.41783" lon="2.81076">
        <ele>600.33</ele>
        <time>2016-06-23T06:54:57Z</time>
      </trkpt>
      <trkpt lat="44.41782" lon="2.81077">
        <ele>600.36</ele>
        <time>2016-06-23T06:54:58Z</time>
      </trkpt>
      <trkpt lat="44.41769" lon="2.81096">
        <ele>600.9</ele>
        <time>2016-06-23T06:55:12Z</time>
      </trkpt>
      <trkpt lat="44.41753" lon="2.81115">
        <ele>601.41</ele>
        <time>2016-06-23T06:55:28Z</time>
      </trkpt>
      <trkpt lat="44.4174" lon="2.81134">
        <ele>602.17</ele>
        <time>2016-06-23T06:55:42Z</time>
      </trkpt>
      <trkpt lat="44.41728" lon="2.81153">
        <ele>602.28</ele>
        <time>2016-06-23T06:55:56Z</time>
      </trkpt>
      <trkpt lat="44.41716" lon="2.81176">
        <ele>603.42</ele>
        <time>2016-06-23T06:56:11Z</time>
      </trkpt>
      <trkpt lat="44.41715" lon="2.81179">
        <ele>603.61</ele>
        <time>2016-06-23T06:56:13Z</time>
      </trkpt>
      <trkpt lat="44.41715" lon="2.81182">
        <ele>603.74</ele>
        <time>2016-06-23T06:56:15Z</time>
      </trkpt>
      <trkpt lat="44.41703" lon="2.81205">
        <ele>604.57</ele>
        <time>2016-06-23T06:56:30Z</time>
      </trkpt>
      <trkpt lat="44.41692" lon="2.8123">
        <ele>605.01</ele>
        <time>2016-06-23T06:56:46Z</time>
      </trkpt>
      <trkpt lat="44.41689" lon="2.81237">
        <ele>605.04</ele>
        <time>2016-06-23T06:56:51Z</time>
      </trkpt>
      <trkpt lat="44.41687" lon="2.81238">
        <ele>605.06</ele>
        <time>2016-06-23T06:56:52Z</time>
      </trkpt>
      <trkpt lat="44.41686" lon="2.81239">
        <ele>605.06</ele>
        <time>2016-06-23T06:56:53Z</time>
      </trkpt>
      <trkpt lat="44.41685" lon="2.8124">
        <ele>605.11</ele>
        <time>2016-06-23T06:56:54Z</time>
      </trkpt>
      <trkpt lat="44.41684" lon="2.81241">
        <ele>605.15</ele>
        <time>2016-06-23T06:56:55Z</time>
      </trkpt>
      <trkpt lat="44.41684" lon="2.81243">
        <ele>605.17</ele>
        <time>2016-06-23T06:56:56Z</time>
      </trkpt>
      <trkpt lat="44.41683" lon="2.81246">
        <ele>605.25</ele>
        <time>2016-06-23T06:56:58Z</time>
      </trkpt>
      <trkpt lat="44.41682" lon="2.81248">
        <ele>605.28</ele>
        <time>2016-06-23T06:56:59Z</time>
      </trkpt>
      <trkpt lat="44.41681" lon="2.81249">
        <ele>605.31</ele>
        <time>2016-06-23T06:57:00Z</time>
      </trkpt>
      <trkpt lat="44.41681" lon="2.81251">
        <ele>605.34</ele>
        <time>2016-06-23T06:57:01Z</time>
      </trkpt>
      <trkpt lat="44.4168" lon="2.81253">
        <ele>605.39</ele>
        <time>2016-06-23T06:57:02Z</time>
      </trkpt>
      <trkpt lat="44.4168" lon="2.81255">
        <ele>605.43</ele>
        <time>2016-06-23T06:57:03Z</time>
      </trkpt>
      <trkpt lat="44.41679" lon="2.81256">
        <ele>605.46</ele>
        <time>2016-06-23T06:57:04Z</time>
      </trkpt>
      <trkpt lat="44.41679" lon="2.81258">
        <ele>605.51</ele>
        <time>2016-06-23T06:57:05Z</time>
      </trkpt>
      <trkpt lat="44.41676" lon="2.81269">
        <ele>605.59</ele>
        <time>2016-06-23T06:57:11Z</time>
      </trkpt>
      <trkpt lat="44.41675" lon="2.8127">
        <ele>605.58</ele>
        <time>2016-06-23T06:57:12Z</time>
      </trkpt>
      <trkpt lat="44.41674" lon="2.81272">
        <ele>605.59</ele>
        <time>2016-06-23T06:57:13Z</time>
      </trkpt>
      <trkpt lat="44.41665" lon="2.81295">
        <ele>606.49</ele>
        <time>2016-06-23T06:57:27Z</time>
      </trkpt>
      <trkpt lat="44.41659" lon="2.81317">
        <ele>607.4</ele>
        <time>2016-06-23T06:57:40Z</time>
      </trkpt>
      <trkpt lat="44.41658" lon="2.81324">
        <ele>607.69</ele>
        <time>2016-06-23T06:57:44Z</time>
      </trkpt>
      <trkpt lat="44.41658" lon="2.81326">
        <ele>607.74</ele>
        <time>2016-06-23T06:57:45Z</time>
      </trkpt>
      <trkpt lat="44.41657" lon="2.81327">
        <ele>607.78</ele>
        <time>2016-06-23T06:57:46Z</time>
      </trkpt>
      <trkpt lat="44.4165" lon="2.81342">
        <ele>608.46</ele>
        <time>2016-06-23T06:57:56Z</time>
      </trkpt>
      <trkpt lat="44.4165" lon="2.81344">
        <ele>608.56</ele>
        <time>2016-06-23T06:57:57Z</time>
      </trkpt>
      <trkpt lat="44.4165" lon="2.81345">
        <ele>608.68</ele>
        <time>2016-06-23T06:57:58Z</time>
      </trkpt>
      <trkpt lat="44.41649" lon="2.81347">
        <ele>608.79</ele>
        <time>2016-06-23T06:57:59Z</time>
      </trkpt>
      <trkpt lat="44.41649" lon="2.81348">
        <ele>608.89</ele>
        <time>2016-06-23T06:58:00Z</time>
      </trkpt>
      <trkpt lat="44.41642" lon="2.81369">
        <ele>610.04</ele>
        <time>2016-06-23T06:58:14Z</time>
      </trkpt>
      <trkpt lat="44.41641" lon="2.81371">
        <ele>610.09</ele>
        <time>2016-06-23T06:58:15Z</time>
      </trkpt>
      <trkpt lat="44.41641" lon="2.81372">
        <ele>610.16</ele>
        <time>2016-06-23T06:58:16Z</time>
      </trkpt>
      <trkpt lat="44.41641" lon="2.81374">
        <ele>610.22</ele>
        <time>2016-06-23T06:58:17Z</time>
      </trkpt>
      <trkpt lat="44.4164" lon="2.81375">
        <ele>610.31</ele>
        <time>2016-06-23T06:58:18Z</time>
      </trkpt>
      <trkpt lat="44.41639" lon="2.81377">
        <ele>610.39</ele>
        <time>2016-06-23T06:58:19Z</time>
      </trkpt>
      <trkpt lat="44.41639" lon="2.81378">
        <ele>610.47</ele>
        <time>2016-06-23T06:58:20Z</time>
      </trkpt>
      <trkpt lat="44.41632" lon="2.81396">
        <ele>611.78</ele>
        <time>2016-06-23T06:58:32Z</time>
      </trkpt>
      <trkpt lat="44.41631" lon="2.81399">
        <ele>612.05</ele>
        <time>2016-06-23T06:58:34Z</time>
      </trkpt>
      <trkpt lat="44.41631" lon="2.814">
        <ele>612.15</ele>
        <time>2016-06-23T06:58:35Z</time>
      </trkpt>
      <trkpt lat="44.41623" lon="2.81419">
        <ele>614.22</ele>
        <time>2016-06-23T06:58:49Z</time>
      </trkpt>
      <trkpt lat="44.41616" lon="2.81437">
        <ele>615.75</ele>
        <time>2016-06-23T06:59:02Z</time>
      </trkpt>
      <trkpt lat="44.41607" lon="2.81452">
        <ele>617.2</ele>
        <time>2016-06-23T06:59:16Z</time>
      </trkpt>
      <trkpt lat="44.41606" lon="2.81453">
        <ele>617.35</ele>
        <time>2016-06-23T06:59:17Z</time>
      </trkpt>
      <trkpt lat="44.416" lon="2.81471">
        <ele>619.24</ele>
        <time>2016-06-23T06:59:32Z</time>
      </trkpt>
      <trkpt lat="44.41598" lon="2.8148">
        <ele>619.89</ele>
        <time>2016-06-23T06:59:38Z</time>
      </trkpt>
      <trkpt lat="44.4159" lon="2.81498">
        <ele>621.67</ele>
        <time>2016-06-23T06:59:52Z</time>
      </trkpt>
      <trkpt lat="44.41581" lon="2.8152">
        <ele>623.48</ele>
        <time>2016-06-23T07:00:08Z</time>
      </trkpt>
      <trkpt lat="44.41574" lon="2.81534">
        <ele>624.25</ele>
        <time>2016-06-23T07:00:17Z</time>
      </trkpt>
      <trkpt lat="44.41572" lon="2.81536">
        <ele>624.32</ele>
        <time>2016-06-23T07:00:18Z</time>
      </trkpt>
      <trkpt lat="44.41562" lon="2.81554">
        <ele>624.87</ele>
        <time>2016-06-23T07:00:33Z</time>
      </trkpt>
      <trkpt lat="44.41544" lon="2.81572">
        <ele>624.55</ele>
        <time>2016-06-23T07:00:52Z</time>
      </trkpt>
      <trkpt lat="44.41531" lon="2.8159">
        <ele>624.54</ele>
        <time>2016-06-23T07:01:07Z</time>
      </trkpt>
      <trkpt lat="44.41512" lon="2.81616">
        <ele>624.57</ele>
        <time>2016-06-23T07:01:25Z</time>
      </trkpt>
      <trkpt lat="44.41501" lon="2.81631">
        <ele>625.01</ele>
        <time>2016-06-23T07:01:37Z</time>
      </trkpt>
      <trkpt lat="44.41499" lon="2.81633">
        <ele>625.08</ele>
        <time>2016-06-23T07:01:39Z</time>
      </trkpt>
      <trkpt lat="44.41497" lon="2.81636">
        <ele>625.15</ele>
        <time>2016-06-23T07:01:41Z</time>
      </trkpt>
      <trkpt lat="44.41493" lon="2.81652">
        <ele>624.94</ele>
        <time>2016-06-23T07:01:50Z</time>
      </trkpt>
      <trkpt lat="44.41495" lon="2.81653">
        <ele>624.79</ele>
        <time>2016-06-23T07:02:05Z</time>
      </trkpt>
      <trkpt lat="44.41503" lon="2.81658">
        <ele>624.49</ele>
        <time>2016-06-23T07:02:11Z</time>
      </trkpt>
      <trkpt lat="44.41508" lon="2.81663">
        <ele>623.34</ele>
        <time>2016-06-23T07:02:14Z</time>
      </trkpt>
      <trkpt lat="44.4151" lon="2.81663">
        <ele>622.97</ele>
        <time>2016-06-23T07:02:15Z</time>
      </trkpt>
      <trkpt lat="44.41517" lon="2.81666">
        <ele>621.46</ele>
        <time>2016-06-23T07:02:22Z</time>
      </trkpt>
      <trkpt lat="44.41519" lon="2.81667">
        <ele>621.35</ele>
        <time>2016-06-23T07:02:23Z</time>
      </trkpt>
      <trkpt lat="44.41534" lon="2.81679">
        <ele>621.41</ele>
        <time>2016-06-23T07:02:36Z</time>
      </trkpt>
      <trkpt lat="44.4155" lon="2.81688">
        <ele>621.19</ele>
        <time>2016-06-23T07:02:48Z</time>
      </trkpt>
      <trkpt lat="44.4156" lon="2.81696">
        <ele>621.21</ele>
        <time>2016-06-23T07:02:57Z</time>
      </trkpt>
      <trkpt lat="44.41569" lon="2.81704">
        <ele>621.49</ele>
        <time>2016-06-23T07:03:06Z</time>
      </trkpt>
      <trkpt lat="44.4157" lon="2.81705">
        <ele>621.49</ele>
        <time>2016-06-23T07:03:07Z</time>
      </trkpt>
      <trkpt lat="44.41572" lon="2.81706">
        <ele>621.49</ele>
        <time>2016-06-23T07:03:08Z</time>
      </trkpt>
      <trkpt lat="44.41573" lon="2.81707">
        <ele>621.5</ele>
        <time>2016-06-23T07:03:09Z</time>
      </trkpt>
      <trkpt lat="44.41574" lon="2.81708">
        <ele>621.51</ele>
        <time>2016-06-23T07:03:10Z</time>
      </trkpt>
      <trkpt lat="44.41575" lon="2.81709">
        <ele>621.52</ele>
        <time>2016-06-23T07:03:11Z</time>
      </trkpt>
      <trkpt lat="44.41585" lon="2.81718">
        <ele>621.56</ele>
        <time>2016-06-23T07:03:19Z</time>
      </trkpt>
      <trkpt lat="44.41586" lon="2.81718">
        <ele>621.56</ele>
        <time>2016-06-23T07:03:20Z</time>
      </trkpt>
      <trkpt lat="44.41587" lon="2.81719">
        <ele>621.58</ele>
        <time>2016-06-23T07:03:21Z</time>
      </trkpt>
      <trkpt lat="44.41588" lon="2.8172">
        <ele>621.6</ele>
        <time>2016-06-23T07:03:22Z</time>
      </trkpt>
      <trkpt lat="44.41599" lon="2.81729">
        <ele>622.04</ele>
        <time>2016-06-23T07:03:32Z</time>
      </trkpt>
      <trkpt lat="44.41616" lon="2.81746">
        <ele>624.03</ele>
        <time>2016-06-23T07:03:49Z</time>
      </trkpt>
      <trkpt lat="44.41625" lon="2.81754">
        <ele>624.68</ele>
        <time>2016-06-23T07:03:58Z</time>
      </trkpt>
      <trkpt lat="44.41626" lon="2.81755">
        <ele>624.72</ele>
        <time>2016-06-23T07:03:59Z</time>
      </trkpt>
      <trkpt lat="44.4164" lon="2.81763">
        <ele>625.61</ele>
        <time>2016-06-23T07:04:12Z</time>
      </trkpt>
      <trkpt lat="44.41658" lon="2.8177">
        <ele>626.65</ele>
        <time>2016-06-23T07:04:26Z</time>
      </trkpt>
      <trkpt lat="44.41672" lon="2.81781">
        <ele>627.46</ele>
        <time>2016-06-23T07:04:39Z</time>
      </trkpt>
      <trkpt lat="44.41677" lon="2.81798">
        <ele>628.23</ele>
        <time>2016-06-23T07:04:49Z</time>
      </trkpt>
      <trkpt lat="44.41678" lon="2.81799">
        <ele>628.31</ele>
        <time>2016-06-23T07:04:50Z</time>
      </trkpt>
      <trkpt lat="44.41678" lon="2.818">
        <ele>628.37</ele>
        <time>2016-06-23T07:04:51Z</time>
      </trkpt>
      <trkpt lat="44.41679" lon="2.81801">
        <ele>628.45</ele>
        <time>2016-06-23T07:04:52Z</time>
      </trkpt>
      <trkpt lat="44.41679" lon="2.81806">
        <ele>628.6</ele>
        <time>2016-06-23T07:05:01Z</time>
      </trkpt>
      <trkpt lat="44.41679" lon="2.81808">
        <ele>628.59</ele>
        <time>2016-06-23T07:05:02Z</time>
      </trkpt>
      <trkpt lat="44.41678" lon="2.8181">
        <ele>628.59</ele>
        <time>2016-06-23T07:05:03Z</time>
      </trkpt>
      <trkpt lat="44.41678" lon="2.81812">
        <ele>628.59</ele>
        <time>2016-06-23T07:05:04Z</time>
      </trkpt>
      <trkpt lat="44.41677" lon="2.81813">
        <ele>628.61</ele>
        <time>2016-06-23T07:05:05Z</time>
      </trkpt>
      <trkpt lat="44.41677" lon="2.81815">
        <ele>628.62</ele>
        <time>2016-06-23T07:05:06Z</time>
      </trkpt>
      <trkpt lat="44.41677" lon="2.81817">
        <ele>628.62</ele>
        <time>2016-06-23T07:05:07Z</time>
      </trkpt>
      <trkpt lat="44.41677" lon="2.81818">
        <ele>628.63</ele>
        <time>2016-06-23T07:05:08Z</time>
      </trkpt>
      <trkpt lat="44.41676" lon="2.8182">
        <ele>628.65</ele>
        <time>2016-06-23T07:05:09Z</time>
      </trkpt>
      <trkpt lat="44.41669" lon="2.81845">
        <ele>628.73</ele>
        <time>2016-06-23T07:05:24Z</time>
      </trkpt>
      <trkpt lat="44.41661" lon="2.81868">
        <ele>628.85</ele>
        <time>2016-06-23T07:05:38Z</time>
      </trkpt>
      <trkpt lat="44.41661" lon="2.81869">
        <ele>628.87</ele>
        <time>2016-06-23T07:05:39Z</time>
      </trkpt>
      <trkpt lat="44.4166" lon="2.8187">
        <ele>628.89</ele>
        <time>2016-06-23T07:05:40Z</time>
      </trkpt>
      <trkpt lat="44.41659" lon="2.81872">
        <ele>628.91</ele>
        <time>2016-06-23T07:05:41Z</time>
      </trkpt>
      <trkpt lat="44.41658" lon="2.81873">
        <ele>628.92</ele>
        <time>2016-06-23T07:05:42Z</time>
      </trkpt>
      <trkpt lat="44.41657" lon="2.81874">
        <ele>628.92</ele>
        <time>2016-06-23T07:05:43Z</time>
      </trkpt>
      <trkpt lat="44.41656" lon="2.81875">
        <ele>628.89</ele>
        <time>2016-06-23T07:05:44Z</time>
      </trkpt>
      <trkpt lat="44.41655" lon="2.81876">
        <ele>628.86</ele>
        <time>2016-06-23T07:05:45Z</time>
      </trkpt>
      <trkpt lat="44.41654" lon="2.81877">
        <ele>628.82</ele>
        <time>2016-06-23T07:05:46Z</time>
      </trkpt>
      <trkpt lat="44.41653" lon="2.81878">
        <ele>628.78</ele>
        <time>2016-06-23T07:05:47Z</time>
      </trkpt>
      <trkpt lat="44.41652" lon="2.81878">
        <ele>628.74</ele>
        <time>2016-06-23T07:05:48Z</time>
      </trkpt>
      <trkpt lat="44.41652" lon="2.8188">
        <ele>628.71</ele>
        <time>2016-06-23T07:05:49Z</time>
      </trkpt>
      <trkpt lat="44.41639" lon="2.8189">
        <ele>627.92</ele>
        <time>2016-06-23T07:06:02Z</time>
      </trkpt>
      <trkpt lat="44.41629" lon="2.81906">
        <ele>627.55</ele>
        <time>2016-06-23T07:06:16Z</time>
      </trkpt>
      <trkpt lat="44.41617" lon="2.81928">
        <ele>628.21</ele>
        <time>2016-06-23T07:06:31Z</time>
      </trkpt>
      <trkpt lat="44.41611" lon="2.81945">
        <ele>627.98</ele>
        <time>2016-06-23T07:06:43Z</time>
      </trkpt>
      <trkpt lat="44.4161" lon="2.81949">
        <ele>628.73</ele>
        <time>2016-06-23T07:06:49Z</time>
      </trkpt>
      <trkpt lat="44.4161" lon="2.8195">
        <ele>628.8</ele>
        <time>2016-06-23T07:06:50Z</time>
      </trkpt>
      <trkpt lat="44.4161" lon="2.81952">
        <ele>628.87</ele>
        <time>2016-06-23T07:06:51Z</time>
      </trkpt>
      <trkpt lat="44.4161" lon="2.81954">
        <ele>628.93</ele>
        <time>2016-06-23T07:06:52Z</time>
      </trkpt>
      <trkpt lat="44.4161" lon="2.81956">
        <ele>628.99</ele>
        <time>2016-06-23T07:06:53Z</time>
      </trkpt>
      <trkpt lat="44.41611" lon="2.81958">
        <ele>629.01</ele>
        <time>2016-06-23T07:06:54Z</time>
      </trkpt>
      <trkpt lat="44.41611" lon="2.81959">
        <ele>629.02</ele>
        <time>2016-06-23T07:06:55Z</time>
      </trkpt>
      <trkpt lat="44.41611" lon="2.81964">
        <ele>629.06</ele>
        <time>2016-06-23T07:06:58Z</time>
      </trkpt>
      <trkpt lat="44.41603" lon="2.81991">
        <ele>628.83</ele>
        <time>2016-06-23T07:07:13Z</time>
      </trkpt>
      <trkpt lat="44.41601" lon="2.82019">
        <ele>628.66</ele>
        <time>2016-06-23T07:07:28Z</time>
      </trkpt>
      <trkpt lat="44.41604" lon="2.8205">
        <ele>628.87</ele>
        <time>2016-06-23T07:07:44Z</time>
      </trkpt>
      <trkpt lat="44.41613" lon="2.82074">
        <ele>627.9</ele>
        <time>2016-06-23T07:07:58Z</time>
      </trkpt>
      <trkpt lat="44.41638" lon="2.82086">
        <ele>627.93</ele>
        <time>2016-06-23T07:08:18Z</time>
      </trkpt>
      <trkpt lat="44.41658" lon="2.82095">
        <ele>627.75</ele>
        <time>2016-06-23T07:08:33Z</time>
      </trkpt>
      <trkpt lat="44.4168" lon="2.82102">
        <ele>627.66</ele>
        <time>2016-06-23T07:08:51Z</time>
      </trkpt>
      <trkpt lat="44.417" lon="2.82104">
        <ele>627.8</ele>
        <time>2016-06-23T07:09:06Z</time>
      </trkpt>
      <trkpt lat="44.41719" lon="2.82105">
        <ele>628.41</ele>
        <time>2016-06-23T07:09:21Z</time>
      </trkpt>
      <trkpt lat="44.41738" lon="2.82109">
        <ele>629.68</ele>
        <time>2016-06-23T07:09:35Z</time>
      </trkpt>
      <trkpt lat="44.41754" lon="2.82114">
        <ele>630.73</ele>
        <time>2016-06-23T07:09:48Z</time>
      </trkpt>
      <trkpt lat="44.41773" lon="2.82119">
        <ele>631.37</ele>
        <time>2016-06-23T07:10:03Z</time>
      </trkpt>
      <trkpt lat="44.41785" lon="2.82123">
        <ele>631.37</ele>
        <time>2016-06-23T07:10:13Z</time>
      </trkpt>
      <trkpt lat="44.41787" lon="2.82123">
        <ele>631.46</ele>
        <time>2016-06-23T07:10:14Z</time>
      </trkpt>
      <trkpt lat="44.41788" lon="2.82124">
        <ele>631.54</ele>
        <time>2016-06-23T07:10:15Z</time>
      </trkpt>
      <trkpt lat="44.41789" lon="2.82124">
        <ele>631.63</ele>
        <time>2016-06-23T07:10:16Z</time>
      </trkpt>
      <trkpt lat="44.4179" lon="2.82125">
        <ele>631.71</ele>
        <time>2016-06-23T07:10:17Z</time>
      </trkpt>
      <trkpt lat="44.41792" lon="2.82125">
        <ele>631.81</ele>
        <time>2016-06-23T07:10:18Z</time>
      </trkpt>
      <trkpt lat="44.41809" lon="2.82132">
        <ele>632.95</ele>
        <time>2016-06-23T07:10:33Z</time>
      </trkpt>
      <trkpt lat="44.41817" lon="2.82138">
        <ele>633.13</ele>
        <time>2016-06-23T07:10:40Z</time>
      </trkpt>
      <trkpt lat="44.41835" lon="2.82155">
        <ele>634.39</ele>
        <time>2016-06-23T07:10:57Z</time>
      </trkpt>
      <trkpt lat="44.41838" lon="2.82177">
        <ele>634.85</ele>
        <time>2016-06-23T07:11:11Z</time>
      </trkpt>
      <trkpt lat="44.41838" lon="2.8218">
        <ele>634.82</ele>
        <time>2016-06-23T07:11:13Z</time>
      </trkpt>
      <trkpt lat="44.41838" lon="2.82181">
        <ele>634.81</ele>
        <time>2016-06-23T07:11:14Z</time>
      </trkpt>
      <trkpt lat="44.41838" lon="2.82183">
        <ele>634.8</ele>
        <time>2016-06-23T07:11:15Z</time>
      </trkpt>
      <trkpt lat="44.41836" lon="2.82195">
        <ele>634.63</ele>
        <time>2016-06-23T07:11:23Z</time>
      </trkpt>
      <trkpt lat="44.41834" lon="2.82203">
        <ele>634.27</ele>
        <time>2016-06-23T07:11:29Z</time>
      </trkpt>
      <trkpt lat="44.41834" lon="2.82205">
        <ele>634.18</ele>
        <time>2016-06-23T07:11:30Z</time>
      </trkpt>
      <trkpt lat="44.41834" lon="2.82207">
        <ele>634.09</ele>
        <time>2016-06-23T07:11:31Z</time>
      </trkpt>
      <trkpt lat="44.41833" lon="2.82235">
        <ele>633.69</ele>
        <time>2016-06-23T07:11:45Z</time>
      </trkpt>
      <trkpt lat="44.41833" lon="2.82269">
        <ele>633.74</ele>
        <time>2016-06-23T07:12:02Z</time>
      </trkpt>
      <trkpt lat="44.41834" lon="2.82296">
        <ele>634.16</ele>
        <time>2016-06-23T07:12:17Z</time>
      </trkpt>
      <trkpt lat="44.41835" lon="2.82325">
        <ele>635</ele>
        <time>2016-06-23T07:12:33Z</time>
      </trkpt>
      <trkpt lat="44.41835" lon="2.8233">
        <ele>635.14</ele>
        <time>2016-06-23T07:12:36Z</time>
      </trkpt>
      <trkpt lat="44.41835" lon="2.82332">
        <ele>635.19</ele>
        <time>2016-06-23T07:12:37Z</time>
      </trkpt>
      <trkpt lat="44.41835" lon="2.82334">
        <ele>635.22</ele>
        <time>2016-06-23T07:12:38Z</time>
      </trkpt>
      <trkpt lat="44.41835" lon="2.82336">
        <ele>635.27</ele>
        <time>2016-06-23T07:12:39Z</time>
      </trkpt>
      <trkpt lat="44.41836" lon="2.82337">
        <ele>635.3</ele>
        <time>2016-06-23T07:12:40Z</time>
      </trkpt>
      <trkpt lat="44.41836" lon="2.82339">
        <ele>635.32</ele>
        <time>2016-06-23T07:12:41Z</time>
      </trkpt>
      <trkpt lat="44.41836" lon="2.82341">
        <ele>635.34</ele>
        <time>2016-06-23T07:12:42Z</time>
      </trkpt>
      <trkpt lat="44.41836" lon="2.82343">
        <ele>635.35</ele>
        <time>2016-06-23T07:12:43Z</time>
      </trkpt>
      <trkpt lat="44.41836" lon="2.82345">
        <ele>635.36</ele>
        <time>2016-06-23T07:12:44Z</time>
      </trkpt>
      <trkpt lat="44.41836" lon="2.82347">
        <ele>635.39</ele>
        <time>2016-06-23T07:12:45Z</time>
      </trkpt>
      <trkpt lat="44.41839" lon="2.82383">
        <ele>636.21</ele>
        <time>2016-06-23T07:13:05Z</time>
      </trkpt>
      <trkpt lat="44.4184" lon="2.82403">
        <ele>636.28</ele>
        <time>2016-06-23T07:13:16Z</time>
      </trkpt>
      <trkpt lat="44.4184" lon="2.82405">
        <ele>636.28</ele>
        <time>2016-06-23T07:13:17Z</time>
      </trkpt>
      <trkpt lat="44.4184" lon="2.82406">
        <ele>636.28</ele>
        <time>2016-06-23T07:13:18Z</time>
      </trkpt>
      <trkpt lat="44.4184" lon="2.82408">
        <ele>636.28</ele>
        <time>2016-06-23T07:13:19Z</time>
      </trkpt>
      <trkpt lat="44.4184" lon="2.82409">
        <ele>636.29</ele>
        <time>2016-06-23T07:13:20Z</time>
      </trkpt>
      <trkpt lat="44.4184" lon="2.82411">
        <ele>636.31</ele>
        <time>2016-06-23T07:13:21Z</time>
      </trkpt>
      <trkpt lat="44.4184" lon="2.82413">
        <ele>636.36</ele>
        <time>2016-06-23T07:13:22Z</time>
      </trkpt>
      <trkpt lat="44.41841" lon="2.82439">
        <ele>637.5</ele>
        <time>2016-06-23T07:13:38Z</time>
      </trkpt>
      <trkpt lat="44.41839" lon="2.82458">
        <ele>637.89</ele>
        <time>2016-06-23T07:13:50Z</time>
      </trkpt>
      <trkpt lat="44.41839" lon="2.8246">
        <ele>637.89</ele>
        <time>2016-06-23T07:13:51Z</time>
      </trkpt>
      <trkpt lat="44.41839" lon="2.82462">
        <ele>637.87</ele>
        <time>2016-06-23T07:13:52Z</time>
      </trkpt>
      <trkpt lat="44.41838" lon="2.82464">
        <ele>637.86</ele>
        <time>2016-06-23T07:13:53Z</time>
      </trkpt>
      <trkpt lat="44.41838" lon="2.82465">
        <ele>637.83</ele>
        <time>2016-06-23T07:13:54Z</time>
      </trkpt>
      <trkpt lat="44.41838" lon="2.82467">
        <ele>637.8</ele>
        <time>2016-06-23T07:13:55Z</time>
      </trkpt>
      <trkpt lat="44.41838" lon="2.82473">
        <ele>637.65</ele>
        <time>2016-06-23T07:13:59Z</time>
      </trkpt>
      <trkpt lat="44.41837" lon="2.82475">
        <ele>637.6</ele>
        <time>2016-06-23T07:14:00Z</time>
      </trkpt>
      <trkpt lat="44.41834" lon="2.82507">
        <ele>636.92</ele>
        <time>2016-06-23T07:14:18Z</time>
      </trkpt>
      <trkpt lat="44.41833" lon="2.82518">
        <ele>636.67</ele>
        <time>2016-06-23T07:14:24Z</time>
      </trkpt>
      <trkpt lat="44.41833" lon="2.8252">
        <ele>636.68</ele>
        <time>2016-06-23T07:14:25Z</time>
      </trkpt>
      <trkpt lat="44.41832" lon="2.82522">
        <ele>636.73</ele>
        <time>2016-06-23T07:14:26Z</time>
      </trkpt>
      <trkpt lat="44.41828" lon="2.8254">
        <ele>636.55</ele>
        <time>2016-06-23T07:14:38Z</time>
      </trkpt>
      <trkpt lat="44.41825" lon="2.8256">
        <ele>636.18</ele>
        <time>2016-06-23T07:14:52Z</time>
      </trkpt>
      <trkpt lat="44.41822" lon="2.82583">
        <ele>636.09</ele>
        <time>2016-06-23T07:15:06Z</time>
      </trkpt>
      <trkpt lat="44.41822" lon="2.82601">
        <ele>635.84</ele>
        <time>2016-06-23T07:15:15Z</time>
      </trkpt>
      <trkpt lat="44.41823" lon="2.82615">
        <ele>635.69</ele>
        <time>2016-06-23T07:15:22Z</time>
      </trkpt>
      <trkpt lat="44.41829" lon="2.82647">
        <ele>635.31</ele>
        <time>2016-06-23T07:15:37Z</time>
      </trkpt>
      <trkpt lat="44.4183" lon="2.82657">
        <ele>635.14</ele>
        <time>2016-06-23T07:15:42Z</time>
      </trkpt>
      <trkpt lat="44.41831" lon="2.82659">
        <ele>635.13</ele>
        <time>2016-06-23T07:15:43Z</time>
      </trkpt>
      <trkpt lat="44.41831" lon="2.82661">
        <ele>635.11</ele>
        <time>2016-06-23T07:15:44Z</time>
      </trkpt>
      <trkpt lat="44.41837" lon="2.82682">
        <ele>635</ele>
        <time>2016-06-23T07:15:56Z</time>
      </trkpt>
      <trkpt lat="44.41837" lon="2.82684">
        <ele>635</ele>
        <time>2016-06-23T07:15:57Z</time>
      </trkpt>
      <trkpt lat="44.41838" lon="2.82685">
        <ele>635</ele>
        <time>2016-06-23T07:15:58Z</time>
      </trkpt>
      <trkpt lat="44.41838" lon="2.82687">
        <ele>634.97</ele>
        <time>2016-06-23T07:15:59Z</time>
      </trkpt>
      <trkpt lat="44.41846" lon="2.82718">
        <ele>635.02</ele>
        <time>2016-06-23T07:16:16Z</time>
      </trkpt>
      <trkpt lat="44.41851" lon="2.82745">
        <ele>635.24</ele>
        <time>2016-06-23T07:16:31Z</time>
      </trkpt>
      <trkpt lat="44.41853" lon="2.82765">
        <ele>635.19</ele>
        <time>2016-06-23T07:16:42Z</time>
      </trkpt>
      <trkpt lat="44.41853" lon="2.82767">
        <ele>635.2</ele>
        <time>2016-06-23T07:16:43Z</time>
      </trkpt>
      <trkpt lat="44.41856" lon="2.82795">
        <ele>635.47</ele>
        <time>2016-06-23T07:16:59Z</time>
      </trkpt>
      <trkpt lat="44.41858" lon="2.82819">
        <ele>635.39</ele>
        <time>2016-06-23T07:17:14Z</time>
      </trkpt>
      <trkpt lat="44.41861" lon="2.82833">
        <ele>635.53</ele>
        <time>2016-06-23T07:17:23Z</time>
      </trkpt>
      <trkpt lat="44.41862" lon="2.8285">
        <ele>635.79</ele>
        <time>2016-06-23T07:17:33Z</time>
      </trkpt>
      <trkpt lat="44.41862" lon="2.82853">
        <ele>635.86</ele>
        <time>2016-06-23T07:17:35Z</time>
      </trkpt>
      <trkpt lat="44.41862" lon="2.82855">
        <ele>635.87</ele>
        <time>2016-06-23T07:17:36Z</time>
      </trkpt>
      <trkpt lat="44.41862" lon="2.82857">
        <ele>635.86</ele>
        <time>2016-06-23T07:17:37Z</time>
      </trkpt>
      <trkpt lat="44.41862" lon="2.82859">
        <ele>635.85</ele>
        <time>2016-06-23T07:17:38Z</time>
      </trkpt>
      <trkpt lat="44.41862" lon="2.82861">
        <ele>635.84</ele>
        <time>2016-06-23T07:17:39Z</time>
      </trkpt>
      <trkpt lat="44.41863" lon="2.82863">
        <ele>635.84</ele>
        <time>2016-06-23T07:17:40Z</time>
      </trkpt>
      <trkpt lat="44.41863" lon="2.82865">
        <ele>635.84</ele>
        <time>2016-06-23T07:17:41Z</time>
      </trkpt>
      <trkpt lat="44.41862" lon="2.82873">
        <ele>636.02</ele>
        <time>2016-06-23T07:17:46Z</time>
      </trkpt>
      <trkpt lat="44.41862" lon="2.82875">
        <ele>636.04</ele>
        <time>2016-06-23T07:17:47Z</time>
      </trkpt>
      <trkpt lat="44.41865" lon="2.82898">
        <ele>636.12</ele>
        <time>2016-06-23T07:18:00Z</time>
      </trkpt>
      <trkpt lat="44.41865" lon="2.82907">
        <ele>636.19</ele>
        <time>2016-06-23T07:18:05Z</time>
      </trkpt>
      <trkpt lat="44.41865" lon="2.8291">
        <ele>636.19</ele>
        <time>2016-06-23T07:18:07Z</time>
      </trkpt>
      <trkpt lat="44.41865" lon="2.82911">
        <ele>636.18</ele>
        <time>2016-06-23T07:18:08Z</time>
      </trkpt>
      <trkpt lat="44.41864" lon="2.82932">
        <ele>636.18</ele>
        <time>2016-06-23T07:18:21Z</time>
      </trkpt>
      <trkpt lat="44.4186" lon="2.82959">
        <ele>635.59</ele>
        <time>2016-06-23T07:18:35Z</time>
      </trkpt>
      <trkpt lat="44.41858" lon="2.82991">
        <ele>633.79</ele>
        <time>2016-06-23T07:18:52Z</time>
      </trkpt>
      <trkpt lat="44.41858" lon="2.83023">
        <ele>631.26</ele>
        <time>2016-06-23T07:19:08Z</time>
      </trkpt>
      <trkpt lat="44.41856" lon="2.83051">
        <ele>629.46</ele>
        <time>2016-06-23T07:19:22Z</time>
      </trkpt>
      <trkpt lat="44.41852" lon="2.83073">
        <ele>628.29</ele>
        <time>2016-06-23T07:19:34Z</time>
      </trkpt>
      <trkpt lat="44.41848" lon="2.83094">
        <ele>627.58</ele>
        <time>2016-06-23T07:19:47Z</time>
      </trkpt>
      <trkpt lat="44.41847" lon="2.83097">
        <ele>627.47</ele>
        <time>2016-06-23T07:19:49Z</time>
      </trkpt>
      <trkpt lat="44.41846" lon="2.83098">
        <ele>627.46</ele>
        <time>2016-06-23T07:19:50Z</time>
      </trkpt>
      <trkpt lat="44.41846" lon="2.831">
        <ele>627.46</ele>
        <time>2016-06-23T07:19:51Z</time>
      </trkpt>
      <trkpt lat="44.41845" lon="2.83102">
        <ele>627.45</ele>
        <time>2016-06-23T07:19:52Z</time>
      </trkpt>
      <trkpt lat="44.41845" lon="2.83103">
        <ele>627.44</ele>
        <time>2016-06-23T07:19:53Z</time>
      </trkpt>
      <trkpt lat="44.41844" lon="2.83105">
        <ele>627.43</ele>
        <time>2016-06-23T07:19:54Z</time>
      </trkpt>
      <trkpt lat="44.41844" lon="2.83107">
        <ele>627.39</ele>
        <time>2016-06-23T07:19:55Z</time>
      </trkpt>
      <trkpt lat="44.41843" lon="2.83109">
        <ele>627.35</ele>
        <time>2016-06-23T07:19:56Z</time>
      </trkpt>
      <trkpt lat="44.41843" lon="2.8311">
        <ele>627.33</ele>
        <time>2016-06-23T07:19:57Z</time>
      </trkpt>
      <trkpt lat="44.41842" lon="2.83112">
        <ele>627.3</ele>
        <time>2016-06-23T07:19:58Z</time>
      </trkpt>
      <trkpt lat="44.41842" lon="2.83114">
        <ele>627.29</ele>
        <time>2016-06-23T07:19:59Z</time>
      </trkpt>
      <trkpt lat="44.41841" lon="2.83116">
        <ele>627.29</ele>
        <time>2016-06-23T07:20:00Z</time>
      </trkpt>
      <trkpt lat="44.41841" lon="2.83118">
        <ele>627.3</ele>
        <time>2016-06-23T07:20:01Z</time>
      </trkpt>
      <trkpt lat="44.41841" lon="2.83122">
        <ele>627.31</ele>
        <time>2016-06-23T07:20:04Z</time>
      </trkpt>
      <trkpt lat="44.4184" lon="2.83125">
        <ele>627.34</ele>
        <time>2016-06-23T07:20:06Z</time>
      </trkpt>
      <trkpt lat="44.4184" lon="2.83127">
        <ele>627.39</ele>
        <time>2016-06-23T07:20:07Z</time>
      </trkpt>
      <trkpt lat="44.4184" lon="2.83129">
        <ele>627.54</ele>
        <time>2016-06-23T07:20:08Z</time>
      </trkpt>
      <trkpt lat="44.41837" lon="2.83146">
        <ele>627.8</ele>
        <time>2016-06-23T07:20:19Z</time>
      </trkpt>
      <trkpt lat="44.41837" lon="2.83148">
        <ele>627.81</ele>
        <time>2016-06-23T07:20:20Z</time>
      </trkpt>
      <trkpt lat="44.41834" lon="2.83164">
        <ele>627.47</ele>
        <time>2016-06-23T07:20:32Z</time>
      </trkpt>
      <trkpt lat="44.41834" lon="2.83165">
        <ele>627.44</ele>
        <time>2016-06-23T07:20:33Z</time>
      </trkpt>
      <trkpt lat="44.41833" lon="2.83167">
        <ele>627.42</ele>
        <time>2016-06-23T07:20:34Z</time>
      </trkpt>
      <trkpt lat="44.41833" lon="2.83169">
        <ele>627.4</ele>
        <time>2016-06-23T07:20:35Z</time>
      </trkpt>
      <trkpt lat="44.41833" lon="2.8317">
        <ele>627.39</ele>
        <time>2016-06-23T07:20:36Z</time>
      </trkpt>
      <trkpt lat="44.41833" lon="2.83172">
        <ele>627.38</ele>
        <time>2016-06-23T07:20:37Z</time>
      </trkpt>
      <trkpt lat="44.41833" lon="2.83174">
        <ele>627.37</ele>
        <time>2016-06-23T07:20:38Z</time>
      </trkpt>
      <trkpt lat="44.41832" lon="2.83175">
        <ele>627.37</ele>
        <time>2016-06-23T07:20:39Z</time>
      </trkpt>
      <trkpt lat="44.41832" lon="2.83177">
        <ele>627.36</ele>
        <time>2016-06-23T07:20:40Z</time>
      </trkpt>
      <trkpt lat="44.41829" lon="2.83203">
        <ele>627.66</ele>
        <time>2016-06-23T07:20:55Z</time>
      </trkpt>
      <trkpt lat="44.41827" lon="2.83224">
        <ele>627.91</ele>
        <time>2016-06-23T07:21:07Z</time>
      </trkpt>
      <trkpt lat="44.41827" lon="2.83226">
        <ele>627.91</ele>
        <time>2016-06-23T07:21:08Z</time>
      </trkpt>
      <trkpt lat="44.41827" lon="2.83228">
        <ele>627.89</ele>
        <time>2016-06-23T07:21:09Z</time>
      </trkpt>
      <trkpt lat="44.41827" lon="2.8323">
        <ele>627.88</ele>
        <time>2016-06-23T07:21:10Z</time>
      </trkpt>
      <trkpt lat="44.41827" lon="2.83232">
        <ele>627.86</ele>
        <time>2016-06-23T07:21:11Z</time>
      </trkpt>
      <trkpt lat="44.41827" lon="2.83234">
        <ele>627.84</ele>
        <time>2016-06-23T07:21:12Z</time>
      </trkpt>
      <trkpt lat="44.41826" lon="2.83237">
        <ele>627.84</ele>
        <time>2016-06-23T07:21:14Z</time>
      </trkpt>
      <trkpt lat="44.41827" lon="2.83239">
        <ele>627.86</ele>
        <time>2016-06-23T07:21:15Z</time>
      </trkpt>
      <trkpt lat="44.41827" lon="2.83269">
        <ele>628.8</ele>
        <time>2016-06-23T07:21:33Z</time>
      </trkpt>
      <trkpt lat="44.41824" lon="2.83299">
        <ele>628.98</ele>
        <time>2016-06-23T07:21:49Z</time>
      </trkpt>
      <trkpt lat="44.41824" lon="2.83313">
        <ele>629.03</ele>
        <time>2016-06-23T07:21:57Z</time>
      </trkpt>
      <trkpt lat="44.41824" lon="2.83314">
        <ele>629.05</ele>
        <time>2016-06-23T07:21:58Z</time>
      </trkpt>
      <trkpt lat="44.41824" lon="2.83316">
        <ele>629.09</ele>
        <time>2016-06-23T07:21:59Z</time>
      </trkpt>
      <trkpt lat="44.41823" lon="2.83318">
        <ele>629.14</ele>
        <time>2016-06-23T07:22:00Z</time>
      </trkpt>
      <trkpt lat="44.41823" lon="2.8332">
        <ele>629.21</ele>
        <time>2016-06-23T07:22:01Z</time>
      </trkpt>
      <trkpt lat="44.41823" lon="2.83322">
        <ele>629.27</ele>
        <time>2016-06-23T07:22:02Z</time>
      </trkpt>
      <trkpt lat="44.41821" lon="2.83352">
        <ele>629.92</ele>
        <time>2016-06-23T07:22:18Z</time>
      </trkpt>
      <trkpt lat="44.41819" lon="2.83382">
        <ele>631.14</ele>
        <time>2016-06-23T07:22:35Z</time>
      </trkpt>
      <trkpt lat="44.41816" lon="2.83408">
        <ele>631.68</ele>
        <time>2016-06-23T07:22:50Z</time>
      </trkpt>
      <trkpt lat="44.41816" lon="2.83438">
        <ele>631.84</ele>
        <time>2016-06-23T07:23:06Z</time>
      </trkpt>
      <trkpt lat="44.41819" lon="2.83471">
        <ele>632.19</ele>
        <time>2016-06-23T07:23:24Z</time>
      </trkpt>
      <trkpt lat="44.41827" lon="2.83501">
        <ele>631.32</ele>
        <time>2016-06-23T07:23:40Z</time>
      </trkpt>
      <trkpt lat="44.41843" lon="2.83527">
        <ele>629.43</ele>
        <time>2016-06-23T07:23:58Z</time>
      </trkpt>
      <trkpt lat="44.41859" lon="2.83549">
        <ele>627.07</ele>
        <time>2016-06-23T07:24:14Z</time>
      </trkpt>
      <trkpt lat="44.41877" lon="2.83572">
        <ele>625.42</ele>
        <time>2016-06-23T07:24:32Z</time>
      </trkpt>
      <trkpt lat="44.41883" lon="2.83594">
        <ele>624.93</ele>
        <time>2016-06-23T07:24:46Z</time>
      </trkpt>
      <trkpt lat="44.41891" lon="2.83619">
        <ele>624.46</ele>
        <time>2016-06-23T07:25:01Z</time>
      </trkpt>
      <trkpt lat="44.419" lon="2.83645">
        <ele>624.04</ele>
        <time>2016-06-23T07:25:16Z</time>
      </trkpt>
      <trkpt lat="44.41908" lon="2.83671">
        <ele>623.51</ele>
        <time>2016-06-23T07:25:31Z</time>
      </trkpt>
      <trkpt lat="44.41912" lon="2.83684">
        <ele>623.46</ele>
        <time>2016-06-23T07:25:39Z</time>
      </trkpt>
      <trkpt lat="44.41913" lon="2.83686">
        <ele>623.47</ele>
        <time>2016-06-23T07:25:40Z</time>
      </trkpt>
      <trkpt lat="44.41923" lon="2.8372">
        <ele>622.89</ele>
        <time>2016-06-23T07:25:59Z</time>
      </trkpt>
      <trkpt lat="44.41931" lon="2.83746">
        <ele>622.01</ele>
        <time>2016-06-23T07:26:15Z</time>
      </trkpt>
      <trkpt lat="44.41938" lon="2.83773">
        <ele>621.08</ele>
        <time>2016-06-23T07:26:30Z</time>
      </trkpt>
      <trkpt lat="44.41946" lon="2.83794">
        <ele>620.01</ele>
        <time>2016-06-23T07:26:42Z</time>
      </trkpt>
      <trkpt lat="44.41959" lon="2.83821">
        <ele>618</ele>
        <time>2016-06-23T07:26:58Z</time>
      </trkpt>
      <trkpt lat="44.41974" lon="2.83842">
        <ele>615.76</ele>
        <time>2016-06-23T07:27:13Z</time>
      </trkpt>
      <trkpt lat="44.41981" lon="2.83856">
        <ele>613.32</ele>
        <time>2016-06-23T07:27:31Z</time>
      </trkpt>
      <trkpt lat="44.41983" lon="2.83858">
        <ele>613.16</ele>
        <time>2016-06-23T07:27:37Z</time>
      </trkpt>
      <trkpt lat="44.41983" lon="2.83859">
        <ele>613.11</ele>
        <time>2016-06-23T07:27:38Z</time>
      </trkpt>
      <trkpt lat="44.41984" lon="2.83861">
        <ele>613.08</ele>
        <time>2016-06-23T07:27:39Z</time>
      </trkpt>
      <trkpt lat="44.41985" lon="2.83862">
        <ele>613.05</ele>
        <time>2016-06-23T07:27:40Z</time>
      </trkpt>
      <trkpt lat="44.41986" lon="2.83864">
        <ele>612.99</ele>
        <time>2016-06-23T07:27:41Z</time>
      </trkpt>
      <trkpt lat="44.41987" lon="2.83865">
        <ele>612.94</ele>
        <time>2016-06-23T07:27:42Z</time>
      </trkpt>
      <trkpt lat="44.42001" lon="2.8389">
        <ele>611.15</ele>
        <time>2016-06-23T07:28:00Z</time>
      </trkpt>
      <trkpt lat="44.42019" lon="2.83906">
        <ele>609.44</ele>
        <time>2016-06-23T07:28:14Z</time>
      </trkpt>
      <trkpt lat="44.42041" lon="2.83903">
        <ele>609.53</ele>
        <time>2016-06-23T07:28:30Z</time>
      </trkpt>
      <trkpt lat="44.42056" lon="2.83897">
        <ele>609.84</ele>
        <time>2016-06-23T07:28:42Z</time>
      </trkpt>
      <trkpt lat="44.42076" lon="2.83882">
        <ele>610.01</ele>
        <time>2016-06-23T07:28:59Z</time>
      </trkpt>
      <trkpt lat="44.42094" lon="2.83867">
        <ele>610.16</ele>
        <time>2016-06-23T07:29:15Z</time>
      </trkpt>
      <trkpt lat="44.42112" lon="2.83852">
        <ele>610.39</ele>
        <time>2016-06-23T07:29:30Z</time>
      </trkpt>
      <trkpt lat="44.42128" lon="2.83841">
        <ele>610.61</ele>
        <time>2016-06-23T07:29:44Z</time>
      </trkpt>
      <trkpt lat="44.42145" lon="2.83829">
        <ele>610.93</ele>
        <time>2016-06-23T07:29:59Z</time>
      </trkpt>
      <trkpt lat="44.42153" lon="2.83826">
        <ele>611.08</ele>
        <time>2016-06-23T07:30:11Z</time>
      </trkpt>
      <trkpt lat="44.42154" lon="2.83826">
        <ele>611.16</ele>
        <time>2016-06-23T07:30:12Z</time>
      </trkpt>
      <trkpt lat="44.42179" lon="2.83822">
        <ele>611.28</ele>
        <time>2016-06-23T07:30:30Z</time>
      </trkpt>
      <trkpt lat="44.42201" lon="2.83825">
        <ele>611.46</ele>
        <time>2016-06-23T07:30:47Z</time>
      </trkpt>
      <trkpt lat="44.4222" lon="2.83831">
        <ele>611.9</ele>
        <time>2016-06-23T07:31:02Z</time>
      </trkpt>
      <trkpt lat="44.42239" lon="2.83839">
        <ele>612.98</ele>
        <time>2016-06-23T07:31:17Z</time>
      </trkpt>
      <trkpt lat="44.42261" lon="2.83846">
        <ele>613.36</ele>
        <time>2016-06-23T07:31:35Z</time>
      </trkpt>
      <trkpt lat="44.4228" lon="2.83853">
        <ele>614.07</ele>
        <time>2016-06-23T07:31:50Z</time>
      </trkpt>
      <trkpt lat="44.42302" lon="2.8386">
        <ele>614.38</ele>
        <time>2016-06-23T07:32:06Z</time>
      </trkpt>
      <trkpt lat="44.42321" lon="2.83868">
        <ele>614.84</ele>
        <time>2016-06-23T07:32:21Z</time>
      </trkpt>
      <trkpt lat="44.42341" lon="2.83875">
        <ele>615.24</ele>
        <time>2016-06-23T07:32:36Z</time>
      </trkpt>
      <trkpt lat="44.42361" lon="2.83879">
        <ele>615.9</ele>
        <time>2016-06-23T07:32:51Z</time>
      </trkpt>
      <trkpt lat="44.4238" lon="2.83883">
        <ele>616.34</ele>
        <time>2016-06-23T07:33:06Z</time>
      </trkpt>
      <trkpt lat="44.42398" lon="2.83885">
        <ele>617.29</ele>
        <time>2016-06-23T07:33:20Z</time>
      </trkpt>
      <trkpt lat="44.42416" lon="2.83894">
        <ele>617.62</ele>
        <time>2016-06-23T07:33:35Z</time>
      </trkpt>
      <trkpt lat="44.42426" lon="2.83906">
        <ele>617.71</ele>
        <time>2016-06-23T07:33:45Z</time>
      </trkpt>
      <trkpt lat="44.42427" lon="2.83907">
        <ele>617.7</ele>
        <time>2016-06-23T07:33:46Z</time>
      </trkpt>
      <trkpt lat="44.42428" lon="2.83908">
        <ele>617.67</ele>
        <time>2016-06-23T07:33:47Z</time>
      </trkpt>
      <trkpt lat="44.42429" lon="2.8391">
        <ele>617.63</ele>
        <time>2016-06-23T07:33:48Z</time>
      </trkpt>
      <trkpt lat="44.42429" lon="2.83911">
        <ele>617.57</ele>
        <time>2016-06-23T07:33:49Z</time>
      </trkpt>
      <trkpt lat="44.4243" lon="2.83913">
        <ele>617.51</ele>
        <time>2016-06-23T07:33:50Z</time>
      </trkpt>
      <trkpt lat="44.42435" lon="2.83937">
        <ele>617.82</ele>
        <time>2016-06-23T07:34:05Z</time>
      </trkpt>
      <trkpt lat="44.42433" lon="2.83959">
        <ele>617.74</ele>
        <time>2016-06-23T07:34:19Z</time>
      </trkpt>
      <trkpt lat="44.42432" lon="2.83983">
        <ele>617.99</ele>
        <time>2016-06-23T07:34:35Z</time>
      </trkpt>
      <trkpt lat="44.42433" lon="2.84018">
        <ele>618.42</ele>
        <time>2016-06-23T07:34:54Z</time>
      </trkpt>
      <trkpt lat="44.42437" lon="2.84043">
        <ele>619.1</ele>
        <time>2016-06-23T07:35:07Z</time>
      </trkpt>
      <trkpt lat="44.42444" lon="2.84073">
        <ele>620.2</ele>
        <time>2016-06-23T07:35:23Z</time>
      </trkpt>
      <trkpt lat="44.42448" lon="2.84101">
        <ele>620.71</ele>
        <time>2016-06-23T07:35:38Z</time>
      </trkpt>
      <trkpt lat="44.4245" lon="2.84129">
        <ele>622.03</ele>
        <time>2016-06-23T07:35:54Z</time>
      </trkpt>
      <trkpt lat="44.42452" lon="2.84158">
        <ele>623.36</ele>
        <time>2016-06-23T07:36:11Z</time>
      </trkpt>
      <trkpt lat="44.42457" lon="2.84185">
        <ele>624.08</ele>
        <time>2016-06-23T07:36:26Z</time>
      </trkpt>
      <trkpt lat="44.42465" lon="2.84211">
        <ele>624.63</ele>
        <time>2016-06-23T07:36:41Z</time>
      </trkpt>
      <trkpt lat="44.42464" lon="2.84238">
        <ele>625.83</ele>
        <time>2016-06-23T07:36:58Z</time>
      </trkpt>
      <trkpt lat="44.42464" lon="2.84239">
        <ele>625.89</ele>
        <time>2016-06-23T07:36:59Z</time>
      </trkpt>
      <trkpt lat="44.42462" lon="2.84248">
        <ele>626.09</ele>
        <time>2016-06-23T07:37:05Z</time>
      </trkpt>
      <trkpt lat="44.42463" lon="2.8425">
        <ele>626.14</ele>
        <time>2016-06-23T07:37:06Z</time>
      </trkpt>
      <trkpt lat="44.42463" lon="2.84252">
        <ele>626.23</ele>
        <time>2016-06-23T07:37:07Z</time>
      </trkpt>
      <trkpt lat="44.42463" lon="2.84281">
        <ele>627.15</ele>
        <time>2016-06-23T07:37:23Z</time>
      </trkpt>
      <trkpt lat="44.42462" lon="2.84309">
        <ele>629.01</ele>
        <time>2016-06-23T07:37:40Z</time>
      </trkpt>
      <trkpt lat="44.42455" lon="2.84324">
        <ele>630.33</ele>
        <time>2016-06-23T07:37:52Z</time>
      </trkpt>
      <trkpt lat="44.42451" lon="2.8435">
        <ele>631.39</ele>
        <time>2016-06-23T07:38:06Z</time>
      </trkpt>
      <trkpt lat="44.42451" lon="2.84373">
        <ele>632.38</ele>
        <time>2016-06-23T07:38:21Z</time>
      </trkpt>
      <trkpt lat="44.42452" lon="2.84377">
        <ele>632.61</ele>
        <time>2016-06-23T07:38:23Z</time>
      </trkpt>
      <trkpt lat="44.42452" lon="2.84378">
        <ele>632.74</ele>
        <time>2016-06-23T07:38:24Z</time>
      </trkpt>
      <trkpt lat="44.42452" lon="2.8438">
        <ele>632.86</ele>
        <time>2016-06-23T07:38:25Z</time>
      </trkpt>
      <trkpt lat="44.42453" lon="2.8441">
        <ele>634.65</ele>
        <time>2016-06-23T07:38:42Z</time>
      </trkpt>
      <trkpt lat="44.42457" lon="2.84442">
        <ele>637.16</ele>
        <time>2016-06-23T07:39:00Z</time>
      </trkpt>
      <trkpt lat="44.42458" lon="2.84474">
        <ele>639.51</ele>
        <time>2016-06-23T07:39:19Z</time>
      </trkpt>
      <trkpt lat="44.42461" lon="2.84504">
        <ele>641.69</ele>
        <time>2016-06-23T07:39:37Z</time>
      </trkpt>
      <trkpt lat="44.42463" lon="2.84532">
        <ele>643.03</ele>
        <time>2016-06-23T07:39:54Z</time>
      </trkpt>
      <trkpt lat="44.42464" lon="2.84557">
        <ele>644.83</ele>
        <time>2016-06-23T07:40:10Z</time>
      </trkpt>
      <trkpt lat="44.42464" lon="2.84559">
        <ele>644.9</ele>
        <time>2016-06-23T07:40:11Z</time>
      </trkpt>
      <trkpt lat="44.42464" lon="2.84561">
        <ele>644.98</ele>
        <time>2016-06-23T07:40:12Z</time>
      </trkpt>
      <trkpt lat="44.42464" lon="2.84562">
        <ele>645.06</ele>
        <time>2016-06-23T07:40:13Z</time>
      </trkpt>
      <trkpt lat="44.42465" lon="2.84564">
        <ele>645.17</ele>
        <time>2016-06-23T07:40:14Z</time>
      </trkpt>
      <trkpt lat="44.42466" lon="2.84592">
        <ele>646.29</ele>
        <time>2016-06-23T07:40:30Z</time>
      </trkpt>
      <trkpt lat="44.42467" lon="2.84607">
        <ele>647.23</ele>
        <time>2016-06-23T07:40:39Z</time>
      </trkpt>
      <trkpt lat="44.42467" lon="2.84609">
        <ele>647.35</ele>
        <time>2016-06-23T07:40:40Z</time>
      </trkpt>
      <trkpt lat="44.42467" lon="2.84611">
        <ele>647.42</ele>
        <time>2016-06-23T07:40:41Z</time>
      </trkpt>
      <trkpt lat="44.42468" lon="2.84624">
        <ele>647.93</ele>
        <time>2016-06-23T07:40:48Z</time>
      </trkpt>
      <trkpt lat="44.42468" lon="2.84626">
        <ele>647.98</ele>
        <time>2016-06-23T07:40:49Z</time>
      </trkpt>
      <trkpt lat="44.42475" lon="2.84653">
        <ele>649.35</ele>
        <time>2016-06-23T07:41:05Z</time>
      </trkpt>
      <trkpt lat="44.42476" lon="2.84677">
        <ele>650</ele>
        <time>2016-06-23T07:41:19Z</time>
      </trkpt>
      <trkpt lat="44.42477" lon="2.847">
        <ele>650.64</ele>
        <time>2016-06-23T07:41:32Z</time>
      </trkpt>
      <trkpt lat="44.42479" lon="2.84724">
        <ele>652.54</ele>
        <time>2016-06-23T07:41:46Z</time>
      </trkpt>
      <trkpt lat="44.42483" lon="2.84753">
        <ele>654.67</ele>
        <time>2016-06-23T07:42:03Z</time>
      </trkpt>
      <trkpt lat="44.42487" lon="2.84779">
        <ele>656.43</ele>
        <time>2016-06-23T07:42:19Z</time>
      </trkpt>
      <trkpt lat="44.42487" lon="2.84797">
        <ele>657.79</ele>
        <time>2016-06-23T07:42:34Z</time>
      </trkpt>
      <trkpt lat="44.42486" lon="2.84815">
        <ele>659.79</ele>
        <time>2016-06-23T07:42:48Z</time>
      </trkpt>
      <trkpt lat="44.42486" lon="2.8482">
        <ele>660.05</ele>
        <time>2016-06-23T07:42:51Z</time>
      </trkpt>
      <trkpt lat="44.42485" lon="2.84831">
        <ele>660.37</ele>
        <time>2016-06-23T07:42:56Z</time>
      </trkpt>
      <trkpt lat="44.42485" lon="2.84833">
        <ele>660.39</ele>
        <time>2016-06-23T07:42:57Z</time>
      </trkpt>
      <trkpt lat="44.42485" lon="2.84837">
        <ele>660.49</ele>
        <time>2016-06-23T07:42:59Z</time>
      </trkpt>
      <trkpt lat="44.42485" lon="2.84839">
        <ele>660.54</ele>
        <time>2016-06-23T07:43:00Z</time>
      </trkpt>
      <trkpt lat="44.42486" lon="2.84863">
        <ele>662.08</ele>
        <time>2016-06-23T07:43:11Z</time>
      </trkpt>
      <trkpt lat="44.42487" lon="2.84865">
        <ele>662.18</ele>
        <time>2016-06-23T07:43:12Z</time>
      </trkpt>
      <trkpt lat="44.42487" lon="2.84866">
        <ele>662.29</ele>
        <time>2016-06-23T07:43:13Z</time>
      </trkpt>
      <trkpt lat="44.42487" lon="2.84868">
        <ele>662.4</ele>
        <time>2016-06-23T07:43:14Z</time>
      </trkpt>
      <trkpt lat="44.42488" lon="2.8487">
        <ele>662.57</ele>
        <time>2016-06-23T07:43:15Z</time>
      </trkpt>
      <trkpt lat="44.42489" lon="2.84872">
        <ele>662.74</ele>
        <time>2016-06-23T07:43:16Z</time>
      </trkpt>
      <trkpt lat="44.42489" lon="2.84873">
        <ele>662.92</ele>
        <time>2016-06-23T07:43:17Z</time>
      </trkpt>
      <trkpt lat="44.4249" lon="2.84875">
        <ele>663.12</ele>
        <time>2016-06-23T07:43:18Z</time>
      </trkpt>
      <trkpt lat="44.42491" lon="2.84877">
        <ele>663.32</ele>
        <time>2016-06-23T07:43:19Z</time>
      </trkpt>
      <trkpt lat="44.42491" lon="2.84878">
        <ele>663.49</ele>
        <time>2016-06-23T07:43:20Z</time>
      </trkpt>
      <trkpt lat="44.42492" lon="2.8488">
        <ele>663.62</ele>
        <time>2016-06-23T07:43:21Z</time>
      </trkpt>
      <trkpt lat="44.42492" lon="2.84882">
        <ele>663.72</ele>
        <time>2016-06-23T07:43:22Z</time>
      </trkpt>
      <trkpt lat="44.42497" lon="2.8491">
        <ele>664.37</ele>
        <time>2016-06-23T07:43:39Z</time>
      </trkpt>
      <trkpt lat="44.425" lon="2.84944">
        <ele>666.36</ele>
        <time>2016-06-23T07:43:58Z</time>
      </trkpt>
      <trkpt lat="44.425" lon="2.84963">
        <ele>666.64</ele>
        <time>2016-06-23T07:44:08Z</time>
      </trkpt>
      <trkpt lat="44.425" lon="2.84965">
        <ele>666.69</ele>
        <time>2016-06-23T07:44:09Z</time>
      </trkpt>
      <trkpt lat="44.425" lon="2.84998">
        <ele>666.64</ele>
        <time>2016-06-23T07:44:27Z</time>
      </trkpt>
      <trkpt lat="44.42506" lon="2.85032">
        <ele>665.05</ele>
        <time>2016-06-23T07:44:46Z</time>
      </trkpt>
      <trkpt lat="44.42507" lon="2.85058">
        <ele>664.86</ele>
        <time>2016-06-23T07:45:00Z</time>
      </trkpt>
      <trkpt lat="44.42513" lon="2.85083">
        <ele>664.97</ele>
        <time>2016-06-23T07:45:16Z</time>
      </trkpt>
      <trkpt lat="44.42513" lon="2.85085">
        <ele>665.15</ele>
        <time>2016-06-23T07:45:18Z</time>
      </trkpt>
      <trkpt lat="44.42513" lon="2.85087">
        <ele>665.25</ele>
        <time>2016-06-23T07:45:19Z</time>
      </trkpt>
      <trkpt lat="44.42513" lon="2.85089">
        <ele>665.37</ele>
        <time>2016-06-23T07:45:20Z</time>
      </trkpt>
      <trkpt lat="44.42514" lon="2.85091">
        <ele>665.5</ele>
        <time>2016-06-23T07:45:21Z</time>
      </trkpt>
      <trkpt lat="44.42514" lon="2.85092">
        <ele>665.6</ele>
        <time>2016-06-23T07:45:22Z</time>
      </trkpt>
      <trkpt lat="44.42519" lon="2.85127">
        <ele>662.6</ele>
        <time>2016-06-23T07:45:40Z</time>
      </trkpt>
      <trkpt lat="44.42519" lon="2.85147">
        <ele>660.65</ele>
        <time>2016-06-23T07:45:51Z</time>
      </trkpt>
      <trkpt lat="44.42518" lon="2.85148">
        <ele>660.45</ele>
        <time>2016-06-23T07:45:52Z</time>
      </trkpt>
      <trkpt lat="44.42518" lon="2.85151">
        <ele>660.23</ele>
        <time>2016-06-23T07:45:53Z</time>
      </trkpt>
      <trkpt lat="44.42518" lon="2.85153">
        <ele>660</ele>
        <time>2016-06-23T07:45:54Z</time>
      </trkpt>
      <trkpt lat="44.42517" lon="2.85155">
        <ele>659.81</ele>
        <time>2016-06-23T07:45:55Z</time>
      </trkpt>
      <trkpt lat="44.42517" lon="2.85157">
        <ele>659.46</ele>
        <time>2016-06-23T07:45:56Z</time>
      </trkpt>
      <trkpt lat="44.42517" lon="2.85158">
        <ele>659.32</ele>
        <time>2016-06-23T07:45:57Z</time>
      </trkpt>
      <trkpt lat="44.42513" lon="2.85169">
        <ele>658.65</ele>
        <time>2016-06-23T07:46:03Z</time>
      </trkpt>
      <trkpt lat="44.42513" lon="2.85171">
        <ele>658.56</ele>
        <time>2016-06-23T07:46:04Z</time>
      </trkpt>
      <trkpt lat="44.42512" lon="2.85172">
        <ele>658.46</ele>
        <time>2016-06-23T07:46:05Z</time>
      </trkpt>
      <trkpt lat="44.42512" lon="2.85174">
        <ele>658.37</ele>
        <time>2016-06-23T07:46:06Z</time>
      </trkpt>
      <trkpt lat="44.42511" lon="2.85176">
        <ele>658.29</ele>
        <time>2016-06-23T07:46:07Z</time>
      </trkpt>
      <trkpt lat="44.42511" lon="2.85177">
        <ele>658.26</ele>
        <time>2016-06-23T07:46:08Z</time>
      </trkpt>
      <trkpt lat="44.4251" lon="2.85179">
        <ele>658.21</ele>
        <time>2016-06-23T07:46:09Z</time>
      </trkpt>
      <trkpt lat="44.42509" lon="2.85181">
        <ele>658.19</ele>
        <time>2016-06-23T07:46:10Z</time>
      </trkpt>
      <trkpt lat="44.42507" lon="2.85186">
        <ele>658.14</ele>
        <time>2016-06-23T07:46:13Z</time>
      </trkpt>
      <trkpt lat="44.42507" lon="2.85188">
        <ele>658.14</ele>
        <time>2016-06-23T07:46:14Z</time>
      </trkpt>
      <trkpt lat="44.42507" lon="2.8519">
        <ele>658.11</ele>
        <time>2016-06-23T07:46:15Z</time>
      </trkpt>
      <trkpt lat="44.42507" lon="2.85191">
        <ele>658.02</ele>
        <time>2016-06-23T07:46:16Z</time>
      </trkpt>
      <trkpt lat="44.42506" lon="2.85193">
        <ele>657.89</ele>
        <time>2016-06-23T07:46:17Z</time>
      </trkpt>
      <trkpt lat="44.42506" lon="2.85195">
        <ele>657.73</ele>
        <time>2016-06-23T07:46:18Z</time>
      </trkpt>
      <trkpt lat="44.42503" lon="2.85222">
        <ele>656.29</ele>
        <time>2016-06-23T07:46:33Z</time>
      </trkpt>
      <trkpt lat="44.42507" lon="2.85253">
        <ele>654.6</ele>
        <time>2016-06-23T07:46:50Z</time>
      </trkpt>
      <trkpt lat="44.42506" lon="2.85266">
        <ele>653.58</ele>
        <time>2016-06-23T07:46:57Z</time>
      </trkpt>
      <trkpt lat="44.42505" lon="2.85267">
        <ele>653.49</ele>
        <time>2016-06-23T07:46:58Z</time>
      </trkpt>
      <trkpt lat="44.42505" lon="2.85269">
        <ele>653.42</ele>
        <time>2016-06-23T07:46:59Z</time>
      </trkpt>
      <trkpt lat="44.42496" lon="2.85296">
        <ele>652.5</ele>
        <time>2016-06-23T07:47:15Z</time>
      </trkpt>
      <trkpt lat="44.42486" lon="2.85322">
        <ele>650.89</ele>
        <time>2016-06-23T07:47:31Z</time>
      </trkpt>
      <trkpt lat="44.42478" lon="2.85352">
        <ele>650.24</ele>
        <time>2016-06-23T07:47:47Z</time>
      </trkpt>
      <trkpt lat="44.42479" lon="2.85387">
        <ele>648.52</ele>
        <time>2016-06-23T07:48:05Z</time>
      </trkpt>
      <trkpt lat="44.42481" lon="2.85415">
        <ele>647.6</ele>
        <time>2016-06-23T07:48:21Z</time>
      </trkpt>
      <trkpt lat="44.4247" lon="2.85435">
        <ele>647.23</ele>
        <time>2016-06-23T07:48:36Z</time>
      </trkpt>
      <trkpt lat="44.42462" lon="2.85446">
        <ele>647.4</ele>
        <time>2016-06-23T07:48:46Z</time>
      </trkpt>
      <trkpt lat="44.42447" lon="2.85453">
        <ele>646.68</ele>
        <time>2016-06-23T07:49:01Z</time>
      </trkpt>
      <trkpt lat="44.42424" lon="2.85458">
        <ele>646.7</ele>
        <time>2016-06-23T07:49:17Z</time>
      </trkpt>
      <trkpt lat="44.42402" lon="2.85468">
        <ele>646.2</ele>
        <time>2016-06-23T07:49:33Z</time>
      </trkpt>
      <trkpt lat="44.42387" lon="2.85477">
        <ele>645.58</ele>
        <time>2016-06-23T07:49:45Z</time>
      </trkpt>
      <trkpt lat="44.42372" lon="2.85498">
        <ele>645.36</ele>
        <time>2016-06-23T07:50:00Z</time>
      </trkpt>
      <trkpt lat="44.42358" lon="2.85516">
        <ele>644.46</ele>
        <time>2016-06-23T07:50:15Z</time>
      </trkpt>
      <trkpt lat="44.42344" lon="2.85523">
        <ele>643.74</ele>
        <time>2016-06-23T07:50:29Z</time>
      </trkpt>
      <trkpt lat="44.42339" lon="2.85525">
        <ele>643.78</ele>
        <time>2016-06-23T07:50:34Z</time>
      </trkpt>
      <trkpt lat="44.42338" lon="2.85525">
        <ele>643.77</ele>
        <time>2016-06-23T07:50:35Z</time>
      </trkpt>
      <trkpt lat="44.42336" lon="2.85525">
        <ele>643.74</ele>
        <time>2016-06-23T07:50:36Z</time>
      </trkpt>
      <trkpt lat="44.42335" lon="2.85526">
        <ele>643.68</ele>
        <time>2016-06-23T07:50:37Z</time>
      </trkpt>
      <trkpt lat="44.42334" lon="2.85526">
        <ele>643.62</ele>
        <time>2016-06-23T07:50:38Z</time>
      </trkpt>
      <trkpt lat="44.42314" lon="2.85533">
        <ele>642.79</ele>
        <time>2016-06-23T07:50:54Z</time>
      </trkpt>
      <trkpt lat="44.42297" lon="2.85545">
        <ele>642.22</ele>
        <time>2016-06-23T07:51:08Z</time>
      </trkpt>
      <trkpt lat="44.42277" lon="2.85564">
        <ele>641.56</ele>
        <time>2016-06-23T07:51:24Z</time>
      </trkpt>
      <trkpt lat="44.42259" lon="2.85582">
        <ele>640.47</ele>
        <time>2016-06-23T07:51:40Z</time>
      </trkpt>
      <trkpt lat="44.42245" lon="2.85598">
        <ele>639.34</ele>
        <time>2016-06-23T07:51:54Z</time>
      </trkpt>
      <trkpt lat="44.42229" lon="2.85618">
        <ele>638.16</ele>
        <time>2016-06-23T07:52:09Z</time>
      </trkpt>
      <trkpt lat="44.42218" lon="2.85641">
        <ele>637.04</ele>
        <time>2016-06-23T07:52:23Z</time>
      </trkpt>
      <trkpt lat="44.42207" lon="2.85673">
        <ele>635.99</ele>
        <time>2016-06-23T07:52:41Z</time>
      </trkpt>
      <trkpt lat="44.42199" lon="2.85695">
        <ele>635.94</ele>
        <time>2016-06-23T07:52:55Z</time>
      </trkpt>
      <trkpt lat="44.42194" lon="2.8572">
        <ele>634.6</ele>
        <time>2016-06-23T07:53:11Z</time>
      </trkpt>
      <trkpt lat="44.42193" lon="2.85733">
        <ele>634.24</ele>
        <time>2016-06-23T07:53:17Z</time>
      </trkpt>
      <trkpt lat="44.42194" lon="2.85735">
        <ele>634.13</ele>
        <time>2016-06-23T07:53:18Z</time>
      </trkpt>
      <trkpt lat="44.42195" lon="2.85737">
        <ele>634.02</ele>
        <time>2016-06-23T07:53:19Z</time>
      </trkpt>
      <trkpt lat="44.42195" lon="2.85739">
        <ele>633.91</ele>
        <time>2016-06-23T07:53:20Z</time>
      </trkpt>
      <trkpt lat="44.42195" lon="2.85741">
        <ele>633.75</ele>
        <time>2016-06-23T07:53:21Z</time>
      </trkpt>
      <trkpt lat="44.42195" lon="2.85743">
        <ele>633.55</ele>
        <time>2016-06-23T07:53:22Z</time>
      </trkpt>
      <trkpt lat="44.42195" lon="2.85745">
        <ele>633.34</ele>
        <time>2016-06-23T07:53:23Z</time>
      </trkpt>
      <trkpt lat="44.42195" lon="2.85747">
        <ele>633.16</ele>
        <time>2016-06-23T07:53:24Z</time>
      </trkpt>
      <trkpt lat="44.42195" lon="2.8575">
        <ele>632.97</ele>
        <time>2016-06-23T07:53:25Z</time>
      </trkpt>
      <trkpt lat="44.42195" lon="2.85752">
        <ele>632.77</ele>
        <time>2016-06-23T07:53:26Z</time>
      </trkpt>
      <trkpt lat="44.42191" lon="2.85776">
        <ele>631.2</ele>
        <time>2016-06-23T07:53:40Z</time>
      </trkpt>
      <trkpt lat="44.42189" lon="2.85782">
        <ele>630.89</ele>
        <time>2016-06-23T07:53:43Z</time>
      </trkpt>
      <trkpt lat="44.42189" lon="2.85784">
        <ele>630.77</ele>
        <time>2016-06-23T07:53:44Z</time>
      </trkpt>
      <trkpt lat="44.42181" lon="2.85811">
        <ele>628.59</ele>
        <time>2016-06-23T07:54:00Z</time>
      </trkpt>
      <trkpt lat="44.42177" lon="2.85825">
        <ele>628.11</ele>
        <time>2016-06-23T07:54:08Z</time>
      </trkpt>
      <trkpt lat="44.42177" lon="2.85827">
        <ele>628.07</ele>
        <time>2016-06-23T07:54:09Z</time>
      </trkpt>
      <trkpt lat="44.42167" lon="2.85851">
        <ele>627.45</ele>
        <time>2016-06-23T07:54:24Z</time>
      </trkpt>
      <trkpt lat="44.42157" lon="2.85878">
        <ele>626.91</ele>
        <time>2016-06-23T07:54:43Z</time>
      </trkpt>
      <trkpt lat="44.4215" lon="2.85901">
        <ele>626.91</ele>
        <time>2016-06-23T07:54:58Z</time>
      </trkpt>
      <trkpt lat="44.42147" lon="2.85931">
        <ele>626.47</ele>
        <time>2016-06-23T07:55:12Z</time>
      </trkpt>
      <trkpt lat="44.42146" lon="2.85936">
        <ele>626.33</ele>
        <time>2016-06-23T07:55:15Z</time>
      </trkpt>
      <trkpt lat="44.42145" lon="2.85942">
        <ele>626.13</ele>
        <time>2016-06-23T07:55:19Z</time>
      </trkpt>
      <trkpt lat="44.42144" lon="2.85944">
        <ele>626.08</ele>
        <time>2016-06-23T07:55:20Z</time>
      </trkpt>
      <trkpt lat="44.42144" lon="2.85945">
        <ele>626.05</ele>
        <time>2016-06-23T07:55:21Z</time>
      </trkpt>
      <trkpt lat="44.42139" lon="2.85954">
        <ele>625.89</ele>
        <time>2016-06-23T07:55:28Z</time>
      </trkpt>
      <trkpt lat="44.42139" lon="2.85954">
        <ele>625.88</ele>
        <time>2016-06-23T07:55:29Z</time>
      </trkpt>
      <trkpt lat="44.4213" lon="2.85971">
        <ele>625.57</ele>
        <time>2016-06-23T07:55:43Z</time>
      </trkpt>
      <trkpt lat="44.42126" lon="2.85981">
        <ele>625.07</ele>
        <time>2016-06-23T07:55:50Z</time>
      </trkpt>
      <trkpt lat="44.42124" lon="2.85987">
        <ele>624.76</ele>
        <time>2016-06-23T07:55:54Z</time>
      </trkpt>
      <trkpt lat="44.42122" lon="2.8599">
        <ele>624.66</ele>
        <time>2016-06-23T07:55:56Z</time>
      </trkpt>
      <trkpt lat="44.42111" lon="2.86011">
        <ele>624.85</ele>
        <time>2016-06-23T07:56:10Z</time>
      </trkpt>
      <trkpt lat="44.42106" lon="2.86023">
        <ele>624.74</ele>
        <time>2016-06-23T07:56:17Z</time>
      </trkpt>
      <trkpt lat="44.42104" lon="2.86026">
        <ele>624.64</ele>
        <time>2016-06-23T07:56:19Z</time>
      </trkpt>
      <trkpt lat="44.42104" lon="2.86028">
        <ele>624.55</ele>
        <time>2016-06-23T07:56:20Z</time>
      </trkpt>
      <trkpt lat="44.42102" lon="2.86035">
        <ele>624.07</ele>
        <time>2016-06-23T07:56:24Z</time>
      </trkpt>
      <trkpt lat="44.42101" lon="2.86037">
        <ele>623.97</ele>
        <time>2016-06-23T07:56:25Z</time>
      </trkpt>
      <trkpt lat="44.421" lon="2.86038">
        <ele>623.83</ele>
        <time>2016-06-23T07:56:26Z</time>
      </trkpt>
      <trkpt lat="44.421" lon="2.8604">
        <ele>623.76</ele>
        <time>2016-06-23T07:56:27Z</time>
      </trkpt>
      <trkpt lat="44.42099" lon="2.86042">
        <ele>623.68</ele>
        <time>2016-06-23T07:56:28Z</time>
      </trkpt>
      <trkpt lat="44.42098" lon="2.86043">
        <ele>623.6</ele>
        <time>2016-06-23T07:56:29Z</time>
      </trkpt>
      <trkpt lat="44.42094" lon="2.86057">
        <ele>623.03</ele>
        <time>2016-06-23T07:56:35Z</time>
      </trkpt>
      <trkpt lat="44.42093" lon="2.86059">
        <ele>622.71</ele>
        <time>2016-06-23T07:56:37Z</time>
      </trkpt>
      <trkpt lat="44.42092" lon="2.86061">
        <ele>622.57</ele>
        <time>2016-06-23T07:56:38Z</time>
      </trkpt>
      <trkpt lat="44.42091" lon="2.86063">
        <ele>622.44</ele>
        <time>2016-06-23T07:56:39Z</time>
      </trkpt>
      <trkpt lat="44.42091" lon="2.86065">
        <ele>622.32</ele>
        <time>2016-06-23T07:56:40Z</time>
      </trkpt>
      <trkpt lat="44.4209" lon="2.86067">
        <ele>622.21</ele>
        <time>2016-06-23T07:56:41Z</time>
      </trkpt>
      <trkpt lat="44.42089" lon="2.86069">
        <ele>622</ele>
        <time>2016-06-23T07:56:43Z</time>
      </trkpt>
      <trkpt lat="44.42088" lon="2.86071">
        <ele>621.89</ele>
        <time>2016-06-23T07:56:44Z</time>
      </trkpt>
      <trkpt lat="44.42086" lon="2.86076">
        <ele>621.53</ele>
        <time>2016-06-23T07:56:47Z</time>
      </trkpt>
      <trkpt lat="44.42081" lon="2.86083">
        <ele>621.06</ele>
        <time>2016-06-23T07:56:52Z</time>
      </trkpt>
      <trkpt lat="44.42072" lon="2.86102">
        <ele>620.36</ele>
        <time>2016-06-23T07:57:04Z</time>
      </trkpt>
      <trkpt lat="44.42065" lon="2.86122">
        <ele>619.39</ele>
        <time>2016-06-23T07:57:17Z</time>
      </trkpt>
      <trkpt lat="44.42064" lon="2.86123">
        <ele>619.34</ele>
        <time>2016-06-23T07:57:18Z</time>
      </trkpt>
      <trkpt lat="44.42063" lon="2.86125">
        <ele>619.28</ele>
        <time>2016-06-23T07:57:19Z</time>
      </trkpt>
      <trkpt lat="44.42063" lon="2.86126">
        <ele>619.24</ele>
        <time>2016-06-23T07:57:20Z</time>
      </trkpt>
      <trkpt lat="44.42062" lon="2.86128">
        <ele>619.23</ele>
        <time>2016-06-23T07:57:21Z</time>
      </trkpt>
      <trkpt lat="44.42062" lon="2.8613">
        <ele>619.23</ele>
        <time>2016-06-23T07:57:22Z</time>
      </trkpt>
      <trkpt lat="44.42062" lon="2.86132">
        <ele>619.24</ele>
        <time>2016-06-23T07:57:23Z</time>
      </trkpt>
      <trkpt lat="44.42061" lon="2.86134">
        <ele>619.25</ele>
        <time>2016-06-23T07:57:24Z</time>
      </trkpt>
      <trkpt lat="44.42059" lon="2.86144">
        <ele>619.32</ele>
        <time>2016-06-23T07:57:29Z</time>
      </trkpt>
      <trkpt lat="44.42058" lon="2.86145">
        <ele>619.34</ele>
        <time>2016-06-23T07:57:30Z</time>
      </trkpt>
      <trkpt lat="44.42058" lon="2.86147">
        <ele>619.36</ele>
        <time>2016-06-23T07:57:31Z</time>
      </trkpt>
      <trkpt lat="44.42057" lon="2.86149">
        <ele>619.37</ele>
        <time>2016-06-23T07:57:32Z</time>
      </trkpt>
      <trkpt lat="44.42056" lon="2.86151">
        <ele>619.38</ele>
        <time>2016-06-23T07:57:33Z</time>
      </trkpt>
      <trkpt lat="44.42056" lon="2.86154">
        <ele>619.39</ele>
        <time>2016-06-23T07:57:34Z</time>
      </trkpt>
      <trkpt lat="44.42056" lon="2.86156">
        <ele>619.4</ele>
        <time>2016-06-23T07:57:35Z</time>
      </trkpt>
      <trkpt lat="44.42055" lon="2.86158">
        <ele>619.41</ele>
        <time>2016-06-23T07:57:36Z</time>
      </trkpt>
      <trkpt lat="44.42054" lon="2.86159">
        <ele>619.41</ele>
        <time>2016-06-23T07:57:37Z</time>
      </trkpt>
      <trkpt lat="44.42044" lon="2.86179">
        <ele>619.31</ele>
        <time>2016-06-23T07:57:51Z</time>
      </trkpt>
      <trkpt lat="44.42031" lon="2.86193">
        <ele>619.37</ele>
        <time>2016-06-23T07:58:04Z</time>
      </trkpt>
      <trkpt lat="44.42018" lon="2.86206">
        <ele>619.51</ele>
        <time>2016-06-23T07:58:17Z</time>
      </trkpt>
      <trkpt lat="44.42" lon="2.86222">
        <ele>619.8</ele>
        <time>2016-06-23T07:58:32Z</time>
      </trkpt>
      <trkpt lat="44.41984" lon="2.86247">
        <ele>620.1</ele>
        <time>2016-06-23T07:58:49Z</time>
      </trkpt>
      <trkpt lat="44.41981" lon="2.86251">
        <ele>620.03</ele>
        <time>2016-06-23T07:58:52Z</time>
      </trkpt>
      <trkpt lat="44.4198" lon="2.86252">
        <ele>620.01</ele>
        <time>2016-06-23T07:58:53Z</time>
      </trkpt>
      <trkpt lat="44.41973" lon="2.86263">
        <ele>620.2</ele>
        <time>2016-06-23T07:59:00Z</time>
      </trkpt>
      <trkpt lat="44.41973" lon="2.86264">
        <ele>620.23</ele>
        <time>2016-06-23T07:59:01Z</time>
      </trkpt>
      <trkpt lat="44.41972" lon="2.86266">
        <ele>620.28</ele>
        <time>2016-06-23T07:59:02Z</time>
      </trkpt>
      <trkpt lat="44.41967" lon="2.86272">
        <ele>620.5</ele>
        <time>2016-06-23T07:59:07Z</time>
      </trkpt>
      <trkpt lat="44.41966" lon="2.86273">
        <ele>620.52</ele>
        <time>2016-06-23T07:59:08Z</time>
      </trkpt>
      <trkpt lat="44.41951" lon="2.86293">
        <ele>620.55</ele>
        <time>2016-06-23T07:59:23Z</time>
      </trkpt>
      <trkpt lat="44.41937" lon="2.86312">
        <ele>620.23</ele>
        <time>2016-06-23T07:59:38Z</time>
      </trkpt>
      <trkpt lat="44.41925" lon="2.86329">
        <ele>619.52</ele>
        <time>2016-06-23T07:59:51Z</time>
      </trkpt>
      <trkpt lat="44.4192" lon="2.86332">
        <ele>619.36</ele>
        <time>2016-06-23T07:59:56Z</time>
      </trkpt>
      <trkpt lat="44.41919" lon="2.86334">
        <ele>619.36</ele>
        <time>2016-06-23T07:59:57Z</time>
      </trkpt>
      <trkpt lat="44.41918" lon="2.86335">
        <ele>619.38</ele>
        <time>2016-06-23T07:59:58Z</time>
      </trkpt>
      <trkpt lat="44.41917" lon="2.86336">
        <ele>619.4</ele>
        <time>2016-06-23T07:59:59Z</time>
      </trkpt>
      <trkpt lat="44.41916" lon="2.86337">
        <ele>619.43</ele>
        <time>2016-06-23T08:00:00Z</time>
      </trkpt>
      <trkpt lat="44.41915" lon="2.86338">
        <ele>619.44</ele>
        <time>2016-06-23T08:00:01Z</time>
      </trkpt>
      <trkpt lat="44.41907" lon="2.86346">
        <ele>619.35</ele>
        <time>2016-06-23T08:00:09Z</time>
      </trkpt>
      <trkpt lat="44.41906" lon="2.86348">
        <ele>619.25</ele>
        <time>2016-06-23T08:00:10Z</time>
      </trkpt>
      <trkpt lat="44.41891" lon="2.86364">
        <ele>619.6</ele>
        <time>2016-06-23T08:00:24Z</time>
      </trkpt>
      <trkpt lat="44.41877" lon="2.86385">
        <ele>621.18</ele>
        <time>2016-06-23T08:00:40Z</time>
      </trkpt>
      <trkpt lat="44.41865" lon="2.86404">
        <ele>621.11</ele>
        <time>2016-06-23T08:00:55Z</time>
      </trkpt>
      <trkpt lat="44.41851" lon="2.86426">
        <ele>620.73</ele>
        <time>2016-06-23T08:01:11Z</time>
      </trkpt>
      <trkpt lat="44.41838" lon="2.8644">
        <ele>621.11</ele>
        <time>2016-06-23T08:01:24Z</time>
      </trkpt>
      <trkpt lat="44.41835" lon="2.86443">
        <ele>621.14</ele>
        <time>2016-06-23T08:01:27Z</time>
      </trkpt>
      <trkpt lat="44.41834" lon="2.86444">
        <ele>621.16</ele>
        <time>2016-06-23T08:01:28Z</time>
      </trkpt>
      <trkpt lat="44.41833" lon="2.86445">
        <ele>621.17</ele>
        <time>2016-06-23T08:01:29Z</time>
      </trkpt>
      <trkpt lat="44.41832" lon="2.86447">
        <ele>621.19</ele>
        <time>2016-06-23T08:01:30Z</time>
      </trkpt>
      <trkpt lat="44.41831" lon="2.86447">
        <ele>621.2</ele>
        <time>2016-06-23T08:01:31Z</time>
      </trkpt>
      <trkpt lat="44.4183" lon="2.86448">
        <ele>621.22</ele>
        <time>2016-06-23T08:01:32Z</time>
      </trkpt>
      <trkpt lat="44.41829" lon="2.86449">
        <ele>621.24</ele>
        <time>2016-06-23T08:01:33Z</time>
      </trkpt>
      <trkpt lat="44.41828" lon="2.8645">
        <ele>621.28</ele>
        <time>2016-06-23T08:01:34Z</time>
      </trkpt>
      <trkpt lat="44.41827" lon="2.86452">
        <ele>621.32</ele>
        <time>2016-06-23T08:01:35Z</time>
      </trkpt>
      <trkpt lat="44.41812" lon="2.86465">
        <ele>621.23</ele>
        <time>2016-06-23T08:01:48Z</time>
      </trkpt>
      <trkpt lat="44.418" lon="2.86478">
        <ele>621.06</ele>
        <time>2016-06-23T08:02:01Z</time>
      </trkpt>
      <trkpt lat="44.41797" lon="2.86481">
        <ele>621.31</ele>
        <time>2016-06-23T08:02:04Z</time>
      </trkpt>
      <trkpt lat="44.41796" lon="2.86482">
        <ele>621.42</ele>
        <time>2016-06-23T08:02:05Z</time>
      </trkpt>
      <trkpt lat="44.41795" lon="2.86483">
        <ele>621.52</ele>
        <time>2016-06-23T08:02:06Z</time>
      </trkpt>
      <trkpt lat="44.4178" lon="2.86496">
        <ele>621.54</ele>
        <time>2016-06-23T08:02:19Z</time>
      </trkpt>
      <trkpt lat="44.41762" lon="2.86512">
        <ele>621.51</ele>
        <time>2016-06-23T08:02:34Z</time>
      </trkpt>
      <trkpt lat="44.41745" lon="2.86526">
        <ele>622.51</ele>
        <time>2016-06-23T08:02:49Z</time>
      </trkpt>
      <trkpt lat="44.41731" lon="2.86535">
        <ele>623.29</ele>
        <time>2016-06-23T08:03:02Z</time>
      </trkpt>
      <trkpt lat="44.41714" lon="2.86544">
        <ele>623.93</ele>
        <time>2016-06-23T08:03:17Z</time>
      </trkpt>
      <trkpt lat="44.41699" lon="2.86554">
        <ele>624.82</ele>
        <time>2016-06-23T08:03:30Z</time>
      </trkpt>
      <trkpt lat="44.41683" lon="2.86565">
        <ele>625.48</ele>
        <time>2016-06-23T08:03:44Z</time>
      </trkpt>
      <trkpt lat="44.4168" lon="2.86567">
        <ele>625.54</ele>
        <time>2016-06-23T08:03:46Z</time>
      </trkpt>
      <trkpt lat="44.41679" lon="2.86568">
        <ele>625.6</ele>
        <time>2016-06-23T08:03:47Z</time>
      </trkpt>
      <trkpt lat="44.41678" lon="2.86569">
        <ele>625.67</ele>
        <time>2016-06-23T08:03:48Z</time>
      </trkpt>
      <trkpt lat="44.41677" lon="2.8657">
        <ele>625.74</ele>
        <time>2016-06-23T08:03:49Z</time>
      </trkpt>
      <trkpt lat="44.41675" lon="2.86571">
        <ele>625.92</ele>
        <time>2016-06-23T08:03:50Z</time>
      </trkpt>
      <trkpt lat="44.41674" lon="2.86572">
        <ele>626</ele>
        <time>2016-06-23T08:03:51Z</time>
      </trkpt>
      <trkpt lat="44.41673" lon="2.86573">
        <ele>626.07</ele>
        <time>2016-06-23T08:03:52Z</time>
      </trkpt>
      <trkpt lat="44.41672" lon="2.86574">
        <ele>626.11</ele>
        <time>2016-06-23T08:03:53Z</time>
      </trkpt>
      <trkpt lat="44.41657" lon="2.86587">
        <ele>627</ele>
        <time>2016-06-23T08:04:07Z</time>
      </trkpt>
      <trkpt lat="44.41641" lon="2.86603">
        <ele>628.47</ele>
        <time>2016-06-23T08:04:23Z</time>
      </trkpt>
      <trkpt lat="44.41628" lon="2.86617">
        <ele>629.9</ele>
        <time>2016-06-23T08:04:36Z</time>
      </trkpt>
      <trkpt lat="44.41611" lon="2.86632">
        <ele>631.97</ele>
        <time>2016-06-23T08:04:52Z</time>
      </trkpt>
      <trkpt lat="44.41596" lon="2.86646">
        <ele>633.36</ele>
        <time>2016-06-23T08:05:07Z</time>
      </trkpt>
      <trkpt lat="44.41592" lon="2.86652">
        <ele>633.52</ele>
        <time>2016-06-23T08:05:11Z</time>
      </trkpt>
      <trkpt lat="44.41591" lon="2.86653">
        <ele>633.55</ele>
        <time>2016-06-23T08:05:12Z</time>
      </trkpt>
      <trkpt lat="44.41591" lon="2.86655">
        <ele>633.58</ele>
        <time>2016-06-23T08:05:13Z</time>
      </trkpt>
      <trkpt lat="44.4159" lon="2.86656">
        <ele>633.61</ele>
        <time>2016-06-23T08:05:14Z</time>
      </trkpt>
      <trkpt lat="44.41589" lon="2.86658">
        <ele>633.62</ele>
        <time>2016-06-23T08:05:15Z</time>
      </trkpt>
      <trkpt lat="44.41589" lon="2.8666">
        <ele>633.63</ele>
        <time>2016-06-23T08:05:16Z</time>
      </trkpt>
      <trkpt lat="44.41589" lon="2.86664">
        <ele>633.68</ele>
        <time>2016-06-23T08:05:18Z</time>
      </trkpt>
      <trkpt lat="44.4159" lon="2.86666">
        <ele>633.67</ele>
        <time>2016-06-23T08:05:19Z</time>
      </trkpt>
      <trkpt lat="44.41605" lon="2.86689">
        <ele>634.52</ele>
        <time>2016-06-23T08:05:37Z</time>
      </trkpt>
      <trkpt lat="44.41618" lon="2.86707">
        <ele>637.84</ele>
        <time>2016-06-23T08:05:54Z</time>
      </trkpt>
      <trkpt lat="44.41633" lon="2.86727">
        <ele>640.44</ele>
        <time>2016-06-23T08:06:13Z</time>
      </trkpt>
      <trkpt lat="44.41647" lon="2.86747">
        <ele>642.26</ele>
        <time>2016-06-23T08:06:31Z</time>
      </trkpt>
      <trkpt lat="44.4166" lon="2.86763">
        <ele>644.63</ele>
        <time>2016-06-23T08:06:46Z</time>
      </trkpt>
      <trkpt lat="44.41676" lon="2.86766">
        <ele>645.74</ele>
        <time>2016-06-23T08:07:00Z</time>
      </trkpt>
      <trkpt lat="44.4169" lon="2.86766">
        <ele>647.14</ele>
        <time>2016-06-23T08:07:15Z</time>
      </trkpt>
      <trkpt lat="44.4171" lon="2.86765">
        <ele>649.31</ele>
        <time>2016-06-23T08:07:31Z</time>
      </trkpt>
      <trkpt lat="44.41732" lon="2.86765">
        <ele>650.44</ele>
        <time>2016-06-23T08:07:47Z</time>
      </trkpt>
      <trkpt lat="44.41752" lon="2.86768">
        <ele>651.65</ele>
        <time>2016-06-23T08:08:03Z</time>
      </trkpt>
      <trkpt lat="44.41771" lon="2.86775">
        <ele>652.05</ele>
        <time>2016-06-23T08:08:19Z</time>
      </trkpt>
      <trkpt lat="44.41776" lon="2.86777">
        <ele>652.73</ele>
        <time>2016-06-23T08:08:32Z</time>
      </trkpt>
      <trkpt lat="44.41777" lon="2.86777">
        <ele>652.99</ele>
        <time>2016-06-23T08:09:03Z</time>
      </trkpt>
      <trkpt lat="44.41776" lon="2.86776">
        <ele>653.4</ele>
        <time>2016-06-23T08:09:31Z</time>
      </trkpt>
      <trkpt lat="44.41779" lon="2.86777">
        <ele>653.27</ele>
        <time>2016-06-23T08:09:43Z</time>
      </trkpt>
      <trkpt lat="44.41781" lon="2.86778">
        <ele>653.09</ele>
        <time>2016-06-23T08:09:45Z</time>
      </trkpt>
      <trkpt lat="44.4178" lon="2.86777">
        <ele>652.59</ele>
        <time>2016-06-23T08:09:54Z</time>
      </trkpt>
      <trkpt lat="44.41779" lon="2.86776">
        <ele>652.61</ele>
        <time>2016-06-23T08:09:55Z</time>
      </trkpt>
      <trkpt lat="44.41778" lon="2.86776">
        <ele>652.61</ele>
        <time>2016-06-23T08:09:56Z</time>
      </trkpt>
      <trkpt lat="44.41777" lon="2.86775">
        <ele>652.6</ele>
        <time>2016-06-23T08:09:57Z</time>
      </trkpt>
      <trkpt lat="44.41774" lon="2.86775">
        <ele>652.52</ele>
        <time>2016-06-23T08:10:00Z</time>
      </trkpt>
      <trkpt lat="44.41774" lon="2.86775">
        <ele>652.35</ele>
        <time>2016-06-23T08:10:15Z</time>
      </trkpt>
      <trkpt lat="44.41775" lon="2.86776">
        <ele>652.3</ele>
        <time>2016-06-23T08:10:17Z</time>
      </trkpt>
      <trkpt lat="44.41779" lon="2.86777">
        <ele>652.29</ele>
        <time>2016-06-23T08:10:20Z</time>
      </trkpt>
      <trkpt lat="44.41798" lon="2.86789">
        <ele>652.43</ele>
        <time>2016-06-23T08:10:37Z</time>
      </trkpt>
      <trkpt lat="44.4181" lon="2.86803">
        <ele>653.09</ele>
        <time>2016-06-23T08:10:50Z</time>
      </trkpt>
      <trkpt lat="44.41811" lon="2.86805">
        <ele>653.16</ele>
        <time>2016-06-23T08:10:51Z</time>
      </trkpt>
      <trkpt lat="44.41811" lon="2.86807">
        <ele>653.23</ele>
        <time>2016-06-23T08:10:52Z</time>
      </trkpt>
      <trkpt lat="44.41811" lon="2.86809">
        <ele>653.28</ele>
        <time>2016-06-23T08:10:53Z</time>
      </trkpt>
      <trkpt lat="44.4181" lon="2.86813">
        <ele>653.27</ele>
        <time>2016-06-23T08:10:56Z</time>
      </trkpt>
      <trkpt lat="44.4181" lon="2.86814">
        <ele>653.21</ele>
        <time>2016-06-23T08:10:57Z</time>
      </trkpt>
      <trkpt lat="44.41806" lon="2.86831">
        <ele>652.34</ele>
        <time>2016-06-23T08:11:12Z</time>
      </trkpt>
      <trkpt lat="44.41805" lon="2.86835">
        <ele>651.77</ele>
        <time>2016-06-23T08:11:19Z</time>
      </trkpt>
      <trkpt lat="44.41804" lon="2.86839">
        <ele>651.75</ele>
        <time>2016-06-23T08:11:22Z</time>
      </trkpt>
      <trkpt lat="44.41796" lon="2.86862">
        <ele>650.69</ele>
        <time>2016-06-23T08:11:37Z</time>
      </trkpt>
      <trkpt lat="44.41788" lon="2.86887">
        <ele>648.37</ele>
        <time>2016-06-23T08:11:52Z</time>
      </trkpt>
      <trkpt lat="44.41784" lon="2.8691">
        <ele>647</ele>
        <time>2016-06-23T08:12:04Z</time>
      </trkpt>
      <trkpt lat="44.41781" lon="2.86936">
        <ele>645.69</ele>
        <time>2016-06-23T08:12:17Z</time>
      </trkpt>
      <trkpt lat="44.41783" lon="2.86976">
        <ele>643.35</ele>
        <time>2016-06-23T08:12:28Z</time>
      </trkpt>
      <trkpt lat="44.41774" lon="2.87">
        <ele>642.03</ele>
        <time>2016-06-23T08:12:43Z</time>
      </trkpt>
      <trkpt lat="44.4176" lon="2.8703">
        <ele>643.31</ele>
        <time>2016-06-23T08:13:02Z</time>
      </trkpt>
      <trkpt lat="44.41745" lon="2.87058">
        <ele>642.8</ele>
        <time>2016-06-23T08:13:20Z</time>
      </trkpt>
      <trkpt lat="44.41733" lon="2.87088">
        <ele>641.79</ele>
        <time>2016-06-23T08:13:38Z</time>
      </trkpt>
      <trkpt lat="44.41723" lon="2.87115">
        <ele>640.52</ele>
        <time>2016-06-23T08:13:54Z</time>
      </trkpt>
      <trkpt lat="44.41713" lon="2.87142">
        <ele>639.16</ele>
        <time>2016-06-23T08:14:09Z</time>
      </trkpt>
      <trkpt lat="44.41702" lon="2.87164">
        <ele>638.28</ele>
        <time>2016-06-23T08:14:23Z</time>
      </trkpt>
      <trkpt lat="44.41695" lon="2.87181">
        <ele>637.51</ele>
        <time>2016-06-23T08:14:33Z</time>
      </trkpt>
      <trkpt lat="44.41694" lon="2.87214">
        <ele>637.3</ele>
        <time>2016-06-23T08:14:51Z</time>
      </trkpt>
      <trkpt lat="44.41694" lon="2.87216">
        <ele>637.36</ele>
        <time>2016-06-23T08:14:52Z</time>
      </trkpt>
      <trkpt lat="44.41691" lon="2.87242">
        <ele>636.55</ele>
        <time>2016-06-23T08:15:07Z</time>
      </trkpt>
      <trkpt lat="44.41691" lon="2.87244">
        <ele>636.38</ele>
        <time>2016-06-23T08:15:08Z</time>
      </trkpt>
      <trkpt lat="44.41696" lon="2.87276">
        <ele>633.21</ele>
        <time>2016-06-23T08:15:25Z</time>
      </trkpt>
      <trkpt lat="44.41696" lon="2.87278">
        <ele>633.03</ele>
        <time>2016-06-23T08:15:26Z</time>
      </trkpt>
      <trkpt lat="44.41677" lon="2.87287">
        <ele>629.66</ele>
        <time>2016-06-23T08:15:40Z</time>
      </trkpt>
      <trkpt lat="44.4166" lon="2.87293">
        <ele>627.7</ele>
        <time>2016-06-23T08:15:53Z</time>
      </trkpt>
      <trkpt lat="44.41644" lon="2.87319">
        <ele>624.86</ele>
        <time>2016-06-23T08:16:12Z</time>
      </trkpt>
      <trkpt lat="44.41637" lon="2.87331">
        <ele>624.16</ele>
        <time>2016-06-23T08:16:22Z</time>
      </trkpt>
      <trkpt lat="44.41635" lon="2.87335">
        <ele>624.11</ele>
        <time>2016-06-23T08:16:25Z</time>
      </trkpt>
      <trkpt lat="44.41628" lon="2.87346">
        <ele>623.93</ele>
        <time>2016-06-23T08:16:33Z</time>
      </trkpt>
      <trkpt lat="44.41626" lon="2.8735">
        <ele>623.86</ele>
        <time>2016-06-23T08:16:35Z</time>
      </trkpt>
      <trkpt lat="44.41625" lon="2.87363">
        <ele>623.38</ele>
        <time>2016-06-23T08:16:43Z</time>
      </trkpt>
      <trkpt lat="44.41632" lon="2.87375">
        <ele>621.85</ele>
        <time>2016-06-23T08:16:51Z</time>
      </trkpt>
      <trkpt lat="44.41633" lon="2.87384">
        <ele>620.6</ele>
        <time>2016-06-23T08:16:57Z</time>
      </trkpt>
      <trkpt lat="44.4163" lon="2.87396">
        <ele>619.36</ele>
        <time>2016-06-23T08:17:07Z</time>
      </trkpt>
      <trkpt lat="44.41618" lon="2.87416">
        <ele>619.55</ele>
        <time>2016-06-23T08:17:23Z</time>
      </trkpt>
      <trkpt lat="44.41602" lon="2.87438">
        <ele>619.88</ele>
        <time>2016-06-23T08:17:40Z</time>
      </trkpt>
      <trkpt lat="44.41587" lon="2.87454">
        <ele>619.42</ele>
        <time>2016-06-23T08:17:54Z</time>
      </trkpt>
      <trkpt lat="44.41569" lon="2.87466">
        <ele>619.65</ele>
        <time>2016-06-23T08:18:10Z</time>
      </trkpt>
      <trkpt lat="44.41548" lon="2.8747">
        <ele>620.53</ele>
        <time>2016-06-23T08:18:26Z</time>
      </trkpt>
      <trkpt lat="44.41525" lon="2.87473">
        <ele>620.39</ele>
        <time>2016-06-23T08:18:43Z</time>
      </trkpt>
      <trkpt lat="44.41506" lon="2.87479">
        <ele>620.17</ele>
        <time>2016-06-23T08:18:58Z</time>
      </trkpt>
      <trkpt lat="44.41489" lon="2.87489">
        <ele>619.28</ele>
        <time>2016-06-23T08:19:12Z</time>
      </trkpt>
      <trkpt lat="44.41475" lon="2.87504">
        <ele>618.1</ele>
        <time>2016-06-23T08:19:27Z</time>
      </trkpt>
      <trkpt lat="44.41459" lon="2.87515">
        <ele>615.77</ele>
        <time>2016-06-23T08:19:42Z</time>
      </trkpt>
      <trkpt lat="44.41445" lon="2.87532">
        <ele>614.11</ele>
        <time>2016-06-23T08:19:57Z</time>
      </trkpt>
      <trkpt lat="44.41434" lon="2.87542">
        <ele>611.59</ele>
        <time>2016-06-23T08:20:10Z</time>
      </trkpt>
      <trkpt lat="44.4142" lon="2.87552">
        <ele>608.79</ele>
        <time>2016-06-23T08:20:24Z</time>
      </trkpt>
      <trkpt lat="44.41413" lon="2.87558">
        <ele>606.89</ele>
        <time>2016-06-23T08:20:42Z</time>
      </trkpt>
      <trkpt lat="44.414" lon="2.87565">
        <ele>605.72</ele>
        <time>2016-06-23T08:20:54Z</time>
      </trkpt>
      <trkpt lat="44.4139" lon="2.87579">
        <ele>603.67</ele>
        <time>2016-06-23T08:21:08Z</time>
      </trkpt>
      <trkpt lat="44.4139" lon="2.87598">
        <ele>606.16</ele>
        <time>2016-06-23T08:21:24Z</time>
      </trkpt>
      <trkpt lat="44.41391" lon="2.87618">
        <ele>609.25</ele>
        <time>2016-06-23T08:21:40Z</time>
      </trkpt>
      <trkpt lat="44.4139" lon="2.87638">
        <ele>612.37</ele>
        <time>2016-06-23T08:21:55Z</time>
      </trkpt>
      <trkpt lat="44.41392" lon="2.8765">
        <ele>613.57</ele>
        <time>2016-06-23T08:22:03Z</time>
      </trkpt>
      <trkpt lat="44.41399" lon="2.87675">
        <ele>616.53</ele>
        <time>2016-06-23T08:22:20Z</time>
      </trkpt>
      <trkpt lat="44.41408" lon="2.87695">
        <ele>619.7</ele>
        <time>2016-06-23T08:22:37Z</time>
      </trkpt>
      <trkpt lat="44.41418" lon="2.87719">
        <ele>622.01</ele>
        <time>2016-06-23T08:22:53Z</time>
      </trkpt>
      <trkpt lat="44.41431" lon="2.87745">
        <ele>624.5</ele>
        <time>2016-06-23T08:23:11Z</time>
      </trkpt>
      <trkpt lat="44.41435" lon="2.87748">
        <ele>624.93</ele>
        <time>2016-06-23T08:23:15Z</time>
      </trkpt>
      <trkpt lat="44.41449" lon="2.87758">
        <ele>626.33</ele>
        <time>2016-06-23T08:23:29Z</time>
      </trkpt>
      <trkpt lat="44.41466" lon="2.87767">
        <ele>627.43</ele>
        <time>2016-06-23T08:23:44Z</time>
      </trkpt>
      <trkpt lat="44.4148" lon="2.87782">
        <ele>628.9</ele>
        <time>2016-06-23T08:24:00Z</time>
      </trkpt>
      <trkpt lat="44.41488" lon="2.8781">
        <ele>627.19</ele>
        <time>2016-06-23T08:24:17Z</time>
      </trkpt>
      <trkpt lat="44.41484" lon="2.87838">
        <ele>626.38</ele>
        <time>2016-06-23T08:24:33Z</time>
      </trkpt>
      <trkpt lat="44.41473" lon="2.87862">
        <ele>625.2</ele>
        <time>2016-06-23T08:24:49Z</time>
      </trkpt>
      <trkpt lat="44.41461" lon="2.87885">
        <ele>623.52</ele>
        <time>2016-06-23T08:25:04Z</time>
      </trkpt>
      <trkpt lat="44.41449" lon="2.87909">
        <ele>623</ele>
        <time>2016-06-23T08:25:20Z</time>
      </trkpt>
      <trkpt lat="44.4144" lon="2.87937">
        <ele>622.21</ele>
        <time>2016-06-23T08:25:38Z</time>
      </trkpt>
      <trkpt lat="44.4144" lon="2.87956">
        <ele>621.83</ele>
        <time>2016-06-23T08:25:49Z</time>
      </trkpt>
      <trkpt lat="44.41439" lon="2.87966">
        <ele>621.94</ele>
        <time>2016-06-23T08:25:55Z</time>
      </trkpt>
      <trkpt lat="44.41436" lon="2.87984">
        <ele>620.81</ele>
        <time>2016-06-23T08:26:09Z</time>
      </trkpt>
      <trkpt lat="44.41432" lon="2.88013">
        <ele>619.79</ele>
        <time>2016-06-23T08:26:22Z</time>
      </trkpt>
      <trkpt lat="44.41432" lon="2.88019">
        <ele>619.39</ele>
        <time>2016-06-23T08:26:25Z</time>
      </trkpt>
      <trkpt lat="44.4144" lon="2.88052">
        <ele>619.64</ele>
        <time>2016-06-23T08:26:44Z</time>
      </trkpt>
      <trkpt lat="44.4145" lon="2.88083">
        <ele>621.92</ele>
        <time>2016-06-23T08:27:03Z</time>
      </trkpt>
      <trkpt lat="44.4146" lon="2.88107">
        <ele>623.64</ele>
        <time>2016-06-23T08:27:20Z</time>
      </trkpt>
      <trkpt lat="44.41469" lon="2.8813">
        <ele>625.97</ele>
        <time>2016-06-23T08:27:36Z</time>
      </trkpt>
      <trkpt lat="44.4148" lon="2.88152">
        <ele>627.02</ele>
        <time>2016-06-23T08:27:53Z</time>
      </trkpt>
      <trkpt lat="44.41496" lon="2.88175">
        <ele>628.68</ele>
        <time>2016-06-23T08:28:12Z</time>
      </trkpt>
      <trkpt lat="44.41515" lon="2.88192">
        <ele>630.59</ele>
        <time>2016-06-23T08:28:31Z</time>
      </trkpt>
      <trkpt lat="44.41534" lon="2.88201">
        <ele>632.84</ele>
        <time>2016-06-23T08:28:49Z</time>
      </trkpt>
      <trkpt lat="44.41553" lon="2.88222">
        <ele>633.28</ele>
        <time>2016-06-23T08:29:08Z</time>
      </trkpt>
      <trkpt lat="44.41565" lon="2.88243">
        <ele>631.6</ele>
        <time>2016-06-23T08:29:23Z</time>
      </trkpt>
      <trkpt lat="44.41576" lon="2.88266">
        <ele>630.09</ele>
        <time>2016-06-23T08:29:40Z</time>
      </trkpt>
      <trkpt lat="44.41576" lon="2.88282">
        <ele>629.89</ele>
        <time>2016-06-23T08:29:51Z</time>
      </trkpt>
      <trkpt lat="44.41567" lon="2.88308">
        <ele>632.94</ele>
        <time>2016-06-23T08:30:11Z</time>
      </trkpt>
      <trkpt lat="44.41564" lon="2.8833">
        <ele>634.91</ele>
        <time>2016-06-23T08:30:26Z</time>
      </trkpt>
      <trkpt lat="44.41564" lon="2.88341">
        <ele>635.58</ele>
        <time>2016-06-23T08:30:34Z</time>
      </trkpt>
      <trkpt lat="44.41565" lon="2.88367">
        <ele>637.51</ele>
        <time>2016-06-23T08:30:50Z</time>
      </trkpt>
      <trkpt lat="44.41571" lon="2.88398">
        <ele>638.96</ele>
        <time>2016-06-23T08:31:08Z</time>
      </trkpt>
      <trkpt lat="44.41586" lon="2.88416">
        <ele>639.78</ele>
        <time>2016-06-23T08:31:24Z</time>
      </trkpt>
      <trkpt lat="44.416" lon="2.8843">
        <ele>639.26</ele>
        <time>2016-06-23T08:31:37Z</time>
      </trkpt>
      <trkpt lat="44.41618" lon="2.88441">
        <ele>637.61</ele>
        <time>2016-06-23T08:31:51Z</time>
      </trkpt>
      <trkpt lat="44.41638" lon="2.88447">
        <ele>636.06</ele>
        <time>2016-06-23T08:32:06Z</time>
      </trkpt>
      <trkpt lat="44.41652" lon="2.88459">
        <ele>635.36</ele>
        <time>2016-06-23T08:32:20Z</time>
      </trkpt>
      <trkpt lat="44.41663" lon="2.8848">
        <ele>635.7</ele>
        <time>2016-06-23T08:32:35Z</time>
      </trkpt>
      <trkpt lat="44.41677" lon="2.88503">
        <ele>636.39</ele>
        <time>2016-06-23T08:32:51Z</time>
      </trkpt>
      <trkpt lat="44.41695" lon="2.88515">
        <ele>636.38</ele>
        <time>2016-06-23T08:33:06Z</time>
      </trkpt>
      <trkpt lat="44.41717" lon="2.88524">
        <ele>634.97</ele>
        <time>2016-06-23T08:33:23Z</time>
      </trkpt>
      <trkpt lat="44.41738" lon="2.88526">
        <ele>634.07</ele>
        <time>2016-06-23T08:33:40Z</time>
      </trkpt>
      <trkpt lat="44.41756" lon="2.88529">
        <ele>633.18</ele>
        <time>2016-06-23T08:33:55Z</time>
      </trkpt>
      <trkpt lat="44.4177" lon="2.88541">
        <ele>633.25</ele>
        <time>2016-06-23T08:34:09Z</time>
      </trkpt>
      <trkpt lat="44.41772" lon="2.88543">
        <ele>633.29</ele>
        <time>2016-06-23T08:34:11Z</time>
      </trkpt>
      <trkpt lat="44.41789" lon="2.88559">
        <ele>633.03</ele>
        <time>2016-06-23T08:34:26Z</time>
      </trkpt>
      <trkpt lat="44.41806" lon="2.88576">
        <ele>632.07</ele>
        <time>2016-06-23T08:34:44Z</time>
      </trkpt>
      <trkpt lat="44.41813" lon="2.88583">
        <ele>632.12</ele>
        <time>2016-06-23T08:34:51Z</time>
      </trkpt>
      <trkpt lat="44.4182" lon="2.88593">
        <ele>632.59</ele>
        <time>2016-06-23T08:34:59Z</time>
      </trkpt>
      <trkpt lat="44.41823" lon="2.88595">
        <ele>632.89</ele>
        <time>2016-06-23T08:35:02Z</time>
      </trkpt>
      <trkpt lat="44.41844" lon="2.88615">
        <ele>634.45</ele>
        <time>2016-06-23T08:35:23Z</time>
      </trkpt>
      <trkpt lat="44.41851" lon="2.8862">
        <ele>634.93</ele>
        <time>2016-06-23T08:35:29Z</time>
      </trkpt>
      <trkpt lat="44.41873" lon="2.88632">
        <ele>635.6</ele>
        <time>2016-06-23T08:35:47Z</time>
      </trkpt>
      <trkpt lat="44.41891" lon="2.88643">
        <ele>634.97</ele>
        <time>2016-06-23T08:36:02Z</time>
      </trkpt>
      <trkpt lat="44.41896" lon="2.88644">
        <ele>634.77</ele>
        <time>2016-06-23T08:36:06Z</time>
      </trkpt>
      <trkpt lat="44.419" lon="2.88648">
        <ele>634.73</ele>
        <time>2016-06-23T08:36:10Z</time>
      </trkpt>
      <trkpt lat="44.4192" lon="2.88652">
        <ele>634.37</ele>
        <time>2016-06-23T08:36:27Z</time>
      </trkpt>
      <trkpt lat="44.41941" lon="2.88652">
        <ele>634.44</ele>
        <time>2016-06-23T08:36:45Z</time>
      </trkpt>
      <trkpt lat="44.41959" lon="2.88652">
        <ele>634.58</ele>
        <time>2016-06-23T08:37:02Z</time>
      </trkpt>
      <trkpt lat="44.41979" lon="2.88648">
        <ele>634.1</ele>
        <time>2016-06-23T08:37:17Z</time>
      </trkpt>
      <trkpt lat="44.41998" lon="2.88643">
        <ele>635</ele>
        <time>2016-06-23T08:37:32Z</time>
      </trkpt>
      <trkpt lat="44.4202" lon="2.88626">
        <ele>634.75</ele>
        <time>2016-06-23T08:37:51Z</time>
      </trkpt>
      <trkpt lat="44.4203" lon="2.8861">
        <ele>635.1</ele>
        <time>2016-06-23T08:38:04Z</time>
      </trkpt>
      <trkpt lat="44.42042" lon="2.88594">
        <ele>634.33</ele>
        <time>2016-06-23T08:38:18Z</time>
      </trkpt>
      <trkpt lat="44.42059" lon="2.88588">
        <ele>632.93</ele>
        <time>2016-06-23T08:38:36Z</time>
      </trkpt>
      <trkpt lat="44.42076" lon="2.8859">
        <ele>632.66</ele>
        <time>2016-06-23T08:38:51Z</time>
      </trkpt>
      <trkpt lat="44.42093" lon="2.88596">
        <ele>632.33</ele>
        <time>2016-06-23T08:39:06Z</time>
      </trkpt>
      <trkpt lat="44.4211" lon="2.88606">
        <ele>632.58</ele>
        <time>2016-06-23T08:39:19Z</time>
      </trkpt>
      <trkpt lat="44.42127" lon="2.88607">
        <ele>634.12</ele>
        <time>2016-06-23T08:39:34Z</time>
      </trkpt>
      <trkpt lat="44.42143" lon="2.88606">
        <ele>634.21</ele>
        <time>2016-06-23T08:39:48Z</time>
      </trkpt>
      <trkpt lat="44.42153" lon="2.88606">
        <ele>634.02</ele>
        <time>2016-06-23T08:39:56Z</time>
      </trkpt>
      <trkpt lat="44.42159" lon="2.88607">
        <ele>633.23</ele>
        <time>2016-06-23T08:40:01Z</time>
      </trkpt>
      <trkpt lat="44.42178" lon="2.88615">
        <ele>631.89</ele>
        <time>2016-06-23T08:40:16Z</time>
      </trkpt>
      <trkpt lat="44.42203" lon="2.88618">
        <ele>630.48</ele>
        <time>2016-06-23T08:40:33Z</time>
      </trkpt>
      <trkpt lat="44.42221" lon="2.88621">
        <ele>629.58</ele>
        <time>2016-06-23T08:40:48Z</time>
      </trkpt>
      <trkpt lat="44.42245" lon="2.88622">
        <ele>629.14</ele>
        <time>2016-06-23T08:41:06Z</time>
      </trkpt>
      <trkpt lat="44.42261" lon="2.88622">
        <ele>629.23</ele>
        <time>2016-06-23T08:41:19Z</time>
      </trkpt>
      <trkpt lat="44.4228" lon="2.88621">
        <ele>630.26</ele>
        <time>2016-06-23T08:41:34Z</time>
      </trkpt>
      <trkpt lat="44.423" lon="2.88617">
        <ele>631.6</ele>
        <time>2016-06-23T08:41:50Z</time>
      </trkpt>
      <trkpt lat="44.42315" lon="2.88615">
        <ele>631.24</ele>
        <time>2016-06-23T08:42:02Z</time>
      </trkpt>
      <trkpt lat="44.42318" lon="2.88614">
        <ele>631</ele>
        <time>2016-06-23T08:42:04Z</time>
      </trkpt>
      <trkpt lat="44.42336" lon="2.88611">
        <ele>630.55</ele>
        <time>2016-06-23T08:42:19Z</time>
      </trkpt>
      <trkpt lat="44.42341" lon="2.88617">
        <ele>629.83</ele>
        <time>2016-06-23T08:42:31Z</time>
      </trkpt>
      <trkpt lat="44.42336" lon="2.88624">
        <ele>629.5</ele>
        <time>2016-06-23T08:42:39Z</time>
      </trkpt>
      <trkpt lat="44.42333" lon="2.88629">
        <ele>629.45</ele>
        <time>2016-06-23T08:42:44Z</time>
      </trkpt>
      <trkpt lat="44.42331" lon="2.88637">
        <ele>629.52</ele>
        <time>2016-06-23T08:42:55Z</time>
      </trkpt>
      <trkpt lat="44.42325" lon="2.88647">
        <ele>629.69</ele>
        <time>2016-06-23T08:43:02Z</time>
      </trkpt>
      <trkpt lat="44.42314" lon="2.88672">
        <ele>629.67</ele>
        <time>2016-06-23T08:43:18Z</time>
      </trkpt>
      <trkpt lat="44.42304" lon="2.88698">
        <ele>629.9</ele>
        <time>2016-06-23T08:43:34Z</time>
      </trkpt>
      <trkpt lat="44.42292" lon="2.88722">
        <ele>629.85</ele>
        <time>2016-06-23T08:43:49Z</time>
      </trkpt>
      <trkpt lat="44.42281" lon="2.8875">
        <ele>630.12</ele>
        <time>2016-06-23T08:44:07Z</time>
      </trkpt>
      <trkpt lat="44.42274" lon="2.88775">
        <ele>630.24</ele>
        <time>2016-06-23T08:44:22Z</time>
      </trkpt>
      <trkpt lat="44.42268" lon="2.88792">
        <ele>629.65</ele>
        <time>2016-06-23T08:44:32Z</time>
      </trkpt>
      <trkpt lat="44.4226" lon="2.88811">
        <ele>628.83</ele>
        <time>2016-06-23T08:44:43Z</time>
      </trkpt>
      <trkpt lat="44.42253" lon="2.88827">
        <ele>628.36</ele>
        <time>2016-06-23T08:44:53Z</time>
      </trkpt>
      <trkpt lat="44.42246" lon="2.88862">
        <ele>625.67</ele>
        <time>2016-06-23T08:45:12Z</time>
      </trkpt>
      <trkpt lat="44.42241" lon="2.88885">
        <ele>624.08</ele>
        <time>2016-06-23T08:45:25Z</time>
      </trkpt>
      <trkpt lat="44.4224" lon="2.88892">
        <ele>623.53</ele>
        <time>2016-06-23T08:45:29Z</time>
      </trkpt>
      <trkpt lat="44.42229" lon="2.88919">
        <ele>623.15</ele>
        <time>2016-06-23T08:45:47Z</time>
      </trkpt>
      <trkpt lat="44.42215" lon="2.8894">
        <ele>623.01</ele>
        <time>2016-06-23T08:46:02Z</time>
      </trkpt>
      <trkpt lat="44.42202" lon="2.88963">
        <ele>622.9</ele>
        <time>2016-06-23T08:46:19Z</time>
      </trkpt>
      <trkpt lat="44.422" lon="2.88967">
        <ele>623.01</ele>
        <time>2016-06-23T08:46:22Z</time>
      </trkpt>
      <trkpt lat="44.42185" lon="2.88984">
        <ele>623.29</ele>
        <time>2016-06-23T08:46:37Z</time>
      </trkpt>
      <trkpt lat="44.42168" lon="2.89003">
        <ele>623.33</ele>
        <time>2016-06-23T08:46:54Z</time>
      </trkpt>
      <trkpt lat="44.42163" lon="2.89008">
        <ele>623.35</ele>
        <time>2016-06-23T08:46:59Z</time>
      </trkpt>
      <trkpt lat="44.42156" lon="2.89015">
        <ele>623.18</ele>
        <time>2016-06-23T08:47:06Z</time>
      </trkpt>
      <trkpt lat="44.42141" lon="2.89032">
        <ele>623.24</ele>
        <time>2016-06-23T08:47:22Z</time>
      </trkpt>
      <trkpt lat="44.42132" lon="2.89042">
        <ele>622.38</ele>
        <time>2016-06-23T08:47:32Z</time>
      </trkpt>
      <trkpt lat="44.4212" lon="2.89062">
        <ele>621.22</ele>
        <time>2016-06-23T08:47:49Z</time>
      </trkpt>
      <trkpt lat="44.42133" lon="2.89083">
        <ele>619.68</ele>
        <time>2016-06-23T08:48:04Z</time>
      </trkpt>
      <trkpt lat="44.4214" lon="2.89088">
        <ele>619.23</ele>
        <time>2016-06-23T08:48:10Z</time>
      </trkpt>
      <trkpt lat="44.42145" lon="2.89092">
        <ele>618.82</ele>
        <time>2016-06-23T08:48:15Z</time>
      </trkpt>
      <trkpt lat="44.42148" lon="2.89093">
        <ele>618.61</ele>
        <time>2016-06-23T08:48:17Z</time>
      </trkpt>
      <trkpt lat="44.42164" lon="2.89105">
        <ele>617.19</ele>
        <time>2016-06-23T08:48:32Z</time>
      </trkpt>
      <trkpt lat="44.42182" lon="2.89118">
        <ele>616.49</ele>
        <time>2016-06-23T08:48:48Z</time>
      </trkpt>
      <trkpt lat="44.422" lon="2.89135">
        <ele>616.16</ele>
        <time>2016-06-23T08:49:05Z</time>
      </trkpt>
      <trkpt lat="44.42222" lon="2.89157">
        <ele>615.84</ele>
        <time>2016-06-23T08:49:25Z</time>
      </trkpt>
      <trkpt lat="44.42241" lon="2.89165">
        <ele>617.02</ele>
        <time>2016-06-23T08:49:41Z</time>
      </trkpt>
      <trkpt lat="44.4226" lon="2.89173">
        <ele>617.89</ele>
        <time>2016-06-23T08:49:56Z</time>
      </trkpt>
      <trkpt lat="44.42278" lon="2.89181">
        <ele>618.72</ele>
        <time>2016-06-23T08:50:11Z</time>
      </trkpt>
      <trkpt lat="44.42297" lon="2.89189">
        <ele>619.64</ele>
        <time>2016-06-23T08:50:28Z</time>
      </trkpt>
      <trkpt lat="44.42302" lon="2.8919">
        <ele>620.66</ele>
        <time>2016-06-23T08:50:42Z</time>
      </trkpt>
      <trkpt lat="44.42317" lon="2.89196">
        <ele>621.92</ele>
        <time>2016-06-23T08:50:57Z</time>
      </trkpt>
      <trkpt lat="44.42337" lon="2.892">
        <ele>623.74</ele>
        <time>2016-06-23T08:51:13Z</time>
      </trkpt>
      <trkpt lat="44.42362" lon="2.89202">
        <ele>625.24</ele>
        <time>2016-06-23T08:51:31Z</time>
      </trkpt>
      <trkpt lat="44.42378" lon="2.89197">
        <ele>625.96</ele>
        <time>2016-06-23T08:51:45Z</time>
      </trkpt>
      <trkpt lat="44.42397" lon="2.89192">
        <ele>626.37</ele>
        <time>2016-06-23T08:52:00Z</time>
      </trkpt>
      <trkpt lat="44.42408" lon="2.89189">
        <ele>626.6</ele>
        <time>2016-06-23T08:52:09Z</time>
      </trkpt>
      <trkpt lat="44.42411" lon="2.89188">
        <ele>626.82</ele>
        <time>2016-06-23T08:52:12Z</time>
      </trkpt>
      <trkpt lat="44.42427" lon="2.89186">
        <ele>627.2</ele>
        <time>2016-06-23T08:52:28Z</time>
      </trkpt>
      <trkpt lat="44.42432" lon="2.89187">
        <ele>627.18</ele>
        <time>2016-06-23T08:52:32Z</time>
      </trkpt>
      <trkpt lat="44.42435" lon="2.89186">
        <ele>627.22</ele>
        <time>2016-06-23T08:52:34Z</time>
      </trkpt>
      <trkpt lat="44.42448" lon="2.89191">
        <ele>627.43</ele>
        <time>2016-06-23T08:52:45Z</time>
      </trkpt>
      <trkpt lat="44.42454" lon="2.89198">
        <ele>627.72</ele>
        <time>2016-06-23T08:52:52Z</time>
      </trkpt>
      <trkpt lat="44.42458" lon="2.89222">
        <ele>627.98</ele>
        <time>2016-06-23T08:53:07Z</time>
      </trkpt>
      <trkpt lat="44.42461" lon="2.89248">
        <ele>627.09</ele>
        <time>2016-06-23T08:53:22Z</time>
      </trkpt>
      <trkpt lat="44.42465" lon="2.89281">
        <ele>626.84</ele>
        <time>2016-06-23T08:53:40Z</time>
      </trkpt>
      <trkpt lat="44.4247" lon="2.8931">
        <ele>626.05</ele>
        <time>2016-06-23T08:53:55Z</time>
      </trkpt>
      <trkpt lat="44.4248" lon="2.89342">
        <ele>625.7</ele>
        <time>2016-06-23T08:54:12Z</time>
      </trkpt>
      <trkpt lat="44.4249" lon="2.89369">
        <ele>625.47</ele>
        <time>2016-06-23T08:54:28Z</time>
      </trkpt>
      <trkpt lat="44.42505" lon="2.894">
        <ele>624.32</ele>
        <time>2016-06-23T08:54:47Z</time>
      </trkpt>
      <trkpt lat="44.42523" lon="2.89424">
        <ele>623.12</ele>
        <time>2016-06-23T08:55:05Z</time>
      </trkpt>
      <trkpt lat="44.42536" lon="2.8945">
        <ele>621.36</ele>
        <time>2016-06-23T08:55:22Z</time>
      </trkpt>
      <trkpt lat="44.42547" lon="2.89476">
        <ele>618.73</ele>
        <time>2016-06-23T08:55:38Z</time>
      </trkpt>
      <trkpt lat="44.42557" lon="2.89502">
        <ele>617.14</ele>
        <time>2016-06-23T08:55:55Z</time>
      </trkpt>
      <trkpt lat="44.42561" lon="2.89532">
        <ele>615.13</ele>
        <time>2016-06-23T08:56:12Z</time>
      </trkpt>
      <trkpt lat="44.42561" lon="2.89561">
        <ele>613.8</ele>
        <time>2016-06-23T08:56:28Z</time>
      </trkpt>
      <trkpt lat="44.42562" lon="2.89569">
        <ele>613.2</ele>
        <time>2016-06-23T08:56:33Z</time>
      </trkpt>
      <trkpt lat="44.42569" lon="2.89598">
        <ele>611.02</ele>
        <time>2016-06-23T08:56:50Z</time>
      </trkpt>
      <trkpt lat="44.42576" lon="2.89627">
        <ele>610.74</ele>
        <time>2016-06-23T08:57:05Z</time>
      </trkpt>
      <trkpt lat="44.42575" lon="2.89655">
        <ele>610.62</ele>
        <time>2016-06-23T08:57:21Z</time>
      </trkpt>
      <trkpt lat="44.42568" lon="2.89663">
        <ele>610.74</ele>
        <time>2016-06-23T08:57:29Z</time>
      </trkpt>
      <trkpt lat="44.42554" lon="2.89676">
        <ele>612.58</ele>
        <time>2016-06-23T08:57:44Z</time>
      </trkpt>
      <trkpt lat="44.42537" lon="2.89688">
        <ele>615.31</ele>
        <time>2016-06-23T08:58:01Z</time>
      </trkpt>
      <trkpt lat="44.42522" lon="2.89702">
        <ele>616.01</ele>
        <time>2016-06-23T08:58:16Z</time>
      </trkpt>
      <trkpt lat="44.42507" lon="2.89717">
        <ele>615.66</ele>
        <time>2016-06-23T08:58:30Z</time>
      </trkpt>
      <trkpt lat="44.42492" lon="2.89739">
        <ele>616.52</ele>
        <time>2016-06-23T08:58:47Z</time>
      </trkpt>
      <trkpt lat="44.42479" lon="2.8976">
        <ele>617.86</ele>
        <time>2016-06-23T08:59:03Z</time>
      </trkpt>
      <trkpt lat="44.42467" lon="2.89769">
        <ele>619.84</ele>
        <time>2016-06-23T08:59:15Z</time>
      </trkpt>
      <trkpt lat="44.4245" lon="2.89779">
        <ele>622.31</ele>
        <time>2016-06-23T08:59:32Z</time>
      </trkpt>
      <trkpt lat="44.42437" lon="2.89796">
        <ele>623.3</ele>
        <time>2016-06-23T08:59:48Z</time>
      </trkpt>
      <trkpt lat="44.42434" lon="2.89812">
        <ele>622.33</ele>
        <time>2016-06-23T08:59:59Z</time>
      </trkpt>
      <trkpt lat="44.42432" lon="2.89835">
        <ele>620.84</ele>
        <time>2016-06-23T09:00:13Z</time>
      </trkpt>
      <trkpt lat="44.42425" lon="2.89857">
        <ele>619.54</ele>
        <time>2016-06-23T09:00:29Z</time>
      </trkpt>
      <trkpt lat="44.42421" lon="2.89885">
        <ele>618.52</ele>
        <time>2016-06-23T09:00:44Z</time>
      </trkpt>
      <trkpt lat="44.42416" lon="2.89916">
        <ele>618.61</ele>
        <time>2016-06-23T09:01:00Z</time>
      </trkpt>
      <trkpt lat="44.42412" lon="2.89929">
        <ele>618.95</ele>
        <time>2016-06-23T09:01:08Z</time>
      </trkpt>
      <trkpt lat="44.42406" lon="2.89946">
        <ele>619.07</ele>
        <time>2016-06-23T09:01:18Z</time>
      </trkpt>
      <trkpt lat="44.42399" lon="2.89962">
        <ele>618.21</ele>
        <time>2016-06-23T09:01:28Z</time>
      </trkpt>
      <trkpt lat="44.42392" lon="2.89985">
        <ele>619.09</ele>
        <time>2016-06-23T09:01:42Z</time>
      </trkpt>
      <trkpt lat="44.42386" lon="2.90008">
        <ele>620.48</ele>
        <time>2016-06-23T09:01:56Z</time>
      </trkpt>
      <trkpt lat="44.42381" lon="2.90019">
        <ele>620.39</ele>
        <time>2016-06-23T09:02:04Z</time>
      </trkpt>
      <trkpt lat="44.42374" lon="2.9005">
        <ele>620.36</ele>
        <time>2016-06-23T09:02:23Z</time>
      </trkpt>
      <trkpt lat="44.42368" lon="2.90076">
        <ele>620.3</ele>
        <time>2016-06-23T09:02:39Z</time>
      </trkpt>
      <trkpt lat="44.42359" lon="2.90095">
        <ele>619.79</ele>
        <time>2016-06-23T09:02:51Z</time>
      </trkpt>
      <trkpt lat="44.42358" lon="2.90098">
        <ele>619.62</ele>
        <time>2016-06-23T09:02:53Z</time>
      </trkpt>
      <trkpt lat="44.42353" lon="2.90117">
        <ele>619.53</ele>
        <time>2016-06-23T09:03:05Z</time>
      </trkpt>
      <trkpt lat="44.4235" lon="2.90146">
        <ele>620.16</ele>
        <time>2016-06-23T09:03:22Z</time>
      </trkpt>
      <trkpt lat="44.42337" lon="2.90157">
        <ele>619.19</ele>
        <time>2016-06-23T09:03:37Z</time>
      </trkpt>
      <trkpt lat="44.42329" lon="2.90154">
        <ele>618.89</ele>
        <time>2016-06-23T09:03:45Z</time>
      </trkpt>
      <trkpt lat="44.42327" lon="2.90155">
        <ele>618.74</ele>
        <time>2016-06-23T09:03:47Z</time>
      </trkpt>
      <trkpt lat="44.42322" lon="2.90155">
        <ele>618.27</ele>
        <time>2016-06-23T09:03:52Z</time>
      </trkpt>
      <trkpt lat="44.42304" lon="2.90174">
        <ele>616.03</ele>
        <time>2016-06-23T09:04:09Z</time>
      </trkpt>
      <trkpt lat="44.42302" lon="2.90178">
        <ele>614.9</ele>
        <time>2016-06-23T09:04:24Z</time>
      </trkpt>
      <trkpt lat="44.42302" lon="2.90184">
        <ele>614.92</ele>
        <time>2016-06-23T09:04:27Z</time>
      </trkpt>
      <trkpt lat="44.42302" lon="2.90205">
        <ele>614.43</ele>
        <time>2016-06-23T09:04:44Z</time>
      </trkpt>
      <trkpt lat="44.42302" lon="2.90218">
        <ele>612.7</ele>
        <time>2016-06-23T09:04:58Z</time>
      </trkpt>
      <trkpt lat="44.42302" lon="2.90219">
        <ele>612.57</ele>
        <time>2016-06-23T09:04:59Z</time>
      </trkpt>
      <trkpt lat="44.42301" lon="2.90225">
        <ele>612.39</ele>
        <time>2016-06-23T09:05:03Z</time>
      </trkpt>
      <trkpt lat="44.4229" lon="2.90237">
        <ele>612.16</ele>
        <time>2016-06-23T09:05:15Z</time>
      </trkpt>
      <trkpt lat="44.42286" lon="2.90259">
        <ele>613.39</ele>
        <time>2016-06-23T09:05:31Z</time>
      </trkpt>
      <trkpt lat="44.42286" lon="2.90259">
        <ele>613.56</ele>
        <time>2016-06-23T09:05:41Z</time>
      </trkpt>
      <trkpt lat="44.42286" lon="2.90255">
        <ele>613.47</ele>
        <time>2016-06-23T09:05:53Z</time>
      </trkpt>
      <trkpt lat="44.42285" lon="2.90254">
        <ele>612.47</ele>
        <time>2016-06-23T09:06:12Z</time>
      </trkpt>
      <trkpt lat="44.42287" lon="2.90255">
        <ele>612.29</ele>
        <time>2016-06-23T09:07:02Z</time>
      </trkpt>
      <trkpt lat="44.42286" lon="2.90257">
        <ele>612.72</ele>
        <time>2016-06-23T09:08:10Z</time>
      </trkpt>
      <trkpt lat="44.42288" lon="2.90256">
        <ele>611.34</ele>
        <time>2016-06-23T09:08:44Z</time>
      </trkpt>
      <trkpt lat="44.42286" lon="2.90254">
        <ele>611.64</ele>
        <time>2016-06-23T09:09:32Z</time>
      </trkpt>
      <trkpt lat="44.42287" lon="2.90255">
        <ele>612.2</ele>
        <time>2016-06-23T09:10:17Z</time>
      </trkpt>
      <trkpt lat="44.42289" lon="2.90258">
        <ele>611.47</ele>
        <time>2016-06-23T09:11:03Z</time>
      </trkpt>
      <trkpt lat="44.42288" lon="2.90259">
        <ele>610.88</ele>
        <time>2016-06-23T09:11:56Z</time>
      </trkpt>
      <trkpt lat="44.42289" lon="2.90257">
        <ele>610.41</ele>
        <time>2016-06-23T09:12:40Z</time>
      </trkpt>
      <trkpt lat="44.4229" lon="2.90254">
        <ele>611.62</ele>
        <time>2016-06-23T09:13:24Z</time>
      </trkpt>
      <trkpt lat="44.42287" lon="2.90256">
        <ele>611.39</ele>
        <time>2016-06-23T09:15:02Z</time>
      </trkpt>
      <trkpt lat="44.42287" lon="2.9026">
        <ele>611.46</ele>
        <time>2016-06-23T09:16:15Z</time>
      </trkpt>
      <trkpt lat="44.42288" lon="2.9026">
        <ele>610.46</ele>
        <time>2016-06-23T09:16:55Z</time>
      </trkpt>
      <trkpt lat="44.42288" lon="2.9026">
        <ele>610.81</ele>
        <time>2016-06-23T09:17:59Z</time>
      </trkpt>
      <trkpt lat="44.42289" lon="2.9026">
        <ele>611.23</ele>
        <time>2016-06-23T09:18:47Z</time>
      </trkpt>
      <trkpt lat="44.42288" lon="2.90257">
        <ele>610.01</ele>
        <time>2016-06-23T09:19:46Z</time>
      </trkpt>
      <trkpt lat="44.42287" lon="2.90258">
        <ele>611.05</ele>
        <time>2016-06-23T09:20:32Z</time>
      </trkpt>
      <trkpt lat="44.42287" lon="2.90258">
        <ele>610.97</ele>
        <time>2016-06-23T09:21:22Z</time>
      </trkpt>
      <trkpt lat="44.42288" lon="2.90258">
        <ele>610.05</ele>
        <time>2016-06-23T09:22:08Z</time>
      </trkpt>
      <trkpt lat="44.42288" lon="2.90259">
        <ele>610.22</ele>
        <time>2016-06-23T09:23:07Z</time>
      </trkpt>
      <trkpt lat="44.42287" lon="2.9026">
        <ele>610.32</ele>
        <time>2016-06-23T09:23:44Z</time>
      </trkpt>
      <trkpt lat="44.42289" lon="2.90259">
        <ele>610.55</ele>
        <time>2016-06-23T09:24:14Z</time>
      </trkpt>
      <trkpt lat="44.4229" lon="2.90256">
        <ele>610.39</ele>
        <time>2016-06-23T09:24:43Z</time>
      </trkpt>
      <trkpt lat="44.42289" lon="2.90254">
        <ele>609.67</ele>
        <time>2016-06-23T09:25:13Z</time>
      </trkpt>
      <trkpt lat="44.42287" lon="2.90251">
        <ele>609.93</ele>
        <time>2016-06-23T09:25:17Z</time>
      </trkpt>
      <trkpt lat="44.42287" lon="2.90254">
        <ele>610.45</ele>
        <time>2016-06-23T09:25:50Z</time>
      </trkpt>
      <trkpt lat="44.42286" lon="2.90253">
        <ele>610.42</ele>
        <time>2016-06-23T09:26:17Z</time>
      </trkpt>
      <trkpt lat="44.42286" lon="2.90251">
        <ele>610.29</ele>
        <time>2016-06-23T09:26:40Z</time>
      </trkpt>
      <trkpt lat="44.42281" lon="2.90248">
        <ele>609.95</ele>
        <time>2016-06-23T09:26:44Z</time>
      </trkpt>
      <trkpt lat="44.42271" lon="2.90251">
        <ele>608.34</ele>
        <time>2016-06-23T09:26:55Z</time>
      </trkpt>
      <trkpt lat="44.42269" lon="2.90252">
        <ele>608.04</ele>
        <time>2016-06-23T09:26:57Z</time>
      </trkpt>
      <trkpt lat="44.4225" lon="2.90268">
        <ele>606.3</ele>
        <time>2016-06-23T09:27:14Z</time>
      </trkpt>
      <trkpt lat="44.42241" lon="2.90275">
        <ele>606.34</ele>
        <time>2016-06-23T09:27:22Z</time>
      </trkpt>
      <trkpt lat="44.42223" lon="2.9029">
        <ele>604.06</ele>
        <time>2016-06-23T09:27:38Z</time>
      </trkpt>
      <trkpt lat="44.4221" lon="2.90313">
        <ele>602.77</ele>
        <time>2016-06-23T09:27:54Z</time>
      </trkpt>
      <trkpt lat="44.42209" lon="2.90315">
        <ele>602.76</ele>
        <time>2016-06-23T09:27:56Z</time>
      </trkpt>
      <trkpt lat="44.42204" lon="2.90318">
        <ele>602.8</ele>
        <time>2016-06-23T09:28:00Z</time>
      </trkpt>
      <trkpt lat="44.42199" lon="2.90329">
        <ele>602.53</ele>
        <time>2016-06-23T09:28:08Z</time>
      </trkpt>
      <trkpt lat="44.42197" lon="2.90359">
        <ele>602.03</ele>
        <time>2016-06-23T09:28:26Z</time>
      </trkpt>
      <trkpt lat="44.42199" lon="2.90386">
        <ele>602.25</ele>
        <time>2016-06-23T09:28:41Z</time>
      </trkpt>
      <trkpt lat="44.42203" lon="2.90414">
        <ele>601.75</ele>
        <time>2016-06-23T09:28:56Z</time>
      </trkpt>
      <trkpt lat="44.42212" lon="2.90443">
        <ele>601.53</ele>
        <time>2016-06-23T09:29:13Z</time>
      </trkpt>
      <trkpt lat="44.42222" lon="2.90467">
        <ele>600.8</ele>
        <time>2016-06-23T09:29:28Z</time>
      </trkpt>
      <trkpt lat="44.42224" lon="2.90496">
        <ele>601.09</ele>
        <time>2016-06-23T09:29:44Z</time>
      </trkpt>
      <trkpt lat="44.42222" lon="2.90526">
        <ele>600.21</ele>
        <time>2016-06-23T09:30:00Z</time>
      </trkpt>
      <trkpt lat="44.4222" lon="2.90551">
        <ele>599.59</ele>
        <time>2016-06-23T09:30:14Z</time>
      </trkpt>
      <trkpt lat="44.42213" lon="2.9058">
        <ele>599.21</ele>
        <time>2016-06-23T09:30:30Z</time>
      </trkpt>
      <trkpt lat="44.42205" lon="2.9061">
        <ele>599.76</ele>
        <time>2016-06-23T09:30:48Z</time>
      </trkpt>
      <trkpt lat="44.42205" lon="2.90615">
        <ele>599.75</ele>
        <time>2016-06-23T09:30:51Z</time>
      </trkpt>
      <trkpt lat="44.42203" lon="2.90651">
        <ele>600.21</ele>
        <time>2016-06-23T09:31:10Z</time>
      </trkpt>
      <trkpt lat="44.422" lon="2.90683">
        <ele>600.4</ele>
        <time>2016-06-23T09:31:28Z</time>
      </trkpt>
      <trkpt lat="44.422" lon="2.90685">
        <ele>600.67</ele>
        <time>2016-06-23T09:31:30Z</time>
      </trkpt>
      <trkpt lat="44.42205" lon="2.90708">
        <ele>602.09</ele>
        <time>2016-06-23T09:31:45Z</time>
      </trkpt>
      <trkpt lat="44.4221" lon="2.90739">
        <ele>602.07</ele>
        <time>2016-06-23T09:32:02Z</time>
      </trkpt>
      <trkpt lat="44.42214" lon="2.90781">
        <ele>602.19</ele>
        <time>2016-06-23T09:32:24Z</time>
      </trkpt>
      <trkpt lat="44.42218" lon="2.90811">
        <ele>603.38</ele>
        <time>2016-06-23T09:32:41Z</time>
      </trkpt>
      <trkpt lat="44.42225" lon="2.90832">
        <ele>603.8</ele>
        <time>2016-06-23T09:32:56Z</time>
      </trkpt>
      <trkpt lat="44.42235" lon="2.90859">
        <ele>604.8</ele>
        <time>2016-06-23T09:33:13Z</time>
      </trkpt>
      <trkpt lat="44.42247" lon="2.90887">
        <ele>606.02</ele>
        <time>2016-06-23T09:33:31Z</time>
      </trkpt>
      <trkpt lat="44.42257" lon="2.90916">
        <ele>608</ele>
        <time>2016-06-23T09:33:49Z</time>
      </trkpt>
      <trkpt lat="44.42269" lon="2.9094">
        <ele>611.11</ele>
        <time>2016-06-23T09:34:07Z</time>
      </trkpt>
      <trkpt lat="44.42277" lon="2.90958">
        <ele>612.76</ele>
        <time>2016-06-23T09:34:20Z</time>
      </trkpt>
      <trkpt lat="44.42282" lon="2.90981">
        <ele>614.65</ele>
        <time>2016-06-23T09:34:35Z</time>
      </trkpt>
      <trkpt lat="44.42282" lon="2.91007">
        <ele>616.07</ele>
        <time>2016-06-23T09:34:50Z</time>
      </trkpt>
      <trkpt lat="44.42277" lon="2.91035">
        <ele>618.01</ele>
        <time>2016-06-23T09:35:08Z</time>
      </trkpt>
      <trkpt lat="44.42272" lon="2.91054">
        <ele>619.79</ele>
        <time>2016-06-23T09:35:22Z</time>
      </trkpt>
      <trkpt lat="44.42265" lon="2.91075">
        <ele>621.31</ele>
        <time>2016-06-23T09:35:37Z</time>
      </trkpt>
      <trkpt lat="44.42259" lon="2.91099">
        <ele>622.78</ele>
        <time>2016-06-23T09:35:52Z</time>
      </trkpt>
      <trkpt lat="44.42257" lon="2.91124">
        <ele>624.4</ele>
        <time>2016-06-23T09:36:08Z</time>
      </trkpt>
      <trkpt lat="44.42256" lon="2.91149">
        <ele>625.76</ele>
        <time>2016-06-23T09:36:23Z</time>
      </trkpt>
      <trkpt lat="44.42257" lon="2.91179">
        <ele>628.25</ele>
        <time>2016-06-23T09:36:42Z</time>
      </trkpt>
      <trkpt lat="44.42258" lon="2.91197">
        <ele>630.01</ele>
        <time>2016-06-23T09:36:54Z</time>
      </trkpt>
      <trkpt lat="44.42261" lon="2.91224">
        <ele>632.35</ele>
        <time>2016-06-23T09:37:09Z</time>
      </trkpt>
      <trkpt lat="44.42264" lon="2.91254">
        <ele>634.53</ele>
        <time>2016-06-23T09:37:26Z</time>
      </trkpt>
      <trkpt lat="44.42267" lon="2.91283">
        <ele>636.87</ele>
        <time>2016-06-23T09:37:43Z</time>
      </trkpt>
      <trkpt lat="44.42273" lon="2.91306">
        <ele>637.91</ele>
        <time>2016-06-23T09:37:57Z</time>
      </trkpt>
      <trkpt lat="44.42279" lon="2.91327">
        <ele>638.59</ele>
        <time>2016-06-23T09:38:10Z</time>
      </trkpt>
      <trkpt lat="44.42286" lon="2.91352">
        <ele>639.49</ele>
        <time>2016-06-23T09:38:25Z</time>
      </trkpt>
      <trkpt lat="44.42292" lon="2.91377">
        <ele>640.31</ele>
        <time>2016-06-23T09:38:41Z</time>
      </trkpt>
      <trkpt lat="44.42296" lon="2.91403">
        <ele>641.44</ele>
        <time>2016-06-23T09:38:56Z</time>
      </trkpt>
      <trkpt lat="44.42298" lon="2.91431">
        <ele>642.9</ele>
        <time>2016-06-23T09:39:12Z</time>
      </trkpt>
      <trkpt lat="44.42296" lon="2.91459">
        <ele>645.15</ele>
        <time>2016-06-23T09:39:30Z</time>
      </trkpt>
      <trkpt lat="44.42292" lon="2.91485">
        <ele>647.3</ele>
        <time>2016-06-23T09:39:47Z</time>
      </trkpt>
      <trkpt lat="44.42283" lon="2.91517">
        <ele>650.34</ele>
        <time>2016-06-23T09:40:08Z</time>
      </trkpt>
      <trkpt lat="44.42275" lon="2.91541">
        <ele>652.02</ele>
        <time>2016-06-23T09:40:24Z</time>
      </trkpt>
      <trkpt lat="44.42267" lon="2.91563">
        <ele>653.54</ele>
        <time>2016-06-23T09:40:40Z</time>
      </trkpt>
      <trkpt lat="44.4226" lon="2.91586">
        <ele>655.66</ele>
        <time>2016-06-23T09:40:56Z</time>
      </trkpt>
      <trkpt lat="44.42255" lon="2.91608">
        <ele>657.49</ele>
        <time>2016-06-23T09:41:11Z</time>
      </trkpt>
      <trkpt lat="44.42251" lon="2.91632">
        <ele>659.09</ele>
        <time>2016-06-23T09:41:26Z</time>
      </trkpt>
      <trkpt lat="44.4225" lon="2.91654">
        <ele>660.86</ele>
        <time>2016-06-23T09:41:41Z</time>
      </trkpt>
      <trkpt lat="44.4225" lon="2.91676">
        <ele>662.22</ele>
        <time>2016-06-23T09:41:56Z</time>
      </trkpt>
      <trkpt lat="44.42251" lon="2.91703">
        <ele>664.42</ele>
        <time>2016-06-23T09:42:13Z</time>
      </trkpt>
      <trkpt lat="44.42255" lon="2.91726">
        <ele>666.16</ele>
        <time>2016-06-23T09:42:28Z</time>
      </trkpt>
      <trkpt lat="44.42259" lon="2.9175">
        <ele>667.27</ele>
        <time>2016-06-23T09:42:43Z</time>
      </trkpt>
      <trkpt lat="44.42259" lon="2.91773">
        <ele>668.66</ele>
        <time>2016-06-23T09:42:57Z</time>
      </trkpt>
      <trkpt lat="44.42259" lon="2.91798">
        <ele>670.75</ele>
        <time>2016-06-23T09:43:13Z</time>
      </trkpt>
      <trkpt lat="44.42257" lon="2.91825">
        <ele>673.27</ele>
        <time>2016-06-23T09:43:29Z</time>
      </trkpt>
      <trkpt lat="44.42254" lon="2.91853">
        <ele>675.25</ele>
        <time>2016-06-23T09:43:46Z</time>
      </trkpt>
      <trkpt lat="44.42251" lon="2.91881">
        <ele>677.92</ele>
        <time>2016-06-23T09:44:03Z</time>
      </trkpt>
      <trkpt lat="44.42248" lon="2.91905">
        <ele>678.46</ele>
        <time>2016-06-23T09:44:17Z</time>
      </trkpt>
      <trkpt lat="44.42241" lon="2.91927">
        <ele>680.34</ele>
        <time>2016-06-23T09:44:31Z</time>
      </trkpt>
      <trkpt lat="44.4223" lon="2.91945">
        <ele>681.9</ele>
        <time>2016-06-23T09:44:47Z</time>
      </trkpt>
      <trkpt lat="44.42224" lon="2.91951">
        <ele>682.84</ele>
        <time>2016-06-23T09:44:54Z</time>
      </trkpt>
      <trkpt lat="44.42207" lon="2.91971">
        <ele>685.88</ele>
        <time>2016-06-23T09:45:14Z</time>
      </trkpt>
      <trkpt lat="44.42193" lon="2.91991">
        <ele>687.89</ele>
        <time>2016-06-23T09:45:32Z</time>
      </trkpt>
      <trkpt lat="44.4219" lon="2.91997">
        <ele>688.6</ele>
        <time>2016-06-23T09:45:37Z</time>
      </trkpt>
      <trkpt lat="44.42186" lon="2.92003">
        <ele>689.1</ele>
        <time>2016-06-23T09:45:42Z</time>
      </trkpt>
      <trkpt lat="44.42179" lon="2.92019">
        <ele>690.44</ele>
        <time>2016-06-23T09:45:55Z</time>
      </trkpt>
      <trkpt lat="44.42169" lon="2.92038">
        <ele>692.26</ele>
        <time>2016-06-23T09:46:10Z</time>
      </trkpt>
      <trkpt lat="44.42165" lon="2.92061">
        <ele>694.76</ele>
        <time>2016-06-23T09:46:24Z</time>
      </trkpt>
      <trkpt lat="44.42163" lon="2.92089">
        <ele>696.17</ele>
        <time>2016-06-23T09:46:42Z</time>
      </trkpt>
      <trkpt lat="44.42163" lon="2.92109">
        <ele>698.16</ele>
        <time>2016-06-23T09:46:55Z</time>
      </trkpt>
      <trkpt lat="44.42167" lon="2.92134">
        <ele>700.26</ele>
        <time>2016-06-23T09:47:12Z</time>
      </trkpt>
      <trkpt lat="44.42168" lon="2.92138">
        <ele>700.6</ele>
        <time>2016-06-23T09:47:15Z</time>
      </trkpt>
      <trkpt lat="44.42172" lon="2.92158">
        <ele>701.81</ele>
        <time>2016-06-23T09:47:29Z</time>
      </trkpt>
      <trkpt lat="44.42181" lon="2.92179">
        <ele>703.21</ele>
        <time>2016-06-23T09:47:44Z</time>
      </trkpt>
      <trkpt lat="44.4219" lon="2.92196">
        <ele>704.7</ele>
        <time>2016-06-23T09:47:57Z</time>
      </trkpt>
      <trkpt lat="44.42202" lon="2.92214">
        <ele>705.95</ele>
        <time>2016-06-23T09:48:12Z</time>
      </trkpt>
      <trkpt lat="44.4221" lon="2.92226">
        <ele>707.05</ele>
        <time>2016-06-23T09:48:24Z</time>
      </trkpt>
      <trkpt lat="44.42223" lon="2.92243">
        <ele>708.36</ele>
        <time>2016-06-23T09:48:39Z</time>
      </trkpt>
      <trkpt lat="44.42235" lon="2.92256">
        <ele>709.15</ele>
        <time>2016-06-23T09:48:53Z</time>
      </trkpt>
      <trkpt lat="44.42249" lon="2.92267">
        <ele>710.35</ele>
        <time>2016-06-23T09:49:06Z</time>
      </trkpt>
      <trkpt lat="44.4225" lon="2.92268">
        <ele>710.45</ele>
        <time>2016-06-23T09:49:07Z</time>
      </trkpt>
      <trkpt lat="44.4227" lon="2.92274">
        <ele>710.55</ele>
        <time>2016-06-23T09:49:24Z</time>
      </trkpt>
      <trkpt lat="44.42276" lon="2.92275">
        <ele>710.31</ele>
        <time>2016-06-23T09:49:29Z</time>
      </trkpt>
      <trkpt lat="44.42296" lon="2.92275">
        <ele>709.66</ele>
        <time>2016-06-23T09:49:44Z</time>
      </trkpt>
      <trkpt lat="44.42316" lon="2.92275">
        <ele>708.84</ele>
        <time>2016-06-23T09:50:00Z</time>
      </trkpt>
      <trkpt lat="44.42332" lon="2.92274">
        <ele>707.6</ele>
        <time>2016-06-23T09:50:13Z</time>
      </trkpt>
      <trkpt lat="44.4234" lon="2.92274">
        <ele>707.49</ele>
        <time>2016-06-23T09:50:19Z</time>
      </trkpt>
      <trkpt lat="44.42362" lon="2.92273">
        <ele>707.33</ele>
        <time>2016-06-23T09:50:36Z</time>
      </trkpt>
      <trkpt lat="44.42382" lon="2.92271">
        <ele>706.55</ele>
        <time>2016-06-23T09:50:52Z</time>
      </trkpt>
      <trkpt lat="44.42402" lon="2.9227">
        <ele>706.59</ele>
        <time>2016-06-23T09:51:08Z</time>
      </trkpt>
      <trkpt lat="44.4242" lon="2.92267">
        <ele>705.3</ele>
        <time>2016-06-23T09:51:22Z</time>
      </trkpt>
      <trkpt lat="44.42429" lon="2.92266">
        <ele>704.67</ele>
        <time>2016-06-23T09:51:29Z</time>
      </trkpt>
      <trkpt lat="44.42439" lon="2.92263">
        <ele>704.93</ele>
        <time>2016-06-23T09:51:36Z</time>
      </trkpt>
      <trkpt lat="44.42462" lon="2.92252">
        <ele>704.42</ele>
        <time>2016-06-23T09:51:55Z</time>
      </trkpt>
      <trkpt lat="44.4248" lon="2.92232">
        <ele>706.18</ele>
        <time>2016-06-23T09:52:14Z</time>
      </trkpt>
      <trkpt lat="44.4249" lon="2.92209">
        <ele>707.25</ele>
        <time>2016-06-23T09:52:29Z</time>
      </trkpt>
      <trkpt lat="44.425" lon="2.92181">
        <ele>707.3</ele>
        <time>2016-06-23T09:52:46Z</time>
      </trkpt>
      <trkpt lat="44.42507" lon="2.92157">
        <ele>707.79</ele>
        <time>2016-06-23T09:53:00Z</time>
      </trkpt>
      <trkpt lat="44.42515" lon="2.9213">
        <ele>707.89</ele>
        <time>2016-06-23T09:53:16Z</time>
      </trkpt>
      <trkpt lat="44.42526" lon="2.92111">
        <ele>707.67</ele>
        <time>2016-06-23T09:53:30Z</time>
      </trkpt>
      <trkpt lat="44.42536" lon="2.92104">
        <ele>707.93</ele>
        <time>2016-06-23T09:53:39Z</time>
      </trkpt>
      <trkpt lat="44.42542" lon="2.921">
        <ele>707.87</ele>
        <time>2016-06-23T09:53:44Z</time>
      </trkpt>
      <trkpt lat="44.42564" lon="2.9209">
        <ele>707.19</ele>
        <time>2016-06-23T09:54:02Z</time>
      </trkpt>
      <trkpt lat="44.42579" lon="2.92085">
        <ele>707.72</ele>
        <time>2016-06-23T09:54:13Z</time>
      </trkpt>
      <trkpt lat="44.42595" lon="2.92093">
        <ele>708.11</ele>
        <time>2016-06-23T09:54:28Z</time>
      </trkpt>
      <trkpt lat="44.42606" lon="2.92111">
        <ele>708.07</ele>
        <time>2016-06-23T09:54:42Z</time>
      </trkpt>
      <trkpt lat="44.42617" lon="2.92133">
        <ele>708.24</ele>
        <time>2016-06-23T09:54:58Z</time>
      </trkpt>
      <trkpt lat="44.42627" lon="2.92156">
        <ele>708.7</ele>
        <time>2016-06-23T09:55:13Z</time>
      </trkpt>
      <trkpt lat="44.42634" lon="2.92178">
        <ele>708.83</ele>
        <time>2016-06-23T09:55:28Z</time>
      </trkpt>
      <trkpt lat="44.42642" lon="2.92202">
        <ele>708.7</ele>
        <time>2016-06-23T09:55:44Z</time>
      </trkpt>
      <trkpt lat="44.4265" lon="2.92223">
        <ele>709</ele>
        <time>2016-06-23T09:55:59Z</time>
      </trkpt>
      <trkpt lat="44.42659" lon="2.92246">
        <ele>709.28</ele>
        <time>2016-06-23T09:56:14Z</time>
      </trkpt>
      <trkpt lat="44.42667" lon="2.92253">
        <ele>709.46</ele>
        <time>2016-06-23T09:56:29Z</time>
      </trkpt>
      <trkpt lat="44.42667" lon="2.92255">
        <ele>709.19</ele>
        <time>2016-06-23T09:56:39Z</time>
      </trkpt>
      <trkpt lat="44.4267" lon="2.92258">
        <ele>709.26</ele>
        <time>2016-06-23T09:56:42Z</time>
      </trkpt>
      <trkpt lat="44.42673" lon="2.92261">
        <ele>709.24</ele>
        <time>2016-06-23T09:56:45Z</time>
      </trkpt>
      <trkpt lat="44.42683" lon="2.92286">
        <ele>709.46</ele>
        <time>2016-06-23T09:57:02Z</time>
      </trkpt>
      <trkpt lat="44.42695" lon="2.92304">
        <ele>710.18</ele>
        <time>2016-06-23T09:57:16Z</time>
      </trkpt>
      <trkpt lat="44.42703" lon="2.92319">
        <ele>710.98</ele>
        <time>2016-06-23T09:57:28Z</time>
      </trkpt>
      <trkpt lat="44.42709" lon="2.9234">
        <ele>712.26</ele>
        <time>2016-06-23T09:57:41Z</time>
      </trkpt>
      <trkpt lat="44.42713" lon="2.92348">
        <ele>712.71</ele>
        <time>2016-06-23T09:57:47Z</time>
      </trkpt>
      <trkpt lat="44.42718" lon="2.92365">
        <ele>713.98</ele>
        <time>2016-06-23T09:57:59Z</time>
      </trkpt>
      <trkpt lat="44.4272" lon="2.92372">
        <ele>714.25</ele>
        <time>2016-06-23T09:58:04Z</time>
      </trkpt>
      <trkpt lat="44.42721" lon="2.92379">
        <ele>714.62</ele>
        <time>2016-06-23T09:58:09Z</time>
      </trkpt>
      <trkpt lat="44.42722" lon="2.92387">
        <ele>715.04</ele>
        <time>2016-06-23T09:58:14Z</time>
      </trkpt>
      <trkpt lat="44.42729" lon="2.92406">
        <ele>715.54</ele>
        <time>2016-06-23T09:58:27Z</time>
      </trkpt>
      <trkpt lat="44.42732" lon="2.92412">
        <ele>715.98</ele>
        <time>2016-06-23T09:58:31Z</time>
      </trkpt>
      <trkpt lat="44.42736" lon="2.92439">
        <ele>717.1</ele>
        <time>2016-06-23T09:58:48Z</time>
      </trkpt>
      <trkpt lat="44.42737" lon="2.92441">
        <ele>717.3</ele>
        <time>2016-06-23T09:58:50Z</time>
      </trkpt>
      <trkpt lat="44.4274" lon="2.92466">
        <ele>717.8</ele>
        <time>2016-06-23T09:59:05Z</time>
      </trkpt>
      <trkpt lat="44.42746" lon="2.92489">
        <ele>718.34</ele>
        <time>2016-06-23T09:59:19Z</time>
      </trkpt>
      <trkpt lat="44.42747" lon="2.92491">
        <ele>718.36</ele>
        <time>2016-06-23T09:59:20Z</time>
      </trkpt>
      <trkpt lat="44.42759" lon="2.92514">
        <ele>719.99</ele>
        <time>2016-06-23T09:59:35Z</time>
      </trkpt>
      <trkpt lat="44.42761" lon="2.92523">
        <ele>720.6</ele>
        <time>2016-06-23T09:59:40Z</time>
      </trkpt>
      <trkpt lat="44.42761" lon="2.92527">
        <ele>720.76</ele>
        <time>2016-06-23T09:59:42Z</time>
      </trkpt>
      <trkpt lat="44.42759" lon="2.92552">
        <ele>721.84</ele>
        <time>2016-06-23T09:59:57Z</time>
      </trkpt>
      <trkpt lat="44.42757" lon="2.92575">
        <ele>722.89</ele>
        <time>2016-06-23T10:00:12Z</time>
      </trkpt>
      <trkpt lat="44.42757" lon="2.92581">
        <ele>722.88</ele>
        <time>2016-06-23T10:00:16Z</time>
      </trkpt>
      <trkpt lat="44.42758" lon="2.92598">
        <ele>723.18</ele>
        <time>2016-06-23T10:00:31Z</time>
      </trkpt>
      <trkpt lat="44.42758" lon="2.92598">
        <ele>723.32</ele>
        <time>2016-06-23T10:00:51Z</time>
      </trkpt>
      <trkpt lat="44.42759" lon="2.926">
        <ele>723.26</ele>
        <time>2016-06-23T10:01:07Z</time>
      </trkpt>
      <trkpt lat="44.42757" lon="2.92603">
        <ele>723.01</ele>
        <time>2016-06-23T10:01:17Z</time>
      </trkpt>
      <trkpt lat="44.42756" lon="2.92605">
        <ele>723.11</ele>
        <time>2016-06-23T10:01:19Z</time>
      </trkpt>
      <trkpt lat="44.42756" lon="2.92628">
        <ele>723.95</ele>
        <time>2016-06-23T10:01:34Z</time>
      </trkpt>
      <trkpt lat="44.42755" lon="2.92643">
        <ele>724.22</ele>
        <time>2016-06-23T10:01:44Z</time>
      </trkpt>
      <trkpt lat="44.42754" lon="2.9266">
        <ele>725.06</ele>
        <time>2016-06-23T10:01:55Z</time>
      </trkpt>
      <trkpt lat="44.42751" lon="2.92688">
        <ele>726.72</ele>
        <time>2016-06-23T10:02:12Z</time>
      </trkpt>
      <trkpt lat="44.42748" lon="2.92714">
        <ele>728.3</ele>
        <time>2016-06-23T10:02:28Z</time>
      </trkpt>
      <trkpt lat="44.42747" lon="2.92725">
        <ele>729.1</ele>
        <time>2016-06-23T10:02:35Z</time>
      </trkpt>
      <trkpt lat="44.42746" lon="2.92729">
        <ele>729.26</ele>
        <time>2016-06-23T10:02:37Z</time>
      </trkpt>
      <trkpt lat="44.42746" lon="2.92732">
        <ele>729.51</ele>
        <time>2016-06-23T10:02:39Z</time>
      </trkpt>
      <trkpt lat="44.42746" lon="2.92743">
        <ele>730.15</ele>
        <time>2016-06-23T10:02:45Z</time>
      </trkpt>
      <trkpt lat="44.42743" lon="2.92769">
        <ele>731.09</ele>
        <time>2016-06-23T10:03:00Z</time>
      </trkpt>
      <trkpt lat="44.4274" lon="2.9279">
        <ele>731.77</ele>
        <time>2016-06-23T10:03:13Z</time>
      </trkpt>
      <trkpt lat="44.42736" lon="2.92813">
        <ele>732.61</ele>
        <time>2016-06-23T10:03:27Z</time>
      </trkpt>
      <trkpt lat="44.42735" lon="2.92821">
        <ele>732.97</ele>
        <time>2016-06-23T10:03:32Z</time>
      </trkpt>
      <trkpt lat="44.42734" lon="2.92833">
        <ele>733.29</ele>
        <time>2016-06-23T10:03:39Z</time>
      </trkpt>
      <trkpt lat="44.4273" lon="2.92849">
        <ele>734.07</ele>
        <time>2016-06-23T10:03:50Z</time>
      </trkpt>
      <trkpt lat="44.42726" lon="2.92868">
        <ele>734.92</ele>
        <time>2016-06-23T10:04:04Z</time>
      </trkpt>
      <trkpt lat="44.42725" lon="2.92888">
        <ele>736.59</ele>
        <time>2016-06-23T10:04:18Z</time>
      </trkpt>
      <trkpt lat="44.42725" lon="2.92903">
        <ele>737.66</ele>
        <time>2016-06-23T10:04:27Z</time>
      </trkpt>
      <trkpt lat="44.42721" lon="2.92931">
        <ele>738.84</ele>
        <time>2016-06-23T10:04:43Z</time>
      </trkpt>
      <trkpt lat="44.4272" lon="2.92938">
        <ele>738.99</ele>
        <time>2016-06-23T10:04:47Z</time>
      </trkpt>
      <trkpt lat="44.42712" lon="2.92967">
        <ele>739.19</ele>
        <time>2016-06-23T10:05:04Z</time>
      </trkpt>
      <trkpt lat="44.42707" lon="2.92988">
        <ele>739.67</ele>
        <time>2016-06-23T10:05:16Z</time>
      </trkpt>
      <trkpt lat="44.42703" lon="2.92999">
        <ele>739.96</ele>
        <time>2016-06-23T10:05:23Z</time>
      </trkpt>
      <trkpt lat="44.42702" lon="2.93006">
        <ele>740.11</ele>
        <time>2016-06-23T10:05:27Z</time>
      </trkpt>
      <trkpt lat="44.42698" lon="2.93024">
        <ele>740.14</ele>
        <time>2016-06-23T10:05:37Z</time>
      </trkpt>
      <trkpt lat="44.42695" lon="2.93047">
        <ele>740.94</ele>
        <time>2016-06-23T10:05:48Z</time>
      </trkpt>
      <trkpt lat="44.42694" lon="2.93066">
        <ele>741.29</ele>
        <time>2016-06-23T10:05:58Z</time>
      </trkpt>
      <trkpt lat="44.42697" lon="2.93088">
        <ele>741.65</ele>
        <time>2016-06-23T10:06:10Z</time>
      </trkpt>
      <trkpt lat="44.427" lon="2.93119">
        <ele>741.2</ele>
        <time>2016-06-23T10:06:26Z</time>
      </trkpt>
      <trkpt lat="44.42701" lon="2.93125">
        <ele>741.07</ele>
        <time>2016-06-23T10:06:29Z</time>
      </trkpt>
      <trkpt lat="44.42714" lon="2.93154">
        <ele>739.21</ele>
        <time>2016-06-23T10:06:45Z</time>
      </trkpt>
      <trkpt lat="44.42716" lon="2.93169">
        <ele>738.16</ele>
        <time>2016-06-23T10:06:52Z</time>
      </trkpt>
      <trkpt lat="44.42709" lon="2.93192">
        <ele>736.59</ele>
        <time>2016-06-23T10:07:06Z</time>
      </trkpt>
      <trkpt lat="44.42705" lon="2.93217">
        <ele>736.41</ele>
        <time>2016-06-23T10:07:21Z</time>
      </trkpt>
      <trkpt lat="44.42703" lon="2.93242">
        <ele>736.07</ele>
        <time>2016-06-23T10:07:35Z</time>
      </trkpt>
      <trkpt lat="44.42701" lon="2.93268">
        <ele>735.93</ele>
        <time>2016-06-23T10:07:50Z</time>
      </trkpt>
      <trkpt lat="44.42699" lon="2.93273">
        <ele>735.92</ele>
        <time>2016-06-23T10:07:53Z</time>
      </trkpt>
      <trkpt lat="44.42698" lon="2.93276">
        <ele>735.88</ele>
        <time>2016-06-23T10:07:55Z</time>
      </trkpt>
      <trkpt lat="44.42693" lon="2.933">
        <ele>735.07</ele>
        <time>2016-06-23T10:08:10Z</time>
      </trkpt>
      <trkpt lat="44.4269" lon="2.93317">
        <ele>734.68</ele>
        <time>2016-06-23T10:08:19Z</time>
      </trkpt>
      <trkpt lat="44.42686" lon="2.93342">
        <ele>734.51</ele>
        <time>2016-06-23T10:08:33Z</time>
      </trkpt>
      <trkpt lat="44.42683" lon="2.93355">
        <ele>734.37</ele>
        <time>2016-06-23T10:08:40Z</time>
      </trkpt>
      <trkpt lat="44.42682" lon="2.93368">
        <ele>734.9</ele>
        <time>2016-06-23T10:08:47Z</time>
      </trkpt>
      <trkpt lat="44.42682" lon="2.93394">
        <ele>735.41</ele>
        <time>2016-06-23T10:09:02Z</time>
      </trkpt>
      <trkpt lat="44.42682" lon="2.93396">
        <ele>735.45</ele>
        <time>2016-06-23T10:09:03Z</time>
      </trkpt>
      <trkpt lat="44.42683" lon="2.93406">
        <ele>735.77</ele>
        <time>2016-06-23T10:09:09Z</time>
      </trkpt>
      <trkpt lat="44.42681" lon="2.93424">
        <ele>736.54</ele>
        <time>2016-06-23T10:09:20Z</time>
      </trkpt>
      <trkpt lat="44.42679" lon="2.9343">
        <ele>736.89</ele>
        <time>2016-06-23T10:09:24Z</time>
      </trkpt>
      <trkpt lat="44.42677" lon="2.93436">
        <ele>737.41</ele>
        <time>2016-06-23T10:09:28Z</time>
      </trkpt>
      <trkpt lat="44.42669" lon="2.93462">
        <ele>739.49</ele>
        <time>2016-06-23T10:09:46Z</time>
      </trkpt>
      <trkpt lat="44.4266" lon="2.93483">
        <ele>740.54</ele>
        <time>2016-06-23T10:10:00Z</time>
      </trkpt>
      <trkpt lat="44.42659" lon="2.93485">
        <ele>740.73</ele>
        <time>2016-06-23T10:10:02Z</time>
      </trkpt>
      <trkpt lat="44.42648" lon="2.93505">
        <ele>742.07</ele>
        <time>2016-06-23T10:10:18Z</time>
      </trkpt>
      <trkpt lat="44.42647" lon="2.93508">
        <ele>742.26</ele>
        <time>2016-06-23T10:10:20Z</time>
      </trkpt>
      <trkpt lat="44.42641" lon="2.93516">
        <ele>742.6</ele>
        <time>2016-06-23T10:10:27Z</time>
      </trkpt>
      <trkpt lat="44.42625" lon="2.9354">
        <ele>743.55</ele>
        <time>2016-06-23T10:10:44Z</time>
      </trkpt>
      <trkpt lat="44.42621" lon="2.93546">
        <ele>743.81</ele>
        <time>2016-06-23T10:10:49Z</time>
      </trkpt>
      <trkpt lat="44.42615" lon="2.93556">
        <ele>743.76</ele>
        <time>2016-06-23T10:10:56Z</time>
      </trkpt>
      <trkpt lat="44.42605" lon="2.93573">
        <ele>744.3</ele>
        <time>2016-06-23T10:11:10Z</time>
      </trkpt>
      <trkpt lat="44.42592" lon="2.93582">
        <ele>745.87</ele>
        <time>2016-06-23T10:11:25Z</time>
      </trkpt>
      <trkpt lat="44.42591" lon="2.93583">
        <ele>745.99</ele>
        <time>2016-06-23T10:11:26Z</time>
      </trkpt>
      <trkpt lat="44.42585" lon="2.93585">
        <ele>746.33</ele>
        <time>2016-06-23T10:11:31Z</time>
      </trkpt>
      <trkpt lat="44.42576" lon="2.93593">
        <ele>746.82</ele>
        <time>2016-06-23T10:11:39Z</time>
      </trkpt>
      <trkpt lat="44.42579" lon="2.93611">
        <ele>748.62</ele>
        <time>2016-06-23T10:11:53Z</time>
      </trkpt>
      <trkpt lat="44.42583" lon="2.93628">
        <ele>750.35</ele>
        <time>2016-06-23T10:12:06Z</time>
      </trkpt>
      <trkpt lat="44.42575" lon="2.93642">
        <ele>752.65</ele>
        <time>2016-06-23T10:12:21Z</time>
      </trkpt>
      <trkpt lat="44.42566" lon="2.93654">
        <ele>754.53</ele>
        <time>2016-06-23T10:12:33Z</time>
      </trkpt>
      <trkpt lat="44.42556" lon="2.93669">
        <ele>756.31</ele>
        <time>2016-06-23T10:12:47Z</time>
      </trkpt>
      <trkpt lat="44.42546" lon="2.93687">
        <ele>757.81</ele>
        <time>2016-06-23T10:13:01Z</time>
      </trkpt>
      <trkpt lat="44.42545" lon="2.93689">
        <ele>757.97</ele>
        <time>2016-06-23T10:13:03Z</time>
      </trkpt>
      <trkpt lat="44.42536" lon="2.93707">
        <ele>759.94</ele>
        <time>2016-06-23T10:13:17Z</time>
      </trkpt>
      <trkpt lat="44.42531" lon="2.93717">
        <ele>760.86</ele>
        <time>2016-06-23T10:13:25Z</time>
      </trkpt>
      <trkpt lat="44.42529" lon="2.93722">
        <ele>761.1</ele>
        <time>2016-06-23T10:13:28Z</time>
      </trkpt>
      <trkpt lat="44.42527" lon="2.93725">
        <ele>761.42</ele>
        <time>2016-06-23T10:13:31Z</time>
      </trkpt>
      <trkpt lat="44.42521" lon="2.93741">
        <ele>762.55</ele>
        <time>2016-06-23T10:13:43Z</time>
      </trkpt>
      <trkpt lat="44.42515" lon="2.9376">
        <ele>763.57</ele>
        <time>2016-06-23T10:13:56Z</time>
      </trkpt>
      <trkpt lat="44.4251" lon="2.93771">
        <ele>764.55</ele>
        <time>2016-06-23T10:14:05Z</time>
      </trkpt>
      <trkpt lat="44.42505" lon="2.93788">
        <ele>765.96</ele>
        <time>2016-06-23T10:14:17Z</time>
      </trkpt>
      <trkpt lat="44.42503" lon="2.93796">
        <ele>766.15</ele>
        <time>2016-06-23T10:14:22Z</time>
      </trkpt>
      <trkpt lat="44.42493" lon="2.93816">
        <ele>767.5</ele>
        <time>2016-06-23T10:14:37Z</time>
      </trkpt>
      <trkpt lat="44.42479" lon="2.93826">
        <ele>769.08</ele>
        <time>2016-06-23T10:14:51Z</time>
      </trkpt>
      <trkpt lat="44.42467" lon="2.9384">
        <ele>771.07</ele>
        <time>2016-06-23T10:15:07Z</time>
      </trkpt>
      <trkpt lat="44.42458" lon="2.93856">
        <ele>772.95</ele>
        <time>2016-06-23T10:15:20Z</time>
      </trkpt>
      <trkpt lat="44.42449" lon="2.93875">
        <ele>774.82</ele>
        <time>2016-06-23T10:15:35Z</time>
      </trkpt>
      <trkpt lat="44.42437" lon="2.93895">
        <ele>776.64</ele>
        <time>2016-06-23T10:15:50Z</time>
      </trkpt>
      <trkpt lat="44.42436" lon="2.93897">
        <ele>776.71</ele>
        <time>2016-06-23T10:15:51Z</time>
      </trkpt>
      <trkpt lat="44.4243" lon="2.93919">
        <ele>777.16</ele>
        <time>2016-06-23T10:16:04Z</time>
      </trkpt>
      <trkpt lat="44.42424" lon="2.93939">
        <ele>776.89</ele>
        <time>2016-06-23T10:16:16Z</time>
      </trkpt>
      <trkpt lat="44.4242" lon="2.93946">
        <ele>776.94</ele>
        <time>2016-06-23T10:16:21Z</time>
      </trkpt>
      <trkpt lat="44.42417" lon="2.93947">
        <ele>776.92</ele>
        <time>2016-06-23T10:16:23Z</time>
      </trkpt>
      <trkpt lat="44.42412" lon="2.93955">
        <ele>776.44</ele>
        <time>2016-06-23T10:16:29Z</time>
      </trkpt>
      <trkpt lat="44.4241" lon="2.93975">
        <ele>775.47</ele>
        <time>2016-06-23T10:16:41Z</time>
      </trkpt>
      <trkpt lat="44.42411" lon="2.93987">
        <ele>775.43</ele>
        <time>2016-06-23T10:16:48Z</time>
      </trkpt>
      <trkpt lat="44.42415" lon="2.93996">
        <ele>775.99</ele>
        <time>2016-06-23T10:16:54Z</time>
      </trkpt>
      <trkpt lat="44.42417" lon="2.94016">
        <ele>776.89</ele>
        <time>2016-06-23T10:17:06Z</time>
      </trkpt>
      <trkpt lat="44.42413" lon="2.94027">
        <ele>777.08</ele>
        <time>2016-06-23T10:17:13Z</time>
      </trkpt>
      <trkpt lat="44.42409" lon="2.94039">
        <ele>777.16</ele>
        <time>2016-06-23T10:17:21Z</time>
      </trkpt>
      <trkpt lat="44.42408" lon="2.9405">
        <ele>777.06</ele>
        <time>2016-06-23T10:17:27Z</time>
      </trkpt>
      <trkpt lat="44.42403" lon="2.94069">
        <ele>777.77</ele>
        <time>2016-06-23T10:17:39Z</time>
      </trkpt>
      <trkpt lat="44.42401" lon="2.94077">
        <ele>778.03</ele>
        <time>2016-06-23T10:17:44Z</time>
      </trkpt>
      <trkpt lat="44.42401" lon="2.94081">
        <ele>778.11</ele>
        <time>2016-06-23T10:17:46Z</time>
      </trkpt>
      <trkpt lat="44.42399" lon="2.94089">
        <ele>778.42</ele>
        <time>2016-06-23T10:17:51Z</time>
      </trkpt>
      <trkpt lat="44.42398" lon="2.94097">
        <ele>778.59</ele>
        <time>2016-06-23T10:17:56Z</time>
      </trkpt>
      <trkpt lat="44.42394" lon="2.94115">
        <ele>778.91</ele>
        <time>2016-06-23T10:18:07Z</time>
      </trkpt>
      <trkpt lat="44.42394" lon="2.94118">
        <ele>778.9</ele>
        <time>2016-06-23T10:18:09Z</time>
      </trkpt>
      <trkpt lat="44.42391" lon="2.94125">
        <ele>778.89</ele>
        <time>2016-06-23T10:18:14Z</time>
      </trkpt>
      <trkpt lat="44.42389" lon="2.9413">
        <ele>779.07</ele>
        <time>2016-06-23T10:18:17Z</time>
      </trkpt>
      <trkpt lat="44.42384" lon="2.94147">
        <ele>779.74</ele>
        <time>2016-06-23T10:18:28Z</time>
      </trkpt>
      <trkpt lat="44.42384" lon="2.9415">
        <ele>779.81</ele>
        <time>2016-06-23T10:18:30Z</time>
      </trkpt>
      <trkpt lat="44.42381" lon="2.94173">
        <ele>779.92</ele>
        <time>2016-06-23T10:18:44Z</time>
      </trkpt>
      <trkpt lat="44.4238" lon="2.94182">
        <ele>780.42</ele>
        <time>2016-06-23T10:18:49Z</time>
      </trkpt>
      <trkpt lat="44.42377" lon="2.94202">
        <ele>781.04</ele>
        <time>2016-06-23T10:19:00Z</time>
      </trkpt>
      <trkpt lat="44.42377" lon="2.94205">
        <ele>781.08</ele>
        <time>2016-06-23T10:19:02Z</time>
      </trkpt>
      <trkpt lat="44.42373" lon="2.94217">
        <ele>781.3</ele>
        <time>2016-06-23T10:19:10Z</time>
      </trkpt>
      <trkpt lat="44.42366" lon="2.94234">
        <ele>781.34</ele>
        <time>2016-06-23T10:19:23Z</time>
      </trkpt>
      <trkpt lat="44.42355" lon="2.94254">
        <ele>780.72</ele>
        <time>2016-06-23T10:19:37Z</time>
      </trkpt>
      <trkpt lat="44.42352" lon="2.9426">
        <ele>780.73</ele>
        <time>2016-06-23T10:19:41Z</time>
      </trkpt>
      <trkpt lat="44.42343" lon="2.94286">
        <ele>780.2</ele>
        <time>2016-06-23T10:19:57Z</time>
      </trkpt>
      <trkpt lat="44.42339" lon="2.94314">
        <ele>779.84</ele>
        <time>2016-06-23T10:20:12Z</time>
      </trkpt>
      <trkpt lat="44.42332" lon="2.94337">
        <ele>779.27</ele>
        <time>2016-06-23T10:20:26Z</time>
      </trkpt>
      <trkpt lat="44.42329" lon="2.9436">
        <ele>778.27</ele>
        <time>2016-06-23T10:20:38Z</time>
      </trkpt>
      <trkpt lat="44.4233" lon="2.9437">
        <ele>777.83</ele>
        <time>2016-06-23T10:20:44Z</time>
      </trkpt>
      <trkpt lat="44.42339" lon="2.94397">
        <ele>777.24</ele>
        <time>2016-06-23T10:21:00Z</time>
      </trkpt>
      <trkpt lat="44.42339" lon="2.94398">
        <ele>777.24</ele>
        <time>2016-06-23T10:21:01Z</time>
      </trkpt>
      <trkpt lat="44.42341" lon="2.94405">
        <ele>777.22</ele>
        <time>2016-06-23T10:21:05Z</time>
      </trkpt>
      <trkpt lat="44.42344" lon="2.94417">
        <ele>776.09</ele>
        <time>2016-06-23T10:21:12Z</time>
      </trkpt>
      <trkpt lat="44.42348" lon="2.94427">
        <ele>775.1</ele>
        <time>2016-06-23T10:21:18Z</time>
      </trkpt>
      <trkpt lat="44.42354" lon="2.94452">
        <ele>773.29</ele>
        <time>2016-06-23T10:21:31Z</time>
      </trkpt>
      <trkpt lat="44.42351" lon="2.9446">
        <ele>772.84</ele>
        <time>2016-06-23T10:21:35Z</time>
      </trkpt>
      <trkpt lat="44.42349" lon="2.94465">
        <ele>772.66</ele>
        <time>2016-06-23T10:21:38Z</time>
      </trkpt>
      <trkpt lat="44.4234" lon="2.94478">
        <ele>772.04</ele>
        <time>2016-06-23T10:21:48Z</time>
      </trkpt>
      <trkpt lat="44.42331" lon="2.94487">
        <ele>771.09</ele>
        <time>2016-06-23T10:21:57Z</time>
      </trkpt>
      <trkpt lat="44.42325" lon="2.94495">
        <ele>770.58</ele>
        <time>2016-06-23T10:22:04Z</time>
      </trkpt>
      <trkpt lat="44.42321" lon="2.94499">
        <ele>770.47</ele>
        <time>2016-06-23T10:22:08Z</time>
      </trkpt>
      <trkpt lat="44.42308" lon="2.94507">
        <ele>769.6</ele>
        <time>2016-06-23T10:22:20Z</time>
      </trkpt>
      <trkpt lat="44.42289" lon="2.94512">
        <ele>768.17</ele>
        <time>2016-06-23T10:22:35Z</time>
      </trkpt>
      <trkpt lat="44.42281" lon="2.94518">
        <ele>768.51</ele>
        <time>2016-06-23T10:22:42Z</time>
      </trkpt>
      <trkpt lat="44.42261" lon="2.94523">
        <ele>767.59</ele>
        <time>2016-06-23T10:22:58Z</time>
      </trkpt>
      <trkpt lat="44.42249" lon="2.94528">
        <ele>766.46</ele>
        <time>2016-06-23T10:23:08Z</time>
      </trkpt>
      <trkpt lat="44.42229" lon="2.94538">
        <ele>765.16</ele>
        <time>2016-06-23T10:23:25Z</time>
      </trkpt>
      <trkpt lat="44.42215" lon="2.94563">
        <ele>764.27</ele>
        <time>2016-06-23T10:23:42Z</time>
      </trkpt>
      <trkpt lat="44.42214" lon="2.94565">
        <ele>764.17</ele>
        <time>2016-06-23T10:23:43Z</time>
      </trkpt>
      <trkpt lat="44.42208" lon="2.94577">
        <ele>763.65</ele>
        <time>2016-06-23T10:23:51Z</time>
      </trkpt>
      <trkpt lat="44.42207" lon="2.94588">
        <ele>763.46</ele>
        <time>2016-06-23T10:23:57Z</time>
      </trkpt>
      <trkpt lat="44.42206" lon="2.94601">
        <ele>762.28</ele>
        <time>2016-06-23T10:24:05Z</time>
      </trkpt>
      <trkpt lat="44.42204" lon="2.94606">
        <ele>761.41</ele>
        <time>2016-06-23T10:24:10Z</time>
      </trkpt>
      <trkpt lat="44.42188" lon="2.94612">
        <ele>761.49</ele>
        <time>2016-06-23T10:24:23Z</time>
      </trkpt>
      <trkpt lat="44.42181" lon="2.94622">
        <ele>762.07</ele>
        <time>2016-06-23T10:24:32Z</time>
      </trkpt>
      <trkpt lat="44.42177" lon="2.94637">
        <ele>763.8</ele>
        <time>2016-06-23T10:24:44Z</time>
      </trkpt>
      <trkpt lat="44.42175" lon="2.94652">
        <ele>765.3</ele>
        <time>2016-06-23T10:24:54Z</time>
      </trkpt>
      <trkpt lat="44.4218" lon="2.94673">
        <ele>767.23</ele>
        <time>2016-06-23T10:25:09Z</time>
      </trkpt>
      <trkpt lat="44.42185" lon="2.94692">
        <ele>768.43</ele>
        <time>2016-06-23T10:25:21Z</time>
      </trkpt>
      <trkpt lat="44.42193" lon="2.94706">
        <ele>769.85</ele>
        <time>2016-06-23T10:25:32Z</time>
      </trkpt>
      <trkpt lat="44.42195" lon="2.94717">
        <ele>770.38</ele>
        <time>2016-06-23T10:25:38Z</time>
      </trkpt>
      <trkpt lat="44.42196" lon="2.94723">
        <ele>770.77</ele>
        <time>2016-06-23T10:25:42Z</time>
      </trkpt>
      <trkpt lat="44.422" lon="2.94745">
        <ele>772.18</ele>
        <time>2016-06-23T10:25:56Z</time>
      </trkpt>
      <trkpt lat="44.42202" lon="2.94766">
        <ele>774.13</ele>
        <time>2016-06-23T10:26:09Z</time>
      </trkpt>
      <trkpt lat="44.42203" lon="2.94779">
        <ele>775.25</ele>
        <time>2016-06-23T10:26:18Z</time>
      </trkpt>
      <trkpt lat="44.42205" lon="2.94803">
        <ele>777.61</ele>
        <time>2016-06-23T10:26:33Z</time>
      </trkpt>
      <trkpt lat="44.4221" lon="2.9482">
        <ele>778.14</ele>
        <time>2016-06-23T10:26:45Z</time>
      </trkpt>
      <trkpt lat="44.42215" lon="2.94839">
        <ele>778.79</ele>
        <time>2016-06-23T10:26:58Z</time>
      </trkpt>
      <trkpt lat="44.42217" lon="2.94849">
        <ele>779.08</ele>
        <time>2016-06-23T10:27:03Z</time>
      </trkpt>
      <trkpt lat="44.4222" lon="2.94873">
        <ele>780.14</ele>
        <time>2016-06-23T10:27:18Z</time>
      </trkpt>
      <trkpt lat="44.42219" lon="2.94894">
        <ele>781.17</ele>
        <time>2016-06-23T10:27:30Z</time>
      </trkpt>
      <trkpt lat="44.42215" lon="2.94914">
        <ele>782.57</ele>
        <time>2016-06-23T10:27:43Z</time>
      </trkpt>
      <trkpt lat="44.42214" lon="2.94923">
        <ele>782.9</ele>
        <time>2016-06-23T10:27:48Z</time>
      </trkpt>
      <trkpt lat="44.42211" lon="2.94943">
        <ele>784.23</ele>
        <time>2016-06-23T10:28:02Z</time>
      </trkpt>
      <trkpt lat="44.42209" lon="2.9496">
        <ele>785.14</ele>
        <time>2016-06-23T10:28:13Z</time>
      </trkpt>
      <trkpt lat="44.42205" lon="2.94979">
        <ele>785.72</ele>
        <time>2016-06-23T10:28:25Z</time>
      </trkpt>
      <trkpt lat="44.42201" lon="2.95001">
        <ele>786.52</ele>
        <time>2016-06-23T10:28:39Z</time>
      </trkpt>
      <trkpt lat="44.422" lon="2.95002">
        <ele>786.59</ele>
        <time>2016-06-23T10:28:40Z</time>
      </trkpt>
      <trkpt lat="44.42198" lon="2.95009">
        <ele>786.85</ele>
        <time>2016-06-23T10:28:45Z</time>
      </trkpt>
      <trkpt lat="44.42189" lon="2.9503">
        <ele>787.83</ele>
        <time>2016-06-23T10:29:01Z</time>
      </trkpt>
      <trkpt lat="44.4218" lon="2.95048">
        <ele>788.67</ele>
        <time>2016-06-23T10:29:13Z</time>
      </trkpt>
      <trkpt lat="44.42179" lon="2.95051">
        <ele>788.74</ele>
        <time>2016-06-23T10:29:15Z</time>
      </trkpt>
      <trkpt lat="44.42168" lon="2.95071">
        <ele>790.13</ele>
        <time>2016-06-23T10:29:30Z</time>
      </trkpt>
      <trkpt lat="44.42154" lon="2.95084">
        <ele>790.69</ele>
        <time>2016-06-23T10:29:43Z</time>
      </trkpt>
      <trkpt lat="44.42139" lon="2.95093">
        <ele>791.9</ele>
        <time>2016-06-23T10:29:58Z</time>
      </trkpt>
      <trkpt lat="44.42123" lon="2.95102">
        <ele>793.03</ele>
        <time>2016-06-23T10:30:12Z</time>
      </trkpt>
      <trkpt lat="44.42108" lon="2.95117">
        <ele>794.51</ele>
        <time>2016-06-23T10:30:28Z</time>
      </trkpt>
      <trkpt lat="44.42098" lon="2.95128">
        <ele>795.89</ele>
        <time>2016-06-23T10:30:38Z</time>
      </trkpt>
      <trkpt lat="44.42085" lon="2.95142">
        <ele>797.29</ele>
        <time>2016-06-23T10:30:51Z</time>
      </trkpt>
      <trkpt lat="44.42072" lon="2.9516">
        <ele>798.48</ele>
        <time>2016-06-23T10:31:05Z</time>
      </trkpt>
      <trkpt lat="44.42067" lon="2.95179">
        <ele>799.43</ele>
        <time>2016-06-23T10:31:18Z</time>
      </trkpt>
      <trkpt lat="44.42067" lon="2.95183">
        <ele>799.58</ele>
        <time>2016-06-23T10:31:20Z</time>
      </trkpt>
      <trkpt lat="44.4206" lon="2.95203">
        <ele>800.99</ele>
        <time>2016-06-23T10:31:33Z</time>
      </trkpt>
      <trkpt lat="44.42055" lon="2.95224">
        <ele>802.3</ele>
        <time>2016-06-23T10:31:47Z</time>
      </trkpt>
      <trkpt lat="44.42051" lon="2.9524">
        <ele>803.62</ele>
        <time>2016-06-23T10:31:58Z</time>
      </trkpt>
      <trkpt lat="44.42047" lon="2.95263">
        <ele>804.27</ele>
        <time>2016-06-23T10:32:12Z</time>
      </trkpt>
      <trkpt lat="44.42044" lon="2.95276">
        <ele>804.71</ele>
        <time>2016-06-23T10:32:20Z</time>
      </trkpt>
      <trkpt lat="44.42041" lon="2.95283">
        <ele>804.69</ele>
        <time>2016-06-23T10:32:25Z</time>
      </trkpt>
      <trkpt lat="44.42036" lon="2.95304">
        <ele>804.94</ele>
        <time>2016-06-23T10:32:39Z</time>
      </trkpt>
      <trkpt lat="44.42035" lon="2.95305">
        <ele>804.92</ele>
        <time>2016-06-23T10:32:40Z</time>
      </trkpt>
      <trkpt lat="44.42026" lon="2.95329">
        <ele>805.19</ele>
        <time>2016-06-23T10:32:56Z</time>
      </trkpt>
      <trkpt lat="44.42017" lon="2.95345">
        <ele>805.23</ele>
        <time>2016-06-23T10:33:08Z</time>
      </trkpt>
      <trkpt lat="44.42014" lon="2.95351">
        <ele>804.94</ele>
        <time>2016-06-23T10:33:12Z</time>
      </trkpt>
      <trkpt lat="44.42002" lon="2.95369">
        <ele>804.97</ele>
        <time>2016-06-23T10:33:26Z</time>
      </trkpt>
      <trkpt lat="44.41992" lon="2.95383">
        <ele>804.63</ele>
        <time>2016-06-23T10:33:39Z</time>
      </trkpt>
      <trkpt lat="44.41979" lon="2.95399">
        <ele>803.82</ele>
        <time>2016-06-23T10:33:53Z</time>
      </trkpt>
      <trkpt lat="44.41976" lon="2.95405">
        <ele>803.62</ele>
        <time>2016-06-23T10:33:58Z</time>
      </trkpt>
      <trkpt lat="44.41965" lon="2.95423">
        <ele>801.63</ele>
        <time>2016-06-23T10:34:10Z</time>
      </trkpt>
      <trkpt lat="44.41958" lon="2.95434">
        <ele>800.02</ele>
        <time>2016-06-23T10:34:18Z</time>
      </trkpt>
      <trkpt lat="44.41942" lon="2.95453">
        <ele>798</ele>
        <time>2016-06-23T10:34:33Z</time>
      </trkpt>
      <trkpt lat="44.41929" lon="2.95472">
        <ele>796.53</ele>
        <time>2016-06-23T10:34:46Z</time>
      </trkpt>
      <trkpt lat="44.41924" lon="2.95478">
        <ele>796.1</ele>
        <time>2016-06-23T10:34:51Z</time>
      </trkpt>
      <trkpt lat="44.41918" lon="2.95487">
        <ele>795.52</ele>
        <time>2016-06-23T10:34:57Z</time>
      </trkpt>
      <trkpt lat="44.41907" lon="2.95498">
        <ele>794.72</ele>
        <time>2016-06-23T10:35:07Z</time>
      </trkpt>
      <trkpt lat="44.41904" lon="2.95504">
        <ele>794.46</ele>
        <time>2016-06-23T10:35:11Z</time>
      </trkpt>
      <trkpt lat="44.41893" lon="2.95528">
        <ele>793.43</ele>
        <time>2016-06-23T10:35:26Z</time>
      </trkpt>
      <trkpt lat="44.41884" lon="2.95547">
        <ele>793.02</ele>
        <time>2016-06-23T10:35:38Z</time>
      </trkpt>
      <trkpt lat="44.41874" lon="2.9557">
        <ele>792.24</ele>
        <time>2016-06-23T10:35:53Z</time>
      </trkpt>
      <trkpt lat="44.4187" lon="2.95579">
        <ele>791.94</ele>
        <time>2016-06-23T10:35:59Z</time>
      </trkpt>
      <trkpt lat="44.41858" lon="2.95605">
        <ele>791.3</ele>
        <time>2016-06-23T10:36:16Z</time>
      </trkpt>
      <trkpt lat="44.41849" lon="2.95618">
        <ele>791.17</ele>
        <time>2016-06-23T10:36:26Z</time>
      </trkpt>
      <trkpt lat="44.41845" lon="2.95627">
        <ele>791.03</ele>
        <time>2016-06-23T10:36:31Z</time>
      </trkpt>
      <trkpt lat="44.41833" lon="2.9565">
        <ele>791.11</ele>
        <time>2016-06-23T10:36:46Z</time>
      </trkpt>
      <trkpt lat="44.41822" lon="2.95668">
        <ele>791.27</ele>
        <time>2016-06-23T10:37:00Z</time>
      </trkpt>
      <trkpt lat="44.4182" lon="2.95671">
        <ele>791.02</ele>
        <time>2016-06-23T10:37:02Z</time>
      </trkpt>
      <trkpt lat="44.41807" lon="2.9569">
        <ele>790.58</ele>
        <time>2016-06-23T10:37:17Z</time>
      </trkpt>
      <trkpt lat="44.41791" lon="2.95707">
        <ele>790.3</ele>
        <time>2016-06-23T10:37:32Z</time>
      </trkpt>
      <trkpt lat="44.41777" lon="2.95719">
        <ele>789.69</ele>
        <time>2016-06-23T10:37:45Z</time>
      </trkpt>
      <trkpt lat="44.41762" lon="2.95736">
        <ele>789.17</ele>
        <time>2016-06-23T10:37:59Z</time>
      </trkpt>
      <trkpt lat="44.4175" lon="2.9575">
        <ele>789.07</ele>
        <time>2016-06-23T10:38:12Z</time>
      </trkpt>
      <trkpt lat="44.41738" lon="2.95765">
        <ele>788.39</ele>
        <time>2016-06-23T10:38:25Z</time>
      </trkpt>
      <trkpt lat="44.41723" lon="2.95782">
        <ele>788.12</ele>
        <time>2016-06-23T10:38:40Z</time>
      </trkpt>
      <trkpt lat="44.41712" lon="2.95793">
        <ele>788.56</ele>
        <time>2016-06-23T10:38:52Z</time>
      </trkpt>
      <trkpt lat="44.41707" lon="2.958">
        <ele>788.61</ele>
        <time>2016-06-23T10:38:59Z</time>
      </trkpt>
      <trkpt lat="44.41701" lon="2.95808">
        <ele>788.41</ele>
        <time>2016-06-23T10:39:06Z</time>
      </trkpt>
      <trkpt lat="44.41695" lon="2.95816">
        <ele>788.56</ele>
        <time>2016-06-23T10:39:13Z</time>
      </trkpt>
      <trkpt lat="44.4168" lon="2.95831">
        <ele>788.6</ele>
        <time>2016-06-23T10:39:27Z</time>
      </trkpt>
      <trkpt lat="44.41679" lon="2.95831">
        <ele>788.6</ele>
        <time>2016-06-23T10:39:28Z</time>
      </trkpt>
      <trkpt lat="44.41664" lon="2.95845">
        <ele>788.41</ele>
        <time>2016-06-23T10:39:43Z</time>
      </trkpt>
      <trkpt lat="44.41658" lon="2.95852">
        <ele>788.77</ele>
        <time>2016-06-23T10:39:49Z</time>
      </trkpt>
      <trkpt lat="44.41656" lon="2.95854">
        <ele>788.86</ele>
        <time>2016-06-23T10:39:51Z</time>
      </trkpt>
      <trkpt lat="44.41641" lon="2.9587">
        <ele>789.09</ele>
        <time>2016-06-23T10:40:07Z</time>
      </trkpt>
      <trkpt lat="44.41625" lon="2.95883">
        <ele>789.69</ele>
        <time>2016-06-23T10:40:22Z</time>
      </trkpt>
      <trkpt lat="44.41624" lon="2.95884">
        <ele>789.69</ele>
        <time>2016-06-23T10:40:23Z</time>
      </trkpt>
      <trkpt lat="44.41615" lon="2.95894">
        <ele>789.7</ele>
        <time>2016-06-23T10:40:32Z</time>
      </trkpt>
      <trkpt lat="44.41602" lon="2.95906">
        <ele>789.71</ele>
        <time>2016-06-23T10:40:45Z</time>
      </trkpt>
      <trkpt lat="44.416" lon="2.95908">
        <ele>789.81</ele>
        <time>2016-06-23T10:40:47Z</time>
      </trkpt>
      <trkpt lat="44.41595" lon="2.95917">
        <ele>789.99</ele>
        <time>2016-06-23T10:40:53Z</time>
      </trkpt>
      <trkpt lat="44.41588" lon="2.95925">
        <ele>789.98</ele>
        <time>2016-06-23T10:41:00Z</time>
      </trkpt>
      <trkpt lat="44.41585" lon="2.95927">
        <ele>789.9</ele>
        <time>2016-06-23T10:41:02Z</time>
      </trkpt>
      <trkpt lat="44.41578" lon="2.95933">
        <ele>789.42</ele>
        <time>2016-06-23T10:41:08Z</time>
      </trkpt>
      <trkpt lat="44.41573" lon="2.95939">
        <ele>788.81</ele>
        <time>2016-06-23T10:41:13Z</time>
      </trkpt>
      <trkpt lat="44.41557" lon="2.95958">
        <ele>788.8</ele>
        <time>2016-06-23T10:41:29Z</time>
      </trkpt>
      <trkpt lat="44.41542" lon="2.95972">
        <ele>787.87</ele>
        <time>2016-06-23T10:41:44Z</time>
      </trkpt>
      <trkpt lat="44.41541" lon="2.95973">
        <ele>787.79</ele>
        <time>2016-06-23T10:41:45Z</time>
      </trkpt>
      <trkpt lat="44.41527" lon="2.9599">
        <ele>787.4</ele>
        <time>2016-06-23T10:41:59Z</time>
      </trkpt>
      <trkpt lat="44.41515" lon="2.96">
        <ele>786.93</ele>
        <time>2016-06-23T10:42:11Z</time>
      </trkpt>
      <trkpt lat="44.41514" lon="2.96001">
        <ele>786.91</ele>
        <time>2016-06-23T10:42:12Z</time>
      </trkpt>
      <trkpt lat="44.41509" lon="2.96006">
        <ele>786.93</ele>
        <time>2016-06-23T10:42:18Z</time>
      </trkpt>
      <trkpt lat="44.41503" lon="2.96012">
        <ele>786.86</ele>
        <time>2016-06-23T10:42:23Z</time>
      </trkpt>
      <trkpt lat="44.41488" lon="2.96031">
        <ele>786.67</ele>
        <time>2016-06-23T10:42:38Z</time>
      </trkpt>
      <trkpt lat="44.41473" lon="2.9605">
        <ele>787.18</ele>
        <time>2016-06-23T10:42:53Z</time>
      </trkpt>
      <trkpt lat="44.41469" lon="2.96058">
        <ele>787.42</ele>
        <time>2016-06-23T10:42:59Z</time>
      </trkpt>
      <trkpt lat="44.41461" lon="2.96075">
        <ele>789.19</ele>
        <time>2016-06-23T10:43:13Z</time>
      </trkpt>
      <trkpt lat="44.41461" lon="2.96079">
        <ele>789.48</ele>
        <time>2016-06-23T10:43:15Z</time>
      </trkpt>
      <trkpt lat="44.41455" lon="2.96101">
        <ele>791.71</ele>
        <time>2016-06-23T10:43:32Z</time>
      </trkpt>
      <trkpt lat="44.41451" lon="2.9611">
        <ele>793.03</ele>
        <time>2016-06-23T10:43:39Z</time>
      </trkpt>
      <trkpt lat="44.41443" lon="2.96131">
        <ele>794.63</ele>
        <time>2016-06-23T10:43:55Z</time>
      </trkpt>
      <trkpt lat="44.41435" lon="2.96146">
        <ele>796.37</ele>
        <time>2016-06-23T10:44:09Z</time>
      </trkpt>
      <trkpt lat="44.41431" lon="2.96154">
        <ele>796.86</ele>
        <time>2016-06-23T10:44:15Z</time>
      </trkpt>
      <trkpt lat="44.41431" lon="2.96158">
        <ele>797.06</ele>
        <time>2016-06-23T10:44:17Z</time>
      </trkpt>
      <trkpt lat="44.41419" lon="2.96183">
        <ele>797.93</ele>
        <time>2016-06-23T10:44:34Z</time>
      </trkpt>
      <trkpt lat="44.41407" lon="2.96207">
        <ele>797.31</ele>
        <time>2016-06-23T10:44:50Z</time>
      </trkpt>
      <trkpt lat="44.41394" lon="2.96231">
        <ele>794.77</ele>
        <time>2016-06-23T10:45:02Z</time>
      </trkpt>
      <trkpt lat="44.41387" lon="2.96248">
        <ele>792.39</ele>
        <time>2016-06-23T10:45:10Z</time>
      </trkpt>
      <trkpt lat="44.41383" lon="2.9626">
        <ele>791.18</ele>
        <time>2016-06-23T10:45:17Z</time>
      </trkpt>
      <trkpt lat="44.41377" lon="2.96278">
        <ele>790.16</ele>
        <time>2016-06-23T10:45:28Z</time>
      </trkpt>
      <trkpt lat="44.41372" lon="2.9629">
        <ele>790.15</ele>
        <time>2016-06-23T10:45:37Z</time>
      </trkpt>
      <trkpt lat="44.41368" lon="2.96299">
        <ele>790.28</ele>
        <time>2016-06-23T10:45:43Z</time>
      </trkpt>
      <trkpt lat="44.41362" lon="2.96317">
        <ele>790.98</ele>
        <time>2016-06-23T10:45:55Z</time>
      </trkpt>
      <trkpt lat="44.41362" lon="2.96321">
        <ele>791.04</ele>
        <time>2016-06-23T10:45:57Z</time>
      </trkpt>
      <trkpt lat="44.41357" lon="2.96342">
        <ele>791.9</ele>
        <time>2016-06-23T10:46:10Z</time>
      </trkpt>
      <trkpt lat="44.41351" lon="2.96368">
        <ele>792.67</ele>
        <time>2016-06-23T10:46:25Z</time>
      </trkpt>
      <trkpt lat="44.4135" lon="2.96373">
        <ele>792.73</ele>
        <time>2016-06-23T10:46:28Z</time>
      </trkpt>
      <trkpt lat="44.41347" lon="2.96383">
        <ele>792.85</ele>
        <time>2016-06-23T10:46:35Z</time>
      </trkpt>
      <trkpt lat="44.41345" lon="2.96389">
        <ele>792.66</ele>
        <time>2016-06-23T10:46:39Z</time>
      </trkpt>
      <trkpt lat="44.41343" lon="2.96398">
        <ele>792.52</ele>
        <time>2016-06-23T10:46:44Z</time>
      </trkpt>
      <trkpt lat="44.41334" lon="2.96422">
        <ele>792.43</ele>
        <time>2016-06-23T10:47:00Z</time>
      </trkpt>
      <trkpt lat="44.41326" lon="2.96442">
        <ele>792.87</ele>
        <time>2016-06-23T10:47:15Z</time>
      </trkpt>
      <trkpt lat="44.41325" lon="2.96446">
        <ele>792.82</ele>
        <time>2016-06-23T10:47:18Z</time>
      </trkpt>
      <trkpt lat="44.41314" lon="2.96462">
        <ele>792.74</ele>
        <time>2016-06-23T10:47:31Z</time>
      </trkpt>
      <trkpt lat="44.41313" lon="2.96463">
        <ele>792.79</ele>
        <time>2016-06-23T10:47:32Z</time>
      </trkpt>
      <trkpt lat="44.4131" lon="2.96471">
        <ele>792.96</ele>
        <time>2016-06-23T10:47:37Z</time>
      </trkpt>
      <trkpt lat="44.41296" lon="2.96484">
        <ele>792.98</ele>
        <time>2016-06-23T10:47:50Z</time>
      </trkpt>
      <trkpt lat="44.41292" lon="2.96491">
        <ele>793.11</ele>
        <time>2016-06-23T10:47:55Z</time>
      </trkpt>
      <trkpt lat="44.41276" lon="2.96506">
        <ele>793.17</ele>
        <time>2016-06-23T10:48:10Z</time>
      </trkpt>
      <trkpt lat="44.4127" lon="2.96509">
        <ele>792.48</ele>
        <time>2016-06-23T10:48:16Z</time>
      </trkpt>
      <trkpt lat="44.41268" lon="2.9651">
        <ele>792.33</ele>
        <time>2016-06-23T10:48:18Z</time>
      </trkpt>
      <trkpt lat="44.4126" lon="2.96506">
        <ele>792.39</ele>
        <time>2016-06-23T10:48:28Z</time>
      </trkpt>
      <trkpt lat="44.41242" lon="2.96502">
        <ele>792.48</ele>
        <time>2016-06-23T10:48:43Z</time>
      </trkpt>
      <trkpt lat="44.41238" lon="2.965">
        <ele>792.22</ele>
        <time>2016-06-23T10:48:46Z</time>
      </trkpt>
      <trkpt lat="44.4123" lon="2.965">
        <ele>791.97</ele>
        <time>2016-06-23T10:48:51Z</time>
      </trkpt>
      <trkpt lat="44.41222" lon="2.96503">
        <ele>791.51</ele>
        <time>2016-06-23T10:48:55Z</time>
      </trkpt>
      <trkpt lat="44.41202" lon="2.96514">
        <ele>788.44</ele>
        <time>2016-06-23T10:49:06Z</time>
      </trkpt>
      <trkpt lat="44.412" lon="2.96515">
        <ele>788.15</ele>
        <time>2016-06-23T10:49:07Z</time>
      </trkpt>
      <trkpt lat="44.41199" lon="2.96516">
        <ele>787.85</ele>
        <time>2016-06-23T10:49:08Z</time>
      </trkpt>
      <trkpt lat="44.41197" lon="2.96517">
        <ele>787.57</ele>
        <time>2016-06-23T10:49:09Z</time>
      </trkpt>
      <trkpt lat="44.41195" lon="2.96519">
        <ele>787.33</ele>
        <time>2016-06-23T10:49:10Z</time>
      </trkpt>
      <trkpt lat="44.41194" lon="2.9652">
        <ele>787.11</ele>
        <time>2016-06-23T10:49:11Z</time>
      </trkpt>
      <trkpt lat="44.41177" lon="2.96534">
        <ele>784.12</ele>
        <time>2016-06-23T10:49:25Z</time>
      </trkpt>
      <trkpt lat="44.41163" lon="2.96552">
        <ele>782.49</ele>
        <time>2016-06-23T10:49:40Z</time>
      </trkpt>
      <trkpt lat="44.41162" lon="2.96553">
        <ele>782.43</ele>
        <time>2016-06-23T10:49:41Z</time>
      </trkpt>
      <trkpt lat="44.41161" lon="2.96554">
        <ele>782.37</ele>
        <time>2016-06-23T10:49:42Z</time>
      </trkpt>
      <trkpt lat="44.4116" lon="2.96555">
        <ele>782.31</ele>
        <time>2016-06-23T10:49:43Z</time>
      </trkpt>
      <trkpt lat="44.41159" lon="2.96557">
        <ele>782.25</ele>
        <time>2016-06-23T10:49:44Z</time>
      </trkpt>
      <trkpt lat="44.41158" lon="2.96558">
        <ele>782.19</ele>
        <time>2016-06-23T10:49:45Z</time>
      </trkpt>
      <trkpt lat="44.41157" lon="2.96559">
        <ele>782.1</ele>
        <time>2016-06-23T10:49:46Z</time>
      </trkpt>
      <trkpt lat="44.41157" lon="2.96561">
        <ele>782</ele>
        <time>2016-06-23T10:49:47Z</time>
      </trkpt>
      <trkpt lat="44.41156" lon="2.96563">
        <ele>781.92</ele>
        <time>2016-06-23T10:49:48Z</time>
      </trkpt>
      <trkpt lat="44.41155" lon="2.96564">
        <ele>781.79</ele>
        <time>2016-06-23T10:49:49Z</time>
      </trkpt>
      <trkpt lat="44.41154" lon="2.96565">
        <ele>781.73</ele>
        <time>2016-06-23T10:49:50Z</time>
      </trkpt>
      <trkpt lat="44.4114" lon="2.96585">
        <ele>780.87</ele>
        <time>2016-06-23T10:50:05Z</time>
      </trkpt>
      <trkpt lat="44.41139" lon="2.96586">
        <ele>780.82</ele>
        <time>2016-06-23T10:50:06Z</time>
      </trkpt>
      <trkpt lat="44.41138" lon="2.96588">
        <ele>780.76</ele>
        <time>2016-06-23T10:50:07Z</time>
      </trkpt>
      <trkpt lat="44.41138" lon="2.96589">
        <ele>780.68</ele>
        <time>2016-06-23T10:50:08Z</time>
      </trkpt>
      <trkpt lat="44.4113" lon="2.96608">
        <ele>778.97</ele>
        <time>2016-06-23T10:50:23Z</time>
      </trkpt>
      <trkpt lat="44.41129" lon="2.96612">
        <ele>778.76</ele>
        <time>2016-06-23T10:50:25Z</time>
      </trkpt>
      <trkpt lat="44.41128" lon="2.96615">
        <ele>778.53</ele>
        <time>2016-06-23T10:50:27Z</time>
      </trkpt>
      <trkpt lat="44.41125" lon="2.96633">
        <ele>776.83</ele>
        <time>2016-06-23T10:50:39Z</time>
      </trkpt>
      <trkpt lat="44.41122" lon="2.96644">
        <ele>775.94</ele>
        <time>2016-06-23T10:50:47Z</time>
      </trkpt>
      <trkpt lat="44.41122" lon="2.96649">
        <ele>775.88</ele>
        <time>2016-06-23T10:50:50Z</time>
      </trkpt>
      <trkpt lat="44.41121" lon="2.96652">
        <ele>776.05</ele>
        <time>2016-06-23T10:50:52Z</time>
      </trkpt>
      <trkpt lat="44.4112" lon="2.96661">
        <ele>776</ele>
        <time>2016-06-23T10:51:04Z</time>
      </trkpt>
      <trkpt lat="44.41118" lon="2.96667">
        <ele>775.37</ele>
        <time>2016-06-23T10:51:25Z</time>
      </trkpt>
      <trkpt lat="44.41117" lon="2.96673">
        <ele>775.71</ele>
        <time>2016-06-23T10:52:00Z</time>
      </trkpt>
      <trkpt lat="44.41119" lon="2.96672">
        <ele>775.71</ele>
        <time>2016-06-23T10:52:34Z</time>
      </trkpt>
      <trkpt lat="44.41118" lon="2.96673">
        <ele>775.52</ele>
        <time>2016-06-23T10:53:21Z</time>
      </trkpt>
      <trkpt lat="44.4112" lon="2.96672">
        <ele>775.94</ele>
        <time>2016-06-23T10:53:56Z</time>
      </trkpt>
      <trkpt lat="44.41118" lon="2.96671">
        <ele>775.98</ele>
        <time>2016-06-23T10:54:28Z</time>
      </trkpt>
      <trkpt lat="44.41117" lon="2.96675">
        <ele>775.01</ele>
        <time>2016-06-23T10:54:59Z</time>
      </trkpt>
      <trkpt lat="44.4112" lon="2.96674">
        <ele>775.2</ele>
        <time>2016-06-23T10:55:32Z</time>
      </trkpt>
      <trkpt lat="44.41118" lon="2.96673">
        <ele>775.15</ele>
        <time>2016-06-23T10:56:12Z</time>
      </trkpt>
      <trkpt lat="44.41115" lon="2.96672">
        <ele>774.89</ele>
        <time>2016-06-23T10:56:40Z</time>
      </trkpt>
      <trkpt lat="44.41116" lon="2.96671">
        <ele>774.66</ele>
        <time>2016-06-23T10:57:21Z</time>
      </trkpt>
      <trkpt lat="44.41116" lon="2.96672">
        <ele>775.06</ele>
        <time>2016-06-23T10:57:55Z</time>
      </trkpt>
      <trkpt lat="44.41117" lon="2.96669">
        <ele>774.85</ele>
        <time>2016-06-23T10:58:26Z</time>
      </trkpt>
      <trkpt lat="44.41116" lon="2.96671">
        <ele>774.39</ele>
        <time>2016-06-23T10:58:52Z</time>
      </trkpt>
      <trkpt lat="44.41119" lon="2.9667">
        <ele>774.96</ele>
        <time>2016-06-23T10:59:14Z</time>
      </trkpt>
      <trkpt lat="44.41118" lon="2.96669">
        <ele>775.34</ele>
        <time>2016-06-23T10:59:41Z</time>
      </trkpt>
      <trkpt lat="44.41117" lon="2.96676">
        <ele>775.21</ele>
        <time>2016-06-23T10:59:50Z</time>
      </trkpt>
      <trkpt lat="44.41111" lon="2.96692">
        <ele>775.1</ele>
        <time>2016-06-23T11:00:04Z</time>
      </trkpt>
      <trkpt lat="44.41109" lon="2.967">
        <ele>774.77</ele>
        <time>2016-06-23T11:00:09Z</time>
      </trkpt>
      <trkpt lat="44.41108" lon="2.96701">
        <ele>774.69</ele>
        <time>2016-06-23T11:00:10Z</time>
      </trkpt>
      <trkpt lat="44.41103" lon="2.96721">
        <ele>773.74</ele>
        <time>2016-06-23T11:00:23Z</time>
      </trkpt>
      <trkpt lat="44.41096" lon="2.96741">
        <ele>773.06</ele>
        <time>2016-06-23T11:00:37Z</time>
      </trkpt>
      <trkpt lat="44.41096" lon="2.96751">
        <ele>772.32</ele>
        <time>2016-06-23T11:00:42Z</time>
      </trkpt>
      <trkpt lat="44.41095" lon="2.96753">
        <ele>772.18</ele>
        <time>2016-06-23T11:00:43Z</time>
      </trkpt>
      <trkpt lat="44.41095" lon="2.96755">
        <ele>772.06</ele>
        <time>2016-06-23T11:00:44Z</time>
      </trkpt>
      <trkpt lat="44.41091" lon="2.96773">
        <ele>771.96</ele>
        <time>2016-06-23T11:00:57Z</time>
      </trkpt>
      <trkpt lat="44.41091" lon="2.96781">
        <ele>772.52</ele>
        <time>2016-06-23T11:01:02Z</time>
      </trkpt>
      <trkpt lat="44.4109" lon="2.96795">
        <ele>773.13</ele>
        <time>2016-06-23T11:01:10Z</time>
      </trkpt>
      <trkpt lat="44.4109" lon="2.96805">
        <ele>773.79</ele>
        <time>2016-06-23T11:01:16Z</time>
      </trkpt>
      <trkpt lat="44.4109" lon="2.96807">
        <ele>773.88</ele>
        <time>2016-06-23T11:01:17Z</time>
      </trkpt>
      <trkpt lat="44.4109" lon="2.96809">
        <ele>773.95</ele>
        <time>2016-06-23T11:01:18Z</time>
      </trkpt>
      <trkpt lat="44.41088" lon="2.96829">
        <ele>774.42</ele>
        <time>2016-06-23T11:01:31Z</time>
      </trkpt>
      <trkpt lat="44.41088" lon="2.96849">
        <ele>775.18</ele>
        <time>2016-06-23T11:01:43Z</time>
      </trkpt>
      <trkpt lat="44.41087" lon="2.96858">
        <ele>775.76</ele>
        <time>2016-06-23T11:01:47Z</time>
      </trkpt>
      <trkpt lat="44.41087" lon="2.96886">
        <ele>777.6</ele>
        <time>2016-06-23T11:02:01Z</time>
      </trkpt>
      <trkpt lat="44.41088" lon="2.96906">
        <ele>778.1</ele>
        <time>2016-06-23T11:02:11Z</time>
      </trkpt>
      <trkpt lat="44.41087" lon="2.96928">
        <ele>777.94</ele>
        <time>2016-06-23T11:02:24Z</time>
      </trkpt>
      <trkpt lat="44.41085" lon="2.96946">
        <ele>778.45</ele>
        <time>2016-06-23T11:02:35Z</time>
      </trkpt>
      <trkpt lat="44.41083" lon="2.9696">
        <ele>778.76</ele>
        <time>2016-06-23T11:02:43Z</time>
      </trkpt>
      <trkpt lat="44.41082" lon="2.96962">
        <ele>778.77</ele>
        <time>2016-06-23T11:02:44Z</time>
      </trkpt>
      <trkpt lat="44.41083" lon="2.96964">
        <ele>778.77</ele>
        <time>2016-06-23T11:02:45Z</time>
      </trkpt>
      <trkpt lat="44.41082" lon="2.96966">
        <ele>778.77</ele>
        <time>2016-06-23T11:02:46Z</time>
      </trkpt>
      <trkpt lat="44.41079" lon="2.9699">
        <ele>777.59</ele>
        <time>2016-06-23T11:03:00Z</time>
      </trkpt>
      <trkpt lat="44.41074" lon="2.97009">
        <ele>776.85</ele>
        <time>2016-06-23T11:03:12Z</time>
      </trkpt>
      <trkpt lat="44.41066" lon="2.97047">
        <ele>774.27</ele>
        <time>2016-06-23T11:03:27Z</time>
      </trkpt>
      <trkpt lat="44.41065" lon="2.9706">
        <ele>772.69</ele>
        <time>2016-06-23T11:03:33Z</time>
      </trkpt>
      <trkpt lat="44.41065" lon="2.97061">
        <ele>772.47</ele>
        <time>2016-06-23T11:03:34Z</time>
      </trkpt>
      <trkpt lat="44.41064" lon="2.97063">
        <ele>772.27</ele>
        <time>2016-06-23T11:03:35Z</time>
      </trkpt>
      <trkpt lat="44.41059" lon="2.97088">
        <ele>771.23</ele>
        <time>2016-06-23T11:03:50Z</time>
      </trkpt>
      <trkpt lat="44.41051" lon="2.9711">
        <ele>770.39</ele>
        <time>2016-06-23T11:04:03Z</time>
      </trkpt>
      <trkpt lat="44.41044" lon="2.97133">
        <ele>769.66</ele>
        <time>2016-06-23T11:04:17Z</time>
      </trkpt>
      <trkpt lat="44.41041" lon="2.97147">
        <ele>769.12</ele>
        <time>2016-06-23T11:04:25Z</time>
      </trkpt>
      <trkpt lat="44.4104" lon="2.97155">
        <ele>769.18</ele>
        <time>2016-06-23T11:04:30Z</time>
      </trkpt>
      <trkpt lat="44.41039" lon="2.97156">
        <ele>769.18</ele>
        <time>2016-06-23T11:04:31Z</time>
      </trkpt>
      <trkpt lat="44.41037" lon="2.97159">
        <ele>769.59</ele>
        <time>2016-06-23T11:04:34Z</time>
      </trkpt>
      <trkpt lat="44.41036" lon="2.9716">
        <ele>769.69</ele>
        <time>2016-06-23T11:04:35Z</time>
      </trkpt>
      <trkpt lat="44.41029" lon="2.97163">
        <ele>770.35</ele>
        <time>2016-06-23T11:04:43Z</time>
      </trkpt>
      <trkpt lat="44.41028" lon="2.97163">
        <ele>770.49</ele>
        <time>2016-06-23T11:04:44Z</time>
      </trkpt>
      <trkpt lat="44.41026" lon="2.97163">
        <ele>770.85</ele>
        <time>2016-06-23T11:04:46Z</time>
      </trkpt>
      <trkpt lat="44.41012" lon="2.97161">
        <ele>772.81</ele>
        <time>2016-06-23T11:04:58Z</time>
      </trkpt>
      <trkpt lat="44.40996" lon="2.97161">
        <ele>774.33</ele>
        <time>2016-06-23T11:05:12Z</time>
      </trkpt>
      <trkpt lat="44.4098" lon="2.9716">
        <ele>775.67</ele>
        <time>2016-06-23T11:05:27Z</time>
      </trkpt>
      <trkpt lat="44.40964" lon="2.9715">
        <ele>776.94</ele>
        <time>2016-06-23T11:05:41Z</time>
      </trkpt>
      <trkpt lat="44.40954" lon="2.97146">
        <ele>777.89</ele>
        <time>2016-06-23T11:05:51Z</time>
      </trkpt>
      <trkpt lat="44.40953" lon="2.97146">
        <ele>777.96</ele>
        <time>2016-06-23T11:05:52Z</time>
      </trkpt>
      <trkpt lat="44.40936" lon="2.97145">
        <ele>779.21</ele>
        <time>2016-06-23T11:06:06Z</time>
      </trkpt>
      <trkpt lat="44.40921" lon="2.97146">
        <ele>780.45</ele>
        <time>2016-06-23T11:06:19Z</time>
      </trkpt>
      <trkpt lat="44.4091" lon="2.97154">
        <ele>781.64</ele>
        <time>2016-06-23T11:06:30Z</time>
      </trkpt>
      <trkpt lat="44.40909" lon="2.97157">
        <ele>781.94</ele>
        <time>2016-06-23T11:06:33Z</time>
      </trkpt>
      <trkpt lat="44.40895" lon="2.97164">
        <ele>783.16</ele>
        <time>2016-06-23T11:06:46Z</time>
      </trkpt>
      <trkpt lat="44.40881" lon="2.97176">
        <ele>784.03</ele>
        <time>2016-06-23T11:07:01Z</time>
      </trkpt>
      <trkpt lat="44.40869" lon="2.97193">
        <ele>784.77</ele>
        <time>2016-06-23T11:07:16Z</time>
      </trkpt>
      <trkpt lat="44.40868" lon="2.97194">
        <ele>784.78</ele>
        <time>2016-06-23T11:07:17Z</time>
      </trkpt>
      <trkpt lat="44.40867" lon="2.97196">
        <ele>784.79</ele>
        <time>2016-06-23T11:07:18Z</time>
      </trkpt>
      <trkpt lat="44.40866" lon="2.97197">
        <ele>784.81</ele>
        <time>2016-06-23T11:07:19Z</time>
      </trkpt>
      <trkpt lat="44.40865" lon="2.97198">
        <ele>784.82</ele>
        <time>2016-06-23T11:07:20Z</time>
      </trkpt>
      <trkpt lat="44.40864" lon="2.97199">
        <ele>784.86</ele>
        <time>2016-06-23T11:07:21Z</time>
      </trkpt>
      <trkpt lat="44.40864" lon="2.97201">
        <ele>784.97</ele>
        <time>2016-06-23T11:07:22Z</time>
      </trkpt>
      <trkpt lat="44.40863" lon="2.97202">
        <ele>785.24</ele>
        <time>2016-06-23T11:07:23Z</time>
      </trkpt>
      <trkpt lat="44.40854" lon="2.97226">
        <ele>786.29</ele>
        <time>2016-06-23T11:07:38Z</time>
      </trkpt>
      <trkpt lat="44.4085" lon="2.97237">
        <ele>786.4</ele>
        <time>2016-06-23T11:07:45Z</time>
      </trkpt>
      <trkpt lat="44.4085" lon="2.97239">
        <ele>786.4</ele>
        <time>2016-06-23T11:07:46Z</time>
      </trkpt>
      <trkpt lat="44.40849" lon="2.9724">
        <ele>786.4</ele>
        <time>2016-06-23T11:07:47Z</time>
      </trkpt>
      <trkpt lat="44.40846" lon="2.97248">
        <ele>786.54</ele>
        <time>2016-06-23T11:07:52Z</time>
      </trkpt>
      <trkpt lat="44.40847" lon="2.97255">
        <ele>786.47</ele>
        <time>2016-06-23T11:07:56Z</time>
      </trkpt>
      <trkpt lat="44.40848" lon="2.97257">
        <ele>786.43</ele>
        <time>2016-06-23T11:07:57Z</time>
      </trkpt>
      <trkpt lat="44.40848" lon="2.97259">
        <ele>786.38</ele>
        <time>2016-06-23T11:07:58Z</time>
      </trkpt>
      <trkpt lat="44.40853" lon="2.97281">
        <ele>786.88</ele>
        <time>2016-06-23T11:08:09Z</time>
      </trkpt>
      <trkpt lat="44.40854" lon="2.97286">
        <ele>787.21</ele>
        <time>2016-06-23T11:08:12Z</time>
      </trkpt>
      <trkpt lat="44.40855" lon="2.97291">
        <ele>787.39</ele>
        <time>2016-06-23T11:08:16Z</time>
      </trkpt>
      <trkpt lat="44.40855" lon="2.97293">
        <ele>787.41</ele>
        <time>2016-06-23T11:08:17Z</time>
      </trkpt>
      <trkpt lat="44.40856" lon="2.97294">
        <ele>787.45</ele>
        <time>2016-06-23T11:08:18Z</time>
      </trkpt>
      <trkpt lat="44.40862" lon="2.97309">
        <ele>787.86</ele>
        <time>2016-06-23T11:08:29Z</time>
      </trkpt>
      <trkpt lat="44.40865" lon="2.97315">
        <ele>788.54</ele>
        <time>2016-06-23T11:08:34Z</time>
      </trkpt>
      <trkpt lat="44.40866" lon="2.97317">
        <ele>788.68</ele>
        <time>2016-06-23T11:08:35Z</time>
      </trkpt>
      <trkpt lat="44.40871" lon="2.97336">
        <ele>790.34</ele>
        <time>2016-06-23T11:08:48Z</time>
      </trkpt>
      <trkpt lat="44.40878" lon="2.97357">
        <ele>791.23</ele>
        <time>2016-06-23T11:09:01Z</time>
      </trkpt>
      <trkpt lat="44.40879" lon="2.97359">
        <ele>791.46</ele>
        <time>2016-06-23T11:09:02Z</time>
      </trkpt>
      <trkpt lat="44.40879" lon="2.97361">
        <ele>791.56</ele>
        <time>2016-06-23T11:09:03Z</time>
      </trkpt>
      <trkpt lat="44.4088" lon="2.97362">
        <ele>791.63</ele>
        <time>2016-06-23T11:09:04Z</time>
      </trkpt>
      <trkpt lat="44.40881" lon="2.97364">
        <ele>791.68</ele>
        <time>2016-06-23T11:09:05Z</time>
      </trkpt>
      <trkpt lat="44.40881" lon="2.97365">
        <ele>791.71</ele>
        <time>2016-06-23T11:09:06Z</time>
      </trkpt>
      <trkpt lat="44.40882" lon="2.97367">
        <ele>791.75</ele>
        <time>2016-06-23T11:09:07Z</time>
      </trkpt>
      <trkpt lat="44.40882" lon="2.97368">
        <ele>791.79</ele>
        <time>2016-06-23T11:09:08Z</time>
      </trkpt>
      <trkpt lat="44.40883" lon="2.9737">
        <ele>791.83</ele>
        <time>2016-06-23T11:09:09Z</time>
      </trkpt>
      <trkpt lat="44.40883" lon="2.97372">
        <ele>791.87</ele>
        <time>2016-06-23T11:09:10Z</time>
      </trkpt>
      <trkpt lat="44.40884" lon="2.97374">
        <ele>791.92</ele>
        <time>2016-06-23T11:09:11Z</time>
      </trkpt>
      <trkpt lat="44.40884" lon="2.97376">
        <ele>791.97</ele>
        <time>2016-06-23T11:09:12Z</time>
      </trkpt>
      <trkpt lat="44.40884" lon="2.97378">
        <ele>792.02</ele>
        <time>2016-06-23T11:09:13Z</time>
      </trkpt>
      <trkpt lat="44.40884" lon="2.97379">
        <ele>792.1</ele>
        <time>2016-06-23T11:09:14Z</time>
      </trkpt>
      <trkpt lat="44.40885" lon="2.97381">
        <ele>792.19</ele>
        <time>2016-06-23T11:09:15Z</time>
      </trkpt>
      <trkpt lat="44.40885" lon="2.97385">
        <ele>792.35</ele>
        <time>2016-06-23T11:09:17Z</time>
      </trkpt>
      <trkpt lat="44.40886" lon="2.97386">
        <ele>792.41</ele>
        <time>2016-06-23T11:09:18Z</time>
      </trkpt>
      <trkpt lat="44.40886" lon="2.97388">
        <ele>792.47</ele>
        <time>2016-06-23T11:09:19Z</time>
      </trkpt>
      <trkpt lat="44.40886" lon="2.97389">
        <ele>792.52</ele>
        <time>2016-06-23T11:09:20Z</time>
      </trkpt>
      <trkpt lat="44.40887" lon="2.97391">
        <ele>792.55</ele>
        <time>2016-06-23T11:09:21Z</time>
      </trkpt>
      <trkpt lat="44.40887" lon="2.97393">
        <ele>792.62</ele>
        <time>2016-06-23T11:09:22Z</time>
      </trkpt>
      <trkpt lat="44.40887" lon="2.97394">
        <ele>792.76</ele>
        <time>2016-06-23T11:09:23Z</time>
      </trkpt>
      <trkpt lat="44.40887" lon="2.97396">
        <ele>792.92</ele>
        <time>2016-06-23T11:09:24Z</time>
      </trkpt>
      <trkpt lat="44.40887" lon="2.97398">
        <ele>793.06</ele>
        <time>2016-06-23T11:09:25Z</time>
      </trkpt>
      <trkpt lat="44.40886" lon="2.974">
        <ele>793.27</ele>
        <time>2016-06-23T11:09:26Z</time>
      </trkpt>
      <trkpt lat="44.4088" lon="2.97424">
        <ele>794.37</ele>
        <time>2016-06-23T11:09:42Z</time>
      </trkpt>
      <trkpt lat="44.40876" lon="2.97444">
        <ele>795.25</ele>
        <time>2016-06-23T11:09:56Z</time>
      </trkpt>
      <trkpt lat="44.40871" lon="2.9746">
        <ele>796.04</ele>
        <time>2016-06-23T11:10:07Z</time>
      </trkpt>
      <trkpt lat="44.40871" lon="2.97462">
        <ele>796.09</ele>
        <time>2016-06-23T11:10:08Z</time>
      </trkpt>
      <trkpt lat="44.40871" lon="2.97464">
        <ele>796.14</ele>
        <time>2016-06-23T11:10:09Z</time>
      </trkpt>
      <trkpt lat="44.4087" lon="2.97465">
        <ele>796.16</ele>
        <time>2016-06-23T11:10:10Z</time>
      </trkpt>
      <trkpt lat="44.4087" lon="2.97467">
        <ele>796.19</ele>
        <time>2016-06-23T11:10:11Z</time>
      </trkpt>
      <trkpt lat="44.40871" lon="2.97469">
        <ele>796.23</ele>
        <time>2016-06-23T11:10:12Z</time>
      </trkpt>
      <trkpt lat="44.40871" lon="2.97471">
        <ele>796.26</ele>
        <time>2016-06-23T11:10:13Z</time>
      </trkpt>
      <trkpt lat="44.40871" lon="2.97473">
        <ele>796.31</ele>
        <time>2016-06-23T11:10:14Z</time>
      </trkpt>
      <trkpt lat="44.40871" lon="2.97474">
        <ele>796.4</ele>
        <time>2016-06-23T11:10:15Z</time>
      </trkpt>
      <trkpt lat="44.40871" lon="2.975">
        <ele>798.06</ele>
        <time>2016-06-23T11:10:31Z</time>
      </trkpt>
      <trkpt lat="44.40871" lon="2.9752">
        <ele>799.24</ele>
        <time>2016-06-23T11:10:43Z</time>
      </trkpt>
      <trkpt lat="44.40869" lon="2.9754">
        <ele>801.04</ele>
        <time>2016-06-23T11:10:57Z</time>
      </trkpt>
      <trkpt lat="44.40868" lon="2.97549">
        <ele>801.7</ele>
        <time>2016-06-23T11:11:04Z</time>
      </trkpt>
      <trkpt lat="44.40869" lon="2.97552">
        <ele>801.98</ele>
        <time>2016-06-23T11:11:06Z</time>
      </trkpt>
      <trkpt lat="44.40868" lon="2.97557">
        <ele>802.59</ele>
        <time>2016-06-23T11:11:09Z</time>
      </trkpt>
      <trkpt lat="44.40868" lon="2.97565">
        <ele>803.39</ele>
        <time>2016-06-23T11:11:14Z</time>
      </trkpt>
      <trkpt lat="44.40868" lon="2.97568">
        <ele>803.52</ele>
        <time>2016-06-23T11:11:16Z</time>
      </trkpt>
      <trkpt lat="44.40872" lon="2.97586">
        <ele>805.15</ele>
        <time>2016-06-23T11:11:28Z</time>
      </trkpt>
      <trkpt lat="44.40871" lon="2.97594">
        <ele>805.72</ele>
        <time>2016-06-23T11:11:35Z</time>
      </trkpt>
      <trkpt lat="44.40869" lon="2.97614">
        <ele>807.65</ele>
        <time>2016-06-23T11:11:49Z</time>
      </trkpt>
      <trkpt lat="44.40871" lon="2.97622">
        <ele>808.34</ele>
        <time>2016-06-23T11:11:54Z</time>
      </trkpt>
      <trkpt lat="44.40871" lon="2.97623">
        <ele>808.48</ele>
        <time>2016-06-23T11:11:55Z</time>
      </trkpt>
      <trkpt lat="44.40875" lon="2.97634">
        <ele>809.47</ele>
        <time>2016-06-23T11:12:03Z</time>
      </trkpt>
      <trkpt lat="44.40876" lon="2.97636">
        <ele>809.54</ele>
        <time>2016-06-23T11:12:04Z</time>
      </trkpt>
      <trkpt lat="44.40876" lon="2.97637">
        <ele>809.59</ele>
        <time>2016-06-23T11:12:05Z</time>
      </trkpt>
      <trkpt lat="44.40877" lon="2.97638">
        <ele>809.65</ele>
        <time>2016-06-23T11:12:06Z</time>
      </trkpt>
      <trkpt lat="44.40877" lon="2.9764">
        <ele>809.73</ele>
        <time>2016-06-23T11:12:07Z</time>
      </trkpt>
      <trkpt lat="44.40877" lon="2.97641">
        <ele>809.82</ele>
        <time>2016-06-23T11:12:08Z</time>
      </trkpt>
      <trkpt lat="44.40878" lon="2.97643">
        <ele>809.94</ele>
        <time>2016-06-23T11:12:09Z</time>
      </trkpt>
      <trkpt lat="44.40879" lon="2.97644">
        <ele>810.08</ele>
        <time>2016-06-23T11:12:10Z</time>
      </trkpt>
      <trkpt lat="44.40879" lon="2.97646">
        <ele>810.24</ele>
        <time>2016-06-23T11:12:11Z</time>
      </trkpt>
      <trkpt lat="44.40882" lon="2.97665">
        <ele>812.51</ele>
        <time>2016-06-23T11:12:25Z</time>
      </trkpt>
      <trkpt lat="44.40886" lon="2.97687">
        <ele>814.73</ele>
        <time>2016-06-23T11:12:41Z</time>
      </trkpt>
      <trkpt lat="44.40889" lon="2.97701">
        <ele>815.75</ele>
        <time>2016-06-23T11:12:51Z</time>
      </trkpt>
      <trkpt lat="44.40895" lon="2.97723">
        <ele>818.12</ele>
        <time>2016-06-23T11:13:05Z</time>
      </trkpt>
      <trkpt lat="44.40895" lon="2.97724">
        <ele>818.22</ele>
        <time>2016-06-23T11:13:06Z</time>
      </trkpt>
      <trkpt lat="44.40896" lon="2.97726">
        <ele>818.31</ele>
        <time>2016-06-23T11:13:07Z</time>
      </trkpt>
      <trkpt lat="44.40899" lon="2.9774">
        <ele>818.89</ele>
        <time>2016-06-23T11:13:16Z</time>
      </trkpt>
      <trkpt lat="44.409" lon="2.9776">
        <ele>819.61</ele>
        <time>2016-06-23T11:13:29Z</time>
      </trkpt>
      <trkpt lat="44.40901" lon="2.97764">
        <ele>819.99</ele>
        <time>2016-06-23T11:13:32Z</time>
      </trkpt>
      <trkpt lat="44.40902" lon="2.97766">
        <ele>820.12</ele>
        <time>2016-06-23T11:13:33Z</time>
      </trkpt>
      <trkpt lat="44.40903" lon="2.97767">
        <ele>820.27</ele>
        <time>2016-06-23T11:13:34Z</time>
      </trkpt>
      <trkpt lat="44.40903" lon="2.97769">
        <ele>820.44</ele>
        <time>2016-06-23T11:13:35Z</time>
      </trkpt>
      <trkpt lat="44.40903" lon="2.97771">
        <ele>820.6</ele>
        <time>2016-06-23T11:13:36Z</time>
      </trkpt>
      <trkpt lat="44.40903" lon="2.97773">
        <ele>820.75</ele>
        <time>2016-06-23T11:13:37Z</time>
      </trkpt>
      <trkpt lat="44.40904" lon="2.97774">
        <ele>820.88</ele>
        <time>2016-06-23T11:13:38Z</time>
      </trkpt>
      <trkpt lat="44.40904" lon="2.97776">
        <ele>821</ele>
        <time>2016-06-23T11:13:39Z</time>
      </trkpt>
      <trkpt lat="44.40904" lon="2.97777">
        <ele>821.1</ele>
        <time>2016-06-23T11:13:40Z</time>
      </trkpt>
      <trkpt lat="44.40905" lon="2.97779">
        <ele>821.17</ele>
        <time>2016-06-23T11:13:41Z</time>
      </trkpt>
      <trkpt lat="44.40905" lon="2.97781">
        <ele>821.24</ele>
        <time>2016-06-23T11:13:42Z</time>
      </trkpt>
      <trkpt lat="44.40905" lon="2.97783">
        <ele>821.28</ele>
        <time>2016-06-23T11:13:43Z</time>
      </trkpt>
      <trkpt lat="44.40906" lon="2.97801">
        <ele>821.53</ele>
        <time>2016-06-23T11:13:54Z</time>
      </trkpt>
      <trkpt lat="44.40907" lon="2.97803">
        <ele>821.57</ele>
        <time>2016-06-23T11:13:55Z</time>
      </trkpt>
      <trkpt lat="44.40907" lon="2.97804">
        <ele>821.64</ele>
        <time>2016-06-23T11:13:56Z</time>
      </trkpt>
      <trkpt lat="44.40907" lon="2.97806">
        <ele>821.7</ele>
        <time>2016-06-23T11:13:57Z</time>
      </trkpt>
      <trkpt lat="44.40909" lon="2.97822">
        <ele>821.81</ele>
        <time>2016-06-23T11:14:07Z</time>
      </trkpt>
      <trkpt lat="44.40908" lon="2.97824">
        <ele>821.56</ele>
        <time>2016-06-23T11:14:08Z</time>
      </trkpt>
      <trkpt lat="44.40908" lon="2.97826">
        <ele>821.47</ele>
        <time>2016-06-23T11:14:09Z</time>
      </trkpt>
      <trkpt lat="44.40908" lon="2.97827">
        <ele>821.4</ele>
        <time>2016-06-23T11:14:10Z</time>
      </trkpt>
      <trkpt lat="44.40908" lon="2.97829">
        <ele>821.33</ele>
        <time>2016-06-23T11:14:11Z</time>
      </trkpt>
      <trkpt lat="44.40909" lon="2.97847">
        <ele>821.01</ele>
        <time>2016-06-23T11:14:22Z</time>
      </trkpt>
      <trkpt lat="44.40908" lon="2.97848">
        <ele>820.97</ele>
        <time>2016-06-23T11:14:23Z</time>
      </trkpt>
      <trkpt lat="44.40908" lon="2.97851">
        <ele>820.92</ele>
        <time>2016-06-23T11:14:24Z</time>
      </trkpt>
      <trkpt lat="44.40907" lon="2.97853">
        <ele>820.88</ele>
        <time>2016-06-23T11:14:25Z</time>
      </trkpt>
      <trkpt lat="44.40907" lon="2.97856">
        <ele>820.8</ele>
        <time>2016-06-23T11:14:27Z</time>
      </trkpt>
      <trkpt lat="44.40908" lon="2.97857">
        <ele>820.76</ele>
        <time>2016-06-23T11:14:28Z</time>
      </trkpt>
      <trkpt lat="44.40908" lon="2.97861">
        <ele>820.61</ele>
        <time>2016-06-23T11:14:31Z</time>
      </trkpt>
      <trkpt lat="44.40907" lon="2.97871">
        <ele>820.17</ele>
        <time>2016-06-23T11:14:37Z</time>
      </trkpt>
      <trkpt lat="44.40906" lon="2.97873">
        <ele>820.09</ele>
        <time>2016-06-23T11:14:38Z</time>
      </trkpt>
      <trkpt lat="44.40906" lon="2.97875">
        <ele>820.01</ele>
        <time>2016-06-23T11:14:39Z</time>
      </trkpt>
      <trkpt lat="44.40898" lon="2.97897">
        <ele>819.04</ele>
        <time>2016-06-23T11:14:54Z</time>
      </trkpt>
      <trkpt lat="44.40897" lon="2.97899">
        <ele>818.88</ele>
        <time>2016-06-23T11:14:56Z</time>
      </trkpt>
      <trkpt lat="44.40886" lon="2.97916">
        <ele>817.41</ele>
        <time>2016-06-23T11:15:10Z</time>
      </trkpt>
      <trkpt lat="44.40879" lon="2.97926">
        <ele>816.29</ele>
        <time>2016-06-23T11:15:18Z</time>
      </trkpt>
      <trkpt lat="44.40878" lon="2.97928">
        <ele>816.14</ele>
        <time>2016-06-23T11:15:19Z</time>
      </trkpt>
      <trkpt lat="44.40876" lon="2.97932">
        <ele>815.85</ele>
        <time>2016-06-23T11:15:22Z</time>
      </trkpt>
      <trkpt lat="44.40875" lon="2.97934">
        <ele>815.81</ele>
        <time>2016-06-23T11:15:23Z</time>
      </trkpt>
      <trkpt lat="44.4087" lon="2.97953">
        <ele>815.44</ele>
        <time>2016-06-23T11:15:35Z</time>
      </trkpt>
      <trkpt lat="44.40871" lon="2.97991">
        <ele>814</ele>
        <time>2016-06-23T11:15:49Z</time>
      </trkpt>
      <trkpt lat="44.40871" lon="2.98032">
        <ele>811.24</ele>
        <time>2016-06-23T11:16:02Z</time>
      </trkpt>
      <trkpt lat="44.40871" lon="2.98039">
        <ele>810.77</ele>
        <time>2016-06-23T11:16:04Z</time>
      </trkpt>
      <trkpt lat="44.40872" lon="2.98042">
        <ele>810.41</ele>
        <time>2016-06-23T11:16:05Z</time>
      </trkpt>
      <trkpt lat="44.40872" lon="2.98045">
        <ele>810.06</ele>
        <time>2016-06-23T11:16:06Z</time>
      </trkpt>
      <trkpt lat="44.40873" lon="2.98048">
        <ele>809.74</ele>
        <time>2016-06-23T11:16:07Z</time>
      </trkpt>
      <trkpt lat="44.40873" lon="2.98051">
        <ele>809.44</ele>
        <time>2016-06-23T11:16:08Z</time>
      </trkpt>
      <trkpt lat="44.40873" lon="2.98055">
        <ele>809.17</ele>
        <time>2016-06-23T11:16:09Z</time>
      </trkpt>
      <trkpt lat="44.40878" lon="2.98091">
        <ele>805.89</ele>
        <time>2016-06-23T11:16:22Z</time>
      </trkpt>
      <trkpt lat="44.40879" lon="2.98102">
        <ele>804.82</ele>
        <time>2016-06-23T11:16:28Z</time>
      </trkpt>
      <trkpt lat="44.4088" lon="2.98113">
        <ele>804.1</ele>
        <time>2016-06-23T11:16:34Z</time>
      </trkpt>
      <trkpt lat="44.40881" lon="2.98114">
        <ele>804</ele>
        <time>2016-06-23T11:16:35Z</time>
      </trkpt>
      <trkpt lat="44.40882" lon="2.98115">
        <ele>803.91</ele>
        <time>2016-06-23T11:16:36Z</time>
      </trkpt>
      <trkpt lat="44.40882" lon="2.98117">
        <ele>803.82</ele>
        <time>2016-06-23T11:16:37Z</time>
      </trkpt>
      <trkpt lat="44.40883" lon="2.98118">
        <ele>803.7</ele>
        <time>2016-06-23T11:16:38Z</time>
      </trkpt>
      <trkpt lat="44.40893" lon="2.98137">
        <ele>802.5</ele>
        <time>2016-06-23T11:16:52Z</time>
      </trkpt>
      <trkpt lat="44.40894" lon="2.98139">
        <ele>802.42</ele>
        <time>2016-06-23T11:16:53Z</time>
      </trkpt>
      <trkpt lat="44.40906" lon="2.98165">
        <ele>800.21</ele>
        <time>2016-06-23T11:17:09Z</time>
      </trkpt>
      <trkpt lat="44.40909" lon="2.98171">
        <ele>799.99</ele>
        <time>2016-06-23T11:17:13Z</time>
      </trkpt>
      <trkpt lat="44.40909" lon="2.98173">
        <ele>799.95</ele>
        <time>2016-06-23T11:17:14Z</time>
      </trkpt>
      <trkpt lat="44.4091" lon="2.98185">
        <ele>799.41</ele>
        <time>2016-06-23T11:17:20Z</time>
      </trkpt>
      <trkpt lat="44.40914" lon="2.98193">
        <ele>798.28</ele>
        <time>2016-06-23T11:17:32Z</time>
      </trkpt>
      <trkpt lat="44.40917" lon="2.98197">
        <ele>798.22</ele>
        <time>2016-06-23T11:17:35Z</time>
      </trkpt>
      <trkpt lat="44.40917" lon="2.982">
        <ele>798.12</ele>
        <time>2016-06-23T11:17:37Z</time>
      </trkpt>
      <trkpt lat="44.40918" lon="2.98205">
        <ele>798.19</ele>
        <time>2016-06-23T11:17:41Z</time>
      </trkpt>
      <trkpt lat="44.40919" lon="2.98208">
        <ele>798.25</ele>
        <time>2016-06-23T11:17:43Z</time>
      </trkpt>
      <trkpt lat="44.40925" lon="2.98231">
        <ele>798.13</ele>
        <time>2016-06-23T11:17:57Z</time>
      </trkpt>
      <trkpt lat="44.40926" lon="2.9824">
        <ele>798.31</ele>
        <time>2016-06-23T11:18:02Z</time>
      </trkpt>
      <trkpt lat="44.40926" lon="2.98242">
        <ele>798.33</ele>
        <time>2016-06-23T11:18:03Z</time>
      </trkpt>
      <trkpt lat="44.40926" lon="2.98256">
        <ele>798.43</ele>
        <time>2016-06-23T11:18:11Z</time>
      </trkpt>
      <trkpt lat="44.40925" lon="2.98258">
        <ele>798.45</ele>
        <time>2016-06-23T11:18:12Z</time>
      </trkpt>
      <trkpt lat="44.40925" lon="2.9826">
        <ele>798.44</ele>
        <time>2016-06-23T11:18:13Z</time>
      </trkpt>
      <trkpt lat="44.40925" lon="2.98262">
        <ele>798.4</ele>
        <time>2016-06-23T11:18:14Z</time>
      </trkpt>
      <trkpt lat="44.40925" lon="2.98264">
        <ele>798.38</ele>
        <time>2016-06-23T11:18:15Z</time>
      </trkpt>
      <trkpt lat="44.40925" lon="2.98266">
        <ele>798.38</ele>
        <time>2016-06-23T11:18:16Z</time>
      </trkpt>
      <trkpt lat="44.40925" lon="2.98267">
        <ele>798.38</ele>
        <time>2016-06-23T11:18:17Z</time>
      </trkpt>
      <trkpt lat="44.40925" lon="2.98269">
        <ele>798.35</ele>
        <time>2016-06-23T11:18:18Z</time>
      </trkpt>
      <trkpt lat="44.40923" lon="2.98298">
        <ele>797.83</ele>
        <time>2016-06-23T11:18:34Z</time>
      </trkpt>
      <trkpt lat="44.40926" lon="2.98314">
        <ele>799.03</ele>
        <time>2016-06-23T11:18:42Z</time>
      </trkpt>
      <trkpt lat="44.40929" lon="2.98346">
        <ele>800.11</ele>
        <time>2016-06-23T11:19:00Z</time>
      </trkpt>
      <trkpt lat="44.4093" lon="2.9838">
        <ele>800.5</ele>
        <time>2016-06-23T11:19:19Z</time>
      </trkpt>
      <trkpt lat="44.40935" lon="2.98404">
        <ele>800.52</ele>
        <time>2016-06-23T11:19:34Z</time>
      </trkpt>
      <trkpt lat="44.40936" lon="2.98409">
        <ele>800.55</ele>
        <time>2016-06-23T11:19:37Z</time>
      </trkpt>
      <trkpt lat="44.40936" lon="2.98411">
        <ele>800.59</ele>
        <time>2016-06-23T11:19:38Z</time>
      </trkpt>
      <trkpt lat="44.40935" lon="2.98417">
        <ele>800.83</ele>
        <time>2016-06-23T11:19:42Z</time>
      </trkpt>
      <trkpt lat="44.40931" lon="2.98432">
        <ele>800.54</ele>
        <time>2016-06-23T11:19:54Z</time>
      </trkpt>
      <trkpt lat="44.40931" lon="2.98458">
        <ele>800.73</ele>
        <time>2016-06-23T11:20:10Z</time>
      </trkpt>
      <trkpt lat="44.40929" lon="2.98476">
        <ele>801.6</ele>
        <time>2016-06-23T11:20:23Z</time>
      </trkpt>
      <trkpt lat="44.40922" lon="2.98497">
        <ele>803.45</ele>
        <time>2016-06-23T11:20:38Z</time>
      </trkpt>
      <trkpt lat="44.40913" lon="2.98512">
        <ele>805.19</ele>
        <time>2016-06-23T11:20:53Z</time>
      </trkpt>
      <trkpt lat="44.40905" lon="2.98533">
        <ele>807.1</ele>
        <time>2016-06-23T11:21:09Z</time>
      </trkpt>
      <trkpt lat="44.40893" lon="2.98559">
        <ele>809.59</ele>
        <time>2016-06-23T11:21:26Z</time>
      </trkpt>
      <trkpt lat="44.40883" lon="2.9857">
        <ele>810.64</ele>
        <time>2016-06-23T11:21:40Z</time>
      </trkpt>
      <trkpt lat="44.40876" lon="2.9859">
        <ele>812.86</ele>
        <time>2016-06-23T11:21:54Z</time>
      </trkpt>
      <trkpt lat="44.40863" lon="2.98606">
        <ele>814.77</ele>
        <time>2016-06-23T11:22:08Z</time>
      </trkpt>
      <trkpt lat="44.40851" lon="2.98631">
        <ele>815.62</ele>
        <time>2016-06-23T11:22:25Z</time>
      </trkpt>
      <trkpt lat="44.40837" lon="2.98651">
        <ele>817.37</ele>
        <time>2016-06-23T11:22:41Z</time>
      </trkpt>
      <trkpt lat="44.40831" lon="2.98658">
        <ele>817.92</ele>
        <time>2016-06-23T11:22:48Z</time>
      </trkpt>
      <trkpt lat="44.40831" lon="2.98659">
        <ele>817.94</ele>
        <time>2016-06-23T11:22:49Z</time>
      </trkpt>
      <trkpt lat="44.40829" lon="2.9866">
        <ele>817.96</ele>
        <time>2016-06-23T11:22:50Z</time>
      </trkpt>
      <trkpt lat="44.40828" lon="2.98661">
        <ele>817.97</ele>
        <time>2016-06-23T11:22:51Z</time>
      </trkpt>
      <trkpt lat="44.40828" lon="2.98662">
        <ele>818</ele>
        <time>2016-06-23T11:22:52Z</time>
      </trkpt>
      <trkpt lat="44.40813" lon="2.9868">
        <ele>818.52</ele>
        <time>2016-06-23T11:23:08Z</time>
      </trkpt>
      <trkpt lat="44.40796" lon="2.98692">
        <ele>818.69</ele>
        <time>2016-06-23T11:23:23Z</time>
      </trkpt>
      <trkpt lat="44.4078" lon="2.98706">
        <ele>818.42</ele>
        <time>2016-06-23T11:23:37Z</time>
      </trkpt>
      <trkpt lat="44.40767" lon="2.98719">
        <ele>818.44</ele>
        <time>2016-06-23T11:23:50Z</time>
      </trkpt>
      <trkpt lat="44.40751" lon="2.98737">
        <ele>818.9</ele>
        <time>2016-06-23T11:24:06Z</time>
      </trkpt>
      <trkpt lat="44.40735" lon="2.98748">
        <ele>819.63</ele>
        <time>2016-06-23T11:24:20Z</time>
      </trkpt>
      <trkpt lat="44.40714" lon="2.98761">
        <ele>819.09</ele>
        <time>2016-06-23T11:24:37Z</time>
      </trkpt>
      <trkpt lat="44.40695" lon="2.98776">
        <ele>818.76</ele>
        <time>2016-06-23T11:24:54Z</time>
      </trkpt>
      <trkpt lat="44.40679" lon="2.98792">
        <ele>818.47</ele>
        <time>2016-06-23T11:25:09Z</time>
      </trkpt>
      <trkpt lat="44.40664" lon="2.98809">
        <ele>817.96</ele>
        <time>2016-06-23T11:25:24Z</time>
      </trkpt>
      <trkpt lat="44.40651" lon="2.98828">
        <ele>817.74</ele>
        <time>2016-06-23T11:25:39Z</time>
      </trkpt>
      <trkpt lat="44.40638" lon="2.98849">
        <ele>816.84</ele>
        <time>2016-06-23T11:25:56Z</time>
      </trkpt>
      <trkpt lat="44.4063" lon="2.98874">
        <ele>816.67</ele>
        <time>2016-06-23T11:26:12Z</time>
      </trkpt>
      <trkpt lat="44.40616" lon="2.98899">
        <ele>817.35</ele>
        <time>2016-06-23T11:26:28Z</time>
      </trkpt>
      <trkpt lat="44.40607" lon="2.98923">
        <ele>816.06</ele>
        <time>2016-06-23T11:26:43Z</time>
      </trkpt>
      <trkpt lat="44.40598" lon="2.98948">
        <ele>815.7</ele>
        <time>2016-06-23T11:26:59Z</time>
      </trkpt>
      <trkpt lat="44.4059" lon="2.98976">
        <ele>815.56</ele>
        <time>2016-06-23T11:27:15Z</time>
      </trkpt>
      <trkpt lat="44.40582" lon="2.99002">
        <ele>815.91</ele>
        <time>2016-06-23T11:27:31Z</time>
      </trkpt>
      <trkpt lat="44.40574" lon="2.99026">
        <ele>816.56</ele>
        <time>2016-06-23T11:27:47Z</time>
      </trkpt>
      <trkpt lat="44.40564" lon="2.99049">
        <ele>816.75</ele>
        <time>2016-06-23T11:28:02Z</time>
      </trkpt>
      <trkpt lat="44.40547" lon="2.99069">
        <ele>816.11</ele>
        <time>2016-06-23T11:28:19Z</time>
      </trkpt>
      <trkpt lat="44.4053" lon="2.99087">
        <ele>816.01</ele>
        <time>2016-06-23T11:28:36Z</time>
      </trkpt>
      <trkpt lat="44.40513" lon="2.99103">
        <ele>815.67</ele>
        <time>2016-06-23T11:28:52Z</time>
      </trkpt>
      <trkpt lat="44.40497" lon="2.99119">
        <ele>816.46</ele>
        <time>2016-06-23T11:29:08Z</time>
      </trkpt>
      <trkpt lat="44.40485" lon="2.99134">
        <ele>816.53</ele>
        <time>2016-06-23T11:29:22Z</time>
      </trkpt>
      <trkpt lat="44.4047" lon="2.99147">
        <ele>817.93</ele>
        <time>2016-06-23T11:29:38Z</time>
      </trkpt>
      <trkpt lat="44.40467" lon="2.99151">
        <ele>818.06</ele>
        <time>2016-06-23T11:29:42Z</time>
      </trkpt>
      <trkpt lat="44.40466" lon="2.99151">
        <ele>818.13</ele>
        <time>2016-06-23T11:29:43Z</time>
      </trkpt>
      <trkpt lat="44.40465" lon="2.99152">
        <ele>818.18</ele>
        <time>2016-06-23T11:29:44Z</time>
      </trkpt>
      <trkpt lat="44.40464" lon="2.99153">
        <ele>818.26</ele>
        <time>2016-06-23T11:29:45Z</time>
      </trkpt>
      <trkpt lat="44.40453" lon="2.99169">
        <ele>819.35</ele>
        <time>2016-06-23T11:29:59Z</time>
      </trkpt>
      <trkpt lat="44.40441" lon="2.99189">
        <ele>821.52</ele>
        <time>2016-06-23T11:30:16Z</time>
      </trkpt>
      <trkpt lat="44.40428" lon="2.99204">
        <ele>823.42</ele>
        <time>2016-06-23T11:30:32Z</time>
      </trkpt>
      <trkpt lat="44.40425" lon="2.99205">
        <ele>823.9</ele>
        <time>2016-06-23T11:30:35Z</time>
      </trkpt>
      <trkpt lat="44.40411" lon="2.99216">
        <ele>825.25</ele>
        <time>2016-06-23T11:30:50Z</time>
      </trkpt>
      <trkpt lat="44.40397" lon="2.99227">
        <ele>826.41</ele>
        <time>2016-06-23T11:31:05Z</time>
      </trkpt>
      <trkpt lat="44.40381" lon="2.99237">
        <ele>826.46</ele>
        <time>2016-06-23T11:31:20Z</time>
      </trkpt>
      <trkpt lat="44.40364" lon="2.99247">
        <ele>827.1</ele>
        <time>2016-06-23T11:31:35Z</time>
      </trkpt>
      <trkpt lat="44.40344" lon="2.99254">
        <ele>827.06</ele>
        <time>2016-06-23T11:31:51Z</time>
      </trkpt>
      <trkpt lat="44.40327" lon="2.99259">
        <ele>826.97</ele>
        <time>2016-06-23T11:32:05Z</time>
      </trkpt>
      <trkpt lat="44.40311" lon="2.99268">
        <ele>827.95</ele>
        <time>2016-06-23T11:32:20Z</time>
      </trkpt>
      <trkpt lat="44.40293" lon="2.99275">
        <ele>830.5</ele>
        <time>2016-06-23T11:32:37Z</time>
      </trkpt>
      <trkpt lat="44.40274" lon="2.99276">
        <ele>832.4</ele>
        <time>2016-06-23T11:32:53Z</time>
      </trkpt>
      <trkpt lat="44.40255" lon="2.99276">
        <ele>833.94</ele>
        <time>2016-06-23T11:33:09Z</time>
      </trkpt>
      <trkpt lat="44.40236" lon="2.99273">
        <ele>835.47</ele>
        <time>2016-06-23T11:33:25Z</time>
      </trkpt>
      <trkpt lat="44.40219" lon="2.99272">
        <ele>836.54</ele>
        <time>2016-06-23T11:33:40Z</time>
      </trkpt>
      <trkpt lat="44.402" lon="2.99269">
        <ele>836.59</ele>
        <time>2016-06-23T11:33:56Z</time>
      </trkpt>
      <trkpt lat="44.4018" lon="2.99269">
        <ele>835.82</ele>
        <time>2016-06-23T11:34:11Z</time>
      </trkpt>
      <trkpt lat="44.4016" lon="2.99267">
        <ele>834.71</ele>
        <time>2016-06-23T11:34:27Z</time>
      </trkpt>
      <trkpt lat="44.40141" lon="2.99264">
        <ele>833.39</ele>
        <time>2016-06-23T11:34:42Z</time>
      </trkpt>
      <trkpt lat="44.40126" lon="2.99272">
        <ele>833.16</ele>
        <time>2016-06-23T11:34:56Z</time>
      </trkpt>
      <trkpt lat="44.40113" lon="2.99281">
        <ele>833.09</ele>
        <time>2016-06-23T11:35:10Z</time>
      </trkpt>
      <trkpt lat="44.40097" lon="2.99287">
        <ele>834.7</ele>
        <time>2016-06-23T11:35:26Z</time>
      </trkpt>
      <trkpt lat="44.40083" lon="2.99289">
        <ele>836.37</ele>
        <time>2016-06-23T11:35:41Z</time>
      </trkpt>
      <trkpt lat="44.40064" lon="2.99292">
        <ele>839.37</ele>
        <time>2016-06-23T11:36:00Z</time>
      </trkpt>
      <trkpt lat="44.40046" lon="2.99292">
        <ele>841.41</ele>
        <time>2016-06-23T11:36:19Z</time>
      </trkpt>
      <trkpt lat="44.40026" lon="2.9929">
        <ele>843.69</ele>
        <time>2016-06-23T11:36:37Z</time>
      </trkpt>
      <trkpt lat="44.40013" lon="2.99287">
        <ele>846.16</ele>
        <time>2016-06-23T11:36:53Z</time>
      </trkpt>
      <trkpt lat="44.40012" lon="2.99286">
        <ele>846.04</ele>
        <time>2016-06-23T11:36:55Z</time>
      </trkpt>
      <trkpt lat="44.40011" lon="2.99286">
        <ele>845.95</ele>
        <time>2016-06-23T11:36:56Z</time>
      </trkpt>
      <trkpt lat="44.40008" lon="2.99285">
        <ele>845.77</ele>
        <time>2016-06-23T11:36:58Z</time>
      </trkpt>
      <trkpt lat="44.39998" lon="2.99281">
        <ele>845.38</ele>
        <time>2016-06-23T11:37:16Z</time>
      </trkpt>
      <trkpt lat="44.39997" lon="2.9928">
        <ele>845.39</ele>
        <time>2016-06-23T11:37:17Z</time>
      </trkpt>
      <trkpt lat="44.39995" lon="2.9928">
        <ele>845.4</ele>
        <time>2016-06-23T11:37:18Z</time>
      </trkpt>
      <trkpt lat="44.39994" lon="2.99279">
        <ele>845.41</ele>
        <time>2016-06-23T11:37:19Z</time>
      </trkpt>
      <trkpt lat="44.39993" lon="2.99279">
        <ele>845.4</ele>
        <time>2016-06-23T11:37:20Z</time>
      </trkpt>
      <trkpt lat="44.39992" lon="2.99279">
        <ele>845.38</ele>
        <time>2016-06-23T11:37:21Z</time>
      </trkpt>
      <trkpt lat="44.39983" lon="2.99276">
        <ele>845.59</ele>
        <time>2016-06-23T11:37:29Z</time>
      </trkpt>
      <trkpt lat="44.3997" lon="2.99271">
        <ele>845.95</ele>
        <time>2016-06-23T11:37:43Z</time>
      </trkpt>
      <trkpt lat="44.39956" lon="2.99275">
        <ele>846.94</ele>
        <time>2016-06-23T11:37:58Z</time>
      </trkpt>
      <trkpt lat="44.39942" lon="2.99279">
        <ele>847.8</ele>
        <time>2016-06-23T11:38:11Z</time>
      </trkpt>
      <trkpt lat="44.39932" lon="2.99284">
        <ele>847.54</ele>
        <time>2016-06-23T11:38:26Z</time>
      </trkpt>
      <trkpt lat="44.39929" lon="2.99285">
        <ele>847.61</ele>
        <time>2016-06-23T11:38:28Z</time>
      </trkpt>
      <trkpt lat="44.39928" lon="2.99285">
        <ele>847.72</ele>
        <time>2016-06-23T11:38:29Z</time>
      </trkpt>
      <trkpt lat="44.39913" lon="2.99281">
        <ele>848.53</ele>
        <time>2016-06-23T11:38:44Z</time>
      </trkpt>
      <trkpt lat="44.39896" lon="2.99277">
        <ele>849.78</ele>
        <time>2016-06-23T11:39:01Z</time>
      </trkpt>
      <trkpt lat="44.39882" lon="2.99274">
        <ele>849.32</ele>
        <time>2016-06-23T11:39:13Z</time>
      </trkpt>
      <trkpt lat="44.39881" lon="2.99274">
        <ele>849.27</ele>
        <time>2016-06-23T11:39:14Z</time>
      </trkpt>
      <trkpt lat="44.39879" lon="2.99274">
        <ele>849.21</ele>
        <time>2016-06-23T11:39:15Z</time>
      </trkpt>
      <trkpt lat="44.39878" lon="2.99274">
        <ele>849.09</ele>
        <time>2016-06-23T11:39:16Z</time>
      </trkpt>
      <trkpt lat="44.39877" lon="2.99274">
        <ele>849.04</ele>
        <time>2016-06-23T11:39:17Z</time>
      </trkpt>
      <trkpt lat="44.39861" lon="2.99271">
        <ele>848.01</ele>
        <time>2016-06-23T11:39:32Z</time>
      </trkpt>
      <trkpt lat="44.39842" lon="2.99272">
        <ele>847.07</ele>
        <time>2016-06-23T11:39:48Z</time>
      </trkpt>
      <trkpt lat="44.39824" lon="2.99283">
        <ele>847.59</ele>
        <time>2016-06-23T11:40:06Z</time>
      </trkpt>
      <trkpt lat="44.39808" lon="2.9929">
        <ele>848.22</ele>
        <time>2016-06-23T11:40:22Z</time>
      </trkpt>
      <trkpt lat="44.3979" lon="2.99298">
        <ele>851.03</ele>
        <time>2016-06-23T11:40:41Z</time>
      </trkpt>
      <trkpt lat="44.39775" lon="2.99307">
        <ele>852.74</ele>
        <time>2016-06-23T11:41:00Z</time>
      </trkpt>
      <trkpt lat="44.39772" lon="2.99309">
        <ele>852.82</ele>
        <time>2016-06-23T11:41:03Z</time>
      </trkpt>
      <trkpt lat="44.39759" lon="2.99319">
        <ele>853.65</ele>
        <time>2016-06-23T11:41:18Z</time>
      </trkpt>
      <trkpt lat="44.39755" lon="2.99324">
        <ele>855.75</ele>
        <time>2016-06-23T11:41:38Z</time>
      </trkpt>
      <trkpt lat="44.3974" lon="2.99334">
        <ele>856.73</ele>
        <time>2016-06-23T11:41:56Z</time>
      </trkpt>
      <trkpt lat="44.39722" lon="2.9934">
        <ele>858.13</ele>
        <time>2016-06-23T11:42:13Z</time>
      </trkpt>
      <trkpt lat="44.39717" lon="2.9934">
        <ele>858.49</ele>
        <time>2016-06-23T11:42:17Z</time>
      </trkpt>
      <trkpt lat="44.397" lon="2.99346">
        <ele>858.68</ele>
        <time>2016-06-23T11:42:31Z</time>
      </trkpt>
      <trkpt lat="44.39695" lon="2.99355">
        <ele>858.51</ele>
        <time>2016-06-23T11:42:45Z</time>
      </trkpt>
      <trkpt lat="44.39691" lon="2.99355">
        <ele>858.44</ele>
        <time>2016-06-23T11:42:48Z</time>
      </trkpt>
      <trkpt lat="44.3969" lon="2.99356">
        <ele>858.42</ele>
        <time>2016-06-23T11:42:49Z</time>
      </trkpt>
      <trkpt lat="44.39687" lon="2.99357">
        <ele>858.47</ele>
        <time>2016-06-23T11:42:52Z</time>
      </trkpt>
      <trkpt lat="44.39685" lon="2.99359">
        <ele>858.43</ele>
        <time>2016-06-23T11:42:54Z</time>
      </trkpt>
      <trkpt lat="44.39683" lon="2.99362">
        <ele>858.44</ele>
        <time>2016-06-23T11:42:56Z</time>
      </trkpt>
      <trkpt lat="44.39679" lon="2.99369">
        <ele>857.4</ele>
        <time>2016-06-23T11:43:12Z</time>
      </trkpt>
      <trkpt lat="44.39677" lon="2.99373">
        <ele>857.27</ele>
        <time>2016-06-23T11:43:15Z</time>
      </trkpt>
      <trkpt lat="44.39676" lon="2.99375">
        <ele>857.22</ele>
        <time>2016-06-23T11:43:16Z</time>
      </trkpt>
      <trkpt lat="44.39676" lon="2.99377">
        <ele>857.18</ele>
        <time>2016-06-23T11:43:17Z</time>
      </trkpt>
      <trkpt lat="44.39675" lon="2.99379">
        <ele>857.12</ele>
        <time>2016-06-23T11:43:18Z</time>
      </trkpt>
      <trkpt lat="44.39675" lon="2.9938">
        <ele>857.06</ele>
        <time>2016-06-23T11:43:19Z</time>
      </trkpt>
      <trkpt lat="44.39663" lon="2.99399">
        <ele>856.18</ele>
        <time>2016-06-23T11:43:32Z</time>
      </trkpt>
      <trkpt lat="44.39647" lon="2.99421">
        <ele>855.21</ele>
        <time>2016-06-23T11:43:49Z</time>
      </trkpt>
      <trkpt lat="44.39631" lon="2.99441">
        <ele>855.5</ele>
        <time>2016-06-23T11:44:05Z</time>
      </trkpt>
      <trkpt lat="44.39616" lon="2.99455">
        <ele>854.12</ele>
        <time>2016-06-23T11:44:19Z</time>
      </trkpt>
      <trkpt lat="44.39597" lon="2.99471">
        <ele>853.25</ele>
        <time>2016-06-23T11:44:35Z</time>
      </trkpt>
      <trkpt lat="44.3958" lon="2.99491">
        <ele>854.09</ele>
        <time>2016-06-23T11:44:52Z</time>
      </trkpt>
      <trkpt lat="44.39574" lon="2.995">
        <ele>854.72</ele>
        <time>2016-06-23T11:45:00Z</time>
      </trkpt>
      <trkpt lat="44.39565" lon="2.99514">
        <ele>855.59</ele>
        <time>2016-06-23T11:45:14Z</time>
      </trkpt>
      <trkpt lat="44.39557" lon="2.99533">
        <ele>856.61</ele>
        <time>2016-06-23T11:45:31Z</time>
      </trkpt>
      <trkpt lat="44.39557" lon="2.99536">
        <ele>856.58</ele>
        <time>2016-06-23T11:45:33Z</time>
      </trkpt>
      <trkpt lat="44.39556" lon="2.99546">
        <ele>856.7</ele>
        <time>2016-06-23T11:45:41Z</time>
      </trkpt>
      <trkpt lat="44.39556" lon="2.99549">
        <ele>856.79</ele>
        <time>2016-06-23T11:45:43Z</time>
      </trkpt>
      <trkpt lat="44.39556" lon="2.99562">
        <ele>856.94</ele>
        <time>2016-06-23T11:45:52Z</time>
      </trkpt>
      <trkpt lat="44.39542" lon="2.9958">
        <ele>858.84</ele>
        <time>2016-06-23T11:46:08Z</time>
      </trkpt>
      <trkpt lat="44.39539" lon="2.99583">
        <ele>859.12</ele>
        <time>2016-06-23T11:46:12Z</time>
      </trkpt>
      <trkpt lat="44.39535" lon="2.99593">
        <ele>858.91</ele>
        <time>2016-06-23T11:46:19Z</time>
      </trkpt>
      <trkpt lat="44.39518" lon="2.99607">
        <ele>858.3</ele>
        <time>2016-06-23T11:46:35Z</time>
      </trkpt>
      <trkpt lat="44.39502" lon="2.99614">
        <ele>858.51</ele>
        <time>2016-06-23T11:46:49Z</time>
      </trkpt>
      <trkpt lat="44.39497" lon="2.99616">
        <ele>858.7</ele>
        <time>2016-06-23T11:46:54Z</time>
      </trkpt>
      <trkpt lat="44.39481" lon="2.99629">
        <ele>859.54</ele>
        <time>2016-06-23T11:47:10Z</time>
      </trkpt>
      <trkpt lat="44.39474" lon="2.99636">
        <ele>859.89</ele>
        <time>2016-06-23T11:47:17Z</time>
      </trkpt>
      <trkpt lat="44.39459" lon="2.99648">
        <ele>860</ele>
        <time>2016-06-23T11:47:32Z</time>
      </trkpt>
      <trkpt lat="44.39456" lon="2.99651">
        <ele>860.25</ele>
        <time>2016-06-23T11:47:36Z</time>
      </trkpt>
      <trkpt lat="44.39439" lon="2.99658">
        <ele>860.03</ele>
        <time>2016-06-23T11:47:50Z</time>
      </trkpt>
      <trkpt lat="44.39418" lon="2.99662">
        <ele>859.8</ele>
        <time>2016-06-23T11:48:05Z</time>
      </trkpt>
      <trkpt lat="44.39396" lon="2.99669">
        <ele>860.2</ele>
        <time>2016-06-23T11:48:21Z</time>
      </trkpt>
      <trkpt lat="44.3938" lon="2.99669">
        <ele>859.28</ele>
        <time>2016-06-23T11:48:33Z</time>
      </trkpt>
      <trkpt lat="44.39376" lon="2.99668">
        <ele>859.07</ele>
        <time>2016-06-23T11:48:37Z</time>
      </trkpt>
      <trkpt lat="44.39367" lon="2.99665">
        <ele>858.71</ele>
        <time>2016-06-23T11:48:47Z</time>
      </trkpt>
      <trkpt lat="44.39371" lon="2.99668">
        <ele>859.17</ele>
        <time>2016-06-23T11:48:57Z</time>
      </trkpt>
      <trkpt lat="44.39369" lon="2.99667">
        <ele>859.02</ele>
        <time>2016-06-23T11:48:59Z</time>
      </trkpt>
      <trkpt lat="44.39347" lon="2.99663">
        <ele>857.82</ele>
        <time>2016-06-23T11:49:14Z</time>
      </trkpt>
      <trkpt lat="44.39343" lon="2.99662">
        <ele>857.63</ele>
        <time>2016-06-23T11:49:17Z</time>
      </trkpt>
      <trkpt lat="44.39327" lon="2.99652">
        <ele>856.96</ele>
        <time>2016-06-23T11:49:29Z</time>
      </trkpt>
      <trkpt lat="44.39326" lon="2.99651">
        <ele>856.96</ele>
        <time>2016-06-23T11:49:30Z</time>
      </trkpt>
      <trkpt lat="44.39309" lon="2.99641">
        <ele>856.17</ele>
        <time>2016-06-23T11:49:44Z</time>
      </trkpt>
      <trkpt lat="44.39302" lon="2.99638">
        <ele>855.26</ele>
        <time>2016-06-23T11:49:52Z</time>
      </trkpt>
      <trkpt lat="44.39308" lon="2.9964">
        <ele>854.93</ele>
        <time>2016-06-23T11:49:57Z</time>
      </trkpt>
      <trkpt lat="44.39305" lon="2.99638">
        <ele>854.76</ele>
        <time>2016-06-23T11:50:01Z</time>
      </trkpt>
      <trkpt lat="44.39303" lon="2.99636">
        <ele>854.76</ele>
        <time>2016-06-23T11:50:05Z</time>
      </trkpt>
      <trkpt lat="44.39304" lon="2.99631">
        <ele>854.74</ele>
        <time>2016-06-23T11:50:11Z</time>
      </trkpt>
      <trkpt lat="44.39293" lon="2.99634">
        <ele>854.38</ele>
        <time>2016-06-23T11:50:21Z</time>
      </trkpt>
      <trkpt lat="44.39288" lon="2.99633">
        <ele>854.19</ele>
        <time>2016-06-23T11:50:26Z</time>
      </trkpt>
      <trkpt lat="44.3928" lon="2.99631">
        <ele>853.78</ele>
        <time>2016-06-23T11:50:32Z</time>
      </trkpt>
      <trkpt lat="44.39261" lon="2.9963">
        <ele>853.01</ele>
        <time>2016-06-23T11:50:46Z</time>
      </trkpt>
      <trkpt lat="44.3924" lon="2.99625">
        <ele>852.13</ele>
        <time>2016-06-23T11:50:57Z</time>
      </trkpt>
      <trkpt lat="44.39223" lon="2.99621">
        <ele>850.78</ele>
        <time>2016-06-23T11:51:10Z</time>
      </trkpt>
      <trkpt lat="44.39202" lon="2.99618">
        <ele>849.44</ele>
        <time>2016-06-23T11:51:26Z</time>
      </trkpt>
      <trkpt lat="44.392" lon="2.99618">
        <ele>849.25</ele>
        <time>2016-06-23T11:51:28Z</time>
      </trkpt>
      <trkpt lat="44.39182" lon="2.99619">
        <ele>848.2</ele>
        <time>2016-06-23T11:51:42Z</time>
      </trkpt>
      <trkpt lat="44.39167" lon="2.99613">
        <ele>847.66</ele>
        <time>2016-06-23T11:51:54Z</time>
      </trkpt>
      <trkpt lat="44.39163" lon="2.99614">
        <ele>847.52</ele>
        <time>2016-06-23T11:51:58Z</time>
      </trkpt>
      <trkpt lat="44.39155" lon="2.99622">
        <ele>847.34</ele>
        <time>2016-06-23T11:52:12Z</time>
      </trkpt>
      <trkpt lat="44.39151" lon="2.99622">
        <ele>846.98</ele>
        <time>2016-06-23T11:52:20Z</time>
      </trkpt>
      <trkpt lat="44.39148" lon="2.99623">
        <ele>846.83</ele>
        <time>2016-06-23T11:52:23Z</time>
      </trkpt>
      <trkpt lat="44.39141" lon="2.99626">
        <ele>846.31</ele>
        <time>2016-06-23T11:52:29Z</time>
      </trkpt>
      <trkpt lat="44.39127" lon="2.9962">
        <ele>844.66</ele>
        <time>2016-06-23T11:52:43Z</time>
      </trkpt>
      <trkpt lat="44.39125" lon="2.99618">
        <ele>844.39</ele>
        <time>2016-06-23T11:52:46Z</time>
      </trkpt>
      <trkpt lat="44.39118" lon="2.99615">
        <ele>843.89</ele>
        <time>2016-06-23T11:52:51Z</time>
      </trkpt>
      <trkpt lat="44.39105" lon="2.9962">
        <ele>841.31</ele>
        <time>2016-06-23T11:53:07Z</time>
      </trkpt>
      <trkpt lat="44.39092" lon="2.99639">
        <ele>840.35</ele>
        <time>2016-06-23T11:53:20Z</time>
      </trkpt>
      <trkpt lat="44.39082" lon="2.99652">
        <ele>838.41</ele>
        <time>2016-06-23T11:53:31Z</time>
      </trkpt>
      <trkpt lat="44.39069" lon="2.99668">
        <ele>836.65</ele>
        <time>2016-06-23T11:53:43Z</time>
      </trkpt>
      <trkpt lat="44.39056" lon="2.99687">
        <ele>834.27</ele>
        <time>2016-06-23T11:53:56Z</time>
      </trkpt>
      <trkpt lat="44.39045" lon="2.997">
        <ele>832.38</ele>
        <time>2016-06-23T11:54:05Z</time>
      </trkpt>
      <trkpt lat="44.39034" lon="2.99717">
        <ele>829.82</ele>
        <time>2016-06-23T11:54:16Z</time>
      </trkpt>
      <trkpt lat="44.39025" lon="2.99734">
        <ele>828.05</ele>
        <time>2016-06-23T11:54:28Z</time>
      </trkpt>
      <trkpt lat="44.39022" lon="2.99737">
        <ele>827.85</ele>
        <time>2016-06-23T11:54:31Z</time>
      </trkpt>
      <trkpt lat="44.39017" lon="2.9974">
        <ele>827.69</ele>
        <time>2016-06-23T11:54:35Z</time>
      </trkpt>
      <trkpt lat="44.39003" lon="2.99755">
        <ele>826.89</ele>
        <time>2016-06-23T11:54:48Z</time>
      </trkpt>
      <trkpt lat="44.38993" lon="2.99772">
        <ele>825.75</ele>
        <time>2016-06-23T11:55:01Z</time>
      </trkpt>
      <trkpt lat="44.38992" lon="2.99775">
        <ele>825.73</ele>
        <time>2016-06-23T11:55:04Z</time>
      </trkpt>
      <trkpt lat="44.38989" lon="2.9978">
        <ele>825.91</ele>
        <time>2016-06-23T11:55:08Z</time>
      </trkpt>
      <trkpt lat="44.38989" lon="2.99794">
        <ele>826.92</ele>
        <time>2016-06-23T11:55:24Z</time>
      </trkpt>
      <trkpt lat="44.38989" lon="2.99813">
        <ele>827.61</ele>
        <time>2016-06-23T11:55:40Z</time>
      </trkpt>
      <trkpt lat="44.38989" lon="2.9984">
        <ele>829.48</ele>
        <time>2016-06-23T11:56:00Z</time>
      </trkpt>
      <trkpt lat="44.38994" lon="2.99875">
        <ele>831.08</ele>
        <time>2016-06-23T11:56:20Z</time>
      </trkpt>
      <trkpt lat="44.38998" lon="2.99898">
        <ele>831.52</ele>
        <time>2016-06-23T11:56:31Z</time>
      </trkpt>
      <trkpt lat="44.39002" lon="2.99929">
        <ele>833.05</ele>
        <time>2016-06-23T11:56:51Z</time>
      </trkpt>
      <trkpt lat="44.39004" lon="2.99943">
        <ele>834.11</ele>
        <time>2016-06-23T11:57:03Z</time>
      </trkpt>
      <trkpt lat="44.39003" lon="2.9995">
        <ele>834.28</ele>
        <time>2016-06-23T11:57:07Z</time>
      </trkpt>
      <trkpt lat="44.39" lon="2.99982">
        <ele>835.02</ele>
        <time>2016-06-23T11:57:21Z</time>
      </trkpt>
      <trkpt lat="44.38992" lon="3.00011">
        <ele>835.41</ele>
        <time>2016-06-23T11:57:36Z</time>
      </trkpt>
      <trkpt lat="44.38983" lon="3.00026">
        <ele>835.63</ele>
        <time>2016-06-23T11:57:48Z</time>
      </trkpt>
      <trkpt lat="44.38966" lon="3.00042">
        <ele>836.63</ele>
        <time>2016-06-23T11:58:04Z</time>
      </trkpt>
      <trkpt lat="44.38952" lon="3.00056">
        <ele>835.57</ele>
        <time>2016-06-23T11:58:16Z</time>
      </trkpt>
      <trkpt lat="44.38939" lon="3.00063">
        <ele>834.83</ele>
        <time>2016-06-23T11:58:28Z</time>
      </trkpt>
      <trkpt lat="44.38922" lon="3.00071">
        <ele>835.22</ele>
        <time>2016-06-23T11:58:41Z</time>
      </trkpt>
      <trkpt lat="44.3891" lon="3.00081">
        <ele>835.87</ele>
        <time>2016-06-23T11:58:55Z</time>
      </trkpt>
      <trkpt lat="44.38895" lon="3.00087">
        <ele>837.72</ele>
        <time>2016-06-23T11:59:10Z</time>
      </trkpt>
      <trkpt lat="44.38871" lon="3.00083">
        <ele>840.45</ele>
        <time>2016-06-23T11:59:25Z</time>
      </trkpt>
      <trkpt lat="44.38855" lon="3.00081">
        <ele>843.18</ele>
        <time>2016-06-23T11:59:42Z</time>
      </trkpt>
      <trkpt lat="44.38842" lon="3.0008">
        <ele>844.53</ele>
        <time>2016-06-23T11:59:57Z</time>
      </trkpt>
      <trkpt lat="44.38824" lon="3.00094">
        <ele>845.17</ele>
        <time>2016-06-23T12:00:15Z</time>
      </trkpt>
      <trkpt lat="44.38816" lon="3.0011">
        <ele>846.59</ele>
        <time>2016-06-23T12:00:27Z</time>
      </trkpt>
      <trkpt lat="44.38808" lon="3.00132">
        <ele>847.65</ele>
        <time>2016-06-23T12:00:40Z</time>
      </trkpt>
      <trkpt lat="44.38802" lon="3.00155">
        <ele>849.12</ele>
        <time>2016-06-23T12:00:54Z</time>
      </trkpt>
      <trkpt lat="44.38801" lon="3.00172">
        <ele>850.71</ele>
        <time>2016-06-23T12:01:06Z</time>
      </trkpt>
      <trkpt lat="44.38801" lon="3.00174">
        <ele>850.86</ele>
        <time>2016-06-23T12:01:07Z</time>
      </trkpt>
      <trkpt lat="44.38799" lon="3.00189">
        <ele>852.3</ele>
        <time>2016-06-23T12:01:17Z</time>
      </trkpt>
      <trkpt lat="44.38799" lon="3.00193">
        <ele>852.55</ele>
        <time>2016-06-23T12:01:19Z</time>
      </trkpt>
      <trkpt lat="44.38794" lon="3.00223">
        <ele>853.47</ele>
        <time>2016-06-23T12:01:35Z</time>
      </trkpt>
      <trkpt lat="44.38791" lon="3.00254">
        <ele>851.98</ele>
        <time>2016-06-23T12:01:52Z</time>
      </trkpt>
      <trkpt lat="44.38788" lon="3.00264">
        <ele>851.65</ele>
        <time>2016-06-23T12:01:58Z</time>
      </trkpt>
      <trkpt lat="44.38782" lon="3.00294">
        <ele>849.3</ele>
        <time>2016-06-23T12:02:16Z</time>
      </trkpt>
      <trkpt lat="44.38776" lon="3.00305">
        <ele>848.58</ele>
        <time>2016-06-23T12:02:24Z</time>
      </trkpt>
      <trkpt lat="44.38769" lon="3.00324">
        <ele>846.84</ele>
        <time>2016-06-23T12:02:38Z</time>
      </trkpt>
      <trkpt lat="44.38766" lon="3.00337">
        <ele>846.44</ele>
        <time>2016-06-23T12:02:47Z</time>
      </trkpt>
      <trkpt lat="44.38762" lon="3.00365">
        <ele>845.31</ele>
        <time>2016-06-23T12:03:03Z</time>
      </trkpt>
      <trkpt lat="44.38762" lon="3.00368">
        <ele>845.25</ele>
        <time>2016-06-23T12:03:05Z</time>
      </trkpt>
      <trkpt lat="44.3877" lon="3.00389">
        <ele>844.53</ele>
        <time>2016-06-23T12:03:20Z</time>
      </trkpt>
      <trkpt lat="44.38776" lon="3.00414">
        <ele>843.5</ele>
        <time>2016-06-23T12:03:34Z</time>
      </trkpt>
      <trkpt lat="44.38776" lon="3.0042">
        <ele>843.79</ele>
        <time>2016-06-23T12:03:38Z</time>
      </trkpt>
      <trkpt lat="44.38774" lon="3.00433">
        <ele>844.1</ele>
        <time>2016-06-23T12:03:46Z</time>
      </trkpt>
      <trkpt lat="44.38772" lon="3.0044">
        <ele>844.36</ele>
        <time>2016-06-23T12:03:50Z</time>
      </trkpt>
      <trkpt lat="44.3877" lon="3.00446">
        <ele>844.5</ele>
        <time>2016-06-23T12:03:55Z</time>
      </trkpt>
      <trkpt lat="44.38761" lon="3.00453">
        <ele>843.97</ele>
        <time>2016-06-23T12:04:04Z</time>
      </trkpt>
      <trkpt lat="44.38747" lon="3.00462">
        <ele>841.91</ele>
        <time>2016-06-23T12:04:16Z</time>
      </trkpt>
      <trkpt lat="44.38744" lon="3.00465">
        <ele>841.27</ele>
        <time>2016-06-23T12:04:19Z</time>
      </trkpt>
      <trkpt lat="44.38739" lon="3.00471">
        <ele>840.64</ele>
        <time>2016-06-23T12:04:25Z</time>
      </trkpt>
      <trkpt lat="44.38726" lon="3.00481">
        <ele>840.63</ele>
        <time>2016-06-23T12:04:38Z</time>
      </trkpt>
      <trkpt lat="44.38712" lon="3.0049">
        <ele>840.42</ele>
        <time>2016-06-23T12:04:51Z</time>
      </trkpt>
      <trkpt lat="44.38699" lon="3.00496">
        <ele>839.85</ele>
        <time>2016-06-23T12:05:01Z</time>
      </trkpt>
      <trkpt lat="44.38683" lon="3.00512">
        <ele>838.84</ele>
        <time>2016-06-23T12:05:15Z</time>
      </trkpt>
      <trkpt lat="44.38678" lon="3.00519">
        <ele>838.8</ele>
        <time>2016-06-23T12:05:20Z</time>
      </trkpt>
      <trkpt lat="44.38674" lon="3.00525">
        <ele>838.82</ele>
        <time>2016-06-23T12:05:24Z</time>
      </trkpt>
      <trkpt lat="44.38662" lon="3.00545">
        <ele>838.45</ele>
        <time>2016-06-23T12:05:39Z</time>
      </trkpt>
      <trkpt lat="44.38657" lon="3.00554">
        <ele>838.55</ele>
        <time>2016-06-23T12:05:45Z</time>
      </trkpt>
      <trkpt lat="44.38646" lon="3.00582">
        <ele>839.23</ele>
        <time>2016-06-23T12:06:01Z</time>
      </trkpt>
      <trkpt lat="44.38644" lon="3.00587">
        <ele>839.38</ele>
        <time>2016-06-23T12:06:04Z</time>
      </trkpt>
      <trkpt lat="44.38639" lon="3.00612">
        <ele>839.58</ele>
        <time>2016-06-23T12:06:19Z</time>
      </trkpt>
      <trkpt lat="44.38637" lon="3.00633">
        <ele>838.42</ele>
        <time>2016-06-23T12:06:33Z</time>
      </trkpt>
      <trkpt lat="44.38639" lon="3.00638">
        <ele>837.84</ele>
        <time>2016-06-23T12:06:36Z</time>
      </trkpt>
      <trkpt lat="44.3864" lon="3.00662">
        <ele>834.79</ele>
        <time>2016-06-23T12:06:50Z</time>
      </trkpt>
      <trkpt lat="44.38633" lon="3.00687">
        <ele>833.1</ele>
        <time>2016-06-23T12:07:03Z</time>
      </trkpt>
      <trkpt lat="44.38631" lon="3.00696">
        <ele>832.95</ele>
        <time>2016-06-23T12:07:08Z</time>
      </trkpt>
      <trkpt lat="44.38628" lon="3.0071">
        <ele>832.68</ele>
        <time>2016-06-23T12:07:16Z</time>
      </trkpt>
      <trkpt lat="44.38627" lon="3.00739">
        <ele>833.95</ele>
        <time>2016-06-23T12:07:33Z</time>
      </trkpt>
      <trkpt lat="44.38627" lon="3.00766">
        <ele>837.09</ele>
        <time>2016-06-23T12:07:51Z</time>
      </trkpt>
      <trkpt lat="44.38626" lon="3.00783">
        <ele>839.7</ele>
        <time>2016-06-23T12:08:04Z</time>
      </trkpt>
      <trkpt lat="44.38623" lon="3.00805">
        <ele>842.87</ele>
        <time>2016-06-23T12:08:20Z</time>
      </trkpt>
      <trkpt lat="44.38613" lon="3.00811">
        <ele>845.62</ele>
        <time>2016-06-23T12:08:40Z</time>
      </trkpt>
      <trkpt lat="44.38596" lon="3.00814">
        <ele>847.88</ele>
        <time>2016-06-23T12:09:01Z</time>
      </trkpt>
      <trkpt lat="44.38595" lon="3.00814">
        <ele>848.07</ele>
        <time>2016-06-23T12:09:02Z</time>
      </trkpt>
      <trkpt lat="44.3858" lon="3.00812">
        <ele>850.57</ele>
        <time>2016-06-23T12:09:17Z</time>
      </trkpt>
      <trkpt lat="44.38565" lon="3.00817">
        <ele>852.33</ele>
        <time>2016-06-23T12:09:31Z</time>
      </trkpt>
      <trkpt lat="44.38548" lon="3.00823">
        <ele>854.55</ele>
        <time>2016-06-23T12:09:46Z</time>
      </trkpt>
      <trkpt lat="44.3853" lon="3.00824">
        <ele>856.38</ele>
        <time>2016-06-23T12:10:02Z</time>
      </trkpt>
      <trkpt lat="44.38516" lon="3.0082">
        <ele>858</ele>
        <time>2016-06-23T12:10:16Z</time>
      </trkpt>
      <trkpt lat="44.38498" lon="3.00818">
        <ele>860.57</ele>
        <time>2016-06-23T12:10:34Z</time>
      </trkpt>
      <trkpt lat="44.38484" lon="3.00822">
        <ele>862.1</ele>
        <time>2016-06-23T12:10:46Z</time>
      </trkpt>
      <trkpt lat="44.38468" lon="3.00823">
        <ele>863.8</ele>
        <time>2016-06-23T12:10:59Z</time>
      </trkpt>
      <trkpt lat="44.38446" lon="3.00827">
        <ele>866.52</ele>
        <time>2016-06-23T12:11:16Z</time>
      </trkpt>
      <trkpt lat="44.38427" lon="3.00836">
        <ele>867.17</ele>
        <time>2016-06-23T12:11:31Z</time>
      </trkpt>
      <trkpt lat="44.38406" lon="3.00846">
        <ele>866.84</ele>
        <time>2016-06-23T12:11:47Z</time>
      </trkpt>
      <trkpt lat="44.38388" lon="3.00858">
        <ele>866.14</ele>
        <time>2016-06-23T12:12:02Z</time>
      </trkpt>
      <trkpt lat="44.38367" lon="3.0087">
        <ele>863.73</ele>
        <time>2016-06-23T12:12:18Z</time>
      </trkpt>
      <trkpt lat="44.38347" lon="3.00874">
        <ele>861.37</ele>
        <time>2016-06-23T12:12:34Z</time>
      </trkpt>
      <trkpt lat="44.38328" lon="3.0087">
        <ele>859.67</ele>
        <time>2016-06-23T12:12:47Z</time>
      </trkpt>
      <trkpt lat="44.38315" lon="3.00866">
        <ele>858.38</ele>
        <time>2016-06-23T12:12:55Z</time>
      </trkpt>
      <trkpt lat="44.38292" lon="3.00861">
        <ele>857.02</ele>
        <time>2016-06-23T12:13:13Z</time>
      </trkpt>
      <trkpt lat="44.38272" lon="3.00858">
        <ele>856.74</ele>
        <time>2016-06-23T12:13:30Z</time>
      </trkpt>
      <trkpt lat="44.3827" lon="3.00862">
        <ele>856.58</ele>
        <time>2016-06-23T12:13:41Z</time>
      </trkpt>
      <trkpt lat="44.38269" lon="3.00863">
        <ele>856.57</ele>
        <time>2016-06-23T12:13:43Z</time>
      </trkpt>
      <trkpt lat="44.38268" lon="3.00869">
        <ele>856.49</ele>
        <time>2016-06-23T12:13:47Z</time>
      </trkpt>
      <trkpt lat="44.38259" lon="3.00877">
        <ele>853.94</ele>
        <time>2016-06-23T12:13:59Z</time>
      </trkpt>
      <trkpt lat="44.38251" lon="3.00883">
        <ele>852.52</ele>
        <time>2016-06-23T12:14:18Z</time>
      </trkpt>
      <trkpt lat="44.38247" lon="3.00891">
        <ele>851.35</ele>
        <time>2016-06-23T12:14:30Z</time>
      </trkpt>
      <trkpt lat="44.38245" lon="3.00893">
        <ele>851.26</ele>
        <time>2016-06-23T12:14:32Z</time>
      </trkpt>
      <trkpt lat="44.38237" lon="3.00903">
        <ele>852.01</ele>
        <time>2016-06-23T12:14:42Z</time>
      </trkpt>
      <trkpt lat="44.38227" lon="3.00923">
        <ele>853.04</ele>
        <time>2016-06-23T12:14:57Z</time>
      </trkpt>
      <trkpt lat="44.38215" lon="3.00944">
        <ele>855.54</ele>
        <time>2016-06-23T12:15:12Z</time>
      </trkpt>
      <trkpt lat="44.38212" lon="3.0095">
        <ele>856.1</ele>
        <time>2016-06-23T12:15:16Z</time>
      </trkpt>
      <trkpt lat="44.38205" lon="3.00964">
        <ele>857.33</ele>
        <time>2016-06-23T12:15:26Z</time>
      </trkpt>
      <trkpt lat="44.382" lon="3.00981">
        <ele>857.76</ele>
        <time>2016-06-23T12:15:36Z</time>
      </trkpt>
      <trkpt lat="44.38191" lon="3.01011">
        <ele>858.28</ele>
        <time>2016-06-23T12:15:54Z</time>
      </trkpt>
      <trkpt lat="44.38183" lon="3.01031">
        <ele>858.49</ele>
        <time>2016-06-23T12:16:07Z</time>
      </trkpt>
      <trkpt lat="44.38176" lon="3.01039">
        <ele>857.91</ele>
        <time>2016-06-23T12:16:22Z</time>
      </trkpt>
      <trkpt lat="44.38175" lon="3.01038">
        <ele>857.9</ele>
        <time>2016-06-23T12:16:28Z</time>
      </trkpt>
      <trkpt lat="44.38168" lon="3.01041">
        <ele>857.76</ele>
        <time>2016-06-23T12:16:40Z</time>
      </trkpt>
      <trkpt lat="44.38165" lon="3.01042">
        <ele>857.54</ele>
        <time>2016-06-23T12:16:43Z</time>
      </trkpt>
      <trkpt lat="44.38154" lon="3.0105">
        <ele>855.19</ele>
        <time>2016-06-23T12:16:58Z</time>
      </trkpt>
      <trkpt lat="44.3815" lon="3.01053">
        <ele>853.99</ele>
        <time>2016-06-23T12:17:04Z</time>
      </trkpt>
      <trkpt lat="44.38147" lon="3.01053">
        <ele>853.45</ele>
        <time>2016-06-23T12:17:06Z</time>
      </trkpt>
      <trkpt lat="44.38145" lon="3.01051">
        <ele>852.44</ele>
        <time>2016-06-23T12:17:10Z</time>
      </trkpt>
      <trkpt lat="44.38141" lon="3.01048">
        <ele>851.64</ele>
        <time>2016-06-23T12:17:15Z</time>
      </trkpt>
      <trkpt lat="44.38139" lon="3.01047">
        <ele>851.44</ele>
        <time>2016-06-23T12:17:17Z</time>
      </trkpt>
      <trkpt lat="44.38129" lon="3.01048">
        <ele>850.54</ele>
        <time>2016-06-23T12:17:27Z</time>
      </trkpt>
      <trkpt lat="44.38106" lon="3.0105">
        <ele>850.38</ele>
        <time>2016-06-23T12:17:47Z</time>
      </trkpt>
      <trkpt lat="44.38081" lon="3.01051">
        <ele>851.05</ele>
        <time>2016-06-23T12:18:06Z</time>
      </trkpt>
      <trkpt lat="44.38064" lon="3.01055">
        <ele>850.53</ele>
        <time>2016-06-23T12:18:20Z</time>
      </trkpt>
      <trkpt lat="44.38049" lon="3.01069">
        <ele>850.05</ele>
        <time>2016-06-23T12:18:38Z</time>
      </trkpt>
      <trkpt lat="44.38037" lon="3.0108">
        <ele>850.31</ele>
        <time>2016-06-23T12:18:47Z</time>
      </trkpt>
      <trkpt lat="44.38031" lon="3.01088">
        <ele>850.11</ele>
        <time>2016-06-23T12:18:53Z</time>
      </trkpt>
      <trkpt lat="44.38014" lon="3.01106">
        <ele>849.8</ele>
        <time>2016-06-23T12:19:07Z</time>
      </trkpt>
      <trkpt lat="44.38009" lon="3.0112">
        <ele>849.99</ele>
        <time>2016-06-23T12:19:15Z</time>
      </trkpt>
      <trkpt lat="44.38012" lon="3.01142">
        <ele>850.46</ele>
        <time>2016-06-23T12:19:28Z</time>
      </trkpt>
      <trkpt lat="44.38014" lon="3.01163">
        <ele>851.31</ele>
        <time>2016-06-23T12:19:43Z</time>
      </trkpt>
      <trkpt lat="44.38019" lon="3.01185">
        <ele>853</ele>
        <time>2016-06-23T12:19:57Z</time>
      </trkpt>
      <trkpt lat="44.38019" lon="3.01198">
        <ele>853.99</ele>
        <time>2016-06-23T12:20:15Z</time>
      </trkpt>
      <trkpt lat="44.38016" lon="3.01211">
        <ele>854.27</ele>
        <time>2016-06-23T12:20:32Z</time>
      </trkpt>
      <trkpt lat="44.38015" lon="3.01213">
        <ele>854.29</ele>
        <time>2016-06-23T12:20:34Z</time>
      </trkpt>
      <trkpt lat="44.38009" lon="3.01227">
        <ele>854.35</ele>
        <time>2016-06-23T12:20:48Z</time>
      </trkpt>
      <trkpt lat="44.38011" lon="3.0125">
        <ele>853.72</ele>
        <time>2016-06-23T12:21:06Z</time>
      </trkpt>
      <trkpt lat="44.3801" lon="3.01275">
        <ele>855.8</ele>
        <time>2016-06-23T12:21:25Z</time>
      </trkpt>
      <trkpt lat="44.37998" lon="3.013">
        <ele>857.54</ele>
        <time>2016-06-23T12:21:42Z</time>
      </trkpt>
      <trkpt lat="44.37991" lon="3.01327">
        <ele>860.35</ele>
        <time>2016-06-23T12:22:02Z</time>
      </trkpt>
      <trkpt lat="44.37986" lon="3.01357">
        <ele>860.81</ele>
        <time>2016-06-23T12:22:21Z</time>
      </trkpt>
      <trkpt lat="44.37984" lon="3.01391">
        <ele>859.67</ele>
        <time>2016-06-23T12:22:39Z</time>
      </trkpt>
      <trkpt lat="44.37984" lon="3.01417">
        <ele>858.6</ele>
        <time>2016-06-23T12:22:55Z</time>
      </trkpt>
      <trkpt lat="44.37984" lon="3.01433">
        <ele>860.11</ele>
        <time>2016-06-23T12:23:13Z</time>
      </trkpt>
      <trkpt lat="44.37978" lon="3.01445">
        <ele>861.13</ele>
        <time>2016-06-23T12:23:21Z</time>
      </trkpt>
      <trkpt lat="44.37973" lon="3.01465">
        <ele>861.26</ele>
        <time>2016-06-23T12:23:36Z</time>
      </trkpt>
      <trkpt lat="44.3797" lon="3.01486">
        <ele>861.03</ele>
        <time>2016-06-23T12:23:52Z</time>
      </trkpt>
      <trkpt lat="44.3797" lon="3.0149">
        <ele>860.92</ele>
        <time>2016-06-23T12:23:54Z</time>
      </trkpt>
      <trkpt lat="44.37956" lon="3.01516">
        <ele>859.86</ele>
        <time>2016-06-23T12:24:09Z</time>
      </trkpt>
      <trkpt lat="44.37953" lon="3.01542">
        <ele>859.31</ele>
        <time>2016-06-23T12:24:25Z</time>
      </trkpt>
      <trkpt lat="44.37953" lon="3.01546">
        <ele>859.21</ele>
        <time>2016-06-23T12:24:28Z</time>
      </trkpt>
      <trkpt lat="44.37952" lon="3.01549">
        <ele>859.18</ele>
        <time>2016-06-23T12:24:30Z</time>
      </trkpt>
      <trkpt lat="44.37945" lon="3.01563">
        <ele>859.19</ele>
        <time>2016-06-23T12:24:44Z</time>
      </trkpt>
      <trkpt lat="44.37929" lon="3.01588">
        <ele>860.74</ele>
        <time>2016-06-23T12:25:03Z</time>
      </trkpt>
      <trkpt lat="44.37929" lon="3.0159">
        <ele>860.86</ele>
        <time>2016-06-23T12:25:04Z</time>
      </trkpt>
      <trkpt lat="44.37924" lon="3.01612">
        <ele>862.59</ele>
        <time>2016-06-23T12:25:22Z</time>
      </trkpt>
      <trkpt lat="44.37915" lon="3.01634">
        <ele>863.86</ele>
        <time>2016-06-23T12:25:38Z</time>
      </trkpt>
      <trkpt lat="44.37902" lon="3.01659">
        <ele>864.72</ele>
        <time>2016-06-23T12:25:59Z</time>
      </trkpt>
      <trkpt lat="44.37888" lon="3.01685">
        <ele>865.17</ele>
        <time>2016-06-23T12:26:19Z</time>
      </trkpt>
      <trkpt lat="44.37886" lon="3.01709">
        <ele>862.31</ele>
        <time>2016-06-23T12:26:39Z</time>
      </trkpt>
      <trkpt lat="44.37886" lon="3.01716">
        <ele>862.26</ele>
        <time>2016-06-23T12:26:45Z</time>
      </trkpt>
      <trkpt lat="44.37885" lon="3.01731">
        <ele>864.02</ele>
        <time>2016-06-23T12:27:00Z</time>
      </trkpt>
      <trkpt lat="44.37884" lon="3.01735">
        <ele>864.23</ele>
        <time>2016-06-23T12:27:03Z</time>
      </trkpt>
      <trkpt lat="44.37881" lon="3.01766">
        <ele>864.7</ele>
        <time>2016-06-23T12:27:20Z</time>
      </trkpt>
      <trkpt lat="44.37886" lon="3.01791">
        <ele>862.56</ele>
        <time>2016-06-23T12:27:38Z</time>
      </trkpt>
      <trkpt lat="44.37889" lon="3.01821">
        <ele>860.54</ele>
        <time>2016-06-23T12:27:55Z</time>
      </trkpt>
      <trkpt lat="44.37889" lon="3.01831">
        <ele>860.09</ele>
        <time>2016-06-23T12:28:04Z</time>
      </trkpt>
      <trkpt lat="44.37893" lon="3.0185">
        <ele>859.16</ele>
        <time>2016-06-23T12:28:20Z</time>
      </trkpt>
      <trkpt lat="44.37889" lon="3.01867">
        <ele>858.25</ele>
        <time>2016-06-23T12:28:37Z</time>
      </trkpt>
      <trkpt lat="44.37893" lon="3.01893">
        <ele>855.39</ele>
        <time>2016-06-23T12:28:57Z</time>
      </trkpt>
      <trkpt lat="44.37894" lon="3.01914">
        <ele>852.24</ele>
        <time>2016-06-23T12:29:11Z</time>
      </trkpt>
      <trkpt lat="44.37898" lon="3.01917">
        <ele>849.04</ele>
        <time>2016-06-23T12:29:21Z</time>
      </trkpt>
      <trkpt lat="44.37896" lon="3.01925">
        <ele>847.65</ele>
        <time>2016-06-23T12:29:41Z</time>
      </trkpt>
      <trkpt lat="44.37896" lon="3.0195">
        <ele>846.12</ele>
        <time>2016-06-23T12:29:55Z</time>
      </trkpt>
      <trkpt lat="44.37895" lon="3.01952">
        <ele>846.01</ele>
        <time>2016-06-23T12:29:56Z</time>
      </trkpt>
      <trkpt lat="44.37895" lon="3.01957">
        <ele>845.75</ele>
        <time>2016-06-23T12:29:58Z</time>
      </trkpt>
      <trkpt lat="44.37898" lon="3.01966">
        <ele>845.3</ele>
        <time>2016-06-23T12:30:03Z</time>
      </trkpt>
      <trkpt lat="44.37901" lon="3.01964">
        <ele>845.12</ele>
        <time>2016-06-23T12:30:05Z</time>
      </trkpt>
      <trkpt lat="44.37905" lon="3.01957">
        <ele>844.15</ele>
        <time>2016-06-23T12:30:11Z</time>
      </trkpt>
      <trkpt lat="44.37917" lon="3.01955">
        <ele>842.05</ele>
        <time>2016-06-23T12:30:24Z</time>
      </trkpt>
      <trkpt lat="44.37921" lon="3.0196">
        <ele>841.27</ele>
        <time>2016-06-23T12:30:36Z</time>
      </trkpt>
      <trkpt lat="44.37922" lon="3.01963">
        <ele>841.18</ele>
        <time>2016-06-23T12:30:38Z</time>
      </trkpt>
      <trkpt lat="44.37923" lon="3.01969">
        <ele>841.3</ele>
        <time>2016-06-23T12:30:41Z</time>
      </trkpt>
      <trkpt lat="44.37922" lon="3.01988">
        <ele>841.5</ele>
        <time>2016-06-23T12:30:53Z</time>
      </trkpt>
      <trkpt lat="44.37917" lon="3.01997">
        <ele>841.83</ele>
        <time>2016-06-23T12:31:00Z</time>
      </trkpt>
      <trkpt lat="44.37908" lon="3.02011">
        <ele>842.49</ele>
        <time>2016-06-23T12:31:10Z</time>
      </trkpt>
      <trkpt lat="44.37905" lon="3.02018">
        <ele>842.53</ele>
        <time>2016-06-23T12:31:15Z</time>
      </trkpt>
      <trkpt lat="44.37903" lon="3.02024">
        <ele>842.71</ele>
        <time>2016-06-23T12:31:19Z</time>
      </trkpt>
      <trkpt lat="44.37901" lon="3.02032">
        <ele>843.16</ele>
        <time>2016-06-23T12:31:24Z</time>
      </trkpt>
      <trkpt lat="44.379" lon="3.02038">
        <ele>843.68</ele>
        <time>2016-06-23T12:31:28Z</time>
      </trkpt>
      <trkpt lat="44.37897" lon="3.02047">
        <ele>844.69</ele>
        <time>2016-06-23T12:31:34Z</time>
      </trkpt>
      <trkpt lat="44.37889" lon="3.02066">
        <ele>846.39</ele>
        <time>2016-06-23T12:31:48Z</time>
      </trkpt>
      <trkpt lat="44.37883" lon="3.02086">
        <ele>848.03</ele>
        <time>2016-06-23T12:32:02Z</time>
      </trkpt>
      <trkpt lat="44.3788" lon="3.02093">
        <ele>848.48</ele>
        <time>2016-06-23T12:32:08Z</time>
      </trkpt>
      <trkpt lat="44.37876" lon="3.02105">
        <ele>849.49</ele>
        <time>2016-06-23T12:32:17Z</time>
      </trkpt>
      <trkpt lat="44.37869" lon="3.02126">
        <ele>851.86</ele>
        <time>2016-06-23T12:32:34Z</time>
      </trkpt>
      <trkpt lat="44.3786" lon="3.02144">
        <ele>854.41</ele>
        <time>2016-06-23T12:32:50Z</time>
      </trkpt>
      <trkpt lat="44.37858" lon="3.02148">
        <ele>854.81</ele>
        <time>2016-06-23T12:32:53Z</time>
      </trkpt>
      <trkpt lat="44.37851" lon="3.02169">
        <ele>857.66</ele>
        <time>2016-06-23T12:33:10Z</time>
      </trkpt>
      <trkpt lat="44.37841" lon="3.02191">
        <ele>860.14</ele>
        <time>2016-06-23T12:33:28Z</time>
      </trkpt>
      <trkpt lat="44.37835" lon="3.02199">
        <ele>860.82</ele>
        <time>2016-06-23T12:33:44Z</time>
      </trkpt>
      <trkpt lat="44.37837" lon="3.02204">
        <ele>861.07</ele>
        <time>2016-06-23T12:33:49Z</time>
      </trkpt>
      <trkpt lat="44.37837" lon="3.02209">
        <ele>861.27</ele>
        <time>2016-06-23T12:33:52Z</time>
      </trkpt>
      <trkpt lat="44.37829" lon="3.02226">
        <ele>861.97</ele>
        <time>2016-06-23T12:34:05Z</time>
      </trkpt>
      <trkpt lat="44.37818" lon="3.02245">
        <ele>861.63</ele>
        <time>2016-06-23T12:34:19Z</time>
      </trkpt>
      <trkpt lat="44.37817" lon="3.02248">
        <ele>861.44</ele>
        <time>2016-06-23T12:34:21Z</time>
      </trkpt>
      <trkpt lat="44.37809" lon="3.02268">
        <ele>859.45</ele>
        <time>2016-06-23T12:34:35Z</time>
      </trkpt>
      <trkpt lat="44.37801" lon="3.02276">
        <ele>858.48</ele>
        <time>2016-06-23T12:34:44Z</time>
      </trkpt>
      <trkpt lat="44.37795" lon="3.02285">
        <ele>857.79</ele>
        <time>2016-06-23T12:34:51Z</time>
      </trkpt>
      <trkpt lat="44.37793" lon="3.0229">
        <ele>857.54</ele>
        <time>2016-06-23T12:34:54Z</time>
      </trkpt>
      <trkpt lat="44.37774" lon="3.02308">
        <ele>856.01</ele>
        <time>2016-06-23T12:35:11Z</time>
      </trkpt>
      <trkpt lat="44.37768" lon="3.02324">
        <ele>854.86</ele>
        <time>2016-06-23T12:35:21Z</time>
      </trkpt>
      <trkpt lat="44.37768" lon="3.02327">
        <ele>854.76</ele>
        <time>2016-06-23T12:35:23Z</time>
      </trkpt>
      <trkpt lat="44.37761" lon="3.02338">
        <ele>854.18</ele>
        <time>2016-06-23T12:35:39Z</time>
      </trkpt>
      <trkpt lat="44.37759" lon="3.02338">
        <ele>854.17</ele>
        <time>2016-06-23T12:35:41Z</time>
      </trkpt>
      <trkpt lat="44.37757" lon="3.02342">
        <ele>854.1</ele>
        <time>2016-06-23T12:35:44Z</time>
      </trkpt>
      <trkpt lat="44.37755" lon="3.02352">
        <ele>853.47</ele>
        <time>2016-06-23T12:35:51Z</time>
      </trkpt>
      <trkpt lat="44.37753" lon="3.02356">
        <ele>853.17</ele>
        <time>2016-06-23T12:35:54Z</time>
      </trkpt>
      <trkpt lat="44.37753" lon="3.02367">
        <ele>852.59</ele>
        <time>2016-06-23T12:36:00Z</time>
      </trkpt>
      <trkpt lat="44.37744" lon="3.02388">
        <ele>850.91</ele>
        <time>2016-06-23T12:36:13Z</time>
      </trkpt>
      <trkpt lat="44.37732" lon="3.02406">
        <ele>850.13</ele>
        <time>2016-06-23T12:36:26Z</time>
      </trkpt>
      <trkpt lat="44.37727" lon="3.02414">
        <ele>850.08</ele>
        <time>2016-06-23T12:36:31Z</time>
      </trkpt>
      <trkpt lat="44.37711" lon="3.0243">
        <ele>849.37</ele>
        <time>2016-06-23T12:36:46Z</time>
      </trkpt>
      <trkpt lat="44.37705" lon="3.02436">
        <ele>849.03</ele>
        <time>2016-06-23T12:36:52Z</time>
      </trkpt>
      <trkpt lat="44.37692" lon="3.02456">
        <ele>848.31</ele>
        <time>2016-06-23T12:37:07Z</time>
      </trkpt>
      <trkpt lat="44.37688" lon="3.02462">
        <ele>848.23</ele>
        <time>2016-06-23T12:37:12Z</time>
      </trkpt>
      <trkpt lat="44.37679" lon="3.02478">
        <ele>847.96</ele>
        <time>2016-06-23T12:37:22Z</time>
      </trkpt>
      <trkpt lat="44.37674" lon="3.02486">
        <ele>848.02</ele>
        <time>2016-06-23T12:37:27Z</time>
      </trkpt>
      <trkpt lat="44.37667" lon="3.02495">
        <ele>847.91</ele>
        <time>2016-06-23T12:37:34Z</time>
      </trkpt>
      <trkpt lat="44.37662" lon="3.02506">
        <ele>847.53</ele>
        <time>2016-06-23T12:37:41Z</time>
      </trkpt>
      <trkpt lat="44.37653" lon="3.02525">
        <ele>846.57</ele>
        <time>2016-06-23T12:37:54Z</time>
      </trkpt>
      <trkpt lat="44.37651" lon="3.02528">
        <ele>846.31</ele>
        <time>2016-06-23T12:37:56Z</time>
      </trkpt>
      <trkpt lat="44.37649" lon="3.02529">
        <ele>846.11</ele>
        <time>2016-06-23T12:37:58Z</time>
      </trkpt>
      <trkpt lat="44.37641" lon="3.02546">
        <ele>845.04</ele>
        <time>2016-06-23T12:38:09Z</time>
      </trkpt>
      <trkpt lat="44.37639" lon="3.02549">
        <ele>844.87</ele>
        <time>2016-06-23T12:38:11Z</time>
      </trkpt>
      <trkpt lat="44.37637" lon="3.02551">
        <ele>844.65</ele>
        <time>2016-06-23T12:38:13Z</time>
      </trkpt>
      <trkpt lat="44.37627" lon="3.02566">
        <ele>843.11</ele>
        <time>2016-06-23T12:38:22Z</time>
      </trkpt>
      <trkpt lat="44.37624" lon="3.02574">
        <ele>841.75</ele>
        <time>2016-06-23T12:38:29Z</time>
      </trkpt>
      <trkpt lat="44.37619" lon="3.02579">
        <ele>841.04</ele>
        <time>2016-06-23T12:38:34Z</time>
      </trkpt>
      <trkpt lat="44.3761" lon="3.02587">
        <ele>840.31</ele>
        <time>2016-06-23T12:38:43Z</time>
      </trkpt>
      <trkpt lat="44.37592" lon="3.02603">
        <ele>838.57</ele>
        <time>2016-06-23T12:38:55Z</time>
      </trkpt>
      <trkpt lat="44.37581" lon="3.02607">
        <ele>838.59</ele>
        <time>2016-06-23T12:39:07Z</time>
      </trkpt>
      <trkpt lat="44.37571" lon="3.02613">
        <ele>838.58</ele>
        <time>2016-06-23T12:39:24Z</time>
      </trkpt>
      <trkpt lat="44.37561" lon="3.02623">
        <ele>837.85</ele>
        <time>2016-06-23T12:39:40Z</time>
      </trkpt>
      <trkpt lat="44.37543" lon="3.0264">
        <ele>837.54</ele>
        <time>2016-06-23T12:40:00Z</time>
      </trkpt>
      <trkpt lat="44.37522" lon="3.02662">
        <ele>837.62</ele>
        <time>2016-06-23T12:40:16Z</time>
      </trkpt>
      <trkpt lat="44.37506" lon="3.02675">
        <ele>838.04</ele>
        <time>2016-06-23T12:40:27Z</time>
      </trkpt>
      <trkpt lat="44.37495" lon="3.02685">
        <ele>837.71</ele>
        <time>2016-06-23T12:40:40Z</time>
      </trkpt>
      <trkpt lat="44.37478" lon="3.02698">
        <ele>837.24</ele>
        <time>2016-06-23T12:40:56Z</time>
      </trkpt>
      <trkpt lat="44.37459" lon="3.02724">
        <ele>837.22</ele>
        <time>2016-06-23T12:41:16Z</time>
      </trkpt>
      <trkpt lat="44.37433" lon="3.02762">
        <ele>837.29</ele>
        <time>2016-06-23T12:41:34Z</time>
      </trkpt>
      <trkpt lat="44.37431" lon="3.02764">
        <ele>837.28</ele>
        <time>2016-06-23T12:41:35Z</time>
      </trkpt>
      <trkpt lat="44.37427" lon="3.02767">
        <ele>837.34</ele>
        <time>2016-06-23T12:41:37Z</time>
      </trkpt>
      <trkpt lat="44.37415" lon="3.02782">
        <ele>837.6</ele>
        <time>2016-06-23T12:41:50Z</time>
      </trkpt>
      <trkpt lat="44.374" lon="3.02798">
        <ele>837.06</ele>
        <time>2016-06-23T12:42:04Z</time>
      </trkpt>
      <trkpt lat="44.37397" lon="3.02802">
        <ele>836.77</ele>
        <time>2016-06-23T12:42:08Z</time>
      </trkpt>
      <trkpt lat="44.37383" lon="3.02814">
        <ele>834.85</ele>
        <time>2016-06-23T12:42:21Z</time>
      </trkpt>
      <trkpt lat="44.37366" lon="3.02826">
        <ele>832.74</ele>
        <time>2016-06-23T12:42:35Z</time>
      </trkpt>
      <trkpt lat="44.37355" lon="3.02832">
        <ele>831.4</ele>
        <time>2016-06-23T12:42:43Z</time>
      </trkpt>
      <trkpt lat="44.37342" lon="3.02835">
        <ele>830.19</ele>
        <time>2016-06-23T12:42:54Z</time>
      </trkpt>
      <trkpt lat="44.37338" lon="3.02837">
        <ele>829.86</ele>
        <time>2016-06-23T12:42:58Z</time>
      </trkpt>
      <trkpt lat="44.37335" lon="3.0284">
        <ele>829.57</ele>
        <time>2016-06-23T12:43:01Z</time>
      </trkpt>
      <trkpt lat="44.37319" lon="3.02849">
        <ele>828</ele>
        <time>2016-06-23T12:43:14Z</time>
      </trkpt>
      <trkpt lat="44.37316" lon="3.02849">
        <ele>827.51</ele>
        <time>2016-06-23T12:43:17Z</time>
      </trkpt>
      <trkpt lat="44.37308" lon="3.02849">
        <ele>826.16</ele>
        <time>2016-06-23T12:43:24Z</time>
      </trkpt>
      <trkpt lat="44.37293" lon="3.02839">
        <ele>824.56</ele>
        <time>2016-06-23T12:43:37Z</time>
      </trkpt>
      <trkpt lat="44.37283" lon="3.02836">
        <ele>823.21</ele>
        <time>2016-06-23T12:43:48Z</time>
      </trkpt>
      <trkpt lat="44.37263" lon="3.02828">
        <ele>821.94</ele>
        <time>2016-06-23T12:44:07Z</time>
      </trkpt>
      <trkpt lat="44.37247" lon="3.02821">
        <ele>821.7</ele>
        <time>2016-06-23T12:44:20Z</time>
      </trkpt>
      <trkpt lat="44.37241" lon="3.02816">
        <ele>821.33</ele>
        <time>2016-06-23T12:44:27Z</time>
      </trkpt>
      <trkpt lat="44.37228" lon="3.02806">
        <ele>820.68</ele>
        <time>2016-06-23T12:44:38Z</time>
      </trkpt>
      <trkpt lat="44.37203" lon="3.02802">
        <ele>818.63</ele>
        <time>2016-06-23T12:44:55Z</time>
      </trkpt>
      <trkpt lat="44.37181" lon="3.02797">
        <ele>818.71</ele>
        <time>2016-06-23T12:45:11Z</time>
      </trkpt>
      <trkpt lat="44.37163" lon="3.02796">
        <ele>818.45</ele>
        <time>2016-06-23T12:45:24Z</time>
      </trkpt>
      <trkpt lat="44.37151" lon="3.02796">
        <ele>817.78</ele>
        <time>2016-06-23T12:45:32Z</time>
      </trkpt>
      <trkpt lat="44.37143" lon="3.02797">
        <ele>817.36</ele>
        <time>2016-06-23T12:45:38Z</time>
      </trkpt>
      <trkpt lat="44.37138" lon="3.02796">
        <ele>817.27</ele>
        <time>2016-06-23T12:45:42Z</time>
      </trkpt>
      <trkpt lat="44.37114" lon="3.02799">
        <ele>816.99</ele>
        <time>2016-06-23T12:45:59Z</time>
      </trkpt>
      <trkpt lat="44.37108" lon="3.02797">
        <ele>816.58</ele>
        <time>2016-06-23T12:46:04Z</time>
      </trkpt>
      <trkpt lat="44.37094" lon="3.02792">
        <ele>815.85</ele>
        <time>2016-06-23T12:46:15Z</time>
      </trkpt>
      <trkpt lat="44.37075" lon="3.02786">
        <ele>814.68</ele>
        <time>2016-06-23T12:46:28Z</time>
      </trkpt>
      <trkpt lat="44.37062" lon="3.02787">
        <ele>813.3</ele>
        <time>2016-06-23T12:46:41Z</time>
      </trkpt>
      <trkpt lat="44.37058" lon="3.02789">
        <ele>812.87</ele>
        <time>2016-06-23T12:46:45Z</time>
      </trkpt>
      <trkpt lat="44.37032" lon="3.02792">
        <ele>810.62</ele>
        <time>2016-06-23T12:47:06Z</time>
      </trkpt>
      <trkpt lat="44.37014" lon="3.02794">
        <ele>809.45</ele>
        <time>2016-06-23T12:47:22Z</time>
      </trkpt>
      <trkpt lat="44.37013" lon="3.02794">
        <ele>809.43</ele>
        <time>2016-06-23T12:47:23Z</time>
      </trkpt>
      <trkpt lat="44.36992" lon="3.02798">
        <ele>806.91</ele>
        <time>2016-06-23T12:47:39Z</time>
      </trkpt>
      <trkpt lat="44.36987" lon="3.02801">
        <ele>805.91</ele>
        <time>2016-06-23T12:47:44Z</time>
      </trkpt>
      <trkpt lat="44.36984" lon="3.02809">
        <ele>804.77</ele>
        <time>2016-06-23T12:47:49Z</time>
      </trkpt>
      <trkpt lat="44.36983" lon="3.0282">
        <ele>803.78</ele>
        <time>2016-06-23T12:47:55Z</time>
      </trkpt>
      <trkpt lat="44.36983" lon="3.02844">
        <ele>803.19</ele>
        <time>2016-06-23T12:48:11Z</time>
      </trkpt>
      <trkpt lat="44.36998" lon="3.0285">
        <ele>803.45</ele>
        <time>2016-06-23T12:48:26Z</time>
      </trkpt>
      <trkpt lat="44.37016" lon="3.02855">
        <ele>804.01</ele>
        <time>2016-06-23T12:48:44Z</time>
      </trkpt>
      <trkpt lat="44.3702" lon="3.02857">
        <ele>803.78</ele>
        <time>2016-06-23T12:48:48Z</time>
      </trkpt>
      <trkpt lat="44.37035" lon="3.02867">
        <ele>802.34</ele>
        <time>2016-06-23T12:49:01Z</time>
      </trkpt>
      <trkpt lat="44.37053" lon="3.0288">
        <ele>801.26</ele>
        <time>2016-06-23T12:49:16Z</time>
      </trkpt>
      <trkpt lat="44.37057" lon="3.02886">
        <ele>800.78</ele>
        <time>2016-06-23T12:49:21Z</time>
      </trkpt>
      <trkpt lat="44.37058" lon="3.0289">
        <ele>800.62</ele>
        <time>2016-06-23T12:49:24Z</time>
      </trkpt>
      <trkpt lat="44.37076" lon="3.02911">
        <ele>799.89</ele>
        <time>2016-06-23T12:49:42Z</time>
      </trkpt>
      <trkpt lat="44.37099" lon="3.02921">
        <ele>800.84</ele>
        <time>2016-06-23T12:50:01Z</time>
      </trkpt>
      <trkpt lat="44.37119" lon="3.02935">
        <ele>800.22</ele>
        <time>2016-06-23T12:50:18Z</time>
      </trkpt>
      <trkpt lat="44.37126" lon="3.02946">
        <ele>799.75</ele>
        <time>2016-06-23T12:50:26Z</time>
      </trkpt>
      <trkpt lat="44.37127" lon="3.02952">
        <ele>799.32</ele>
        <time>2016-06-23T12:50:30Z</time>
      </trkpt>
      <trkpt lat="44.37138" lon="3.02975">
        <ele>797.74</ele>
        <time>2016-06-23T12:50:47Z</time>
      </trkpt>
      <trkpt lat="44.37142" lon="3.02983">
        <ele>797.12</ele>
        <time>2016-06-23T12:50:52Z</time>
      </trkpt>
      <trkpt lat="44.37153" lon="3.03007">
        <ele>794.12</ele>
        <time>2016-06-23T12:51:06Z</time>
      </trkpt>
      <trkpt lat="44.37159" lon="3.03021">
        <ele>792.46</ele>
        <time>2016-06-23T12:51:14Z</time>
      </trkpt>
      <trkpt lat="44.37169" lon="3.03042">
        <ele>790.91</ele>
        <time>2016-06-23T12:51:28Z</time>
      </trkpt>
      <trkpt lat="44.3717" lon="3.03044">
        <ele>790.87</ele>
        <time>2016-06-23T12:51:29Z</time>
      </trkpt>
      <trkpt lat="44.3718" lon="3.03066">
        <ele>791.24</ele>
        <time>2016-06-23T12:51:46Z</time>
      </trkpt>
      <trkpt lat="44.3718" lon="3.03069">
        <ele>791.37</ele>
        <time>2016-06-23T12:51:52Z</time>
      </trkpt>
      <trkpt lat="44.37182" lon="3.03072">
        <ele>791.47</ele>
        <time>2016-06-23T12:51:54Z</time>
      </trkpt>
      <trkpt lat="44.37192" lon="3.03091">
        <ele>791.64</ele>
        <time>2016-06-23T12:52:09Z</time>
      </trkpt>
      <trkpt lat="44.37203" lon="3.03111">
        <ele>794.03</ele>
        <time>2016-06-23T12:52:25Z</time>
      </trkpt>
      <trkpt lat="44.37209" lon="3.03121">
        <ele>795.09</ele>
        <time>2016-06-23T12:52:34Z</time>
      </trkpt>
      <trkpt lat="44.37221" lon="3.03142">
        <ele>797.66</ele>
        <time>2016-06-23T12:52:53Z</time>
      </trkpt>
      <trkpt lat="44.37231" lon="3.03158">
        <ele>799.95</ele>
        <time>2016-06-23T12:53:09Z</time>
      </trkpt>
      <trkpt lat="44.37236" lon="3.03172">
        <ele>801.63</ele>
        <time>2016-06-23T12:53:20Z</time>
      </trkpt>
      <trkpt lat="44.37238" lon="3.0318">
        <ele>803.08</ele>
        <time>2016-06-23T12:53:27Z</time>
      </trkpt>
      <trkpt lat="44.37248" lon="3.03205">
        <ele>806.01</ele>
        <time>2016-06-23T12:53:46Z</time>
      </trkpt>
      <trkpt lat="44.37259" lon="3.03226">
        <ele>807.36</ele>
        <time>2016-06-23T12:54:05Z</time>
      </trkpt>
      <trkpt lat="44.37269" lon="3.03242">
        <ele>810.05</ele>
        <time>2016-06-23T12:54:21Z</time>
      </trkpt>
      <trkpt lat="44.37273" lon="3.03256">
        <ele>812.79</ele>
        <time>2016-06-23T12:54:33Z</time>
      </trkpt>
      <trkpt lat="44.3727" lon="3.03263">
        <ele>812.43</ele>
        <time>2016-06-23T12:54:39Z</time>
      </trkpt>
      <trkpt lat="44.37269" lon="3.03277">
        <ele>813.3</ele>
        <time>2016-06-23T12:54:49Z</time>
      </trkpt>
      <trkpt lat="44.37265" lon="3.03283">
        <ele>813.78</ele>
        <time>2016-06-23T12:54:54Z</time>
      </trkpt>
      <trkpt lat="44.37246" lon="3.033">
        <ele>812.16</ele>
        <time>2016-06-23T12:55:13Z</time>
      </trkpt>
      <trkpt lat="44.3724" lon="3.03329">
        <ele>811.29</ele>
        <time>2016-06-23T12:55:29Z</time>
      </trkpt>
      <trkpt lat="44.37246" lon="3.03352">
        <ele>810.41</ele>
        <time>2016-06-23T12:55:43Z</time>
      </trkpt>
      <trkpt lat="44.37263" lon="3.03365">
        <ele>809.78</ele>
        <time>2016-06-23T12:56:00Z</time>
      </trkpt>
      <trkpt lat="44.3728" lon="3.03377">
        <ele>809.33</ele>
        <time>2016-06-23T12:56:16Z</time>
      </trkpt>
      <trkpt lat="44.37295" lon="3.03395">
        <ele>808.98</ele>
        <time>2016-06-23T12:56:33Z</time>
      </trkpt>
      <trkpt lat="44.37297" lon="3.03397">
        <ele>808.99</ele>
        <time>2016-06-23T12:56:35Z</time>
      </trkpt>
      <trkpt lat="44.37302" lon="3.0341">
        <ele>809.23</ele>
        <time>2016-06-23T12:56:45Z</time>
      </trkpt>
      <trkpt lat="44.37299" lon="3.03432">
        <ele>809.93</ele>
        <time>2016-06-23T12:57:00Z</time>
      </trkpt>
      <trkpt lat="44.37296" lon="3.03454">
        <ele>810.8</ele>
        <time>2016-06-23T12:57:16Z</time>
      </trkpt>
      <trkpt lat="44.37297" lon="3.03476">
        <ele>812.46</ele>
        <time>2016-06-23T12:57:31Z</time>
      </trkpt>
      <trkpt lat="44.37301" lon="3.03501">
        <ele>813.42</ele>
        <time>2016-06-23T12:57:46Z</time>
      </trkpt>
      <trkpt lat="44.37303" lon="3.0351">
        <ele>813.66</ele>
        <time>2016-06-23T12:57:52Z</time>
      </trkpt>
      <trkpt lat="44.37312" lon="3.03531">
        <ele>813.69</ele>
        <time>2016-06-23T12:58:06Z</time>
      </trkpt>
      <trkpt lat="44.37321" lon="3.03548">
        <ele>813.27</ele>
        <time>2016-06-23T12:58:19Z</time>
      </trkpt>
      <trkpt lat="44.37322" lon="3.03563">
        <ele>813.32</ele>
        <time>2016-06-23T12:58:30Z</time>
      </trkpt>
      <trkpt lat="44.37321" lon="3.03571">
        <ele>813.4</ele>
        <time>2016-06-23T12:58:35Z</time>
      </trkpt>
      <trkpt lat="44.37312" lon="3.03595">
        <ele>813.66</ele>
        <time>2016-06-23T12:58:51Z</time>
      </trkpt>
      <trkpt lat="44.37306" lon="3.03613">
        <ele>814.44</ele>
        <time>2016-06-23T12:59:03Z</time>
      </trkpt>
      <trkpt lat="44.37303" lon="3.03628">
        <ele>814.83</ele>
        <time>2016-06-23T12:59:12Z</time>
      </trkpt>
      <trkpt lat="44.37301" lon="3.03643">
        <ele>815.8</ele>
        <time>2016-06-23T12:59:22Z</time>
      </trkpt>
      <trkpt lat="44.373" lon="3.03673">
        <ele>817.06</ele>
        <time>2016-06-23T12:59:39Z</time>
      </trkpt>
      <trkpt lat="44.37303" lon="3.03699">
        <ele>818.88</ele>
        <time>2016-06-23T12:59:55Z</time>
      </trkpt>
      <trkpt lat="44.37303" lon="3.03726">
        <ele>819.05</ele>
        <time>2016-06-23T13:00:10Z</time>
      </trkpt>
      <trkpt lat="44.37308" lon="3.03751">
        <ele>818.86</ele>
        <time>2016-06-23T13:00:26Z</time>
      </trkpt>
      <trkpt lat="44.37308" lon="3.03774">
        <ele>818.06</ele>
        <time>2016-06-23T13:00:42Z</time>
      </trkpt>
      <trkpt lat="44.37304" lon="3.03798">
        <ele>819.48</ele>
        <time>2016-06-23T13:00:58Z</time>
      </trkpt>
      <trkpt lat="44.37303" lon="3.03809">
        <ele>819.27</ele>
        <time>2016-06-23T13:01:04Z</time>
      </trkpt>
      <trkpt lat="44.37302" lon="3.03812">
        <ele>819.19</ele>
        <time>2016-06-23T13:01:06Z</time>
      </trkpt>
      <trkpt lat="44.37296" lon="3.03845">
        <ele>818.67</ele>
        <time>2016-06-23T13:01:24Z</time>
      </trkpt>
      <trkpt lat="44.37296" lon="3.03847">
        <ele>818.68</ele>
        <time>2016-06-23T13:01:25Z</time>
      </trkpt>
      <trkpt lat="44.37295" lon="3.0385">
        <ele>818.74</ele>
        <time>2016-06-23T13:01:27Z</time>
      </trkpt>
      <trkpt lat="44.37291" lon="3.03877">
        <ele>818.74</ele>
        <time>2016-06-23T13:01:42Z</time>
      </trkpt>
      <trkpt lat="44.37289" lon="3.03883">
        <ele>818.44</ele>
        <time>2016-06-23T13:01:46Z</time>
      </trkpt>
      <trkpt lat="44.37287" lon="3.03902">
        <ele>816.99</ele>
        <time>2016-06-23T13:01:58Z</time>
      </trkpt>
      <trkpt lat="44.37281" lon="3.0392">
        <ele>816.09</ele>
        <time>2016-06-23T13:02:13Z</time>
      </trkpt>
      <trkpt lat="44.37278" lon="3.03928">
        <ele>815.81</ele>
        <time>2016-06-23T13:02:20Z</time>
      </trkpt>
      <trkpt lat="44.37269" lon="3.03944">
        <ele>814.84</ele>
        <time>2016-06-23T13:02:35Z</time>
      </trkpt>
      <trkpt lat="44.3726" lon="3.03958">
        <ele>815.11</ele>
        <time>2016-06-23T13:02:44Z</time>
      </trkpt>
      <trkpt lat="44.3725" lon="3.0397">
        <ele>815.5</ele>
        <time>2016-06-23T13:02:55Z</time>
      </trkpt>
      <trkpt lat="44.37239" lon="3.03984">
        <ele>814.97</ele>
        <time>2016-06-23T13:03:07Z</time>
      </trkpt>
      <trkpt lat="44.37236" lon="3.03987">
        <ele>814.97</ele>
        <time>2016-06-23T13:03:09Z</time>
      </trkpt>
      <trkpt lat="44.37222" lon="3.04007">
        <ele>815.49</ele>
        <time>2016-06-23T13:03:24Z</time>
      </trkpt>
      <trkpt lat="44.37216" lon="3.04015">
        <ele>815.6</ele>
        <time>2016-06-23T13:03:30Z</time>
      </trkpt>
      <trkpt lat="44.372" lon="3.04039">
        <ele>816.13</ele>
        <time>2016-06-23T13:03:47Z</time>
      </trkpt>
      <trkpt lat="44.37189" lon="3.04056">
        <ele>816.04</ele>
        <time>2016-06-23T13:04:00Z</time>
      </trkpt>
      <trkpt lat="44.37184" lon="3.04065">
        <ele>815.93</ele>
        <time>2016-06-23T13:04:06Z</time>
      </trkpt>
      <trkpt lat="44.37182" lon="3.04068">
        <ele>815.83</ele>
        <time>2016-06-23T13:04:08Z</time>
      </trkpt>
      <trkpt lat="44.37175" lon="3.04083">
        <ele>815.94</ele>
        <time>2016-06-23T13:04:17Z</time>
      </trkpt>
      <trkpt lat="44.37169" lon="3.04108">
        <ele>816.28</ele>
        <time>2016-06-23T13:04:32Z</time>
      </trkpt>
      <trkpt lat="44.37166" lon="3.04132">
        <ele>816.82</ele>
        <time>2016-06-23T13:04:45Z</time>
      </trkpt>
      <trkpt lat="44.37164" lon="3.04143">
        <ele>817.01</ele>
        <time>2016-06-23T13:04:51Z</time>
      </trkpt>
      <trkpt lat="44.37153" lon="3.04163">
        <ele>816.83</ele>
        <time>2016-06-23T13:05:06Z</time>
      </trkpt>
      <trkpt lat="44.37149" lon="3.0417">
        <ele>816.09</ele>
        <time>2016-06-23T13:05:11Z</time>
      </trkpt>
      <trkpt lat="44.37138" lon="3.04187">
        <ele>816.94</ele>
        <time>2016-06-23T13:05:26Z</time>
      </trkpt>
      <trkpt lat="44.37127" lon="3.04201">
        <ele>816.73</ele>
        <time>2016-06-23T13:05:39Z</time>
      </trkpt>
      <trkpt lat="44.3712" lon="3.04205">
        <ele>816.39</ele>
        <time>2016-06-23T13:05:46Z</time>
      </trkpt>
      <trkpt lat="44.37112" lon="3.04207">
        <ele>816.11</ele>
        <time>2016-06-23T13:05:52Z</time>
      </trkpt>
      <trkpt lat="44.37106" lon="3.0421">
        <ele>816.01</ele>
        <time>2016-06-23T13:05:57Z</time>
      </trkpt>
      <trkpt lat="44.37087" lon="3.04222">
        <ele>816.32</ele>
        <time>2016-06-23T13:06:13Z</time>
      </trkpt>
      <trkpt lat="44.37073" lon="3.04235">
        <ele>816.51</ele>
        <time>2016-06-23T13:06:27Z</time>
      </trkpt>
      <trkpt lat="44.37057" lon="3.0425">
        <ele>817.55</ele>
        <time>2016-06-23T13:06:45Z</time>
      </trkpt>
      <trkpt lat="44.37043" lon="3.04265">
        <ele>818.83</ele>
        <time>2016-06-23T13:07:01Z</time>
      </trkpt>
      <trkpt lat="44.3704" lon="3.04269">
        <ele>819.16</ele>
        <time>2016-06-23T13:07:05Z</time>
      </trkpt>
      <trkpt lat="44.37028" lon="3.04276">
        <ele>821.43</ele>
        <time>2016-06-23T13:07:22Z</time>
      </trkpt>
      <trkpt lat="44.3701" lon="3.04282">
        <ele>824.06</ele>
        <time>2016-06-23T13:07:41Z</time>
      </trkpt>
      <trkpt lat="44.36994" lon="3.04296">
        <ele>826.57</ele>
        <time>2016-06-23T13:08:02Z</time>
      </trkpt>
      <trkpt lat="44.36983" lon="3.04304">
        <ele>828.98</ele>
        <time>2016-06-23T13:08:23Z</time>
      </trkpt>
      <trkpt lat="44.36969" lon="3.04311">
        <ele>831.82</ele>
        <time>2016-06-23T13:08:41Z</time>
      </trkpt>
      <trkpt lat="44.36956" lon="3.04317">
        <ele>834.86</ele>
        <time>2016-06-23T13:08:58Z</time>
      </trkpt>
      <trkpt lat="44.36943" lon="3.0432">
        <ele>837.98</ele>
        <time>2016-06-23T13:09:17Z</time>
      </trkpt>
      <trkpt lat="44.3693" lon="3.04326">
        <ele>840.79</ele>
        <time>2016-06-23T13:09:35Z</time>
      </trkpt>
      <trkpt lat="44.3692" lon="3.04332">
        <ele>843.83</ele>
        <time>2016-06-23T13:09:51Z</time>
      </trkpt>
      <trkpt lat="44.36908" lon="3.04336">
        <ele>846.9</ele>
        <time>2016-06-23T13:10:07Z</time>
      </trkpt>
      <trkpt lat="44.36897" lon="3.04339">
        <ele>849.93</ele>
        <time>2016-06-23T13:10:23Z</time>
      </trkpt>
      <trkpt lat="44.36886" lon="3.04343">
        <ele>853.11</ele>
        <time>2016-06-23T13:10:40Z</time>
      </trkpt>
      <trkpt lat="44.36873" lon="3.04351">
        <ele>856.22</ele>
        <time>2016-06-23T13:10:58Z</time>
      </trkpt>
      <trkpt lat="44.36858" lon="3.04356">
        <ele>859.35</ele>
        <time>2016-06-23T13:11:17Z</time>
      </trkpt>
      <trkpt lat="44.36844" lon="3.04359">
        <ele>862.45</ele>
        <time>2016-06-23T13:11:36Z</time>
      </trkpt>
      <trkpt lat="44.3683" lon="3.04359">
        <ele>865.48</ele>
        <time>2016-06-23T13:11:58Z</time>
      </trkpt>
      <trkpt lat="44.36811" lon="3.04363">
        <ele>868.51</ele>
        <time>2016-06-23T13:12:20Z</time>
      </trkpt>
      <trkpt lat="44.368" lon="3.04367">
        <ele>871.24</ele>
        <time>2016-06-23T13:12:39Z</time>
      </trkpt>
      <trkpt lat="44.36787" lon="3.04372">
        <ele>874.31</ele>
        <time>2016-06-23T13:12:57Z</time>
      </trkpt>
      <trkpt lat="44.36773" lon="3.04375">
        <ele>877.07</ele>
        <time>2016-06-23T13:13:14Z</time>
      </trkpt>
      <trkpt lat="44.36768" lon="3.04376">
        <ele>877.71</ele>
        <time>2016-06-23T13:13:20Z</time>
      </trkpt>
      <trkpt lat="44.36763" lon="3.04377">
        <ele>878.51</ele>
        <time>2016-06-23T13:13:24Z</time>
      </trkpt>
      <trkpt lat="44.3675" lon="3.04379">
        <ele>879.97</ele>
        <time>2016-06-23T13:13:36Z</time>
      </trkpt>
      <trkpt lat="44.36735" lon="3.04382">
        <ele>882.84</ele>
        <time>2016-06-23T13:13:51Z</time>
      </trkpt>
      <trkpt lat="44.36731" lon="3.04383">
        <ele>882.67</ele>
        <time>2016-06-23T13:13:55Z</time>
      </trkpt>
      <trkpt lat="44.36718" lon="3.04388">
        <ele>882.06</ele>
        <time>2016-06-23T13:14:07Z</time>
      </trkpt>
      <trkpt lat="44.36701" lon="3.04387">
        <ele>878.96</ele>
        <time>2016-06-23T13:14:21Z</time>
      </trkpt>
      <trkpt lat="44.36683" lon="3.04386">
        <ele>875.9</ele>
        <time>2016-06-23T13:14:36Z</time>
      </trkpt>
      <trkpt lat="44.3668" lon="3.04384">
        <ele>875.49</ele>
        <time>2016-06-23T13:14:39Z</time>
      </trkpt>
      <trkpt lat="44.36661" lon="3.04385">
        <ele>873.06</ele>
        <time>2016-06-23T13:14:54Z</time>
      </trkpt>
      <trkpt lat="44.36652" lon="3.04391">
        <ele>871.65</ele>
        <time>2016-06-23T13:15:02Z</time>
      </trkpt>
      <trkpt lat="44.36634" lon="3.04395">
        <ele>870.36</ele>
        <time>2016-06-23T13:15:16Z</time>
      </trkpt>
      <trkpt lat="44.36623" lon="3.04399">
        <ele>869.36</ele>
        <time>2016-06-23T13:15:30Z</time>
      </trkpt>
      <trkpt lat="44.36622" lon="3.044">
        <ele>867.84</ele>
        <time>2016-06-23T13:15:53Z</time>
      </trkpt>
      <trkpt lat="44.3662" lon="3.044">
        <ele>866.7</ele>
        <time>2016-06-23T13:17:04Z</time>
      </trkpt>
      <trkpt lat="44.36619" lon="3.04399">
        <ele>866.19</ele>
        <time>2016-06-23T13:18:48Z</time>
      </trkpt>
      <trkpt lat="44.3662" lon="3.04397">
        <ele>866.28</ele>
        <time>2016-06-23T13:19:05Z</time>
      </trkpt>
      <trkpt lat="44.3662" lon="3.04396">
        <ele>866.47</ele>
        <time>2016-06-23T13:19:28Z</time>
      </trkpt>
      <trkpt lat="44.3662" lon="3.04397">
        <ele>866.6</ele>
        <time>2016-06-23T13:20:01Z</time>
      </trkpt>
      <trkpt lat="44.36616" lon="3.04398">
        <ele>866.66</ele>
        <time>2016-06-23T13:20:05Z</time>
      </trkpt>
      <trkpt lat="44.366" lon="3.04404">
        <ele>865.9</ele>
        <time>2016-06-23T13:20:21Z</time>
      </trkpt>
      <trkpt lat="44.36579" lon="3.04408">
        <ele>864</ele>
        <time>2016-06-23T13:20:38Z</time>
      </trkpt>
      <trkpt lat="44.36558" lon="3.04418">
        <ele>862.78</ele>
        <time>2016-06-23T13:20:56Z</time>
      </trkpt>
      <trkpt lat="44.36541" lon="3.04428">
        <ele>860.95</ele>
        <time>2016-06-23T13:21:09Z</time>
      </trkpt>
      <trkpt lat="44.36531" lon="3.04434">
        <ele>860.37</ele>
        <time>2016-06-23T13:21:17Z</time>
      </trkpt>
      <trkpt lat="44.36519" lon="3.04442">
        <ele>858.76</ele>
        <time>2016-06-23T13:21:27Z</time>
      </trkpt>
      <trkpt lat="44.36502" lon="3.04451">
        <ele>856.7</ele>
        <time>2016-06-23T13:21:42Z</time>
      </trkpt>
      <trkpt lat="44.36482" lon="3.04455">
        <ele>854.47</ele>
        <time>2016-06-23T13:21:58Z</time>
      </trkpt>
      <trkpt lat="44.36473" lon="3.04456">
        <ele>853.85</ele>
        <time>2016-06-23T13:22:06Z</time>
      </trkpt>
      <trkpt lat="44.36452" lon="3.04458">
        <ele>852.86</ele>
        <time>2016-06-23T13:22:23Z</time>
      </trkpt>
      <trkpt lat="44.36445" lon="3.04459">
        <ele>852.45</ele>
        <time>2016-06-23T13:22:29Z</time>
      </trkpt>
      <trkpt lat="44.36425" lon="3.04461">
        <ele>851.67</ele>
        <time>2016-06-23T13:22:44Z</time>
      </trkpt>
      <trkpt lat="44.36406" lon="3.04463">
        <ele>850.21</ele>
        <time>2016-06-23T13:23:00Z</time>
      </trkpt>
      <trkpt lat="44.3639" lon="3.04464">
        <ele>849.37</ele>
        <time>2016-06-23T13:23:12Z</time>
      </trkpt>
      <trkpt lat="44.3637" lon="3.0447">
        <ele>847.38</ele>
        <time>2016-06-23T13:23:28Z</time>
      </trkpt>
      <trkpt lat="44.36351" lon="3.04476">
        <ele>845.64</ele>
        <time>2016-06-23T13:23:43Z</time>
      </trkpt>
      <trkpt lat="44.3633" lon="3.0449">
        <ele>843.84</ele>
        <time>2016-06-23T13:24:01Z</time>
      </trkpt>
      <trkpt lat="44.36311" lon="3.04511">
        <ele>842.3</ele>
        <time>2016-06-23T13:24:18Z</time>
      </trkpt>
      <trkpt lat="44.36305" lon="3.04517">
        <ele>841.73</ele>
        <time>2016-06-23T13:24:24Z</time>
      </trkpt>
      <trkpt lat="44.36303" lon="3.04521">
        <ele>841.09</ele>
        <time>2016-06-23T13:24:28Z</time>
      </trkpt>
      <trkpt lat="44.36293" lon="3.04529">
        <ele>840.05</ele>
        <time>2016-06-23T13:24:38Z</time>
      </trkpt>
      <trkpt lat="44.36289" lon="3.04535">
        <ele>839.65</ele>
        <time>2016-06-23T13:24:43Z</time>
      </trkpt>
      <trkpt lat="44.36286" lon="3.04541">
        <ele>839.29</ele>
        <time>2016-06-23T13:24:47Z</time>
      </trkpt>
      <trkpt lat="44.36282" lon="3.04548">
        <ele>838.98</ele>
        <time>2016-06-23T13:24:52Z</time>
      </trkpt>
      <trkpt lat="44.36269" lon="3.04563">
        <ele>837.69</ele>
        <time>2016-06-23T13:25:06Z</time>
      </trkpt>
      <trkpt lat="44.36262" lon="3.04572">
        <ele>836.97</ele>
        <time>2016-06-23T13:25:13Z</time>
      </trkpt>
      <trkpt lat="44.36248" lon="3.04588">
        <ele>835.97</ele>
        <time>2016-06-23T13:25:27Z</time>
      </trkpt>
      <trkpt lat="44.36233" lon="3.04605">
        <ele>834.99</ele>
        <time>2016-06-23T13:25:42Z</time>
      </trkpt>
      <trkpt lat="44.36229" lon="3.04611">
        <ele>834.58</ele>
        <time>2016-06-23T13:25:46Z</time>
      </trkpt>
      <trkpt lat="44.36227" lon="3.04614">
        <ele>834.51</ele>
        <time>2016-06-23T13:25:48Z</time>
      </trkpt>
      <trkpt lat="44.3622" lon="3.0462">
        <ele>834.4</ele>
        <time>2016-06-23T13:25:55Z</time>
      </trkpt>
      <trkpt lat="44.36215" lon="3.04626">
        <ele>833.94</ele>
        <time>2016-06-23T13:26:01Z</time>
      </trkpt>
      <trkpt lat="44.36203" lon="3.04644">
        <ele>832.54</ele>
        <time>2016-06-23T13:26:16Z</time>
      </trkpt>
      <trkpt lat="44.36192" lon="3.04659">
        <ele>831.54</ele>
        <time>2016-06-23T13:26:30Z</time>
      </trkpt>
      <trkpt lat="44.3619" lon="3.04661">
        <ele>831.34</ele>
        <time>2016-06-23T13:26:32Z</time>
      </trkpt>
      <trkpt lat="44.3618" lon="3.04676">
        <ele>829.9</ele>
        <time>2016-06-23T13:26:46Z</time>
      </trkpt>
      <trkpt lat="44.36177" lon="3.04683">
        <ele>829.49</ele>
        <time>2016-06-23T13:26:50Z</time>
      </trkpt>
      <trkpt lat="44.36168" lon="3.04707">
        <ele>827.2</ele>
        <time>2016-06-23T13:27:04Z</time>
      </trkpt>
      <trkpt lat="44.36166" lon="3.04731">
        <ele>824.67</ele>
        <time>2016-06-23T13:27:17Z</time>
      </trkpt>
      <trkpt lat="44.36158" lon="3.0475">
        <ele>823.53</ele>
        <time>2016-06-23T13:27:29Z</time>
      </trkpt>
      <trkpt lat="44.36148" lon="3.04773">
        <ele>823.23</ele>
        <time>2016-06-23T13:27:43Z</time>
      </trkpt>
      <trkpt lat="44.36135" lon="3.0479">
        <ele>821.87</ele>
        <time>2016-06-23T13:27:56Z</time>
      </trkpt>
      <trkpt lat="44.36122" lon="3.0481">
        <ele>820.38</ele>
        <time>2016-06-23T13:28:11Z</time>
      </trkpt>
      <trkpt lat="44.36114" lon="3.04819">
        <ele>819.34</ele>
        <time>2016-06-23T13:28:19Z</time>
      </trkpt>
      <trkpt lat="44.36113" lon="3.04821">
        <ele>819.09</ele>
        <time>2016-06-23T13:28:21Z</time>
      </trkpt>
      <trkpt lat="44.36111" lon="3.04823">
        <ele>818.81</ele>
        <time>2016-06-23T13:28:23Z</time>
      </trkpt>
      <trkpt lat="44.36107" lon="3.04826">
        <ele>818.32</ele>
        <time>2016-06-23T13:28:27Z</time>
      </trkpt>
      <trkpt lat="44.36091" lon="3.04841">
        <ele>817.21</ele>
        <time>2016-06-23T13:28:44Z</time>
      </trkpt>
      <trkpt lat="44.36073" lon="3.04857">
        <ele>816.05</ele>
        <time>2016-06-23T13:29:01Z</time>
      </trkpt>
      <trkpt lat="44.3607" lon="3.04862">
        <ele>816</ele>
        <time>2016-06-23T13:29:05Z</time>
      </trkpt>
      <trkpt lat="44.3606" lon="3.04877">
        <ele>816.17</ele>
        <time>2016-06-23T13:29:20Z</time>
      </trkpt>
      <trkpt lat="44.36053" lon="3.04891">
        <ele>815.67</ele>
        <time>2016-06-23T13:29:35Z</time>
      </trkpt>
      <trkpt lat="44.36049" lon="3.04897">
        <ele>815.57</ele>
        <time>2016-06-23T13:29:41Z</time>
      </trkpt>
      <trkpt lat="44.36039" lon="3.04912">
        <ele>815.06</ele>
        <time>2016-06-23T13:29:57Z</time>
      </trkpt>
      <trkpt lat="44.36038" lon="3.04913">
        <ele>814.98</ele>
        <time>2016-06-23T13:29:58Z</time>
      </trkpt>
      <trkpt lat="44.36025" lon="3.0493">
        <ele>814.7</ele>
        <time>2016-06-23T13:30:15Z</time>
      </trkpt>
      <trkpt lat="44.36023" lon="3.04933">
        <ele>814.65</ele>
        <time>2016-06-23T13:30:18Z</time>
      </trkpt>
      <trkpt lat="44.36011" lon="3.04948">
        <ele>814.98</ele>
        <time>2016-06-23T13:30:33Z</time>
      </trkpt>
      <trkpt lat="44.35995" lon="3.04969">
        <ele>814.82</ele>
        <time>2016-06-23T13:30:53Z</time>
      </trkpt>
      <trkpt lat="44.35993" lon="3.04973">
        <ele>814.86</ele>
        <time>2016-06-23T13:30:55Z</time>
      </trkpt>
      <trkpt lat="44.35991" lon="3.04986">
        <ele>815.08</ele>
        <time>2016-06-23T13:31:03Z</time>
      </trkpt>
      <trkpt lat="44.35979" lon="3.05008">
        <ele>815.29</ele>
        <time>2016-06-23T13:31:19Z</time>
      </trkpt>
      <trkpt lat="44.35968" lon="3.0502">
        <ele>815.9</ele>
        <time>2016-06-23T13:31:32Z</time>
      </trkpt>
      <trkpt lat="44.35952" lon="3.05026">
        <ele>817.3</ele>
        <time>2016-06-23T13:31:47Z</time>
      </trkpt>
      <trkpt lat="44.3595" lon="3.05027">
        <ele>817.46</ele>
        <time>2016-06-23T13:31:49Z</time>
      </trkpt>
      <trkpt lat="44.35946" lon="3.0503">
        <ele>817.76</ele>
        <time>2016-06-23T13:31:53Z</time>
      </trkpt>
      <trkpt lat="44.35936" lon="3.05035">
        <ele>818.96</ele>
        <time>2016-06-23T13:32:08Z</time>
      </trkpt>
      <trkpt lat="44.35934" lon="3.05036">
        <ele>819.1</ele>
        <time>2016-06-23T13:32:10Z</time>
      </trkpt>
      <trkpt lat="44.35925" lon="3.05039">
        <ele>819.71</ele>
        <time>2016-06-23T13:32:17Z</time>
      </trkpt>
      <trkpt lat="44.35909" lon="3.05048">
        <ele>821.61</ele>
        <time>2016-06-23T13:32:34Z</time>
      </trkpt>
      <trkpt lat="44.35889" lon="3.05056">
        <ele>822.67</ele>
        <time>2016-06-23T13:32:50Z</time>
      </trkpt>
      <trkpt lat="44.3587" lon="3.05065">
        <ele>823.88</ele>
        <time>2016-06-23T13:33:05Z</time>
      </trkpt>
      <trkpt lat="44.35852" lon="3.05072">
        <ele>824.96</ele>
        <time>2016-06-23T13:33:20Z</time>
      </trkpt>
      <trkpt lat="44.35835" lon="3.05078">
        <ele>826.21</ele>
        <time>2016-06-23T13:33:35Z</time>
      </trkpt>
      <trkpt lat="44.35819" lon="3.05081">
        <ele>827.52</ele>
        <time>2016-06-23T13:33:49Z</time>
      </trkpt>
      <trkpt lat="44.35801" lon="3.05088">
        <ele>828.47</ele>
        <time>2016-06-23T13:34:05Z</time>
      </trkpt>
      <trkpt lat="44.35784" lon="3.05093">
        <ele>828.95</ele>
        <time>2016-06-23T13:34:21Z</time>
      </trkpt>
      <trkpt lat="44.35766" lon="3.051">
        <ele>828.66</ele>
        <time>2016-06-23T13:34:38Z</time>
      </trkpt>
      <trkpt lat="44.35747" lon="3.05106">
        <ele>828.6</ele>
        <time>2016-06-23T13:34:53Z</time>
      </trkpt>
      <trkpt lat="44.35728" lon="3.05116">
        <ele>828.79</ele>
        <time>2016-06-23T13:35:09Z</time>
      </trkpt>
      <trkpt lat="44.35709" lon="3.05125">
        <ele>828.38</ele>
        <time>2016-06-23T13:35:25Z</time>
      </trkpt>
      <trkpt lat="44.35692" lon="3.05135">
        <ele>828.25</ele>
        <time>2016-06-23T13:35:40Z</time>
      </trkpt>
      <trkpt lat="44.35675" lon="3.05146">
        <ele>828.51</ele>
        <time>2016-06-23T13:35:55Z</time>
      </trkpt>
      <trkpt lat="44.35656" lon="3.05162">
        <ele>828.34</ele>
        <time>2016-06-23T13:36:13Z</time>
      </trkpt>
      <trkpt lat="44.35637" lon="3.05174">
        <ele>828.03</ele>
        <time>2016-06-23T13:36:30Z</time>
      </trkpt>
      <trkpt lat="44.35617" lon="3.05186">
        <ele>827.7</ele>
        <time>2016-06-23T13:36:49Z</time>
      </trkpt>
      <trkpt lat="44.356" lon="3.05198">
        <ele>826.84</ele>
        <time>2016-06-23T13:37:05Z</time>
      </trkpt>
      <trkpt lat="44.35583" lon="3.05213">
        <ele>825.1</ele>
        <time>2016-06-23T13:37:21Z</time>
      </trkpt>
      <trkpt lat="44.35564" lon="3.05224">
        <ele>824.38</ele>
        <time>2016-06-23T13:37:38Z</time>
      </trkpt>
      <trkpt lat="44.35547" lon="3.05236">
        <ele>824.96</ele>
        <time>2016-06-23T13:37:53Z</time>
      </trkpt>
      <trkpt lat="44.3553" lon="3.0524">
        <ele>824.35</ele>
        <time>2016-06-23T13:38:07Z</time>
      </trkpt>
      <trkpt lat="44.35515" lon="3.05236">
        <ele>824.92</ele>
        <time>2016-06-23T13:38:21Z</time>
      </trkpt>
      <trkpt lat="44.35499" lon="3.05232">
        <ele>825.5</ele>
        <time>2016-06-23T13:38:38Z</time>
      </trkpt>
      <trkpt lat="44.35486" lon="3.05227">
        <ele>825.85</ele>
        <time>2016-06-23T13:38:52Z</time>
      </trkpt>
      <trkpt lat="44.35483" lon="3.05226">
        <ele>825.95</ele>
        <time>2016-06-23T13:38:55Z</time>
      </trkpt>
      <trkpt lat="44.35467" lon="3.05223">
        <ele>826.34</ele>
        <time>2016-06-23T13:39:10Z</time>
      </trkpt>
      <trkpt lat="44.35448" lon="3.05218">
        <ele>827.16</ele>
        <time>2016-06-23T13:39:26Z</time>
      </trkpt>
      <trkpt lat="44.3543" lon="3.0521">
        <ele>827.91</ele>
        <time>2016-06-23T13:39:42Z</time>
      </trkpt>
      <trkpt lat="44.35413" lon="3.05205">
        <ele>829.15</ele>
        <time>2016-06-23T13:39:58Z</time>
      </trkpt>
      <trkpt lat="44.35394" lon="3.05197">
        <ele>830.4</ele>
        <time>2016-06-23T13:40:17Z</time>
      </trkpt>
      <trkpt lat="44.35378" lon="3.0519">
        <ele>831.45</ele>
        <time>2016-06-23T13:40:32Z</time>
      </trkpt>
      <trkpt lat="44.3536" lon="3.05181">
        <ele>832.38</ele>
        <time>2016-06-23T13:40:50Z</time>
      </trkpt>
      <trkpt lat="44.35343" lon="3.05178">
        <ele>833.45</ele>
        <time>2016-06-23T13:41:06Z</time>
      </trkpt>
      <trkpt lat="44.35339" lon="3.05174">
        <ele>833.93</ele>
        <time>2016-06-23T13:41:12Z</time>
      </trkpt>
      <trkpt lat="44.35336" lon="3.05169">
        <ele>833.95</ele>
        <time>2016-06-23T13:41:16Z</time>
      </trkpt>
      <trkpt lat="44.35317" lon="3.05155">
        <ele>834.49</ele>
        <time>2016-06-23T13:41:32Z</time>
      </trkpt>
      <trkpt lat="44.35307" lon="3.05147">
        <ele>835.09</ele>
        <time>2016-06-23T13:41:41Z</time>
      </trkpt>
      <trkpt lat="44.35301" lon="3.05142">
        <ele>834.64</ele>
        <time>2016-06-23T13:41:46Z</time>
      </trkpt>
      <trkpt lat="44.35284" lon="3.05131">
        <ele>832.82</ele>
        <time>2016-06-23T13:42:01Z</time>
      </trkpt>
      <trkpt lat="44.35283" lon="3.05131">
        <ele>832.62</ele>
        <time>2016-06-23T13:42:02Z</time>
      </trkpt>
      <trkpt lat="44.35264" lon="3.05118">
        <ele>830.01</ele>
        <time>2016-06-23T13:42:18Z</time>
      </trkpt>
      <trkpt lat="44.3524" lon="3.05109">
        <ele>827.28</ele>
        <time>2016-06-23T13:42:36Z</time>
      </trkpt>
      <trkpt lat="44.35221" lon="3.05099">
        <ele>825.15</ele>
        <time>2016-06-23T13:42:51Z</time>
      </trkpt>
      <trkpt lat="44.35197" lon="3.0509">
        <ele>823.06</ele>
        <time>2016-06-23T13:43:10Z</time>
      </trkpt>
      <trkpt lat="44.35172" lon="3.0509">
        <ele>822.21</ele>
        <time>2016-06-23T13:43:26Z</time>
      </trkpt>
      <trkpt lat="44.35149" lon="3.05092">
        <ele>821.51</ele>
        <time>2016-06-23T13:43:43Z</time>
      </trkpt>
      <trkpt lat="44.35127" lon="3.05085">
        <ele>820.27</ele>
        <time>2016-06-23T13:44:00Z</time>
      </trkpt>
      <trkpt lat="44.35098" lon="3.05068">
        <ele>817.05</ele>
        <time>2016-06-23T13:44:16Z</time>
      </trkpt>
      <trkpt lat="44.35074" lon="3.05056">
        <ele>813.79</ele>
        <time>2016-06-23T13:44:32Z</time>
      </trkpt>
      <trkpt lat="44.35054" lon="3.05047">
        <ele>811.75</ele>
        <time>2016-06-23T13:44:48Z</time>
      </trkpt>
      <trkpt lat="44.35035" lon="3.05041">
        <ele>808.95</ele>
        <time>2016-06-23T13:45:03Z</time>
      </trkpt>
      <trkpt lat="44.35017" lon="3.05033">
        <ele>806.78</ele>
        <time>2016-06-23T13:45:17Z</time>
      </trkpt>
      <trkpt lat="44.34993" lon="3.05023">
        <ele>803.92</ele>
        <time>2016-06-23T13:45:33Z</time>
      </trkpt>
      <trkpt lat="44.34974" lon="3.05015">
        <ele>801.25</ele>
        <time>2016-06-23T13:45:49Z</time>
      </trkpt>
      <trkpt lat="44.34949" lon="3.05004">
        <ele>798.11</ele>
        <time>2016-06-23T13:46:06Z</time>
      </trkpt>
      <trkpt lat="44.34927" lon="3.04996">
        <ele>794.96</ele>
        <time>2016-06-23T13:46:21Z</time>
      </trkpt>
      <trkpt lat="44.34907" lon="3.04982">
        <ele>792.39</ele>
        <time>2016-06-23T13:46:36Z</time>
      </trkpt>
      <trkpt lat="44.34892" lon="3.04963">
        <ele>790.09</ele>
        <time>2016-06-23T13:46:52Z</time>
      </trkpt>
      <trkpt lat="44.34875" lon="3.04948">
        <ele>787.66</ele>
        <time>2016-06-23T13:47:08Z</time>
      </trkpt>
      <trkpt lat="44.34856" lon="3.04951">
        <ele>786.09</ele>
        <time>2016-06-23T13:47:23Z</time>
      </trkpt>
      <trkpt lat="44.34847" lon="3.04981">
        <ele>785.19</ele>
        <time>2016-06-23T13:47:41Z</time>
      </trkpt>
      <trkpt lat="44.34839" lon="3.05011">
        <ele>784.14</ele>
        <time>2016-06-23T13:47:58Z</time>
      </trkpt>
      <trkpt lat="44.34834" lon="3.05038">
        <ele>783.74</ele>
        <time>2016-06-23T13:48:14Z</time>
      </trkpt>
      <trkpt lat="44.34829" lon="3.05072">
        <ele>782.44</ele>
        <time>2016-06-23T13:48:33Z</time>
      </trkpt>
      <trkpt lat="44.34827" lon="3.05107">
        <ele>781.1</ele>
        <time>2016-06-23T13:48:52Z</time>
      </trkpt>
      <trkpt lat="44.34828" lon="3.05143">
        <ele>781.1</ele>
        <time>2016-06-23T13:49:11Z</time>
      </trkpt>
      <trkpt lat="44.34832" lon="3.05163">
        <ele>780.03</ele>
        <time>2016-06-23T13:49:27Z</time>
      </trkpt>
      <trkpt lat="44.3483" lon="3.05163">
        <ele>779.13</ele>
        <time>2016-06-23T13:49:35Z</time>
      </trkpt>
      <trkpt lat="44.34825" lon="3.05161">
        <ele>778.84</ele>
        <time>2016-06-23T13:49:39Z</time>
      </trkpt>
      <trkpt lat="44.34807" lon="3.05161">
        <ele>776.6</ele>
        <time>2016-06-23T13:49:52Z</time>
      </trkpt>
      <trkpt lat="44.34788" lon="3.05165">
        <ele>774.56</ele>
        <time>2016-06-23T13:50:07Z</time>
      </trkpt>
      <trkpt lat="44.34766" lon="3.05172">
        <ele>771.31</ele>
        <time>2016-06-23T13:50:22Z</time>
      </trkpt>
      <trkpt lat="44.34748" lon="3.05174">
        <ele>768.28</ele>
        <time>2016-06-23T13:50:35Z</time>
      </trkpt>
      <trkpt lat="44.34726" lon="3.05174">
        <ele>765.35</ele>
        <time>2016-06-23T13:50:52Z</time>
      </trkpt>
      <trkpt lat="44.34709" lon="3.05173">
        <ele>763.56</ele>
        <time>2016-06-23T13:51:06Z</time>
      </trkpt>
      <trkpt lat="44.34691" lon="3.05176">
        <ele>761.72</ele>
        <time>2016-06-23T13:51:19Z</time>
      </trkpt>
      <trkpt lat="44.34668" lon="3.05186">
        <ele>759.16</ele>
        <time>2016-06-23T13:51:37Z</time>
      </trkpt>
      <trkpt lat="44.34644" lon="3.05195">
        <ele>756.7</ele>
        <time>2016-06-23T13:51:56Z</time>
      </trkpt>
      <trkpt lat="44.34626" lon="3.05202">
        <ele>754.47</ele>
        <time>2016-06-23T13:52:10Z</time>
      </trkpt>
      <trkpt lat="44.34604" lon="3.05211">
        <ele>752.41</ele>
        <time>2016-06-23T13:52:28Z</time>
      </trkpt>
      <trkpt lat="44.34584" lon="3.05217">
        <ele>750.45</ele>
        <time>2016-06-23T13:52:43Z</time>
      </trkpt>
      <trkpt lat="44.34564" lon="3.05224">
        <ele>748.93</ele>
        <time>2016-06-23T13:52:59Z</time>
      </trkpt>
      <trkpt lat="44.34545" lon="3.05227">
        <ele>746.77</ele>
        <time>2016-06-23T13:53:13Z</time>
      </trkpt>
      <trkpt lat="44.34522" lon="3.05232">
        <ele>743.62</ele>
        <time>2016-06-23T13:53:30Z</time>
      </trkpt>
      <trkpt lat="44.34499" lon="3.05237">
        <ele>741.49</ele>
        <time>2016-06-23T13:53:48Z</time>
      </trkpt>
      <trkpt lat="44.3448" lon="3.05242">
        <ele>740.32</ele>
        <time>2016-06-23T13:54:04Z</time>
      </trkpt>
      <trkpt lat="44.34478" lon="3.05242">
        <ele>740.23</ele>
        <time>2016-06-23T13:54:05Z</time>
      </trkpt>
      <trkpt lat="44.34474" lon="3.05246">
        <ele>739.37</ele>
        <time>2016-06-23T13:54:19Z</time>
      </trkpt>
      <trkpt lat="44.34471" lon="3.05244">
        <ele>738.4</ele>
        <time>2016-06-23T13:54:37Z</time>
      </trkpt>
      <trkpt lat="44.34471" lon="3.05246">
        <ele>738.49</ele>
        <time>2016-06-23T13:54:52Z</time>
      </trkpt>
      <trkpt lat="44.34471" lon="3.05248">
        <ele>738.5</ele>
        <time>2016-06-23T13:54:54Z</time>
      </trkpt>
      <trkpt lat="44.34468" lon="3.05254">
        <ele>738.58</ele>
        <time>2016-06-23T13:54:58Z</time>
      </trkpt>
      <trkpt lat="44.34452" lon="3.05283">
        <ele>736.92</ele>
        <time>2016-06-23T13:55:18Z</time>
      </trkpt>
      <trkpt lat="44.34439" lon="3.05307">
        <ele>735.73</ele>
        <time>2016-06-23T13:55:36Z</time>
      </trkpt>
      <trkpt lat="44.34424" lon="3.05333">
        <ele>735.28</ele>
        <time>2016-06-23T13:55:53Z</time>
      </trkpt>
      <trkpt lat="44.34409" lon="3.05357">
        <ele>734</ele>
        <time>2016-06-23T13:56:10Z</time>
      </trkpt>
      <trkpt lat="44.34393" lon="3.05379">
        <ele>732.66</ele>
        <time>2016-06-23T13:56:29Z</time>
      </trkpt>
      <trkpt lat="44.34378" lon="3.05395">
        <ele>731.34</ele>
        <time>2016-06-23T13:56:43Z</time>
      </trkpt>
      <trkpt lat="44.34362" lon="3.05414">
        <ele>729.62</ele>
        <time>2016-06-23T13:57:00Z</time>
      </trkpt>
      <trkpt lat="44.34346" lon="3.0543">
        <ele>727.71</ele>
        <time>2016-06-23T13:57:15Z</time>
      </trkpt>
      <trkpt lat="44.34325" lon="3.05441">
        <ele>726.28</ele>
        <time>2016-06-23T13:57:33Z</time>
      </trkpt>
      <trkpt lat="44.34324" lon="3.05441">
        <ele>726.16</ele>
        <time>2016-06-23T13:57:34Z</time>
      </trkpt>
      <trkpt lat="44.34318" lon="3.05432">
        <ele>725.87</ele>
        <time>2016-06-23T13:57:41Z</time>
      </trkpt>
      <trkpt lat="44.34315" lon="3.05427">
        <ele>725.81</ele>
        <time>2016-06-23T13:57:45Z</time>
      </trkpt>
      <trkpt lat="44.34298" lon="3.05421">
        <ele>725.48</ele>
        <time>2016-06-23T13:58:00Z</time>
      </trkpt>
      <trkpt lat="44.34275" lon="3.05434">
        <ele>724.22</ele>
        <time>2016-06-23T13:58:20Z</time>
      </trkpt>
      <trkpt lat="44.34254" lon="3.05445">
        <ele>723.8</ele>
        <time>2016-06-23T13:58:37Z</time>
      </trkpt>
      <trkpt lat="44.34233" lon="3.05452">
        <ele>723.18</ele>
        <time>2016-06-23T13:58:53Z</time>
      </trkpt>
      <trkpt lat="44.34214" lon="3.05458">
        <ele>722.78</ele>
        <time>2016-06-23T13:59:08Z</time>
      </trkpt>
      <trkpt lat="44.34195" lon="3.05462">
        <ele>722.69</ele>
        <time>2016-06-23T13:59:24Z</time>
      </trkpt>
      <trkpt lat="44.34174" lon="3.05465">
        <ele>722.66</ele>
        <time>2016-06-23T13:59:41Z</time>
      </trkpt>
      <trkpt lat="44.34156" lon="3.05466">
        <ele>722.37</ele>
        <time>2016-06-23T13:59:57Z</time>
      </trkpt>
      <trkpt lat="44.3413" lon="3.05464">
        <ele>721.85</ele>
        <time>2016-06-23T14:00:17Z</time>
      </trkpt>
      <trkpt lat="44.34114" lon="3.05457">
        <ele>721.17</ele>
        <time>2016-06-23T14:00:31Z</time>
      </trkpt>
      <trkpt lat="44.34094" lon="3.05441">
        <ele>720.38</ele>
        <time>2016-06-23T14:00:49Z</time>
      </trkpt>
      <trkpt lat="44.34076" lon="3.05427">
        <ele>719.3</ele>
        <time>2016-06-23T14:01:05Z</time>
      </trkpt>
      <trkpt lat="44.3406" lon="3.05419">
        <ele>718.3</ele>
        <time>2016-06-23T14:01:20Z</time>
      </trkpt>
      <trkpt lat="44.34044" lon="3.05412">
        <ele>717.64</ele>
        <time>2016-06-23T14:01:34Z</time>
      </trkpt>
      <trkpt lat="44.34027" lon="3.05401">
        <ele>717.26</ele>
        <time>2016-06-23T14:01:49Z</time>
      </trkpt>
      <trkpt lat="44.3401" lon="3.05391">
        <ele>716.28</ele>
        <time>2016-06-23T14:02:04Z</time>
      </trkpt>
      <trkpt lat="44.33992" lon="3.05383">
        <ele>714.78</ele>
        <time>2016-06-23T14:02:20Z</time>
      </trkpt>
      <trkpt lat="44.33971" lon="3.05371">
        <ele>713.09</ele>
        <time>2016-06-23T14:02:38Z</time>
      </trkpt>
      <trkpt lat="44.33954" lon="3.05353">
        <ele>711.91</ele>
        <time>2016-06-23T14:02:56Z</time>
      </trkpt>
      <trkpt lat="44.33941" lon="3.05332">
        <ele>710.46</ele>
        <time>2016-06-23T14:03:13Z</time>
      </trkpt>
      <trkpt lat="44.33929" lon="3.05313">
        <ele>710.61</ele>
        <time>2016-06-23T14:03:28Z</time>
      </trkpt>
      <trkpt lat="44.33916" lon="3.05294">
        <ele>710.35</ele>
        <time>2016-06-23T14:03:43Z</time>
      </trkpt>
      <trkpt lat="44.33906" lon="3.05281">
        <ele>710.5</ele>
        <time>2016-06-23T14:03:55Z</time>
      </trkpt>
      <trkpt lat="44.33889" lon="3.05256">
        <ele>711.23</ele>
        <time>2016-06-23T14:04:14Z</time>
      </trkpt>
      <trkpt lat="44.33881" lon="3.05245">
        <ele>711.48</ele>
        <time>2016-06-23T14:04:24Z</time>
      </trkpt>
      <trkpt lat="44.33864" lon="3.05221">
        <ele>711.96</ele>
        <time>2016-06-23T14:04:44Z</time>
      </trkpt>
      <trkpt lat="44.33859" lon="3.05213">
        <ele>712</ele>
        <time>2016-06-23T14:04:50Z</time>
      </trkpt>
      <trkpt lat="44.33847" lon="3.05196">
        <ele>712.09</ele>
        <time>2016-06-23T14:05:05Z</time>
      </trkpt>
      <trkpt lat="44.33826" lon="3.05187">
        <ele>711</ele>
        <time>2016-06-23T14:05:23Z</time>
      </trkpt>
      <trkpt lat="44.33807" lon="3.05178">
        <ele>709.98</ele>
        <time>2016-06-23T14:05:39Z</time>
      </trkpt>
      <trkpt lat="44.33785" lon="3.05165">
        <ele>709.01</ele>
        <time>2016-06-23T14:05:58Z</time>
      </trkpt>
      <trkpt lat="44.33765" lon="3.05156">
        <ele>707.77</ele>
        <time>2016-06-23T14:06:15Z</time>
      </trkpt>
      <trkpt lat="44.33746" lon="3.05145">
        <ele>706.63</ele>
        <time>2016-06-23T14:06:31Z</time>
      </trkpt>
      <trkpt lat="44.33728" lon="3.05135">
        <ele>705.7</ele>
        <time>2016-06-23T14:06:46Z</time>
      </trkpt>
      <trkpt lat="44.33708" lon="3.05125">
        <ele>704.69</ele>
        <time>2016-06-23T14:07:03Z</time>
      </trkpt>
      <trkpt lat="44.33696" lon="3.05121">
        <ele>704.18</ele>
        <time>2016-06-23T14:07:13Z</time>
      </trkpt>
      <trkpt lat="44.33678" lon="3.05112">
        <ele>703.47</ele>
        <time>2016-06-23T14:07:28Z</time>
      </trkpt>
      <trkpt lat="44.33677" lon="3.05112">
        <ele>703.38</ele>
        <time>2016-06-23T14:07:29Z</time>
      </trkpt>
      <trkpt lat="44.33669" lon="3.05108">
        <ele>702.65</ele>
        <time>2016-06-23T14:07:36Z</time>
      </trkpt>
      <trkpt lat="44.33646" lon="3.05099">
        <ele>701.39</ele>
        <time>2016-06-23T14:07:54Z</time>
      </trkpt>
      <trkpt lat="44.33627" lon="3.05089">
        <ele>700.52</ele>
        <time>2016-06-23T14:08:10Z</time>
      </trkpt>
      <trkpt lat="44.33609" lon="3.05082">
        <ele>699.81</ele>
        <time>2016-06-23T14:08:25Z</time>
      </trkpt>
      <trkpt lat="44.3359" lon="3.05075">
        <ele>699.47</ele>
        <time>2016-06-23T14:08:40Z</time>
      </trkpt>
      <trkpt lat="44.33575" lon="3.05069">
        <ele>698.97</ele>
        <time>2016-06-23T14:08:54Z</time>
      </trkpt>
      <trkpt lat="44.33555" lon="3.05065">
        <ele>698.7</ele>
        <time>2016-06-23T14:09:10Z</time>
      </trkpt>
      <trkpt lat="44.33538" lon="3.05059">
        <ele>698.45</ele>
        <time>2016-06-23T14:09:25Z</time>
      </trkpt>
      <trkpt lat="44.33523" lon="3.05054">
        <ele>697.75</ele>
        <time>2016-06-23T14:09:37Z</time>
      </trkpt>
      <trkpt lat="44.33503" lon="3.05054">
        <ele>697.31</ele>
        <time>2016-06-23T14:09:53Z</time>
      </trkpt>
      <trkpt lat="44.33482" lon="3.05057">
        <ele>697.99</ele>
        <time>2016-06-23T14:10:08Z</time>
      </trkpt>
      <trkpt lat="44.33455" lon="3.05062">
        <ele>696.77</ele>
        <time>2016-06-23T14:10:29Z</time>
      </trkpt>
      <trkpt lat="44.33433" lon="3.0507">
        <ele>695.69</ele>
        <time>2016-06-23T14:10:47Z</time>
      </trkpt>
      <trkpt lat="44.33411" lon="3.05086">
        <ele>694.91</ele>
        <time>2016-06-23T14:11:06Z</time>
      </trkpt>
      <trkpt lat="44.33387" lon="3.05107">
        <ele>693.42</ele>
        <time>2016-06-23T14:11:27Z</time>
      </trkpt>
      <trkpt lat="44.33365" lon="3.05124">
        <ele>692.75</ele>
        <time>2016-06-23T14:11:47Z</time>
      </trkpt>
      <trkpt lat="44.33342" lon="3.05141">
        <ele>691.65</ele>
        <time>2016-06-23T14:12:06Z</time>
      </trkpt>
      <trkpt lat="44.33319" lon="3.05158">
        <ele>691.28</ele>
        <time>2016-06-23T14:12:26Z</time>
      </trkpt>
      <trkpt lat="44.33298" lon="3.05171">
        <ele>690.45</ele>
        <time>2016-06-23T14:12:44Z</time>
      </trkpt>
      <trkpt lat="44.33278" lon="3.05183">
        <ele>689.45</ele>
        <time>2016-06-23T14:13:02Z</time>
      </trkpt>
      <trkpt lat="44.3326" lon="3.05195">
        <ele>688.58</ele>
        <time>2016-06-23T14:13:18Z</time>
      </trkpt>
      <trkpt lat="44.33242" lon="3.05209">
        <ele>687.56</ele>
        <time>2016-06-23T14:13:34Z</time>
      </trkpt>
      <trkpt lat="44.33223" lon="3.05223">
        <ele>687.13</ele>
        <time>2016-06-23T14:13:51Z</time>
      </trkpt>
      <trkpt lat="44.33206" lon="3.05237">
        <ele>687.16</ele>
        <time>2016-06-23T14:14:06Z</time>
      </trkpt>
      <trkpt lat="44.33188" lon="3.05255">
        <ele>687.58</ele>
        <time>2016-06-23T14:14:23Z</time>
      </trkpt>
      <trkpt lat="44.33187" lon="3.05258">
        <ele>687.59</ele>
        <time>2016-06-23T14:14:25Z</time>
      </trkpt>
      <trkpt lat="44.33177" lon="3.05282">
        <ele>687.69</ele>
        <time>2016-06-23T14:14:41Z</time>
      </trkpt>
      <trkpt lat="44.33159" lon="3.05303">
        <ele>687.71</ele>
        <time>2016-06-23T14:14:58Z</time>
      </trkpt>
      <trkpt lat="44.3314" lon="3.05321">
        <ele>686.4</ele>
        <time>2016-06-23T14:15:14Z</time>
      </trkpt>
      <trkpt lat="44.33123" lon="3.05339">
        <ele>684.58</ele>
        <time>2016-06-23T14:15:31Z</time>
      </trkpt>
      <trkpt lat="44.33102" lon="3.05356">
        <ele>683.12</ele>
        <time>2016-06-23T14:15:50Z</time>
      </trkpt>
      <trkpt lat="44.33085" lon="3.05365">
        <ele>682.11</ele>
        <time>2016-06-23T14:16:05Z</time>
      </trkpt>
      <trkpt lat="44.33068" lon="3.05372">
        <ele>681.22</ele>
        <time>2016-06-23T14:16:20Z</time>
      </trkpt>
      <trkpt lat="44.33046" lon="3.05384">
        <ele>679.89</ele>
        <time>2016-06-23T14:16:38Z</time>
      </trkpt>
      <trkpt lat="44.33027" lon="3.05393">
        <ele>679.11</ele>
        <time>2016-06-23T14:16:53Z</time>
      </trkpt>
      <trkpt lat="44.33011" lon="3.05401">
        <ele>677.63</ele>
        <time>2016-06-23T14:17:06Z</time>
      </trkpt>
      <trkpt lat="44.32992" lon="3.05408">
        <ele>676.28</ele>
        <time>2016-06-23T14:17:22Z</time>
      </trkpt>
      <trkpt lat="44.32969" lon="3.05419">
        <ele>675.5</ele>
        <time>2016-06-23T14:17:39Z</time>
      </trkpt>
      <trkpt lat="44.32948" lon="3.0543">
        <ele>674.17</ele>
        <time>2016-06-23T14:17:56Z</time>
      </trkpt>
      <trkpt lat="44.32929" lon="3.05442">
        <ele>672.61</ele>
        <time>2016-06-23T14:18:12Z</time>
      </trkpt>
      <trkpt lat="44.32909" lon="3.05447">
        <ele>671.53</ele>
        <time>2016-06-23T14:18:28Z</time>
      </trkpt>
      <trkpt lat="44.32891" lon="3.05464">
        <ele>672.35</ele>
        <time>2016-06-23T14:18:45Z</time>
      </trkpt>
      <trkpt lat="44.32873" lon="3.05481">
        <ele>672.71</ele>
        <time>2016-06-23T14:19:02Z</time>
      </trkpt>
      <trkpt lat="44.32857" lon="3.05501">
        <ele>673.63</ele>
        <time>2016-06-23T14:19:19Z</time>
      </trkpt>
      <trkpt lat="44.32842" lon="3.05525">
        <ele>674.08</ele>
        <time>2016-06-23T14:19:36Z</time>
      </trkpt>
      <trkpt lat="44.32838" lon="3.05547">
        <ele>673.93</ele>
        <time>2016-06-23T14:19:49Z</time>
      </trkpt>
      <trkpt lat="44.32837" lon="3.05553">
        <ele>674.09</ele>
        <time>2016-06-23T14:19:53Z</time>
      </trkpt>
      <trkpt lat="44.32827" lon="3.05572">
        <ele>674.27</ele>
        <time>2016-06-23T14:20:09Z</time>
      </trkpt>
      <trkpt lat="44.32818" lon="3.05583">
        <ele>674.57</ele>
        <time>2016-06-23T14:20:18Z</time>
      </trkpt>
      <trkpt lat="44.32797" lon="3.05591">
        <ele>674.93</ele>
        <time>2016-06-23T14:20:36Z</time>
      </trkpt>
      <trkpt lat="44.32775" lon="3.05595">
        <ele>676.03</ele>
        <time>2016-06-23T14:20:54Z</time>
      </trkpt>
      <trkpt lat="44.32757" lon="3.05597">
        <ele>676.26</ele>
        <time>2016-06-23T14:21:10Z</time>
      </trkpt>
      <trkpt lat="44.32734" lon="3.05605">
        <ele>676.23</ele>
        <time>2016-06-23T14:21:28Z</time>
      </trkpt>
      <trkpt lat="44.32711" lon="3.05608">
        <ele>675.62</ele>
        <time>2016-06-23T14:21:45Z</time>
      </trkpt>
      <trkpt lat="44.32693" lon="3.05613">
        <ele>675.83</ele>
        <time>2016-06-23T14:21:57Z</time>
      </trkpt>
      <trkpt lat="44.32674" lon="3.05621">
        <ele>676.03</ele>
        <time>2016-06-23T14:22:11Z</time>
      </trkpt>
      <trkpt lat="44.32673" lon="3.05623">
        <ele>676.03</ele>
        <time>2016-06-23T14:22:13Z</time>
      </trkpt>
      <trkpt lat="44.32656" lon="3.05631">
        <ele>675.8</ele>
        <time>2016-06-23T14:22:26Z</time>
      </trkpt>
      <trkpt lat="44.32639" lon="3.0564">
        <ele>676.02</ele>
        <time>2016-06-23T14:22:40Z</time>
      </trkpt>
      <trkpt lat="44.32618" lon="3.05657">
        <ele>675.99</ele>
        <time>2016-06-23T14:23:00Z</time>
      </trkpt>
      <trkpt lat="44.32602" lon="3.05677">
        <ele>676.01</ele>
        <time>2016-06-23T14:23:16Z</time>
      </trkpt>
      <trkpt lat="44.32587" lon="3.05692">
        <ele>675.65</ele>
        <time>2016-06-23T14:23:32Z</time>
      </trkpt>
      <trkpt lat="44.32584" lon="3.05693">
        <ele>675.58</ele>
        <time>2016-06-23T14:23:34Z</time>
      </trkpt>
      <trkpt lat="44.32571" lon="3.0571">
        <ele>675.73</ele>
        <time>2016-06-23T14:23:47Z</time>
      </trkpt>
      <trkpt lat="44.32552" lon="3.05727">
        <ele>676.41</ele>
        <time>2016-06-23T14:24:03Z</time>
      </trkpt>
      <trkpt lat="44.32536" lon="3.05737">
        <ele>675.96</ele>
        <time>2016-06-23T14:24:17Z</time>
      </trkpt>
      <trkpt lat="44.32524" lon="3.05739">
        <ele>675.84</ele>
        <time>2016-06-23T14:24:31Z</time>
      </trkpt>
      <trkpt lat="44.32526" lon="3.05737">
        <ele>676.21</ele>
        <time>2016-06-23T14:24:56Z</time>
      </trkpt>
      <trkpt lat="44.32527" lon="3.05738">
        <ele>676.15</ele>
        <time>2016-06-23T14:25:24Z</time>
      </trkpt>
      <trkpt lat="44.32524" lon="3.05742">
        <ele>727.6</ele>
        <time>2016-06-23T14:25:39Z</time>
      </trkpt>
    </trkseg>
  </trk>
</gpx>